<?xml version="1.0" encoding="UTF-8" standalone="no" ?>
<gpx xmlns="http://www.topografix.com/GPX/1/1" version="1.1" creator="Navime Gps Tracker">
<metadata>
<name>Navime Gps Tracker</name>
<time>2014-08-20T19:47:52Z</time>
</metadata>
<trk>
<trkseg>
<trkpt lat="49.303457" lon="19.96245448">
<ele>828</ele>
<time>2014-08-20T11:21:00Z</time>
</trkpt>
<trkpt lat="49.30339334" lon="19.96240554">
<ele>833</ele>
<time>2014-08-20T11:21:06Z</time>
</trkpt>
<trkpt lat="49.30336229" lon="19.9623362">
<ele>836</ele>
<time>2014-08-20T11:21:12Z</time>
</trkpt>
<trkpt lat="49.30332757" lon="19.962242">
<ele>838</ele>
<time>2014-08-20T11:21:18Z</time>
</trkpt>
<trkpt lat="49.3033047" lon="19.96214803">
<ele>839</ele>
<time>2014-08-20T11:21:24Z</time>
</trkpt>
<trkpt lat="49.3032703" lon="19.96207634">
<ele>838</ele>
<time>2014-08-20T11:21:30Z</time>
</trkpt>
<trkpt lat="49.3032703" lon="19.96207634">
<ele>838</ele>
<time>2014-08-20T11:21:36Z</time>
</trkpt>
<trkpt lat="49.30317963" lon="19.96195399">
<ele>839</ele>
<time>2014-08-20T11:21:42Z</time>
</trkpt>
<trkpt lat="49.30317963" lon="19.96195399">
<ele>839</ele>
<time>2014-08-20T11:21:48Z</time>
</trkpt>
<trkpt lat="49.30316212" lon="19.96194775">
<ele>842</ele>
<time>2014-08-20T11:21:54Z</time>
</trkpt>
<trkpt lat="49.3031362" lon="19.96179604">
<ele>838</ele>
<time>2014-08-20T11:22:00Z</time>
</trkpt>
<trkpt lat="49.30308811" lon="19.96167579">
<ele>838</ele>
<time>2014-08-20T11:22:06Z</time>
</trkpt>
<trkpt lat="49.30304554" lon="19.96156807">
<ele>836</ele>
<time>2014-08-20T11:22:12Z</time>
</trkpt>
<trkpt lat="49.3030159" lon="19.96146367">
<ele>836</ele>
<time>2014-08-20T11:22:18Z</time>
</trkpt>
<trkpt lat="49.30296539" lon="19.96137075">
<ele>835</ele>
<time>2014-08-20T11:22:24Z</time>
</trkpt>
<trkpt lat="49.30292356" lon="19.96128594">
<ele>837</ele>
<time>2014-08-20T11:22:30Z</time>
</trkpt>
<trkpt lat="49.30292356" lon="19.96128594">
<ele>837</ele>
<time>2014-08-20T11:22:36Z</time>
</trkpt>
<trkpt lat="49.30285917" lon="19.96110086">
<ele>839</ele>
<time>2014-08-20T11:22:42Z</time>
</trkpt>
<trkpt lat="49.3028395" lon="19.96100058">
<ele>836</ele>
<time>2014-08-20T11:22:48Z</time>
</trkpt>
<trkpt lat="49.30281853" lon="19.96091335">
<ele>839</ele>
<time>2014-08-20T11:22:54Z</time>
</trkpt>
<trkpt lat="49.30277334" lon="19.9607916">
<ele>840</ele>
<time>2014-08-20T11:23:02Z</time>
</trkpt>
<trkpt lat="49.30275646" lon="19.96070243">
<ele>838</ele>
<time>2014-08-20T11:23:08Z</time>
</trkpt>
<trkpt lat="49.30275646" lon="19.96070243">
<ele>838</ele>
<time>2014-08-20T11:23:14Z</time>
</trkpt>
<trkpt lat="49.30266509" lon="19.96066667">
<ele>844</ele>
<time>2014-08-20T11:23:20Z</time>
</trkpt>
<trkpt lat="49.30262631" lon="19.96061898">
<ele>842</ele>
<time>2014-08-20T11:23:26Z</time>
</trkpt>
<trkpt lat="49.30262631" lon="19.96061898">
<ele>842</ele>
<time>2014-08-20T11:23:32Z</time>
</trkpt>
<trkpt lat="49.30258659" lon="19.96052135">
<ele>841</ele>
<time>2014-08-20T11:23:38Z</time>
</trkpt>
<trkpt lat="49.30251363" lon="19.96048546">
<ele>845</ele>
<time>2014-08-20T11:23:44Z</time>
</trkpt>
<trkpt lat="49.30244888" lon="19.96050128">
<ele>846</ele>
<time>2014-08-20T11:23:50Z</time>
</trkpt>
<trkpt lat="49.30239656" lon="19.96051991">
<ele>848</ele>
<time>2014-08-20T11:23:56Z</time>
</trkpt>
<trkpt lat="49.30233104" lon="19.96052602">
<ele>848</ele>
<time>2014-08-20T11:24:02Z</time>
</trkpt>
<trkpt lat="49.3022767" lon="19.96054195">
<ele>851</ele>
<time>2014-08-20T11:24:08Z</time>
</trkpt>
<trkpt lat="49.30219882" lon="19.96056762">
<ele>851</ele>
<time>2014-08-20T11:24:14Z</time>
</trkpt>
<trkpt lat="49.30213213" lon="19.96060245">
<ele>852</ele>
<time>2014-08-20T11:24:20Z</time>
</trkpt>
<trkpt lat="49.30207691" lon="19.96062262">
<ele>853</ele>
<time>2014-08-20T11:24:26Z</time>
</trkpt>
<trkpt lat="49.30203348" lon="19.96066192">
<ele>855</ele>
<time>2014-08-20T11:24:32Z</time>
</trkpt>
<trkpt lat="49.30197792" lon="19.96070724">
<ele>857</ele>
<time>2014-08-20T11:24:38Z</time>
</trkpt>
<trkpt lat="49.3018988" lon="19.96073925">
<ele>858</ele>
<time>2014-08-20T11:24:44Z</time>
</trkpt>
<trkpt lat="49.30182779" lon="19.96077244">
<ele>857</ele>
<time>2014-08-20T11:24:50Z</time>
</trkpt>
<trkpt lat="49.3017407" lon="19.96080276">
<ele>858</ele>
<time>2014-08-20T11:24:56Z</time>
</trkpt>
<trkpt lat="49.30164928" lon="19.96083718">
<ele>859</ele>
<time>2014-08-20T11:25:02Z</time>
</trkpt>
<trkpt lat="49.30159219" lon="19.96089716">
<ele>863</ele>
<time>2014-08-20T11:25:08Z</time>
</trkpt>
<trkpt lat="49.30159219" lon="19.96089716">
<ele>863</ele>
<time>2014-08-20T11:25:14Z</time>
</trkpt>
<trkpt lat="49.30149345" lon="19.960978">
<ele>862</ele>
<time>2014-08-20T11:25:20Z</time>
</trkpt>
<trkpt lat="49.30135469" lon="19.96103417">
<ele>858</ele>
<time>2014-08-20T11:25:26Z</time>
</trkpt>
<trkpt lat="49.30129172" lon="19.96106198">
<ele>861</ele>
<time>2014-08-20T11:25:32Z</time>
</trkpt>
<trkpt lat="49.3012142" lon="19.96109155">
<ele>861</ele>
<time>2014-08-20T11:25:38Z</time>
</trkpt>
<trkpt lat="49.30113087" lon="19.96110037">
<ele>860</ele>
<time>2014-08-20T11:25:44Z</time>
</trkpt>
<trkpt lat="49.30113087" lon="19.96110037">
<ele>860</ele>
<time>2014-08-20T11:25:50Z</time>
</trkpt>
<trkpt lat="49.30099526" lon="19.9610931">
<ele>864</ele>
<time>2014-08-20T11:25:56Z</time>
</trkpt>
<trkpt lat="49.30095033" lon="19.96111016">
<ele>864</ele>
<time>2014-08-20T11:26:02Z</time>
</trkpt>
<trkpt lat="49.30087057" lon="19.9612066">
<ele>869</ele>
<time>2014-08-20T11:26:08Z</time>
</trkpt>
<trkpt lat="49.30078522" lon="19.96124654">
<ele>866</ele>
<time>2014-08-20T11:26:14Z</time>
</trkpt>
<trkpt lat="49.30078522" lon="19.96124654">
<ele>866</ele>
<time>2014-08-20T11:26:20Z</time>
</trkpt>
<trkpt lat="49.30065661" lon="19.96137689">
<ele>868</ele>
<time>2014-08-20T11:26:26Z</time>
</trkpt>
<trkpt lat="49.30059913" lon="19.96139633">
<ele>871</ele>
<time>2014-08-20T11:26:32Z</time>
</trkpt>
<trkpt lat="49.30050817" lon="19.96144072">
<ele>870</ele>
<time>2014-08-20T11:26:38Z</time>
</trkpt>
<trkpt lat="49.30041178" lon="19.96146521">
<ele>870</ele>
<time>2014-08-20T11:26:44Z</time>
</trkpt>
<trkpt lat="49.30034901" lon="19.96146218">
<ele>870</ele>
<time>2014-08-20T11:26:50Z</time>
</trkpt>
<trkpt lat="49.30020816" lon="19.96143186">
<ele>868</ele>
<time>2014-08-20T11:26:56Z</time>
</trkpt>
<trkpt lat="49.30012854" lon="19.96141343">
<ele>870</ele>
<time>2014-08-20T11:27:02Z</time>
</trkpt>
<trkpt lat="49.30012854" lon="19.96141343">
<ele>870</ele>
<time>2014-08-20T11:27:08Z</time>
</trkpt>
<trkpt lat="49.30008618" lon="19.96139351">
<ele>871</ele>
<time>2014-08-20T11:27:14Z</time>
</trkpt>
<trkpt lat="49.2999623" lon="19.96124523">
<ele>869</ele>
<time>2014-08-20T11:27:20Z</time>
</trkpt>
<trkpt lat="49.29989874" lon="19.96122537">
<ele>867</ele>
<time>2014-08-20T11:27:26Z</time>
</trkpt>
<trkpt lat="49.2998323" lon="19.96126462">
<ele>867</ele>
<time>2014-08-20T11:27:32Z</time>
</trkpt>
<trkpt lat="49.2997613" lon="19.9613122">
<ele>868</ele>
<time>2014-08-20T11:27:38Z</time>
</trkpt>
<trkpt lat="49.2996998" lon="19.9613453">
<ele>870</ele>
<time>2014-08-20T11:27:44Z</time>
</trkpt>
<trkpt lat="49.2996998" lon="19.9613453">
<ele>870</ele>
<time>2014-08-20T11:27:50Z</time>
</trkpt>
<trkpt lat="49.29963028" lon="19.96132153">
<ele>864</ele>
<time>2014-08-20T11:27:56Z</time>
</trkpt>
<trkpt lat="49.29963028" lon="19.96132153">
<ele>864</ele>
<time>2014-08-20T11:28:02Z</time>
</trkpt>
<trkpt lat="49.29959587" lon="19.96129782">
<ele>865</ele>
<time>2014-08-20T11:28:08Z</time>
</trkpt>
<trkpt lat="49.29958499" lon="19.96129529">
<ele>865</ele>
<time>2014-08-20T11:28:14Z</time>
</trkpt>
<trkpt lat="49.29958231" lon="19.96128859">
<ele>865</ele>
<time>2014-08-20T11:28:20Z</time>
</trkpt>
<trkpt lat="49.29957873" lon="19.9612876">
<ele>865</ele>
<time>2014-08-20T11:28:26Z</time>
</trkpt>
<trkpt lat="49.29956796" lon="19.96129432">
<ele>866</ele>
<time>2014-08-20T11:28:32Z</time>
</trkpt>
<trkpt lat="49.29956353" lon="19.96130159">
<ele>868</ele>
<time>2014-08-20T11:28:38Z</time>
</trkpt>
<trkpt lat="49.29956163" lon="19.96130174">
<ele>867</ele>
<time>2014-08-20T11:28:44Z</time>
</trkpt>
<trkpt lat="49.29956126" lon="19.9613015">
<ele>867</ele>
<time>2014-08-20T11:28:50Z</time>
</trkpt>
<trkpt lat="49.29955694" lon="19.96129418">
<ele>867</ele>
<time>2014-08-20T11:28:56Z</time>
</trkpt>
<trkpt lat="49.29953834" lon="19.9612658">
<ele>867</ele>
<time>2014-08-20T11:29:02Z</time>
</trkpt>
<trkpt lat="49.29952935" lon="19.96125167">
<ele>867</ele>
<time>2014-08-20T11:29:08Z</time>
</trkpt>
<trkpt lat="49.29952899" lon="19.96125121">
<ele>867</ele>
<time>2014-08-20T11:29:14Z</time>
</trkpt>
<trkpt lat="49.29952882" lon="19.96125109">
<ele>867</ele>
<time>2014-08-20T11:29:20Z</time>
</trkpt>
<trkpt lat="49.29952877" lon="19.961251">
<ele>867</ele>
<time>2014-08-20T11:29:26Z</time>
</trkpt>
<trkpt lat="49.29952868" lon="19.96125104">
<ele>867</ele>
<time>2014-08-20T11:29:32Z</time>
</trkpt>
<trkpt lat="49.29952716" lon="19.96123522">
<ele>868</ele>
<time>2014-08-20T11:29:38Z</time>
</trkpt>
<trkpt lat="49.29952986" lon="19.96124065">
<ele>868</ele>
<time>2014-08-20T11:29:44Z</time>
</trkpt>
<trkpt lat="49.29952725" lon="19.9612479">
<ele>869</ele>
<time>2014-08-20T11:29:50Z</time>
</trkpt>
<trkpt lat="49.29953998" lon="19.96121866">
<ele>871</ele>
<time>2014-08-20T11:29:56Z</time>
</trkpt>
<trkpt lat="49.29954059" lon="19.96119601">
<ele>868</ele>
<time>2014-08-20T11:30:02Z</time>
</trkpt>
<trkpt lat="49.29954715" lon="19.96118815">
<ele>868</ele>
<time>2014-08-20T11:30:08Z</time>
</trkpt>
<trkpt lat="49.29955012" lon="19.96118738">
<ele>868</ele>
<time>2014-08-20T11:30:14Z</time>
</trkpt>
<trkpt lat="49.29955078" lon="19.96118725">
<ele>868</ele>
<time>2014-08-20T11:30:20Z</time>
</trkpt>
<trkpt lat="49.29955083" lon="19.96118722">
<ele>868</ele>
<time>2014-08-20T11:30:26Z</time>
</trkpt>
<trkpt lat="49.29955115" lon="19.96118731">
<ele>868</ele>
<time>2014-08-20T11:30:32Z</time>
</trkpt>
<trkpt lat="49.29955133" lon="19.96118738">
<ele>868</ele>
<time>2014-08-20T11:30:38Z</time>
</trkpt>
<trkpt lat="49.2995514" lon="19.96118741">
<ele>868</ele>
<time>2014-08-20T11:30:44Z</time>
</trkpt>
<trkpt lat="49.29955155" lon="19.96118751">
<ele>868</ele>
<time>2014-08-20T11:30:50Z</time>
</trkpt>
<trkpt lat="49.2995518" lon="19.96118753">
<ele>868</ele>
<time>2014-08-20T11:30:56Z</time>
</trkpt>
<trkpt lat="49.29955196" lon="19.96118755">
<ele>868</ele>
<time>2014-08-20T11:31:02Z</time>
</trkpt>
<trkpt lat="49.29955219" lon="19.96118763">
<ele>868</ele>
<time>2014-08-20T11:31:08Z</time>
</trkpt>
<trkpt lat="49.29955236" lon="19.96118762">
<ele>868</ele>
<time>2014-08-20T11:31:14Z</time>
</trkpt>
<trkpt lat="49.29955262" lon="19.96118762">
<ele>868</ele>
<time>2014-08-20T11:31:20Z</time>
</trkpt>
<trkpt lat="49.29955264" lon="19.9611876">
<ele>868</ele>
<time>2014-08-20T11:31:26Z</time>
</trkpt>
<trkpt lat="49.2995531" lon="19.96118735">
<ele>868</ele>
<time>2014-08-20T11:31:32Z</time>
</trkpt>
<trkpt lat="49.2995534" lon="19.96118712">
<ele>868</ele>
<time>2014-08-20T11:31:38Z</time>
</trkpt>
<trkpt lat="49.29957274" lon="19.96117175">
<ele>868</ele>
<time>2014-08-20T11:31:44Z</time>
</trkpt>
<trkpt lat="49.29960617" lon="19.96117505">
<ele>870</ele>
<time>2014-08-20T11:31:50Z</time>
</trkpt>
<trkpt lat="49.29962688" lon="19.96118785">
<ele>872</ele>
<time>2014-08-20T11:31:56Z</time>
</trkpt>
<trkpt lat="49.29963129" lon="19.96119021">
<ele>872</ele>
<time>2014-08-20T11:32:02Z</time>
</trkpt>
<trkpt lat="49.29963158" lon="19.96119026">
<ele>872</ele>
<time>2014-08-20T11:32:08Z</time>
</trkpt>
<trkpt lat="49.29963162" lon="19.96119022">
<ele>872</ele>
<time>2014-08-20T11:32:14Z</time>
</trkpt>
<trkpt lat="49.29963169" lon="19.96119014">
<ele>872</ele>
<time>2014-08-20T11:32:20Z</time>
</trkpt>
<trkpt lat="49.2996317" lon="19.96119014">
<ele>872</ele>
<time>2014-08-20T11:32:26Z</time>
</trkpt>
<trkpt lat="49.29963174" lon="19.96119029">
<ele>872</ele>
<time>2014-08-20T11:32:32Z</time>
</trkpt>
<trkpt lat="49.29963176" lon="19.96119041">
<ele>872</ele>
<time>2014-08-20T11:32:38Z</time>
</trkpt>
<trkpt lat="49.29963175" lon="19.96119043">
<ele>872</ele>
<time>2014-08-20T11:32:44Z</time>
</trkpt>
<trkpt lat="49.2996317" lon="19.96119039">
<ele>872</ele>
<time>2014-08-20T11:32:50Z</time>
</trkpt>
<trkpt lat="49.29963418" lon="19.96119732">
<ele>872</ele>
<time>2014-08-20T11:32:56Z</time>
</trkpt>
<trkpt lat="49.29966172" lon="19.96125089">
<ele>875</ele>
<time>2014-08-20T11:33:02Z</time>
</trkpt>
<trkpt lat="49.29966367" lon="19.96124679">
<ele>876</ele>
<time>2014-08-20T11:33:08Z</time>
</trkpt>
<trkpt lat="49.29966551" lon="19.96122074">
<ele>877</ele>
<time>2014-08-20T11:33:14Z</time>
</trkpt>
<trkpt lat="49.2996659" lon="19.96121875">
<ele>877</ele>
<time>2014-08-20T11:33:20Z</time>
</trkpt>
<trkpt lat="49.29966082" lon="19.96121573">
<ele>876</ele>
<time>2014-08-20T11:33:26Z</time>
</trkpt>
<trkpt lat="49.29965997" lon="19.96121576">
<ele>876</ele>
<time>2014-08-20T11:33:32Z</time>
</trkpt>
<trkpt lat="49.299658" lon="19.9612166">
<ele>876</ele>
<time>2014-08-20T11:33:38Z</time>
</trkpt>
<trkpt lat="49.29965834" lon="19.96121698">
<ele>876</ele>
<time>2014-08-20T11:33:44Z</time>
</trkpt>
<trkpt lat="49.29965845" lon="19.96121704">
<ele>876</ele>
<time>2014-08-20T11:33:50Z</time>
</trkpt>
<trkpt lat="49.29965868" lon="19.96121705">
<ele>876</ele>
<time>2014-08-20T11:33:56Z</time>
</trkpt>
<trkpt lat="49.29965867" lon="19.96121704">
<ele>876</ele>
<time>2014-08-20T11:34:02Z</time>
</trkpt>
<trkpt lat="49.29965864" lon="19.96121711">
<ele>876</ele>
<time>2014-08-20T11:34:08Z</time>
</trkpt>
<trkpt lat="49.29965866" lon="19.96121715">
<ele>876</ele>
<time>2014-08-20T11:34:14Z</time>
</trkpt>
<trkpt lat="49.29965345" lon="19.961215">
<ele>876</ele>
<time>2014-08-20T11:34:20Z</time>
</trkpt>
<trkpt lat="49.29965392" lon="19.96118666">
<ele>876</ele>
<time>2014-08-20T11:34:26Z</time>
</trkpt>
<trkpt lat="49.29964387" lon="19.9612066">
<ele>877</ele>
<time>2014-08-20T11:34:32Z</time>
</trkpt>
<trkpt lat="49.29964238" lon="19.9612115">
<ele>877</ele>
<time>2014-08-20T11:34:38Z</time>
</trkpt>
<trkpt lat="49.2996412" lon="19.96121678">
<ele>877</ele>
<time>2014-08-20T11:34:44Z</time>
</trkpt>
<trkpt lat="49.29964047" lon="19.96121678">
<ele>877</ele>
<time>2014-08-20T11:34:50Z</time>
</trkpt>
<trkpt lat="49.2996379" lon="19.96121739">
<ele>877</ele>
<time>2014-08-20T11:34:56Z</time>
</trkpt>
<trkpt lat="49.29963852" lon="19.96121762">
<ele>877</ele>
<time>2014-08-20T11:35:02Z</time>
</trkpt>
<trkpt lat="49.29963897" lon="19.96121753">
<ele>877</ele>
<time>2014-08-20T11:35:08Z</time>
</trkpt>
<trkpt lat="49.29963903" lon="19.96121747">
<ele>877</ele>
<time>2014-08-20T11:35:14Z</time>
</trkpt>
<trkpt lat="49.2996394" lon="19.96121748">
<ele>877</ele>
<time>2014-08-20T11:35:20Z</time>
</trkpt>
<trkpt lat="49.29963703" lon="19.96124325">
<ele>875</ele>
<time>2014-08-20T11:35:26Z</time>
</trkpt>
<trkpt lat="49.29963689" lon="19.96130851">
<ele>880</ele>
<time>2014-08-20T11:35:32Z</time>
</trkpt>
<trkpt lat="49.29966512" lon="19.96129739">
<ele>883</ele>
<time>2014-08-20T11:35:38Z</time>
</trkpt>
<trkpt lat="49.29987196" lon="19.96183576">
<ele>880</ele>
<time>2014-08-20T11:35:44Z</time>
</trkpt>
<trkpt lat="49.30005154" lon="19.96174938">
<ele>876</ele>
<time>2014-08-20T11:35:50Z</time>
</trkpt>
<trkpt lat="49.30013733" lon="19.96149509">
<ele>875</ele>
<time>2014-08-20T11:35:56Z</time>
</trkpt>
<trkpt lat="49.29977669" lon="19.96120547">
<ele>875</ele>
<time>2014-08-20T11:36:02Z</time>
</trkpt>
<trkpt lat="49.29972193" lon="19.96111047">
<ele>875</ele>
<time>2014-08-20T11:36:08Z</time>
</trkpt>
<trkpt lat="49.29953856" lon="19.9606222">
<ele>876</ele>
<time>2014-08-20T11:36:14Z</time>
</trkpt>
<trkpt lat="49.29931473" lon="19.96002789">
<ele>875</ele>
<time>2014-08-20T11:36:20Z</time>
</trkpt>
<trkpt lat="49.29898727" lon="19.95936009">
<ele>876</ele>
<time>2014-08-20T11:36:26Z</time>
</trkpt>
<trkpt lat="49.2987688" lon="19.95875697">
<ele>878</ele>
<time>2014-08-20T11:36:32Z</time>
</trkpt>
<trkpt lat="49.29870976" lon="19.95861456">
<ele>876</ele>
<time>2014-08-20T11:36:38Z</time>
</trkpt>
<trkpt lat="49.29833169" lon="19.95785818">
<ele>876</ele>
<time>2014-08-20T11:36:44Z</time>
</trkpt>
<trkpt lat="49.29818914" lon="19.95759075">
<ele>877</ele>
<time>2014-08-20T11:36:50Z</time>
</trkpt>
<trkpt lat="49.29795217" lon="19.95722789">
<ele>875</ele>
<time>2014-08-20T11:36:56Z</time>
</trkpt>
<trkpt lat="49.2977424" lon="19.95690528">
<ele>876</ele>
<time>2014-08-20T11:37:02Z</time>
</trkpt>
<trkpt lat="49.2976653" lon="19.95683172">
<ele>875</ele>
<time>2014-08-20T11:37:08Z</time>
</trkpt>
<trkpt lat="49.29743437" lon="19.95647447">
<ele>876</ele>
<time>2014-08-20T11:37:14Z</time>
</trkpt>
<trkpt lat="49.29726323" lon="19.95613936">
<ele>876</ele>
<time>2014-08-20T11:37:20Z</time>
</trkpt>
<trkpt lat="49.29682573" lon="19.95552776">
<ele>876</ele>
<time>2014-08-20T11:37:26Z</time>
</trkpt>
<trkpt lat="49.2965562" lon="19.95511957">
<ele>879</ele>
<time>2014-08-20T11:37:32Z</time>
</trkpt>
<trkpt lat="49.29635146" lon="19.95478242">
<ele>879</ele>
<time>2014-08-20T11:37:38Z</time>
</trkpt>
<trkpt lat="49.29618196" lon="19.95449384">
<ele>879</ele>
<time>2014-08-20T11:37:44Z</time>
</trkpt>
<trkpt lat="49.29607085" lon="19.95432986">
<ele>879</ele>
<time>2014-08-20T11:37:50Z</time>
</trkpt>
<trkpt lat="49.29607085" lon="19.95432986">
<ele>879</ele>
<time>2014-08-20T11:37:56Z</time>
</trkpt>
<trkpt lat="49.29607831" lon="19.95435003">
<ele>880</ele>
<time>2014-08-20T11:38:04Z</time>
</trkpt>
<trkpt lat="49.29603034" lon="19.9542757">
<ele>880</ele>
<time>2014-08-20T11:38:10Z</time>
</trkpt>
<trkpt lat="49.2959592" lon="19.9541705">
<ele>878</ele>
<time>2014-08-20T11:38:16Z</time>
</trkpt>
<trkpt lat="49.29613804" lon="19.95359768">
<ele>879</ele>
<time>2014-08-20T11:38:22Z</time>
</trkpt>
<trkpt lat="49.29633775" lon="19.95342647">
<ele>878</ele>
<time>2014-08-20T11:38:28Z</time>
</trkpt>
<trkpt lat="49.29643856" lon="19.9533413">
<ele>876</ele>
<time>2014-08-20T11:38:34Z</time>
</trkpt>
<trkpt lat="49.29660337" lon="19.95317181">
<ele>875</ele>
<time>2014-08-20T11:38:40Z</time>
</trkpt>
<trkpt lat="49.29695708" lon="19.95291763">
<ele>874</ele>
<time>2014-08-20T11:38:46Z</time>
</trkpt>
<trkpt lat="49.29735355" lon="19.95269549">
<ele>873</ele>
<time>2014-08-20T11:38:52Z</time>
</trkpt>
<trkpt lat="49.29772726" lon="19.95251502">
<ele>872</ele>
<time>2014-08-20T11:38:58Z</time>
</trkpt>
<trkpt lat="49.29796898" lon="19.95238012">
<ele>871</ele>
<time>2014-08-20T11:39:04Z</time>
</trkpt>
<trkpt lat="49.29814498" lon="19.95229041">
<ele>870</ele>
<time>2014-08-20T11:39:10Z</time>
</trkpt>
<trkpt lat="49.29820841" lon="19.95224988">
<ele>871</ele>
<time>2014-08-20T11:39:16Z</time>
</trkpt>
<trkpt lat="49.29820841" lon="19.95224988">
<ele>871</ele>
<time>2014-08-20T11:39:22Z</time>
</trkpt>
<trkpt lat="49.29826112" lon="19.95223568">
<ele>871</ele>
<time>2014-08-20T11:39:28Z</time>
</trkpt>
<trkpt lat="49.29826112" lon="19.95223568">
<ele>871</ele>
<time>2014-08-20T11:39:34Z</time>
</trkpt>
<trkpt lat="49.29842096" lon="19.95215077">
<ele>871</ele>
<time>2014-08-20T11:39:40Z</time>
</trkpt>
<trkpt lat="49.29842096" lon="19.95215077">
<ele>871</ele>
<time>2014-08-20T11:39:46Z</time>
</trkpt>
<trkpt lat="49.29845828" lon="19.95211971">
<ele>870</ele>
<time>2014-08-20T11:39:52Z</time>
</trkpt>
<trkpt lat="49.29853586" lon="19.95206407">
<ele>869</ele>
<time>2014-08-20T11:39:58Z</time>
</trkpt>
<trkpt lat="49.29864807" lon="19.95200332">
<ele>868</ele>
<time>2014-08-20T11:40:04Z</time>
</trkpt>
<trkpt lat="49.29874082" lon="19.95195732">
<ele>869</ele>
<time>2014-08-20T11:40:10Z</time>
</trkpt>
<trkpt lat="49.29874082" lon="19.95195732">
<ele>869</ele>
<time>2014-08-20T11:40:16Z</time>
</trkpt>
<trkpt lat="49.29875838" lon="19.95194564">
<ele>869</ele>
<time>2014-08-20T11:40:22Z</time>
</trkpt>
<trkpt lat="49.29875218" lon="19.95193671">
<ele>869</ele>
<time>2014-08-20T11:40:28Z</time>
</trkpt>
<trkpt lat="49.29895216" lon="19.95190646">
<ele>870</ele>
<time>2014-08-20T11:40:34Z</time>
</trkpt>
<trkpt lat="49.29899856" lon="19.9519118">
<ele>869</ele>
<time>2014-08-20T11:40:40Z</time>
</trkpt>
<trkpt lat="49.29910312" lon="19.95195238">
<ele>868</ele>
<time>2014-08-20T11:40:46Z</time>
</trkpt>
<trkpt lat="49.29917038" lon="19.95197264">
<ele>868</ele>
<time>2014-08-20T11:40:52Z</time>
</trkpt>
<trkpt lat="49.29923845" lon="19.95198193">
<ele>867</ele>
<time>2014-08-20T11:40:58Z</time>
</trkpt>
<trkpt lat="49.29946237" lon="19.95204834">
<ele>867</ele>
<time>2014-08-20T11:41:04Z</time>
</trkpt>
<trkpt lat="49.29967271" lon="19.9518764">
<ele>867</ele>
<time>2014-08-20T11:41:10Z</time>
</trkpt>
<trkpt lat="49.29956965" lon="19.95168366">
<ele>866</ele>
<time>2014-08-20T11:41:16Z</time>
</trkpt>
<trkpt lat="49.29950467" lon="19.95155194">
<ele>866</ele>
<time>2014-08-20T11:41:22Z</time>
</trkpt>
<trkpt lat="49.2994821" lon="19.95132231">
<ele>865</ele>
<time>2014-08-20T11:41:28Z</time>
</trkpt>
<trkpt lat="49.29946689" lon="19.95115689">
<ele>865</ele>
<time>2014-08-20T11:41:34Z</time>
</trkpt>
<trkpt lat="49.29941192" lon="19.9508694">
<ele>863</ele>
<time>2014-08-20T11:41:40Z</time>
</trkpt>
<trkpt lat="49.29934309" lon="19.95063101">
<ele>861</ele>
<time>2014-08-20T11:41:46Z</time>
</trkpt>
<trkpt lat="49.29929305" lon="19.95044456">
<ele>862</ele>
<time>2014-08-20T11:41:52Z</time>
</trkpt>
<trkpt lat="49.29929305" lon="19.95044456">
<ele>862</ele>
<time>2014-08-20T11:41:58Z</time>
</trkpt>
<trkpt lat="49.29928912" lon="19.95031014">
<ele>864</ele>
<time>2014-08-20T11:42:04Z</time>
</trkpt>
<trkpt lat="49.29926218" lon="19.95017675">
<ele>863</ele>
<time>2014-08-20T11:42:10Z</time>
</trkpt>
<trkpt lat="49.29926218" lon="19.95017675">
<ele>863</ele>
<time>2014-08-20T11:42:16Z</time>
</trkpt>
<trkpt lat="49.2992291" lon="19.95014823">
<ele>866</ele>
<time>2014-08-20T11:42:22Z</time>
</trkpt>
<trkpt lat="49.29919808" lon="19.95014793">
<ele>868</ele>
<time>2014-08-20T11:42:28Z</time>
</trkpt>
<trkpt lat="49.29915213" lon="19.95004178">
<ele>871</ele>
<time>2014-08-20T11:42:34Z</time>
</trkpt>
<trkpt lat="49.29909699" lon="19.94985326">
<ele>867</ele>
<time>2014-08-20T11:42:40Z</time>
</trkpt>
<trkpt lat="49.29905775" lon="19.94967527">
<ele>867</ele>
<time>2014-08-20T11:42:46Z</time>
</trkpt>
<trkpt lat="49.29905775" lon="19.94967527">
<ele>867</ele>
<time>2014-08-20T11:42:52Z</time>
</trkpt>
<trkpt lat="49.29905578" lon="19.94947932">
<ele>868</ele>
<time>2014-08-20T11:42:58Z</time>
</trkpt>
<trkpt lat="49.29905578" lon="19.94947932">
<ele>868</ele>
<time>2014-08-20T11:43:04Z</time>
</trkpt>
<trkpt lat="49.29905051" lon="19.94944029">
<ele>867</ele>
<time>2014-08-20T11:43:10Z</time>
</trkpt>
<trkpt lat="49.29906629" lon="19.94944361">
<ele>869</ele>
<time>2014-08-20T11:43:16Z</time>
</trkpt>
<trkpt lat="49.29906501" lon="19.94944159">
<ele>869</ele>
<time>2014-08-20T11:43:22Z</time>
</trkpt>
<trkpt lat="49.29906302" lon="19.94944057">
<ele>869</ele>
<time>2014-08-20T11:43:28Z</time>
</trkpt>
<trkpt lat="49.2990629" lon="19.94944064">
<ele>869</ele>
<time>2014-08-20T11:43:34Z</time>
</trkpt>
<trkpt lat="49.29906254" lon="19.94944062">
<ele>869</ele>
<time>2014-08-20T11:43:40Z</time>
</trkpt>
<trkpt lat="49.29906214" lon="19.9494405">
<ele>869</ele>
<time>2014-08-20T11:43:46Z</time>
</trkpt>
<trkpt lat="49.29906211" lon="19.94944049">
<ele>869</ele>
<time>2014-08-20T11:43:52Z</time>
</trkpt>
<trkpt lat="49.29906204" lon="19.94944045">
<ele>869</ele>
<time>2014-08-20T11:43:58Z</time>
</trkpt>
<trkpt lat="49.29905616" lon="19.94944595">
<ele>869</ele>
<time>2014-08-20T11:44:04Z</time>
</trkpt>
<trkpt lat="49.29903057" lon="19.94947139">
<ele>869</ele>
<time>2014-08-20T11:44:10Z</time>
</trkpt>
<trkpt lat="49.29903335" lon="19.94947053">
<ele>868</ele>
<time>2014-08-20T11:44:16Z</time>
</trkpt>
<trkpt lat="49.29902784" lon="19.9494678">
<ele>872</ele>
<time>2014-08-20T11:44:22Z</time>
</trkpt>
<trkpt lat="49.29902328" lon="19.94946973">
<ele>873</ele>
<time>2014-08-20T11:44:28Z</time>
</trkpt>
<trkpt lat="49.2990263" lon="19.9494006">
<ele>867</ele>
<time>2014-08-20T11:44:34Z</time>
</trkpt>
<trkpt lat="49.29905253" lon="19.94926211">
<ele>864</ele>
<time>2014-08-20T11:44:40Z</time>
</trkpt>
<trkpt lat="49.29905253" lon="19.94926211">
<ele>864</ele>
<time>2014-08-20T11:44:46Z</time>
</trkpt>
<trkpt lat="49.29907281" lon="19.94904326">
<ele>863</ele>
<time>2014-08-20T11:44:52Z</time>
</trkpt>
<trkpt lat="49.29899115" lon="19.94894143">
<ele>867</ele>
<time>2014-08-20T11:44:58Z</time>
</trkpt>
<trkpt lat="49.29894668" lon="19.94893026">
<ele>868</ele>
<time>2014-08-20T11:45:04Z</time>
</trkpt>
<trkpt lat="49.2987279" lon="19.9489263">
<ele>866</ele>
<time>2014-08-20T11:45:10Z</time>
</trkpt>
<trkpt lat="49.29862117" lon="19.94889205">
<ele>864</ele>
<time>2014-08-20T11:45:16Z</time>
</trkpt>
<trkpt lat="49.29841027" lon="19.94879696">
<ele>864</ele>
<time>2014-08-20T11:45:22Z</time>
</trkpt>
<trkpt lat="49.29836128" lon="19.94878595">
<ele>864</ele>
<time>2014-08-20T11:45:28Z</time>
</trkpt>
<trkpt lat="49.29836128" lon="19.94878595">
<ele>864</ele>
<time>2014-08-20T11:45:34Z</time>
</trkpt>
<trkpt lat="49.29830357" lon="19.94879058">
<ele>865</ele>
<time>2014-08-20T11:45:40Z</time>
</trkpt>
<trkpt lat="49.29830357" lon="19.94879058">
<ele>865</ele>
<time>2014-08-20T11:45:46Z</time>
</trkpt>
<trkpt lat="49.29828385" lon="19.94875354">
<ele>866</ele>
<time>2014-08-20T11:45:52Z</time>
</trkpt>
<trkpt lat="49.29823632" lon="19.9487539">
<ele>868</ele>
<time>2014-08-20T11:45:58Z</time>
</trkpt>
<trkpt lat="49.29823632" lon="19.9487539">
<ele>868</ele>
<time>2014-08-20T11:46:04Z</time>
</trkpt>
<trkpt lat="49.29811049" lon="19.94878227">
<ele>867</ele>
<time>2014-08-20T11:46:10Z</time>
</trkpt>
<trkpt lat="49.29803365" lon="19.94880398">
<ele>868</ele>
<time>2014-08-20T11:46:16Z</time>
</trkpt>
<trkpt lat="49.2979515" lon="19.94883476">
<ele>867</ele>
<time>2014-08-20T11:46:22Z</time>
</trkpt>
<trkpt lat="49.2979515" lon="19.94883476">
<ele>867</ele>
<time>2014-08-20T11:46:28Z</time>
</trkpt>
<trkpt lat="49.29783356" lon="19.94880069">
<ele>867</ele>
<time>2014-08-20T11:46:34Z</time>
</trkpt>
<trkpt lat="49.29754491" lon="19.94871907">
<ele>869</ele>
<time>2014-08-20T11:46:40Z</time>
</trkpt>
<trkpt lat="49.29729115" lon="19.94867846">
<ele>868</ele>
<time>2014-08-20T11:46:46Z</time>
</trkpt>
<trkpt lat="49.29712903" lon="19.94863661">
<ele>868</ele>
<time>2014-08-20T11:46:52Z</time>
</trkpt>
<trkpt lat="49.29712903" lon="19.94863661">
<ele>868</ele>
<time>2014-08-20T11:46:58Z</time>
</trkpt>
<trkpt lat="49.29712208" lon="19.94860831">
<ele>866</ele>
<time>2014-08-20T11:47:04Z</time>
</trkpt>
<trkpt lat="49.2971137" lon="19.94860174">
<ele>867</ele>
<time>2014-08-20T11:47:10Z</time>
</trkpt>
<trkpt lat="49.29711758" lon="19.9485926">
<ele>867</ele>
<time>2014-08-20T11:47:16Z</time>
</trkpt>
<trkpt lat="49.29697492" lon="19.94851621">
<ele>868</ele>
<time>2014-08-20T11:47:22Z</time>
</trkpt>
<trkpt lat="49.2967539" lon="19.94826492">
<ele>866</ele>
<time>2014-08-20T11:47:28Z</time>
</trkpt>
<trkpt lat="49.29664507" lon="19.94805416">
<ele>866</ele>
<time>2014-08-20T11:47:34Z</time>
</trkpt>
<trkpt lat="49.29664507" lon="19.94805416">
<ele>866</ele>
<time>2014-08-20T11:47:42Z</time>
</trkpt>
<trkpt lat="49.29663318" lon="19.94799072">
<ele>864</ele>
<time>2014-08-20T11:47:48Z</time>
</trkpt>
<trkpt lat="49.296625" lon="19.94799388">
<ele>863</ele>
<time>2014-08-20T11:47:54Z</time>
</trkpt>
<trkpt lat="49.29654703" lon="19.94792725">
<ele>863</ele>
<time>2014-08-20T11:48:00Z</time>
</trkpt>
<trkpt lat="49.29643807" lon="19.94778022">
<ele>860</ele>
<time>2014-08-20T11:48:06Z</time>
</trkpt>
<trkpt lat="49.29639239" lon="19.94769692">
<ele>861</ele>
<time>2014-08-20T11:48:12Z</time>
</trkpt>
<trkpt lat="49.29625575" lon="19.94750835">
<ele>863</ele>
<time>2014-08-20T11:48:18Z</time>
</trkpt>
<trkpt lat="49.29599422" lon="19.94676598">
<ele>867</ele>
<time>2014-08-20T11:48:24Z</time>
</trkpt>
<trkpt lat="49.2959562" lon="19.94669696">
<ele>867</ele>
<time>2014-08-20T11:48:30Z</time>
</trkpt>
<trkpt lat="49.29579879" lon="19.94661247">
<ele>875</ele>
<time>2014-08-20T11:48:36Z</time>
</trkpt>
<trkpt lat="49.29579879" lon="19.94661247">
<ele>875</ele>
<time>2014-08-20T11:48:42Z</time>
</trkpt>
<trkpt lat="49.29574586" lon="19.94628807">
<ele>871</ele>
<time>2014-08-20T11:48:48Z</time>
</trkpt>
<trkpt lat="49.29556863" lon="19.94598793">
<ele>870</ele>
<time>2014-08-20T11:48:54Z</time>
</trkpt>
<trkpt lat="49.29547503" lon="19.94587833">
<ele>871</ele>
<time>2014-08-20T11:49:00Z</time>
</trkpt>
<trkpt lat="49.29524857" lon="19.94555553">
<ele>872</ele>
<time>2014-08-20T11:49:06Z</time>
</trkpt>
<trkpt lat="49.29503884" lon="19.94525115">
<ele>873</ele>
<time>2014-08-20T11:49:12Z</time>
</trkpt>
<trkpt lat="49.29465012" lon="19.94459996">
<ele>873</ele>
<time>2014-08-20T11:49:18Z</time>
</trkpt>
<trkpt lat="49.29428435" lon="19.94403248">
<ele>873</ele>
<time>2014-08-20T11:49:24Z</time>
</trkpt>
<trkpt lat="49.29390646" lon="19.94349315">
<ele>873</ele>
<time>2014-08-20T11:49:30Z</time>
</trkpt>
<trkpt lat="49.29365733" lon="19.94313313">
<ele>873</ele>
<time>2014-08-20T11:49:36Z</time>
</trkpt>
<trkpt lat="49.29363221" lon="19.94306523">
<ele>870</ele>
<time>2014-08-20T11:49:42Z</time>
</trkpt>
<trkpt lat="49.29363221" lon="19.94306523">
<ele>870</ele>
<time>2014-08-20T11:49:48Z</time>
</trkpt>
<trkpt lat="49.29358838" lon="19.94298451">
<ele>871</ele>
<time>2014-08-20T11:49:54Z</time>
</trkpt>
<trkpt lat="49.29320195" lon="19.94259489">
<ele>871</ele>
<time>2014-08-20T11:50:00Z</time>
</trkpt>
<trkpt lat="49.29298821" lon="19.94196424">
<ele>873</ele>
<time>2014-08-20T11:50:06Z</time>
</trkpt>
<trkpt lat="49.29285126" lon="19.94146983">
<ele>871</ele>
<time>2014-08-20T11:50:12Z</time>
</trkpt>
<trkpt lat="49.29272862" lon="19.94094671">
<ele>872</ele>
<time>2014-08-20T11:50:18Z</time>
</trkpt>
<trkpt lat="49.29241317" lon="19.93933711">
<ele>873</ele>
<time>2014-08-20T11:50:24Z</time>
</trkpt>
<trkpt lat="49.29236164" lon="19.9390264">
<ele>875</ele>
<time>2014-08-20T11:50:30Z</time>
</trkpt>
<trkpt lat="49.29184003" lon="19.93751202">
<ele>873</ele>
<time>2014-08-20T11:50:36Z</time>
</trkpt>
<trkpt lat="49.2913529" lon="19.93681259">
<ele>873</ele>
<time>2014-08-20T11:50:42Z</time>
</trkpt>
<trkpt lat="49.29092932" lon="19.93596095">
<ele>877</ele>
<time>2014-08-20T11:50:48Z</time>
</trkpt>
<trkpt lat="49.29080297" lon="19.93565689">
<ele>878</ele>
<time>2014-08-20T11:50:54Z</time>
</trkpt>
<trkpt lat="49.29016373" lon="19.93419526">
<ele>882</ele>
<time>2014-08-20T11:51:00Z</time>
</trkpt>
<trkpt lat="49.28990977" lon="19.93334085">
<ele>883</ele>
<time>2014-08-20T11:51:06Z</time>
</trkpt>
<trkpt lat="49.28945001" lon="19.9328058">
<ele>889</ele>
<time>2014-08-20T11:51:12Z</time>
</trkpt>
<trkpt lat="49.2890773" lon="19.93253015">
<ele>889</ele>
<time>2014-08-20T11:51:18Z</time>
</trkpt>
<trkpt lat="49.28871932" lon="19.93218159">
<ele>890</ele>
<time>2014-08-20T11:51:24Z</time>
</trkpt>
<trkpt lat="49.28783902" lon="19.93101217">
<ele>893</ele>
<time>2014-08-20T11:51:30Z</time>
</trkpt>
<trkpt lat="49.28752256" lon="19.93049868">
<ele>892</ele>
<time>2014-08-20T11:51:36Z</time>
</trkpt>
<trkpt lat="49.2871668" lon="19.92999867">
<ele>896</ele>
<time>2014-08-20T11:51:42Z</time>
</trkpt>
<trkpt lat="49.28655311" lon="19.92907058">
<ele>898</ele>
<time>2014-08-20T11:51:48Z</time>
</trkpt>
<trkpt lat="49.28628435" lon="19.928404">
<ele>901</ele>
<time>2014-08-20T11:51:54Z</time>
</trkpt>
<trkpt lat="49.28597" lon="19.92734755">
<ele>899</ele>
<time>2014-08-20T11:52:00Z</time>
</trkpt>
<trkpt lat="49.28570719" lon="19.92661969">
<ele>904</ele>
<time>2014-08-20T11:52:06Z</time>
</trkpt>
<trkpt lat="49.28543658" lon="19.92605236">
<ele>904</ele>
<time>2014-08-20T11:52:12Z</time>
</trkpt>
<trkpt lat="49.2853321" lon="19.92575911">
<ele>903</ele>
<time>2014-08-20T11:52:18Z</time>
</trkpt>
<trkpt lat="49.2853321" lon="19.92575911">
<ele>903</ele>
<time>2014-08-20T11:52:24Z</time>
</trkpt>
<trkpt lat="49.28533355" lon="19.92578155">
<ele>903</ele>
<time>2014-08-20T11:52:30Z</time>
</trkpt>
<trkpt lat="49.28519181" lon="19.92556261">
<ele>902</ele>
<time>2014-08-20T11:52:36Z</time>
</trkpt>
<trkpt lat="49.28495058" lon="19.92492029">
<ele>901</ele>
<time>2014-08-20T11:52:42Z</time>
</trkpt>
<trkpt lat="49.28486969" lon="19.92464392">
<ele>902</ele>
<time>2014-08-20T11:52:48Z</time>
</trkpt>
<trkpt lat="49.28448486" lon="19.92316982">
<ele>908</ele>
<time>2014-08-20T11:52:54Z</time>
</trkpt>
<trkpt lat="49.28425039" lon="19.92272955">
<ele>915</ele>
<time>2014-08-20T11:53:00Z</time>
</trkpt>
<trkpt lat="49.28421332" lon="19.92262288">
<ele>915</ele>
<time>2014-08-20T11:53:06Z</time>
</trkpt>
<trkpt lat="49.28418221" lon="19.92255647">
<ele>916</ele>
<time>2014-08-20T11:53:12Z</time>
</trkpt>
<trkpt lat="49.28403042" lon="19.92225628">
<ele>919</ele>
<time>2014-08-20T11:53:18Z</time>
</trkpt>
<trkpt lat="49.28388102" lon="19.92186623">
<ele>921</ele>
<time>2014-08-20T11:53:24Z</time>
</trkpt>
<trkpt lat="49.28366621" lon="19.92136432">
<ele>924</ele>
<time>2014-08-20T11:53:30Z</time>
</trkpt>
<trkpt lat="49.28359783" lon="19.92119768">
<ele>923</ele>
<time>2014-08-20T11:53:36Z</time>
</trkpt>
<trkpt lat="49.28316515" lon="19.92007273">
<ele>931</ele>
<time>2014-08-20T11:53:42Z</time>
</trkpt>
<trkpt lat="49.28307552" lon="19.91982716">
<ele>932</ele>
<time>2014-08-20T11:53:48Z</time>
</trkpt>
<trkpt lat="49.2828686" lon="19.91913082">
<ele>930</ele>
<time>2014-08-20T11:53:54Z</time>
</trkpt>
<trkpt lat="49.28237329" lon="19.91801507">
<ele>927</ele>
<time>2014-08-20T11:54:00Z</time>
</trkpt>
<trkpt lat="49.2821804" lon="19.91751153">
<ele>932</ele>
<time>2014-08-20T11:54:06Z</time>
</trkpt>
<trkpt lat="49.2821006" lon="19.91735514">
<ele>930</ele>
<time>2014-08-20T11:54:12Z</time>
</trkpt>
<trkpt lat="49.28181185" lon="19.91666319">
<ele>929</ele>
<time>2014-08-20T11:54:18Z</time>
</trkpt>
<trkpt lat="49.2817067" lon="19.91619837">
<ele>929</ele>
<time>2014-08-20T11:54:24Z</time>
</trkpt>
<trkpt lat="49.28146868" lon="19.91567851">
<ele>931</ele>
<time>2014-08-20T11:54:30Z</time>
</trkpt>
<trkpt lat="49.28124301" lon="19.91515969">
<ele>933</ele>
<time>2014-08-20T11:54:36Z</time>
</trkpt>
<trkpt lat="49.28104383" lon="19.91450505">
<ele>934</ele>
<time>2014-08-20T11:54:42Z</time>
</trkpt>
<trkpt lat="49.28077309" lon="19.91356873">
<ele>946</ele>
<time>2014-08-20T11:54:48Z</time>
</trkpt>
<trkpt lat="49.28048551" lon="19.91295779">
<ele>945</ele>
<time>2014-08-20T11:54:54Z</time>
</trkpt>
<trkpt lat="49.28021758" lon="19.91238135">
<ele>950</ele>
<time>2014-08-20T11:55:00Z</time>
</trkpt>
<trkpt lat="49.2799872" lon="19.9117068">
<ele>955</ele>
<time>2014-08-20T11:55:06Z</time>
</trkpt>
<trkpt lat="49.27993066" lon="19.91143394">
<ele>958</ele>
<time>2014-08-20T11:55:12Z</time>
</trkpt>
<trkpt lat="49.27961921" lon="19.91049108">
<ele>960</ele>
<time>2014-08-20T11:55:18Z</time>
</trkpt>
<trkpt lat="49.27933971" lon="19.90940911">
<ele>961</ele>
<time>2014-08-20T11:55:24Z</time>
</trkpt>
<trkpt lat="49.2792455" lon="19.90907987">
<ele>962</ele>
<time>2014-08-20T11:55:30Z</time>
</trkpt>
<trkpt lat="49.27878496" lon="19.90746279">
<ele>965</ele>
<time>2014-08-20T11:55:36Z</time>
</trkpt>
<trkpt lat="49.2785927" lon="19.90688966">
<ele>964</ele>
<time>2014-08-20T11:55:42Z</time>
</trkpt>
<trkpt lat="49.27829054" lon="19.90565847">
<ele>963</ele>
<time>2014-08-20T11:55:48Z</time>
</trkpt>
<trkpt lat="49.27814532" lon="19.90466663">
<ele>968</ele>
<time>2014-08-20T11:55:54Z</time>
</trkpt>
<trkpt lat="49.27808809" lon="19.90358695">
<ele>967</ele>
<time>2014-08-20T11:56:00Z</time>
</trkpt>
<trkpt lat="49.27805333" lon="19.90284718">
<ele>970</ele>
<time>2014-08-20T11:56:06Z</time>
</trkpt>
<trkpt lat="49.27794452" lon="19.90146874">
<ele>979</ele>
<time>2014-08-20T11:56:12Z</time>
</trkpt>
<trkpt lat="49.27760982" lon="19.900595">
<ele>981</ele>
<time>2014-08-20T11:56:18Z</time>
</trkpt>
<trkpt lat="49.27708517" lon="19.89997947">
<ele>982</ele>
<time>2014-08-20T11:56:24Z</time>
</trkpt>
<trkpt lat="49.27686739" lon="19.89983047">
<ele>983</ele>
<time>2014-08-20T11:56:30Z</time>
</trkpt>
<trkpt lat="49.2761809" lon="19.89947035">
<ele>984</ele>
<time>2014-08-20T11:56:38Z</time>
</trkpt>
<trkpt lat="49.27500533" lon="19.89833816">
<ele>983</ele>
<time>2014-08-20T11:56:44Z</time>
</trkpt>
<trkpt lat="49.27463942" lon="19.89737022">
<ele>985</ele>
<time>2014-08-20T11:56:50Z</time>
</trkpt>
<trkpt lat="49.27453318" lon="19.89703541">
<ele>986</ele>
<time>2014-08-20T11:56:56Z</time>
</trkpt>
<trkpt lat="49.2744697" lon="19.89534698">
<ele>988</ele>
<time>2014-08-20T11:57:02Z</time>
</trkpt>
<trkpt lat="49.27475971" lon="19.89430951">
<ele>989</ele>
<time>2014-08-20T11:57:08Z</time>
</trkpt>
<trkpt lat="49.2748" lon="19.89311922">
<ele>994</ele>
<time>2014-08-20T11:57:14Z</time>
</trkpt>
<trkpt lat="49.27464378" lon="19.89200997">
<ele>994</ele>
<time>2014-08-20T11:57:20Z</time>
</trkpt>
<trkpt lat="49.2744766" lon="19.89088344">
<ele>992</ele>
<time>2014-08-20T11:57:26Z</time>
</trkpt>
<trkpt lat="49.27455048" lon="19.88977083">
<ele>989</ele>
<time>2014-08-20T11:57:32Z</time>
</trkpt>
<trkpt lat="49.27506086" lon="19.88892486">
<ele>987</ele>
<time>2014-08-20T11:57:38Z</time>
</trkpt>
<trkpt lat="49.27529439" lon="19.88870737">
<ele>988</ele>
<time>2014-08-20T11:57:44Z</time>
</trkpt>
<trkpt lat="49.27593041" lon="19.88799216">
<ele>990</ele>
<time>2014-08-20T11:57:50Z</time>
</trkpt>
<trkpt lat="49.27645229" lon="19.88718496">
<ele>993</ele>
<time>2014-08-20T11:57:56Z</time>
</trkpt>
<trkpt lat="49.27675248" lon="19.88589884">
<ele>991</ele>
<time>2014-08-20T11:58:02Z</time>
</trkpt>
<trkpt lat="49.27682681" lon="19.88484441">
<ele>993</ele>
<time>2014-08-20T11:58:08Z</time>
</trkpt>
<trkpt lat="49.27693542" lon="19.88420007">
<ele>997</ele>
<time>2014-08-20T11:58:14Z</time>
</trkpt>
<trkpt lat="49.27696089" lon="19.88403389">
<ele>997</ele>
<time>2014-08-20T11:58:20Z</time>
</trkpt>
<trkpt lat="49.27713819" lon="19.88260127">
<ele>998</ele>
<time>2014-08-20T11:58:26Z</time>
</trkpt>
<trkpt lat="49.27720367" lon="19.88182936">
<ele>1000</ele>
<time>2014-08-20T11:58:32Z</time>
</trkpt>
<trkpt lat="49.27716377" lon="19.88101137">
<ele>999</ele>
<time>2014-08-20T11:58:38Z</time>
</trkpt>
<trkpt lat="49.27678659" lon="19.87955555">
<ele>1000</ele>
<time>2014-08-20T11:58:44Z</time>
</trkpt>
<trkpt lat="49.27659886" lon="19.87872558">
<ele>1001</ele>
<time>2014-08-20T11:58:50Z</time>
</trkpt>
<trkpt lat="49.27624006" lon="19.87688543">
<ele>999</ele>
<time>2014-08-20T11:58:56Z</time>
</trkpt>
<trkpt lat="49.27593093" lon="19.87568119">
<ele>995</ele>
<time>2014-08-20T11:59:02Z</time>
</trkpt>
<trkpt lat="49.27585769" lon="19.87524269">
<ele>995</ele>
<time>2014-08-20T11:59:08Z</time>
</trkpt>
<trkpt lat="49.27566183" lon="19.87311144">
<ele>990</ele>
<time>2014-08-20T11:59:14Z</time>
</trkpt>
<trkpt lat="49.27545873" lon="19.87205211">
<ele>988</ele>
<time>2014-08-20T11:59:20Z</time>
</trkpt>
<trkpt lat="49.27531379" lon="19.8710656">
<ele>984</ele>
<time>2014-08-20T11:59:26Z</time>
</trkpt>
<trkpt lat="49.27531924" lon="19.87039098">
<ele>981</ele>
<time>2014-08-20T11:59:32Z</time>
</trkpt>
<trkpt lat="49.27537879" lon="19.86978908">
<ele>980</ele>
<time>2014-08-20T11:59:38Z</time>
</trkpt>
<trkpt lat="49.27552898" lon="19.86886627">
<ele>975</ele>
<time>2014-08-20T11:59:44Z</time>
</trkpt>
<trkpt lat="49.27564793" lon="19.86846693">
<ele>973</ele>
<time>2014-08-20T11:59:50Z</time>
</trkpt>
<trkpt lat="49.27579226" lon="19.86805899">
<ele>970</ele>
<time>2014-08-20T11:59:56Z</time>
</trkpt>
<trkpt lat="49.27601783" lon="19.86746559">
<ele>966</ele>
<time>2014-08-20T12:00:02Z</time>
</trkpt>
<trkpt lat="49.2765231" lon="19.86673386">
<ele>967</ele>
<time>2014-08-20T12:00:10Z</time>
</trkpt>
<trkpt lat="49.2765231" lon="19.86673386">
<ele>967</ele>
<time>2014-08-20T12:00:16Z</time>
</trkpt>
<trkpt lat="49.27676821" lon="19.86644694">
<ele>967</ele>
<time>2014-08-20T12:00:22Z</time>
</trkpt>
<trkpt lat="49.27683459" lon="19.86629513">
<ele>967</ele>
<time>2014-08-20T12:00:28Z</time>
</trkpt>
<trkpt lat="49.27763191" lon="19.86528501">
<ele>966</ele>
<time>2014-08-20T12:00:34Z</time>
</trkpt>
<trkpt lat="49.27814459" lon="19.86458207">
<ele>961</ele>
<time>2014-08-20T12:00:40Z</time>
</trkpt>
<trkpt lat="49.27833663" lon="19.86434388">
<ele>960</ele>
<time>2014-08-20T12:00:46Z</time>
</trkpt>
<trkpt lat="49.27892874" lon="19.86275887">
<ele>957</ele>
<time>2014-08-20T12:00:52Z</time>
</trkpt>
<trkpt lat="49.27903925" lon="19.86162167">
<ele>956</ele>
<time>2014-08-20T12:00:58Z</time>
</trkpt>
<trkpt lat="49.27917161" lon="19.86042778">
<ele>954</ele>
<time>2014-08-20T12:01:04Z</time>
</trkpt>
<trkpt lat="49.27949887" lon="19.85936393">
<ele>949</ele>
<time>2014-08-20T12:01:10Z</time>
</trkpt>
<trkpt lat="49.28016668" lon="19.85865134">
<ele>946</ele>
<time>2014-08-20T12:01:16Z</time>
</trkpt>
<trkpt lat="49.28091648" lon="19.85801625">
<ele>945</ele>
<time>2014-08-20T12:01:22Z</time>
</trkpt>
<trkpt lat="49.2816629" lon="19.8573973">
<ele>945</ele>
<time>2014-08-20T12:01:28Z</time>
</trkpt>
<trkpt lat="49.28237791" lon="19.85677983">
<ele>944</ele>
<time>2014-08-20T12:01:34Z</time>
</trkpt>
<trkpt lat="49.28310917" lon="19.85616028">
<ele>943</ele>
<time>2014-08-20T12:01:40Z</time>
</trkpt>
<trkpt lat="49.28388192" lon="19.85549182">
<ele>941</ele>
<time>2014-08-20T12:01:46Z</time>
</trkpt>
<trkpt lat="49.28468521" lon="19.85481709">
<ele>939</ele>
<time>2014-08-20T12:01:52Z</time>
</trkpt>
<trkpt lat="49.2855138" lon="19.85411365">
<ele>937</ele>
<time>2014-08-20T12:01:58Z</time>
</trkpt>
<trkpt lat="49.28634988" lon="19.85338682">
<ele>936</ele>
<time>2014-08-20T12:02:04Z</time>
</trkpt>
<trkpt lat="49.28716826" lon="19.85269311">
<ele>934</ele>
<time>2014-08-20T12:02:10Z</time>
</trkpt>
<trkpt lat="49.28794697" lon="19.85201434">
<ele>933</ele>
<time>2014-08-20T12:02:16Z</time>
</trkpt>
<trkpt lat="49.28865015" lon="19.85141784">
<ele>931</ele>
<time>2014-08-20T12:02:22Z</time>
</trkpt>
<trkpt lat="49.28932876" lon="19.85084389">
<ele>929</ele>
<time>2014-08-20T12:02:28Z</time>
</trkpt>
<trkpt lat="49.28984308" lon="19.85040162">
<ele>929</ele>
<time>2014-08-20T12:02:34Z</time>
</trkpt>
<trkpt lat="49.28996464" lon="19.85008507">
<ele>929</ele>
<time>2014-08-20T12:02:40Z</time>
</trkpt>
<trkpt lat="49.28972433" lon="19.849808">
<ele>929</ele>
<time>2014-08-20T12:02:46Z</time>
</trkpt>
<trkpt lat="49.2893833" lon="19.84940121">
<ele>932</ele>
<time>2014-08-20T12:02:52Z</time>
</trkpt>
<trkpt lat="49.28894311" lon="19.84889806">
<ele>937</ele>
<time>2014-08-20T12:02:58Z</time>
</trkpt>
<trkpt lat="49.28843258" lon="19.84829425">
<ele>939</ele>
<time>2014-08-20T12:03:04Z</time>
</trkpt>
<trkpt lat="49.28785574" lon="19.84766093">
<ele>941</ele>
<time>2014-08-20T12:03:10Z</time>
</trkpt>
<trkpt lat="49.28728587" lon="19.84700694">
<ele>943</ele>
<time>2014-08-20T12:03:16Z</time>
</trkpt>
<trkpt lat="49.28671263" lon="19.84636057">
<ele>944</ele>
<time>2014-08-20T12:03:22Z</time>
</trkpt>
<trkpt lat="49.28615517" lon="19.84573467">
<ele>945</ele>
<time>2014-08-20T12:03:28Z</time>
</trkpt>
<trkpt lat="49.28568158" lon="19.84522716">
<ele>945</ele>
<time>2014-08-20T12:03:34Z</time>
</trkpt>
<trkpt lat="49.28524017" lon="19.84469978">
<ele>950</ele>
<time>2014-08-20T12:03:40Z</time>
</trkpt>
<trkpt lat="49.28474392" lon="19.84409669">
<ele>951</ele>
<time>2014-08-20T12:03:46Z</time>
</trkpt>
<trkpt lat="49.28410681" lon="19.84333951">
<ele>955</ele>
<time>2014-08-20T12:03:52Z</time>
</trkpt>
<trkpt lat="49.28351899" lon="19.84260907">
<ele>953</ele>
<time>2014-08-20T12:03:58Z</time>
</trkpt>
<trkpt lat="49.28300098" lon="19.84206837">
<ele>957</ele>
<time>2014-08-20T12:04:04Z</time>
</trkpt>
<trkpt lat="49.28256605" lon="19.84157856">
<ele>955</ele>
<time>2014-08-20T12:04:10Z</time>
</trkpt>
<trkpt lat="49.28235303" lon="19.84129429">
<ele>956</ele>
<time>2014-08-20T12:04:16Z</time>
</trkpt>
<trkpt lat="49.2823601" lon="19.84110396">
<ele>955</ele>
<time>2014-08-20T12:04:22Z</time>
</trkpt>
<trkpt lat="49.28234023" lon="19.84102722">
<ele>951</ele>
<time>2014-08-20T12:04:28Z</time>
</trkpt>
<trkpt lat="49.28234023" lon="19.84102722">
<ele>951</ele>
<time>2014-08-20T12:04:34Z</time>
</trkpt>
<trkpt lat="49.28234774" lon="19.84103446">
<ele>952</ele>
<time>2014-08-20T12:04:40Z</time>
</trkpt>
<trkpt lat="49.28235269" lon="19.84103899">
<ele>954</ele>
<time>2014-08-20T12:04:46Z</time>
</trkpt>
<trkpt lat="49.28235336" lon="19.84103945">
<ele>954</ele>
<time>2014-08-20T12:04:52Z</time>
</trkpt>
<trkpt lat="49.28235331" lon="19.84103939">
<ele>954</ele>
<time>2014-08-20T12:04:58Z</time>
</trkpt>
<trkpt lat="49.28236558" lon="19.8410363">
<ele>955</ele>
<time>2014-08-20T12:05:04Z</time>
</trkpt>
<trkpt lat="49.28237003" lon="19.8410332">
<ele>954</ele>
<time>2014-08-20T12:05:10Z</time>
</trkpt>
<trkpt lat="49.28236983" lon="19.84103122">
<ele>954</ele>
<time>2014-08-20T12:05:16Z</time>
</trkpt>
<trkpt lat="49.28237607" lon="19.84103808">
<ele>954</ele>
<time>2014-08-20T12:05:22Z</time>
</trkpt>
<trkpt lat="49.28237935" lon="19.84104239">
<ele>954</ele>
<time>2014-08-20T12:05:28Z</time>
</trkpt>
<trkpt lat="49.28238413" lon="19.84103613">
<ele>954</ele>
<time>2014-08-20T12:05:34Z</time>
</trkpt>
<trkpt lat="49.28238118" lon="19.84103542">
<ele>952</ele>
<time>2014-08-20T12:05:40Z</time>
</trkpt>
<trkpt lat="49.28238894" lon="19.84103981">
<ele>952</ele>
<time>2014-08-20T12:05:46Z</time>
</trkpt>
<trkpt lat="49.28239671" lon="19.84103481">
<ele>952</ele>
<time>2014-08-20T12:05:52Z</time>
</trkpt>
<trkpt lat="49.28238745" lon="19.84102201">
<ele>950</ele>
<time>2014-08-20T12:05:58Z</time>
</trkpt>
<trkpt lat="49.2823801" lon="19.84100958">
<ele>948</ele>
<time>2014-08-20T12:06:04Z</time>
</trkpt>
<trkpt lat="49.28237882" lon="19.84100454">
<ele>949</ele>
<time>2014-08-20T12:06:10Z</time>
</trkpt>
<trkpt lat="49.28237983" lon="19.8409952">
<ele>949</ele>
<time>2014-08-20T12:06:16Z</time>
</trkpt>
<trkpt lat="49.28238042" lon="19.84098981">
<ele>949</ele>
<time>2014-08-20T12:06:22Z</time>
</trkpt>
<trkpt lat="49.28238022" lon="19.84099595">
<ele>949</ele>
<time>2014-08-20T12:06:28Z</time>
</trkpt>
<trkpt lat="49.28234914" lon="19.84114076">
<ele>949</ele>
<time>2014-08-20T12:06:34Z</time>
</trkpt>
<trkpt lat="49.28232495" lon="19.841216">
<ele>948</ele>
<time>2014-08-20T12:06:40Z</time>
</trkpt>
<trkpt lat="49.28232495" lon="19.841216">
<ele>948</ele>
<time>2014-08-20T12:06:46Z</time>
</trkpt>
<trkpt lat="49.28231809" lon="19.84125472">
<ele>946</ele>
<time>2014-08-20T12:06:52Z</time>
</trkpt>
<trkpt lat="49.28232561" lon="19.84128706">
<ele>947</ele>
<time>2014-08-20T12:06:58Z</time>
</trkpt>
<trkpt lat="49.28232617" lon="19.8412891">
<ele>947</ele>
<time>2014-08-20T12:07:04Z</time>
</trkpt>
<trkpt lat="49.28232352" lon="19.84129614">
<ele>947</ele>
<time>2014-08-20T12:07:10Z</time>
</trkpt>
<trkpt lat="49.28232561" lon="19.84129586">
<ele>946</ele>
<time>2014-08-20T12:07:16Z</time>
</trkpt>
<trkpt lat="49.28232729" lon="19.84129703">
<ele>946</ele>
<time>2014-08-20T12:07:22Z</time>
</trkpt>
<trkpt lat="49.28232722" lon="19.84129836">
<ele>946</ele>
<time>2014-08-20T12:07:28Z</time>
</trkpt>
<trkpt lat="49.28232741" lon="19.8412987">
<ele>946</ele>
<time>2014-08-20T12:07:34Z</time>
</trkpt>
<trkpt lat="49.28232822" lon="19.84129386">
<ele>946</ele>
<time>2014-08-20T12:07:40Z</time>
</trkpt>
<trkpt lat="49.28232889" lon="19.8412964">
<ele>946</ele>
<time>2014-08-20T12:07:46Z</time>
</trkpt>
<trkpt lat="49.28232516" lon="19.84129572">
<ele>946</ele>
<time>2014-08-20T12:07:52Z</time>
</trkpt>
<trkpt lat="49.28232414" lon="19.84129182">
<ele>946</ele>
<time>2014-08-20T12:07:58Z</time>
</trkpt>
<trkpt lat="49.28232448" lon="19.84128771">
<ele>946</ele>
<time>2014-08-20T12:08:04Z</time>
</trkpt>
<trkpt lat="49.28232726" lon="19.84128396">
<ele>946</ele>
<time>2014-08-20T12:08:10Z</time>
</trkpt>
<trkpt lat="49.28232358" lon="19.8412796">
<ele>946</ele>
<time>2014-08-20T12:08:16Z</time>
</trkpt>
<trkpt lat="49.28232378" lon="19.84127911">
<ele>946</ele>
<time>2014-08-20T12:08:22Z</time>
</trkpt>
<trkpt lat="49.28232387" lon="19.84127912">
<ele>946</ele>
<time>2014-08-20T12:08:28Z</time>
</trkpt>
<trkpt lat="49.28231624" lon="19.84127785">
<ele>947</ele>
<time>2014-08-20T12:08:34Z</time>
</trkpt>
<trkpt lat="49.28223689" lon="19.84124957">
<ele>949</ele>
<time>2014-08-20T12:08:40Z</time>
</trkpt>
<trkpt lat="49.28223689" lon="19.84124957">
<ele>949</ele>
<time>2014-08-20T12:08:46Z</time>
</trkpt>
<trkpt lat="49.2822022" lon="19.84121919">
<ele>947</ele>
<time>2014-08-20T12:08:52Z</time>
</trkpt>
<trkpt lat="49.28220463" lon="19.84121615">
<ele>947</ele>
<time>2014-08-20T12:08:58Z</time>
</trkpt>
<trkpt lat="49.28220356" lon="19.84120905">
<ele>948</ele>
<time>2014-08-20T12:09:04Z</time>
</trkpt>
<trkpt lat="49.28219401" lon="19.8412019">
<ele>948</ele>
<time>2014-08-20T12:09:10Z</time>
</trkpt>
<trkpt lat="49.28219211" lon="19.84117911">
<ele>949</ele>
<time>2014-08-20T12:09:16Z</time>
</trkpt>
<trkpt lat="49.28218659" lon="19.84117086">
<ele>950</ele>
<time>2014-08-20T12:09:22Z</time>
</trkpt>
<trkpt lat="49.28218238" lon="19.84116885">
<ele>951</ele>
<time>2014-08-20T12:09:28Z</time>
</trkpt>
<trkpt lat="49.28218126" lon="19.84116452">
<ele>951</ele>
<time>2014-08-20T12:09:34Z</time>
</trkpt>
<trkpt lat="49.28217821" lon="19.84116211">
<ele>952</ele>
<time>2014-08-20T12:09:40Z</time>
</trkpt>
<trkpt lat="49.28217365" lon="19.84117237">
<ele>954</ele>
<time>2014-08-20T12:09:46Z</time>
</trkpt>
<trkpt lat="49.28216157" lon="19.84115437">
<ele>955</ele>
<time>2014-08-20T12:09:52Z</time>
</trkpt>
<trkpt lat="49.28214366" lon="19.8411487">
<ele>954</ele>
<time>2014-08-20T12:09:58Z</time>
</trkpt>
<trkpt lat="49.28213673" lon="19.84113488">
<ele>954</ele>
<time>2014-08-20T12:10:04Z</time>
</trkpt>
<trkpt lat="49.28213942" lon="19.84112177">
<ele>954</ele>
<time>2014-08-20T12:10:10Z</time>
</trkpt>
<trkpt lat="49.28210969" lon="19.84110964">
<ele>955</ele>
<time>2014-08-20T12:10:16Z</time>
</trkpt>
<trkpt lat="49.28210432" lon="19.84110254">
<ele>956</ele>
<time>2014-08-20T12:10:22Z</time>
</trkpt>
<trkpt lat="49.2820951" lon="19.84107934">
<ele>956</ele>
<time>2014-08-20T12:10:28Z</time>
</trkpt>
<trkpt lat="49.28209362" lon="19.84106784">
<ele>956</ele>
<time>2014-08-20T12:10:34Z</time>
</trkpt>
<trkpt lat="49.28209557" lon="19.8410643">
<ele>956</ele>
<time>2014-08-20T12:10:40Z</time>
</trkpt>
<trkpt lat="49.28207695" lon="19.8410316">
<ele>957</ele>
<time>2014-08-20T12:10:46Z</time>
</trkpt>
<trkpt lat="49.28206919" lon="19.8410262">
<ele>955</ele>
<time>2014-08-20T12:10:52Z</time>
</trkpt>
<trkpt lat="49.28207103" lon="19.84103117">
<ele>956</ele>
<time>2014-08-20T12:10:58Z</time>
</trkpt>
<trkpt lat="49.28206416" lon="19.84103272">
<ele>956</ele>
<time>2014-08-20T12:11:04Z</time>
</trkpt>
<trkpt lat="49.28205157" lon="19.84102347">
<ele>956</ele>
<time>2014-08-20T12:11:10Z</time>
</trkpt>
<trkpt lat="49.28203585" lon="19.8410103">
<ele>956</ele>
<time>2014-08-20T12:11:16Z</time>
</trkpt>
<trkpt lat="49.28204076" lon="19.84101833">
<ele>957</ele>
<time>2014-08-20T12:11:22Z</time>
</trkpt>
<trkpt lat="49.28204563" lon="19.84101681">
<ele>956</ele>
<time>2014-08-20T12:11:28Z</time>
</trkpt>
<trkpt lat="49.28204792" lon="19.84100281">
<ele>958</ele>
<time>2014-08-20T12:11:34Z</time>
</trkpt>
<trkpt lat="49.28205347" lon="19.84099767">
<ele>958</ele>
<time>2014-08-20T12:11:40Z</time>
</trkpt>
<trkpt lat="49.28205393" lon="19.84099309">
<ele>958</ele>
<time>2014-08-20T12:11:46Z</time>
</trkpt>
<trkpt lat="49.28205793" lon="19.84095493">
<ele>957</ele>
<time>2014-08-20T12:11:52Z</time>
</trkpt>
<trkpt lat="49.28205751" lon="19.84089936">
<ele>956</ele>
<time>2014-08-20T12:11:58Z</time>
</trkpt>
<trkpt lat="49.28206456" lon="19.84089824">
<ele>957</ele>
<time>2014-08-20T12:12:04Z</time>
</trkpt>
<trkpt lat="49.28206331" lon="19.84089822">
<ele>957</ele>
<time>2014-08-20T12:12:10Z</time>
</trkpt>
<trkpt lat="49.28205988" lon="19.84090063">
<ele>958</ele>
<time>2014-08-20T12:12:16Z</time>
</trkpt>
<trkpt lat="49.28206127" lon="19.84090347">
<ele>958</ele>
<time>2014-08-20T12:12:23Z</time>
</trkpt>
<trkpt lat="49.28205389" lon="19.84094958">
<ele>960</ele>
<time>2014-08-20T12:12:28Z</time>
</trkpt>
<trkpt lat="49.2820478" lon="19.84096941">
<ele>961</ele>
<time>2014-08-20T12:12:34Z</time>
</trkpt>
<trkpt lat="49.28204635" lon="19.84096839">
<ele>962</ele>
<time>2014-08-20T12:12:40Z</time>
</trkpt>
<trkpt lat="49.2820592" lon="19.84099848">
<ele>962</ele>
<time>2014-08-20T12:12:46Z</time>
</trkpt>
<trkpt lat="49.28206595" lon="19.8410359">
<ele>963</ele>
<time>2014-08-20T12:12:52Z</time>
</trkpt>
<trkpt lat="49.28205924" lon="19.84104699">
<ele>964</ele>
<time>2014-08-20T12:12:58Z</time>
</trkpt>
<trkpt lat="49.28205525" lon="19.84106095">
<ele>966</ele>
<time>2014-08-20T12:13:04Z</time>
</trkpt>
<trkpt lat="49.28206935" lon="19.84102424">
<ele>966</ele>
<time>2014-08-20T12:13:10Z</time>
</trkpt>
<trkpt lat="49.28205477" lon="19.8409872">
<ele>967</ele>
<time>2014-08-20T12:13:16Z</time>
</trkpt>
<trkpt lat="49.28205717" lon="19.8409781">
<ele>968</ele>
<time>2014-08-20T12:13:22Z</time>
</trkpt>
<trkpt lat="49.28205978" lon="19.84101977">
<ele>968</ele>
<time>2014-08-20T12:13:28Z</time>
</trkpt>
<trkpt lat="49.28197229" lon="19.84098594">
<ele>964</ele>
<time>2014-08-20T12:13:34Z</time>
</trkpt>
<trkpt lat="49.28197229" lon="19.84098594">
<ele>964</ele>
<time>2014-08-20T12:13:40Z</time>
</trkpt>
<trkpt lat="49.28184634" lon="19.84087563">
<ele>960</ele>
<time>2014-08-20T12:13:46Z</time>
</trkpt>
<trkpt lat="49.28184634" lon="19.84087563">
<ele>960</ele>
<time>2014-08-20T12:13:52Z</time>
</trkpt>
<trkpt lat="49.28183524" lon="19.84089788">
<ele>960</ele>
<time>2014-08-20T12:13:58Z</time>
</trkpt>
<trkpt lat="49.28183186" lon="19.84090367">
<ele>960</ele>
<time>2014-08-20T12:14:04Z</time>
</trkpt>
<trkpt lat="49.28181491" lon="19.84089704">
<ele>960</ele>
<time>2014-08-20T12:14:10Z</time>
</trkpt>
<trkpt lat="49.28180948" lon="19.84089913">
<ele>959</ele>
<time>2014-08-20T12:14:16Z</time>
</trkpt>
<trkpt lat="49.28180817" lon="19.84090036">
<ele>959</ele>
<time>2014-08-20T12:14:22Z</time>
</trkpt>
<trkpt lat="49.28180546" lon="19.84091153">
<ele>957</ele>
<time>2014-08-20T12:14:28Z</time>
</trkpt>
<trkpt lat="49.28180581" lon="19.84091305">
<ele>957</ele>
<time>2014-08-20T12:14:34Z</time>
</trkpt>
<trkpt lat="49.28180597" lon="19.84091328">
<ele>957</ele>
<time>2014-08-20T12:14:40Z</time>
</trkpt>
<trkpt lat="49.28180703" lon="19.84090186">
<ele>956</ele>
<time>2014-08-20T12:14:46Z</time>
</trkpt>
<trkpt lat="49.28172602" lon="19.84081279">
<ele>955</ele>
<time>2014-08-20T12:14:52Z</time>
</trkpt>
<trkpt lat="49.28172602" lon="19.84081279">
<ele>955</ele>
<time>2014-08-20T12:14:58Z</time>
</trkpt>
<trkpt lat="49.28170815" lon="19.84076891">
<ele>956</ele>
<time>2014-08-20T12:15:04Z</time>
</trkpt>
<trkpt lat="49.28168826" lon="19.84071439">
<ele>960</ele>
<time>2014-08-20T12:15:10Z</time>
</trkpt>
<trkpt lat="49.28169348" lon="19.84072698">
<ele>959</ele>
<time>2014-08-20T12:15:16Z</time>
</trkpt>
<trkpt lat="49.28167877" lon="19.84073472">
<ele>960</ele>
<time>2014-08-20T12:15:22Z</time>
</trkpt>
<trkpt lat="49.28170046" lon="19.84074">
<ele>959</ele>
<time>2014-08-20T12:15:28Z</time>
</trkpt>
<trkpt lat="49.28170078" lon="19.8407089">
<ele>955</ele>
<time>2014-08-20T12:15:34Z</time>
</trkpt>
<trkpt lat="49.2816976" lon="19.84069943">
<ele>955</ele>
<time>2014-08-20T12:15:40Z</time>
</trkpt>
<trkpt lat="49.28170302" lon="19.84069745">
<ele>955</ele>
<time>2014-08-20T12:15:46Z</time>
</trkpt>
<trkpt lat="49.28170108" lon="19.84069556">
<ele>954</ele>
<time>2014-08-20T12:15:53Z</time>
</trkpt>
<trkpt lat="49.28169215" lon="19.84068875">
<ele>954</ele>
<time>2014-08-20T12:15:59Z</time>
</trkpt>
<trkpt lat="49.28163983" lon="19.84059249">
<ele>954</ele>
<time>2014-08-20T12:16:04Z</time>
</trkpt>
<trkpt lat="49.28160568" lon="19.84054718">
<ele>955</ele>
<time>2014-08-20T12:16:10Z</time>
</trkpt>
<trkpt lat="49.28152966" lon="19.84050128">
<ele>954</ele>
<time>2014-08-20T12:16:17Z</time>
</trkpt>
<trkpt lat="49.28147029" lon="19.84045829">
<ele>953</ele>
<time>2014-08-20T12:16:23Z</time>
</trkpt>
<trkpt lat="49.28141873" lon="19.84041918">
<ele>953</ele>
<time>2014-08-20T12:16:28Z</time>
</trkpt>
<trkpt lat="49.28141873" lon="19.84041918">
<ele>953</ele>
<time>2014-08-20T12:16:34Z</time>
</trkpt>
<trkpt lat="49.281348" lon="19.84036091">
<ele>952</ele>
<time>2014-08-20T12:16:40Z</time>
</trkpt>
<trkpt lat="49.281348" lon="19.84036091">
<ele>952</ele>
<time>2014-08-20T12:16:46Z</time>
</trkpt>
<trkpt lat="49.28127079" lon="19.84023497">
<ele>953</ele>
<time>2014-08-20T12:16:52Z</time>
</trkpt>
<trkpt lat="49.28122959" lon="19.84019326">
<ele>955</ele>
<time>2014-08-20T12:16:58Z</time>
</trkpt>
<trkpt lat="49.28118703" lon="19.84013987">
<ele>951</ele>
<time>2014-08-20T12:17:04Z</time>
</trkpt>
<trkpt lat="49.28118703" lon="19.84013987">
<ele>951</ele>
<time>2014-08-20T12:17:10Z</time>
</trkpt>
<trkpt lat="49.28115169" lon="19.84010435">
<ele>949</ele>
<time>2014-08-20T12:17:16Z</time>
</trkpt>
<trkpt lat="49.28113086" lon="19.84006593">
<ele>949</ele>
<time>2014-08-20T12:17:22Z</time>
</trkpt>
<trkpt lat="49.28109072" lon="19.8399936">
<ele>950</ele>
<time>2014-08-20T12:17:28Z</time>
</trkpt>
<trkpt lat="49.28104285" lon="19.83993027">
<ele>950</ele>
<time>2014-08-20T12:17:34Z</time>
</trkpt>
<trkpt lat="49.28098912" lon="19.83986956">
<ele>950</ele>
<time>2014-08-20T12:17:40Z</time>
</trkpt>
<trkpt lat="49.28098912" lon="19.83986956">
<ele>950</ele>
<time>2014-08-20T12:17:46Z</time>
</trkpt>
<trkpt lat="49.28091597" lon="19.83982265">
<ele>949</ele>
<time>2014-08-20T12:17:52Z</time>
</trkpt>
<trkpt lat="49.28091597" lon="19.83982265">
<ele>949</ele>
<time>2014-08-20T12:17:58Z</time>
</trkpt>
<trkpt lat="49.28081935" lon="19.83975583">
<ele>951</ele>
<time>2014-08-20T12:18:04Z</time>
</trkpt>
<trkpt lat="49.28077412" lon="19.83969926">
<ele>952</ele>
<time>2014-08-20T12:18:10Z</time>
</trkpt>
<trkpt lat="49.28073033" lon="19.83964101">
<ele>952</ele>
<time>2014-08-20T12:18:16Z</time>
</trkpt>
<trkpt lat="49.28067956" lon="19.83958965">
<ele>954</ele>
<time>2014-08-20T12:18:22Z</time>
</trkpt>
<trkpt lat="49.28061942" lon="19.83952671">
<ele>954</ele>
<time>2014-08-20T12:18:28Z</time>
</trkpt>
<trkpt lat="49.28055943" lon="19.8394636">
<ele>954</ele>
<time>2014-08-20T12:18:34Z</time>
</trkpt>
<trkpt lat="49.2805223" lon="19.83939875">
<ele>952</ele>
<time>2014-08-20T12:18:40Z</time>
</trkpt>
<trkpt lat="49.28046492" lon="19.83933335">
<ele>952</ele>
<time>2014-08-20T12:18:46Z</time>
</trkpt>
<trkpt lat="49.28040545" lon="19.83926623">
<ele>953</ele>
<time>2014-08-20T12:18:52Z</time>
</trkpt>
<trkpt lat="49.28035559" lon="19.83919774">
<ele>954</ele>
<time>2014-08-20T12:18:59Z</time>
</trkpt>
<trkpt lat="49.28035559" lon="19.83919774">
<ele>954</ele>
<time>2014-08-20T12:19:04Z</time>
</trkpt>
<trkpt lat="49.28033859" lon="19.83916042">
<ele>954</ele>
<time>2014-08-20T12:19:10Z</time>
</trkpt>
<trkpt lat="49.28030993" lon="19.83907002">
<ele>954</ele>
<time>2014-08-20T12:19:16Z</time>
</trkpt>
<trkpt lat="49.28027243" lon="19.83900206">
<ele>956</ele>
<time>2014-08-20T12:19:22Z</time>
</trkpt>
<trkpt lat="49.2802298" lon="19.83892038">
<ele>956</ele>
<time>2014-08-20T12:19:29Z</time>
</trkpt>
<trkpt lat="49.28018872" lon="19.83884657">
<ele>956</ele>
<time>2014-08-20T12:19:35Z</time>
</trkpt>
<trkpt lat="49.28018872" lon="19.83884657">
<ele>956</ele>
<time>2014-08-20T12:19:40Z</time>
</trkpt>
<trkpt lat="49.28016713" lon="19.8388165">
<ele>955</ele>
<time>2014-08-20T12:19:46Z</time>
</trkpt>
<trkpt lat="49.28010021" lon="19.83873385">
<ele>955</ele>
<time>2014-08-20T12:19:52Z</time>
</trkpt>
<trkpt lat="49.28004856" lon="19.83864378">
<ele>954</ele>
<time>2014-08-20T12:19:58Z</time>
</trkpt>
<trkpt lat="49.27999569" lon="19.83854107">
<ele>954</ele>
<time>2014-08-20T12:20:04Z</time>
</trkpt>
<trkpt lat="49.27999569" lon="19.83854107">
<ele>954</ele>
<time>2014-08-20T12:20:10Z</time>
</trkpt>
<trkpt lat="49.27994655" lon="19.83845506">
<ele>954</ele>
<time>2014-08-20T12:20:16Z</time>
</trkpt>
<trkpt lat="49.27989306" lon="19.83836615">
<ele>955</ele>
<time>2014-08-20T12:20:22Z</time>
</trkpt>
<trkpt lat="49.27984446" lon="19.8382884">
<ele>955</ele>
<time>2014-08-20T12:20:28Z</time>
</trkpt>
<trkpt lat="49.27984446" lon="19.8382884">
<ele>955</ele>
<time>2014-08-20T12:20:34Z</time>
</trkpt>
<trkpt lat="49.27981535" lon="19.83812325">
<ele>953</ele>
<time>2014-08-20T12:20:40Z</time>
</trkpt>
<trkpt lat="49.27981535" lon="19.83812325">
<ele>953</ele>
<time>2014-08-20T12:20:46Z</time>
</trkpt>
<trkpt lat="49.27981147" lon="19.838123">
<ele>953</ele>
<time>2014-08-20T12:20:53Z</time>
</trkpt>
<trkpt lat="49.2798205" lon="19.83814944">
<ele>955</ele>
<time>2014-08-20T12:20:59Z</time>
</trkpt>
<trkpt lat="49.27977951" lon="19.83802361">
<ele>951</ele>
<time>2014-08-20T12:21:05Z</time>
</trkpt>
<trkpt lat="49.27977951" lon="19.83802361">
<ele>951</ele>
<time>2014-08-20T12:21:10Z</time>
</trkpt>
<trkpt lat="49.27966733" lon="19.83783441">
<ele>948</ele>
<time>2014-08-20T12:21:17Z</time>
</trkpt>
<trkpt lat="49.27963852" lon="19.83777218">
<ele>948</ele>
<time>2014-08-20T12:21:23Z</time>
</trkpt>
<trkpt lat="49.27957206" lon="19.83759049">
<ele>949</ele>
<time>2014-08-20T12:21:29Z</time>
</trkpt>
<trkpt lat="49.27953275" lon="19.83752427">
<ele>949</ele>
<time>2014-08-20T12:21:35Z</time>
</trkpt>
<trkpt lat="49.27953275" lon="19.83752427">
<ele>949</ele>
<time>2014-08-20T12:21:40Z</time>
</trkpt>
<trkpt lat="49.27945085" lon="19.83734805">
<ele>952</ele>
<time>2014-08-20T12:21:47Z</time>
</trkpt>
<trkpt lat="49.27941372" lon="19.83728104">
<ele>954</ele>
<time>2014-08-20T12:21:53Z</time>
</trkpt>
<trkpt lat="49.27938839" lon="19.8372074">
<ele>954</ele>
<time>2014-08-20T12:21:58Z</time>
</trkpt>
<trkpt lat="49.27934774" lon="19.83708665">
<ele>954</ele>
<time>2014-08-20T12:22:04Z</time>
</trkpt>
<trkpt lat="49.27931834" lon="19.83702306">
<ele>951</ele>
<time>2014-08-20T12:22:10Z</time>
</trkpt>
<trkpt lat="49.27924748" lon="19.83691516">
<ele>952</ele>
<time>2014-08-20T12:22:17Z</time>
</trkpt>
<trkpt lat="49.27924748" lon="19.83691516">
<ele>952</ele>
<time>2014-08-20T12:22:23Z</time>
</trkpt>
<trkpt lat="49.2791845" lon="19.83675258">
<ele>954</ele>
<time>2014-08-20T12:22:28Z</time>
</trkpt>
<trkpt lat="49.2791394" lon="19.83668102">
<ele>954</ele>
<time>2014-08-20T12:22:34Z</time>
</trkpt>
<trkpt lat="49.2791394" lon="19.83668102">
<ele>954</ele>
<time>2014-08-20T12:22:41Z</time>
</trkpt>
<trkpt lat="49.2790187" lon="19.83651637">
<ele>957</ele>
<time>2014-08-20T12:22:47Z</time>
</trkpt>
<trkpt lat="49.27897491" lon="19.8364194">
<ele>957</ele>
<time>2014-08-20T12:22:53Z</time>
</trkpt>
<trkpt lat="49.27897491" lon="19.8364194">
<ele>957</ele>
<time>2014-08-20T12:22:59Z</time>
</trkpt>
<trkpt lat="49.27894482" lon="19.83637427">
<ele>960</ele>
<time>2014-08-20T12:23:05Z</time>
</trkpt>
<trkpt lat="49.27885959" lon="19.83630275">
<ele>961</ele>
<time>2014-08-20T12:23:11Z</time>
</trkpt>
<trkpt lat="49.27880069" lon="19.83623759">
<ele>960</ele>
<time>2014-08-20T12:23:17Z</time>
</trkpt>
<trkpt lat="49.27875001" lon="19.83616851">
<ele>962</ele>
<time>2014-08-20T12:23:23Z</time>
</trkpt>
<trkpt lat="49.27870226" lon="19.83609228">
<ele>960</ele>
<time>2014-08-20T12:23:29Z</time>
</trkpt>
<trkpt lat="49.27870226" lon="19.83609228">
<ele>960</ele>
<time>2014-08-20T12:23:35Z</time>
</trkpt>
<trkpt lat="49.27865949" lon="19.83599779">
<ele>962</ele>
<time>2014-08-20T12:23:40Z</time>
</trkpt>
<trkpt lat="49.27861093" lon="19.83595534">
<ele>960</ele>
<time>2014-08-20T12:23:47Z</time>
</trkpt>
<trkpt lat="49.27855966" lon="19.83589902">
<ele>959</ele>
<time>2014-08-20T12:23:53Z</time>
</trkpt>
<trkpt lat="49.27847075" lon="19.83573705">
<ele>965</ele>
<time>2014-08-20T12:23:59Z</time>
</trkpt>
<trkpt lat="49.27847075" lon="19.83573705">
<ele>965</ele>
<time>2014-08-20T12:24:05Z</time>
</trkpt>
<trkpt lat="49.27841136" lon="19.83561456">
<ele>961</ele>
<time>2014-08-20T12:24:11Z</time>
</trkpt>
<trkpt lat="49.27837105" lon="19.83555678">
<ele>965</ele>
<time>2014-08-20T12:24:17Z</time>
</trkpt>
<trkpt lat="49.27830492" lon="19.83536408">
<ele>964</ele>
<time>2014-08-20T12:24:22Z</time>
</trkpt>
<trkpt lat="49.27825882" lon="19.83521217">
<ele>964</ele>
<time>2014-08-20T12:24:28Z</time>
</trkpt>
<trkpt lat="49.27825882" lon="19.83521217">
<ele>964</ele>
<time>2014-08-20T12:24:34Z</time>
</trkpt>
<trkpt lat="49.27825814" lon="19.83519689">
<ele>964</ele>
<time>2014-08-20T12:24:40Z</time>
</trkpt>
<trkpt lat="49.27825905" lon="19.83518164">
<ele>963</ele>
<time>2014-08-20T12:24:47Z</time>
</trkpt>
<trkpt lat="49.27826539" lon="19.83516671">
<ele>964</ele>
<time>2014-08-20T12:24:52Z</time>
</trkpt>
<trkpt lat="49.27825975" lon="19.8351736">
<ele>963</ele>
<time>2014-08-20T12:24:58Z</time>
</trkpt>
<trkpt lat="49.27825857" lon="19.8351761">
<ele>963</ele>
<time>2014-08-20T12:25:05Z</time>
</trkpt>
<trkpt lat="49.27825875" lon="19.83517824">
<ele>963</ele>
<time>2014-08-20T12:25:10Z</time>
</trkpt>
<trkpt lat="49.27825903" lon="19.83517865">
<ele>963</ele>
<time>2014-08-20T12:25:17Z</time>
</trkpt>
<trkpt lat="49.27825934" lon="19.83517927">
<ele>963</ele>
<time>2014-08-20T12:25:23Z</time>
</trkpt>
<trkpt lat="49.2782594" lon="19.83517923">
<ele>963</ele>
<time>2014-08-20T12:25:29Z</time>
</trkpt>
<trkpt lat="49.27825947" lon="19.83517929">
<ele>963</ele>
<time>2014-08-20T12:25:35Z</time>
</trkpt>
<trkpt lat="49.27825964" lon="19.83517953">
<ele>963</ele>
<time>2014-08-20T12:25:41Z</time>
</trkpt>
<trkpt lat="49.2782587" lon="19.83517828">
<ele>963</ele>
<time>2014-08-20T12:25:47Z</time>
</trkpt>
<trkpt lat="49.27825864" lon="19.83517825">
<ele>963</ele>
<time>2014-08-20T12:25:52Z</time>
</trkpt>
<trkpt lat="49.27825046" lon="19.83517667">
<ele>962</ele>
<time>2014-08-20T12:25:58Z</time>
</trkpt>
<trkpt lat="49.27824728" lon="19.83517106">
<ele>962</ele>
<time>2014-08-20T12:26:04Z</time>
</trkpt>
<trkpt lat="49.27823211" lon="19.83516046">
<ele>961</ele>
<time>2014-08-20T12:26:10Z</time>
</trkpt>
<trkpt lat="49.27822809" lon="19.83511412">
<ele>953</ele>
<time>2014-08-20T12:26:16Z</time>
</trkpt>
<trkpt lat="49.27822784" lon="19.83511287">
<ele>953</ele>
<time>2014-08-20T12:26:23Z</time>
</trkpt>
<trkpt lat="49.27822577" lon="19.83511145">
<ele>954</ele>
<time>2014-08-20T12:26:28Z</time>
</trkpt>
<trkpt lat="49.27821938" lon="19.83510812">
<ele>953</ele>
<time>2014-08-20T12:26:34Z</time>
</trkpt>
<trkpt lat="49.27821905" lon="19.835108">
<ele>953</ele>
<time>2014-08-20T12:26:41Z</time>
</trkpt>
<trkpt lat="49.27814551" lon="19.83501626">
<ele>956</ele>
<time>2014-08-20T12:26:47Z</time>
</trkpt>
<trkpt lat="49.27814551" lon="19.83501626">
<ele>956</ele>
<time>2014-08-20T12:26:53Z</time>
</trkpt>
<trkpt lat="49.27808705" lon="19.83484289">
<ele>961</ele>
<time>2014-08-20T12:26:59Z</time>
</trkpt>
<trkpt lat="49.27805715" lon="19.83476387">
<ele>964</ele>
<time>2014-08-20T12:27:04Z</time>
</trkpt>
<trkpt lat="49.27805715" lon="19.83476387">
<ele>964</ele>
<time>2014-08-20T12:27:10Z</time>
</trkpt>
<trkpt lat="49.27800205" lon="19.83465257">
<ele>963</ele>
<time>2014-08-20T12:27:16Z</time>
</trkpt>
<trkpt lat="49.2779809" lon="19.83457766">
<ele>963</ele>
<time>2014-08-20T12:27:22Z</time>
</trkpt>
<trkpt lat="49.27793882" lon="19.83448034">
<ele>965</ele>
<time>2014-08-20T12:27:29Z</time>
</trkpt>
<trkpt lat="49.27792075" lon="19.8344021">
<ele>964</ele>
<time>2014-08-20T12:27:34Z</time>
</trkpt>
<trkpt lat="49.27792075" lon="19.8344021">
<ele>964</ele>
<time>2014-08-20T12:27:40Z</time>
</trkpt>
<trkpt lat="49.27787465" lon="19.83426139">
<ele>965</ele>
<time>2014-08-20T12:27:47Z</time>
</trkpt>
<trkpt lat="49.27784579" lon="19.83418332">
<ele>967</ele>
<time>2014-08-20T12:27:53Z</time>
</trkpt>
<trkpt lat="49.27781863" lon="19.83410812">
<ele>968</ele>
<time>2014-08-20T12:27:59Z</time>
</trkpt>
<trkpt lat="49.27779133" lon="19.83397977">
<ele>966</ele>
<time>2014-08-20T12:28:05Z</time>
</trkpt>
<trkpt lat="49.27776375" lon="19.83385141">
<ele>965</ele>
<time>2014-08-20T12:28:10Z</time>
</trkpt>
<trkpt lat="49.27774429" lon="19.833728">
<ele>964</ele>
<time>2014-08-20T12:28:17Z</time>
</trkpt>
<trkpt lat="49.27772452" lon="19.83361446">
<ele>963</ele>
<time>2014-08-20T12:28:22Z</time>
</trkpt>
<trkpt lat="49.27770305" lon="19.83350911">
<ele>963</ele>
<time>2014-08-20T12:28:28Z</time>
</trkpt>
<trkpt lat="49.27768627" lon="19.83340009">
<ele>963</ele>
<time>2014-08-20T12:28:34Z</time>
</trkpt>
<trkpt lat="49.27768627" lon="19.83340009">
<ele>963</ele>
<time>2014-08-20T12:28:41Z</time>
</trkpt>
<trkpt lat="49.27765919" lon="19.83324969">
<ele>964</ele>
<time>2014-08-20T12:28:47Z</time>
</trkpt>
<trkpt lat="49.27763225" lon="19.83310559">
<ele>963</ele>
<time>2014-08-20T12:28:53Z</time>
</trkpt>
<trkpt lat="49.27763225" lon="19.83310559">
<ele>963</ele>
<time>2014-08-20T12:28:59Z</time>
</trkpt>
<trkpt lat="49.27756401" lon="19.83294229">
<ele>965</ele>
<time>2014-08-20T12:29:05Z</time>
</trkpt>
<trkpt lat="49.27756401" lon="19.83294229">
<ele>965</ele>
<time>2014-08-20T12:29:11Z</time>
</trkpt>
<trkpt lat="49.27756473" lon="19.83294307">
<ele>968</ele>
<time>2014-08-20T12:29:16Z</time>
</trkpt>
<trkpt lat="49.27756516" lon="19.83292185">
<ele>967</ele>
<time>2014-08-20T12:29:23Z</time>
</trkpt>
<trkpt lat="49.27756926" lon="19.83289543">
<ele>967</ele>
<time>2014-08-20T12:29:29Z</time>
</trkpt>
<trkpt lat="49.27757808" lon="19.83286604">
<ele>964</ele>
<time>2014-08-20T12:29:35Z</time>
</trkpt>
<trkpt lat="49.27747955" lon="19.83269487">
<ele>961</ele>
<time>2014-08-20T12:29:41Z</time>
</trkpt>
<trkpt lat="49.27744187" lon="19.83259741">
<ele>959</ele>
<time>2014-08-20T12:29:47Z</time>
</trkpt>
<trkpt lat="49.27737792" lon="19.83248048">
<ele>960</ele>
<time>2014-08-20T12:29:52Z</time>
</trkpt>
<trkpt lat="49.27733265" lon="19.83247435">
<ele>960</ele>
<time>2014-08-20T12:29:59Z</time>
</trkpt>
<trkpt lat="49.27729097" lon="19.83241042">
<ele>962</ele>
<time>2014-08-20T12:30:05Z</time>
</trkpt>
<trkpt lat="49.27729097" lon="19.83241042">
<ele>962</ele>
<time>2014-08-20T12:30:11Z</time>
</trkpt>
<trkpt lat="49.2772787" lon="19.83240873">
<ele>965</ele>
<time>2014-08-20T12:30:16Z</time>
</trkpt>
<trkpt lat="49.27710962" lon="19.83227595">
<ele>976</ele>
<time>2014-08-20T12:30:23Z</time>
</trkpt>
<trkpt lat="49.27707175" lon="19.83222441">
<ele>975</ele>
<time>2014-08-20T12:30:29Z</time>
</trkpt>
<trkpt lat="49.27702236" lon="19.83216792">
<ele>972</ele>
<time>2014-08-20T12:30:35Z</time>
</trkpt>
<trkpt lat="49.27693491" lon="19.83210417">
<ele>973</ele>
<time>2014-08-20T12:30:40Z</time>
</trkpt>
<trkpt lat="49.27693491" lon="19.83210417">
<ele>973</ele>
<time>2014-08-20T12:30:46Z</time>
</trkpt>
<trkpt lat="49.27690405" lon="19.83211968">
<ele>982</ele>
<time>2014-08-20T12:30:53Z</time>
</trkpt>
<trkpt lat="49.27688598" lon="19.83210064">
<ele>984</ele>
<time>2014-08-20T12:30:59Z</time>
</trkpt>
<trkpt lat="49.27685784" lon="19.83195918">
<ele>986</ele>
<time>2014-08-20T12:31:05Z</time>
</trkpt>
<trkpt lat="49.27677435" lon="19.83184414">
<ele>984</ele>
<time>2014-08-20T12:31:11Z</time>
</trkpt>
<trkpt lat="49.2766653" lon="19.83171189">
<ele>982</ele>
<time>2014-08-20T12:31:17Z</time>
</trkpt>
<trkpt lat="49.27659736" lon="19.83160737">
<ele>984</ele>
<time>2014-08-20T12:31:23Z</time>
</trkpt>
<trkpt lat="49.27656363" lon="19.83144353">
<ele>989</ele>
<time>2014-08-20T12:31:28Z</time>
</trkpt>
<trkpt lat="49.27656363" lon="19.83144353">
<ele>989</ele>
<time>2014-08-20T12:31:35Z</time>
</trkpt>
<trkpt lat="49.27652072" lon="19.83129496">
<ele>988</ele>
<time>2014-08-20T12:31:41Z</time>
</trkpt>
<trkpt lat="49.27638561" lon="19.8311751">
<ele>985</ele>
<time>2014-08-20T12:31:47Z</time>
</trkpt>
<trkpt lat="49.27638561" lon="19.8311751">
<ele>985</ele>
<time>2014-08-20T12:31:53Z</time>
</trkpt>
<trkpt lat="49.27637546" lon="19.83102608">
<ele>991</ele>
<time>2014-08-20T12:31:58Z</time>
</trkpt>
<trkpt lat="49.27636755" lon="19.8309381">
<ele>990</ele>
<time>2014-08-20T12:32:04Z</time>
</trkpt>
<trkpt lat="49.27629448" lon="19.83082706">
<ele>990</ele>
<time>2014-08-20T12:32:10Z</time>
</trkpt>
<trkpt lat="49.27623904" lon="19.83074365">
<ele>995</ele>
<time>2014-08-20T12:32:17Z</time>
</trkpt>
<trkpt lat="49.27623904" lon="19.83074365">
<ele>995</ele>
<time>2014-08-20T12:32:23Z</time>
</trkpt>
<trkpt lat="49.27624685" lon="19.83060003">
<ele>995</ele>
<time>2014-08-20T12:32:29Z</time>
</trkpt>
<trkpt lat="49.27622766" lon="19.83031764">
<ele>995</ele>
<time>2014-08-20T12:32:35Z</time>
</trkpt>
<trkpt lat="49.27622766" lon="19.83031764">
<ele>995</ele>
<time>2014-08-20T12:32:40Z</time>
</trkpt>
<trkpt lat="49.27620663" lon="19.83018794">
<ele>1005</ele>
<time>2014-08-20T12:32:47Z</time>
</trkpt>
<trkpt lat="49.27620663" lon="19.83018794">
<ele>1005</ele>
<time>2014-08-20T12:32:53Z</time>
</trkpt>
<trkpt lat="49.27623631" lon="19.829947">
<ele>1010</ele>
<time>2014-08-20T12:32:59Z</time>
</trkpt>
<trkpt lat="49.27615708" lon="19.8298453">
<ele>1009</ele>
<time>2014-08-20T12:33:05Z</time>
</trkpt>
<trkpt lat="49.27611759" lon="19.82977207">
<ele>1008</ele>
<time>2014-08-20T12:33:11Z</time>
</trkpt>
<trkpt lat="49.27606183" lon="19.82966042">
<ele>1006</ele>
<time>2014-08-20T12:33:17Z</time>
</trkpt>
<trkpt lat="49.27596993" lon="19.82950186">
<ele>1008</ele>
<time>2014-08-20T12:33:23Z</time>
</trkpt>
<trkpt lat="49.27592994" lon="19.82946447">
<ele>1008</ele>
<time>2014-08-20T12:33:29Z</time>
</trkpt>
<trkpt lat="49.27588037" lon="19.82937595">
<ele>1010</ele>
<time>2014-08-20T12:33:35Z</time>
</trkpt>
<trkpt lat="49.27584647" lon="19.82924654">
<ele>1014</ele>
<time>2014-08-20T12:33:41Z</time>
</trkpt>
<trkpt lat="49.27586325" lon="19.82915444">
<ele>1016</ele>
<time>2014-08-20T12:33:46Z</time>
</trkpt>
<trkpt lat="49.27588291" lon="19.8289302">
<ele>1013</ele>
<time>2014-08-20T12:33:52Z</time>
</trkpt>
<trkpt lat="49.27587211" lon="19.82884612">
<ele>1016</ele>
<time>2014-08-20T12:33:59Z</time>
</trkpt>
<trkpt lat="49.27585014" lon="19.82872025">
<ele>1016</ele>
<time>2014-08-20T12:34:05Z</time>
</trkpt>
<trkpt lat="49.27579314" lon="19.82863677">
<ele>1013</ele>
<time>2014-08-20T12:34:10Z</time>
</trkpt>
<trkpt lat="49.27574264" lon="19.82857352">
<ele>1016</ele>
<time>2014-08-20T12:34:17Z</time>
</trkpt>
<trkpt lat="49.27574264" lon="19.82857352">
<ele>1016</ele>
<time>2014-08-20T12:34:22Z</time>
</trkpt>
<trkpt lat="49.27576165" lon="19.82837368">
<ele>1019</ele>
<time>2014-08-20T12:34:28Z</time>
</trkpt>
<trkpt lat="49.27578088" lon="19.82831075">
<ele>1018</ele>
<time>2014-08-20T12:34:35Z</time>
</trkpt>
<trkpt lat="49.27572852" lon="19.82812167">
<ele>1014</ele>
<time>2014-08-20T12:34:41Z</time>
</trkpt>
<trkpt lat="49.27568446" lon="19.82800619">
<ele>1017</ele>
<time>2014-08-20T12:34:47Z</time>
</trkpt>
<trkpt lat="49.2756464" lon="19.82791311">
<ele>1019</ele>
<time>2014-08-20T12:34:52Z</time>
</trkpt>
<trkpt lat="49.27560741" lon="19.82781685">
<ele>1019</ele>
<time>2014-08-20T12:34:59Z</time>
</trkpt>
<trkpt lat="49.27554246" lon="19.82773963">
<ele>1019</ele>
<time>2014-08-20T12:35:05Z</time>
</trkpt>
<trkpt lat="49.27550035" lon="19.82767651">
<ele>1020</ele>
<time>2014-08-20T12:35:11Z</time>
</trkpt>
<trkpt lat="49.27546938" lon="19.82760958">
<ele>1024</ele>
<time>2014-08-20T12:35:17Z</time>
</trkpt>
<trkpt lat="49.27542027" lon="19.82753026">
<ele>1026</ele>
<time>2014-08-20T12:35:23Z</time>
</trkpt>
<trkpt lat="49.27537289" lon="19.82745519">
<ele>1025</ele>
<time>2014-08-20T12:35:29Z</time>
</trkpt>
<trkpt lat="49.27533554" lon="19.82736376">
<ele>1027</ele>
<time>2014-08-20T12:35:35Z</time>
</trkpt>
<trkpt lat="49.27530846" lon="19.82723747">
<ele>1026</ele>
<time>2014-08-20T12:35:41Z</time>
</trkpt>
<trkpt lat="49.27528963" lon="19.82713621">
<ele>1027</ele>
<time>2014-08-20T12:35:47Z</time>
</trkpt>
<trkpt lat="49.27528963" lon="19.82713621">
<ele>1027</ele>
<time>2014-08-20T12:35:53Z</time>
</trkpt>
<trkpt lat="49.27524303" lon="19.82695369">
<ele>1025</ele>
<time>2014-08-20T12:35:59Z</time>
</trkpt>
<trkpt lat="49.27523353" lon="19.82685038">
<ele>1025</ele>
<time>2014-08-20T12:36:05Z</time>
</trkpt>
<trkpt lat="49.27523353" lon="19.82685038">
<ele>1025</ele>
<time>2014-08-20T12:36:11Z</time>
</trkpt>
<trkpt lat="49.27519461" lon="19.82661629">
<ele>1024</ele>
<time>2014-08-20T12:36:17Z</time>
</trkpt>
<trkpt lat="49.27519461" lon="19.82661629">
<ele>1024</ele>
<time>2014-08-20T12:36:22Z</time>
</trkpt>
<trkpt lat="49.27510623" lon="19.826451">
<ele>1012</ele>
<time>2014-08-20T12:36:29Z</time>
</trkpt>
<trkpt lat="49.2750272" lon="19.82630376">
<ele>1012</ele>
<time>2014-08-20T12:36:35Z</time>
</trkpt>
<trkpt lat="49.2750272" lon="19.82630376">
<ele>1012</ele>
<time>2014-08-20T12:36:41Z</time>
</trkpt>
<trkpt lat="49.27500049" lon="19.82627729">
<ele>1013</ele>
<time>2014-08-20T12:36:47Z</time>
</trkpt>
<trkpt lat="49.2750229" lon="19.82607534">
<ele>1012</ele>
<time>2014-08-20T12:36:53Z</time>
</trkpt>
<trkpt lat="49.27498072" lon="19.82603888">
<ele>1009</ele>
<time>2014-08-20T12:36:59Z</time>
</trkpt>
<trkpt lat="49.27498072" lon="19.82603888">
<ele>1009</ele>
<time>2014-08-20T12:37:05Z</time>
</trkpt>
<trkpt lat="49.27491501" lon="19.82591152">
<ele>1011</ele>
<time>2014-08-20T12:37:11Z</time>
</trkpt>
<trkpt lat="49.27488467" lon="19.82582482">
<ele>1012</ele>
<time>2014-08-20T12:37:17Z</time>
</trkpt>
<trkpt lat="49.27488467" lon="19.82582482">
<ele>1012</ele>
<time>2014-08-20T12:37:22Z</time>
</trkpt>
<trkpt lat="49.2748362" lon="19.82576117">
<ele>1015</ele>
<time>2014-08-20T12:37:29Z</time>
</trkpt>
<trkpt lat="49.2748362" lon="19.82576117">
<ele>1015</ele>
<time>2014-08-20T12:37:35Z</time>
</trkpt>
<trkpt lat="49.27481278" lon="19.82564093">
<ele>1019</ele>
<time>2014-08-20T12:37:41Z</time>
</trkpt>
<trkpt lat="49.27475146" lon="19.82552906">
<ele>1015</ele>
<time>2014-08-20T12:37:47Z</time>
</trkpt>
<trkpt lat="49.27469721" lon="19.82533602">
<ele>1015</ele>
<time>2014-08-20T12:37:53Z</time>
</trkpt>
<trkpt lat="49.27464404" lon="19.82530522">
<ele>1016</ele>
<time>2014-08-20T12:37:59Z</time>
</trkpt>
<trkpt lat="49.27456628" lon="19.82525676">
<ele>1016</ele>
<time>2014-08-20T12:38:05Z</time>
</trkpt>
<trkpt lat="49.27455332" lon="19.82509597">
<ele>1005</ele>
<time>2014-08-20T12:38:10Z</time>
</trkpt>
<trkpt lat="49.27449528" lon="19.82505305">
<ele>1009</ele>
<time>2014-08-20T12:38:16Z</time>
</trkpt>
<trkpt lat="49.27443312" lon="19.82501273">
<ele>1012</ele>
<time>2014-08-20T12:38:22Z</time>
</trkpt>
<trkpt lat="49.27443312" lon="19.82501273">
<ele>1012</ele>
<time>2014-08-20T12:38:29Z</time>
</trkpt>
<trkpt lat="49.27439827" lon="19.82497204">
<ele>1017</ele>
<time>2014-08-20T12:38:35Z</time>
</trkpt>
<trkpt lat="49.27425228" lon="19.82483593">
<ele>1008</ele>
<time>2014-08-20T12:38:41Z</time>
</trkpt>
<trkpt lat="49.27418654" lon="19.82475802">
<ele>1005</ele>
<time>2014-08-20T12:38:47Z</time>
</trkpt>
<trkpt lat="49.27418121" lon="19.82464026">
<ele>1000</ele>
<time>2014-08-20T12:38:53Z</time>
</trkpt>
<trkpt lat="49.27413673" lon="19.82454373">
<ele>1003</ele>
<time>2014-08-20T12:38:59Z</time>
</trkpt>
<trkpt lat="49.27408976" lon="19.82448405">
<ele>1001</ele>
<time>2014-08-20T12:39:05Z</time>
</trkpt>
<trkpt lat="49.27401554" lon="19.82441429">
<ele>997</ele>
<time>2014-08-20T12:39:11Z</time>
</trkpt>
<trkpt lat="49.27392609" lon="19.82429784">
<ele>990</ele>
<time>2014-08-20T12:39:17Z</time>
</trkpt>
<trkpt lat="49.27387801" lon="19.82424269">
<ele>992</ele>
<time>2014-08-20T12:39:23Z</time>
</trkpt>
<trkpt lat="49.27382499" lon="19.82416531">
<ele>990</ele>
<time>2014-08-20T12:39:29Z</time>
</trkpt>
<trkpt lat="49.27378509" lon="19.82412054">
<ele>994</ele>
<time>2014-08-20T12:39:35Z</time>
</trkpt>
<trkpt lat="49.2737123" lon="19.82403952">
<ele>989</ele>
<time>2014-08-20T12:39:41Z</time>
</trkpt>
<trkpt lat="49.27365727" lon="19.82395617">
<ele>989</ele>
<time>2014-08-20T12:39:47Z</time>
</trkpt>
<trkpt lat="49.27360973" lon="19.82387101">
<ele>989</ele>
<time>2014-08-20T12:39:53Z</time>
</trkpt>
<trkpt lat="49.27356337" lon="19.82378833">
<ele>990</ele>
<time>2014-08-20T12:39:59Z</time>
</trkpt>
<trkpt lat="49.27352821" lon="19.82371236">
<ele>996</ele>
<time>2014-08-20T12:40:05Z</time>
</trkpt>
<trkpt lat="49.27348595" lon="19.82363618">
<ele>998</ele>
<time>2014-08-20T12:40:10Z</time>
</trkpt>
<trkpt lat="49.2734558" lon="19.82357843">
<ele>1004</ele>
<time>2014-08-20T12:40:16Z</time>
</trkpt>
<trkpt lat="49.27342317" lon="19.82351707">
<ele>1006</ele>
<time>2014-08-20T12:40:23Z</time>
</trkpt>
<trkpt lat="49.2733531" lon="19.82344602">
<ele>1006</ele>
<time>2014-08-20T12:40:29Z</time>
</trkpt>
<trkpt lat="49.27331174" lon="19.82334703">
<ele>1005</ele>
<time>2014-08-20T12:40:35Z</time>
</trkpt>
<trkpt lat="49.27326579" lon="19.82325369">
<ele>1004</ele>
<time>2014-08-20T12:40:41Z</time>
</trkpt>
<trkpt lat="49.27320789" lon="19.82317735">
<ele>1001</ele>
<time>2014-08-20T12:40:47Z</time>
</trkpt>
<trkpt lat="49.27314004" lon="19.82311503">
<ele>1001</ele>
<time>2014-08-20T12:40:53Z</time>
</trkpt>
<trkpt lat="49.27309962" lon="19.82301703">
<ele>999</ele>
<time>2014-08-20T12:40:59Z</time>
</trkpt>
<trkpt lat="49.27302378" lon="19.82294894">
<ele>997</ele>
<time>2014-08-20T12:41:05Z</time>
</trkpt>
<trkpt lat="49.27295841" lon="19.82287808">
<ele>995</ele>
<time>2014-08-20T12:41:11Z</time>
</trkpt>
<trkpt lat="49.27292301" lon="19.82279786">
<ele>999</ele>
<time>2014-08-20T12:41:17Z</time>
</trkpt>
<trkpt lat="49.27288498" lon="19.8227151">
<ele>1000</ele>
<time>2014-08-20T12:41:23Z</time>
</trkpt>
<trkpt lat="49.27285509" lon="19.82264168">
<ele>1003</ele>
<time>2014-08-20T12:41:29Z</time>
</trkpt>
<trkpt lat="49.27281309" lon="19.82256373">
<ele>1004</ele>
<time>2014-08-20T12:41:35Z</time>
</trkpt>
<trkpt lat="49.27276191" lon="19.82250143">
<ele>1006</ele>
<time>2014-08-20T12:41:41Z</time>
</trkpt>
<trkpt lat="49.27271624" lon="19.82243838">
<ele>1007</ele>
<time>2014-08-20T12:41:47Z</time>
</trkpt>
<trkpt lat="49.2726778" lon="19.82237004">
<ele>1010</ele>
<time>2014-08-20T12:41:53Z</time>
</trkpt>
<trkpt lat="49.27264649" lon="19.82231679">
<ele>1015</ele>
<time>2014-08-20T12:41:59Z</time>
</trkpt>
<trkpt lat="49.27261078" lon="19.82224593">
<ele>1017</ele>
<time>2014-08-20T12:42:05Z</time>
</trkpt>
<trkpt lat="49.27256217" lon="19.8221611">
<ele>1020</ele>
<time>2014-08-20T12:42:11Z</time>
</trkpt>
<trkpt lat="49.27256217" lon="19.8221611">
<ele>1020</ele>
<time>2014-08-20T12:42:17Z</time>
</trkpt>
<trkpt lat="49.27251164" lon="19.82203285">
<ele>1030</ele>
<time>2014-08-20T12:42:23Z</time>
</trkpt>
<trkpt lat="49.2724708" lon="19.821985">
<ele>1034</ele>
<time>2014-08-20T12:42:29Z</time>
</trkpt>
<trkpt lat="49.27242824" lon="19.82191119">
<ele>1037</ele>
<time>2014-08-20T12:42:35Z</time>
</trkpt>
<trkpt lat="49.27239022" lon="19.82186096">
<ele>1040</ele>
<time>2014-08-20T12:42:41Z</time>
</trkpt>
<trkpt lat="49.2723427" lon="19.82178755">
<ele>1039</ele>
<time>2014-08-20T12:42:47Z</time>
</trkpt>
<trkpt lat="49.27230452" lon="19.82172483">
<ele>1042</ele>
<time>2014-08-20T12:42:53Z</time>
</trkpt>
<trkpt lat="49.27225072" lon="19.82163937">
<ele>1041</ele>
<time>2014-08-20T12:42:59Z</time>
</trkpt>
<trkpt lat="49.27219601" lon="19.8215586">
<ele>1042</ele>
<time>2014-08-20T12:43:05Z</time>
</trkpt>
<trkpt lat="49.27219601" lon="19.8215586">
<ele>1042</ele>
<time>2014-08-20T12:43:11Z</time>
</trkpt>
<trkpt lat="49.27213616" lon="19.82140271">
<ele>1038</ele>
<time>2014-08-20T12:43:17Z</time>
</trkpt>
<trkpt lat="49.27198692" lon="19.82121893">
<ele>1023</ele>
<time>2014-08-20T12:43:23Z</time>
</trkpt>
<trkpt lat="49.27193283" lon="19.82111158">
<ele>1022</ele>
<time>2014-08-20T12:43:29Z</time>
</trkpt>
<trkpt lat="49.27187349" lon="19.8210312">
<ele>1021</ele>
<time>2014-08-20T12:43:35Z</time>
</trkpt>
<trkpt lat="49.27181021" lon="19.82094621">
<ele>1014</ele>
<time>2014-08-20T12:43:40Z</time>
</trkpt>
<trkpt lat="49.27174254" lon="19.82086514">
<ele>1009</ele>
<time>2014-08-20T12:43:47Z</time>
</trkpt>
<trkpt lat="49.27165038" lon="19.82072949">
<ele>1012</ele>
<time>2014-08-20T12:43:53Z</time>
</trkpt>
<trkpt lat="49.27165038" lon="19.82072949">
<ele>1012</ele>
<time>2014-08-20T12:43:59Z</time>
</trkpt>
<trkpt lat="49.27151577" lon="19.82062892">
<ele>1009</ele>
<time>2014-08-20T12:44:05Z</time>
</trkpt>
<trkpt lat="49.27151577" lon="19.82062892">
<ele>1009</ele>
<time>2014-08-20T12:44:11Z</time>
</trkpt>
<trkpt lat="49.27141629" lon="19.82050016">
<ele>1004</ele>
<time>2014-08-20T12:44:17Z</time>
</trkpt>
<trkpt lat="49.27132978" lon="19.82039629">
<ele>1005</ele>
<time>2014-08-20T12:44:23Z</time>
</trkpt>
<trkpt lat="49.27127091" lon="19.82031033">
<ele>1001</ele>
<time>2014-08-20T12:44:29Z</time>
</trkpt>
<trkpt lat="49.27127091" lon="19.82031033">
<ele>1001</ele>
<time>2014-08-20T12:44:35Z</time>
</trkpt>
<trkpt lat="49.27117414" lon="19.8202192">
<ele>992</ele>
<time>2014-08-20T12:44:41Z</time>
</trkpt>
<trkpt lat="49.27115531" lon="19.82014944">
<ele>990</ele>
<time>2014-08-20T12:44:47Z</time>
</trkpt>
<trkpt lat="49.27115531" lon="19.82014944">
<ele>990</ele>
<time>2014-08-20T12:44:53Z</time>
</trkpt>
<trkpt lat="49.2710378" lon="19.81999661">
<ele>992</ele>
<time>2014-08-20T12:44:59Z</time>
</trkpt>
<trkpt lat="49.27097245" lon="19.81990779">
<ele>994</ele>
<time>2014-08-20T12:45:05Z</time>
</trkpt>
<trkpt lat="49.2709349" lon="19.81984241">
<ele>998</ele>
<time>2014-08-20T12:45:11Z</time>
</trkpt>
<trkpt lat="49.2709349" lon="19.81984241">
<ele>998</ele>
<time>2014-08-20T12:45:17Z</time>
</trkpt>
<trkpt lat="49.27082556" lon="19.81978972">
<ele>1006</ele>
<time>2014-08-20T12:45:23Z</time>
</trkpt>
<trkpt lat="49.27075644" lon="19.81974677">
<ele>1001</ele>
<time>2014-08-20T12:45:29Z</time>
</trkpt>
<trkpt lat="49.27075644" lon="19.81974677">
<ele>1001</ele>
<time>2014-08-20T12:45:35Z</time>
</trkpt>
<trkpt lat="49.27073691" lon="19.8197119">
<ele>1002</ele>
<time>2014-08-20T12:45:41Z</time>
</trkpt>
<trkpt lat="49.27069571" lon="19.81968978">
<ele>1000</ele>
<time>2014-08-20T12:45:47Z</time>
</trkpt>
<trkpt lat="49.2705945" lon="19.81946919">
<ele>1008</ele>
<time>2014-08-20T12:45:53Z</time>
</trkpt>
<trkpt lat="49.27056985" lon="19.81937622">
<ele>1011</ele>
<time>2014-08-20T12:45:59Z</time>
</trkpt>
<trkpt lat="49.27054548" lon="19.81931525">
<ele>1016</ele>
<time>2014-08-20T12:46:05Z</time>
</trkpt>
<trkpt lat="49.27054548" lon="19.81931525">
<ele>1016</ele>
<time>2014-08-20T12:46:11Z</time>
</trkpt>
<trkpt lat="49.27050871" lon="19.81930712">
<ele>1018</ele>
<time>2014-08-20T12:46:17Z</time>
</trkpt>
<trkpt lat="49.27048794" lon="19.81927243">
<ele>1023</ele>
<time>2014-08-20T12:46:23Z</time>
</trkpt>
<trkpt lat="49.27045515" lon="19.81922838">
<ele>1027</ele>
<time>2014-08-20T12:46:29Z</time>
</trkpt>
<trkpt lat="49.2704096" lon="19.8191442">
<ele>1028</ele>
<time>2014-08-20T12:46:35Z</time>
</trkpt>
<trkpt lat="49.2703832" lon="19.81907184">
<ele>1026</ele>
<time>2014-08-20T12:46:41Z</time>
</trkpt>
<trkpt lat="49.27035849" lon="19.81899784">
<ele>1023</ele>
<time>2014-08-20T12:46:47Z</time>
</trkpt>
<trkpt lat="49.27035849" lon="19.81899784">
<ele>1023</ele>
<time>2014-08-20T12:46:53Z</time>
</trkpt>
<trkpt lat="49.27032055" lon="19.81897935">
<ele>1020</ele>
<time>2014-08-20T12:46:59Z</time>
</trkpt>
<trkpt lat="49.27016067" lon="19.81887493">
<ele>1010</ele>
<time>2014-08-20T12:47:05Z</time>
</trkpt>
<trkpt lat="49.27005007" lon="19.81878535">
<ele>1005</ele>
<time>2014-08-20T12:47:11Z</time>
</trkpt>
<trkpt lat="49.27005007" lon="19.81878535">
<ele>1005</ele>
<time>2014-08-20T12:47:17Z</time>
</trkpt>
<trkpt lat="49.26990418" lon="19.81869092">
<ele>1007</ele>
<time>2014-08-20T12:47:23Z</time>
</trkpt>
<trkpt lat="49.26985878" lon="19.81865306">
<ele>1011</ele>
<time>2014-08-20T12:47:28Z</time>
</trkpt>
<trkpt lat="49.26985878" lon="19.81865306">
<ele>1011</ele>
<time>2014-08-20T12:47:35Z</time>
</trkpt>
<trkpt lat="49.26975505" lon="19.81857987">
<ele>1005</ele>
<time>2014-08-20T12:47:41Z</time>
</trkpt>
<trkpt lat="49.26968433" lon="19.81858374">
<ele>1005</ele>
<time>2014-08-20T12:47:46Z</time>
</trkpt>
<trkpt lat="49.26958031" lon="19.81854342">
<ele>1000</ele>
<time>2014-08-20T12:47:53Z</time>
</trkpt>
<trkpt lat="49.2694658" lon="19.81838813">
<ele>998</ele>
<time>2014-08-20T12:47:59Z</time>
</trkpt>
<trkpt lat="49.2694368" lon="19.81827564">
<ele>995</ele>
<time>2014-08-20T12:48:05Z</time>
</trkpt>
<trkpt lat="49.26939617" lon="19.81817783">
<ele>996</ele>
<time>2014-08-20T12:48:11Z</time>
</trkpt>
<trkpt lat="49.26939617" lon="19.81817783">
<ele>996</ele>
<time>2014-08-20T12:48:17Z</time>
</trkpt>
<trkpt lat="49.26926631" lon="19.81804558">
<ele>997</ele>
<time>2014-08-20T12:48:23Z</time>
</trkpt>
<trkpt lat="49.26920408" lon="19.8179794">
<ele>996</ele>
<time>2014-08-20T12:48:29Z</time>
</trkpt>
<trkpt lat="49.26917114" lon="19.81792766">
<ele>996</ele>
<time>2014-08-20T12:48:35Z</time>
</trkpt>
<trkpt lat="49.26909953" lon="19.81782879">
<ele>997</ele>
<time>2014-08-20T12:48:40Z</time>
</trkpt>
<trkpt lat="49.26909953" lon="19.81782879">
<ele>997</ele>
<time>2014-08-20T12:48:46Z</time>
</trkpt>
<trkpt lat="49.26901183" lon="19.81768865">
<ele>1000</ele>
<time>2014-08-20T12:48:53Z</time>
</trkpt>
<trkpt lat="49.26901183" lon="19.81768865">
<ele>1000</ele>
<time>2014-08-20T12:48:59Z</time>
</trkpt>
<trkpt lat="49.26888445" lon="19.81757283">
<ele>1003</ele>
<time>2014-08-20T12:49:05Z</time>
</trkpt>
<trkpt lat="49.26888445" lon="19.81757283">
<ele>1003</ele>
<time>2014-08-20T12:49:11Z</time>
</trkpt>
<trkpt lat="49.26880844" lon="19.81748378">
<ele>1009</ele>
<time>2014-08-20T12:49:17Z</time>
</trkpt>
<trkpt lat="49.26880844" lon="19.81748378">
<ele>1009</ele>
<time>2014-08-20T12:49:23Z</time>
</trkpt>
<trkpt lat="49.26870345" lon="19.81738174">
<ele>1002</ele>
<time>2014-08-20T12:49:29Z</time>
</trkpt>
<trkpt lat="49.26858916" lon="19.81731655">
<ele>1004</ele>
<time>2014-08-20T12:49:35Z</time>
</trkpt>
<trkpt lat="49.26853081" lon="19.8172752">
<ele>1006</ele>
<time>2014-08-20T12:49:41Z</time>
</trkpt>
<trkpt lat="49.26848589" lon="19.81725819">
<ele>1005</ele>
<time>2014-08-20T12:49:47Z</time>
</trkpt>
<trkpt lat="49.26840541" lon="19.8172402">
<ele>1007</ele>
<time>2014-08-20T12:49:53Z</time>
</trkpt>
<trkpt lat="49.26836258" lon="19.81720587">
<ele>1006</ele>
<time>2014-08-20T12:49:59Z</time>
</trkpt>
<trkpt lat="49.2682879" lon="19.81712604">
<ele>1007</ele>
<time>2014-08-20T12:50:05Z</time>
</trkpt>
<trkpt lat="49.26823517" lon="19.81706755">
<ele>1013</ele>
<time>2014-08-20T12:50:11Z</time>
</trkpt>
<trkpt lat="49.26816969" lon="19.8170343">
<ele>1014</ele>
<time>2014-08-20T12:50:17Z</time>
</trkpt>
<trkpt lat="49.26810717" lon="19.81701198">
<ele>1017</ele>
<time>2014-08-20T12:50:23Z</time>
</trkpt>
<trkpt lat="49.26806055" lon="19.81699393">
<ele>1012</ele>
<time>2014-08-20T12:50:28Z</time>
</trkpt>
<trkpt lat="49.2679672" lon="19.81687187">
<ele>1006</ele>
<time>2014-08-20T12:50:35Z</time>
</trkpt>
<trkpt lat="49.26786345" lon="19.81676699">
<ele>1010</ele>
<time>2014-08-20T12:50:41Z</time>
</trkpt>
<trkpt lat="49.26780653" lon="19.81671345">
<ele>1004</ele>
<time>2014-08-20T12:50:47Z</time>
</trkpt>
<trkpt lat="49.26773127" lon="19.81665251">
<ele>1006</ele>
<time>2014-08-20T12:50:53Z</time>
</trkpt>
<trkpt lat="49.26773127" lon="19.81665251">
<ele>1006</ele>
<time>2014-08-20T12:50:59Z</time>
</trkpt>
<trkpt lat="49.26759496" lon="19.81653428">
<ele>1007</ele>
<time>2014-08-20T12:51:05Z</time>
</trkpt>
<trkpt lat="49.26759496" lon="19.81653428">
<ele>1007</ele>
<time>2014-08-20T12:51:11Z</time>
</trkpt>
<trkpt lat="49.26748056" lon="19.81647984">
<ele>1008</ele>
<time>2014-08-20T12:51:17Z</time>
</trkpt>
<trkpt lat="49.26737907" lon="19.81644716">
<ele>1009</ele>
<time>2014-08-20T12:51:23Z</time>
</trkpt>
<trkpt lat="49.26730453" lon="19.81642876">
<ele>1007</ele>
<time>2014-08-20T12:51:29Z</time>
</trkpt>
<trkpt lat="49.26730453" lon="19.81642876">
<ele>1007</ele>
<time>2014-08-20T12:51:35Z</time>
</trkpt>
<trkpt lat="49.26717723" lon="19.81637049">
<ele>1007</ele>
<time>2014-08-20T12:51:41Z</time>
</trkpt>
<trkpt lat="49.26717723" lon="19.81637049">
<ele>1007</ele>
<time>2014-08-20T12:51:47Z</time>
</trkpt>
<trkpt lat="49.26706147" lon="19.8163204">
<ele>1012</ele>
<time>2014-08-20T12:51:53Z</time>
</trkpt>
<trkpt lat="49.26699628" lon="19.81632637">
<ele>1014</ele>
<time>2014-08-20T12:51:59Z</time>
</trkpt>
<trkpt lat="49.26699628" lon="19.81632637">
<ele>1014</ele>
<time>2014-08-20T12:52:05Z</time>
</trkpt>
<trkpt lat="49.26691397" lon="19.81629889">
<ele>1019</ele>
<time>2014-08-20T12:52:11Z</time>
</trkpt>
<trkpt lat="49.26691397" lon="19.81629889">
<ele>1019</ele>
<time>2014-08-20T12:52:17Z</time>
</trkpt>
<trkpt lat="49.26680421" lon="19.81623777">
<ele>1015</ele>
<time>2014-08-20T12:52:23Z</time>
</trkpt>
<trkpt lat="49.26668882" lon="19.81622957">
<ele>1012</ele>
<time>2014-08-20T12:52:29Z</time>
</trkpt>
<trkpt lat="49.26662201" lon="19.81622939">
<ele>1011</ele>
<time>2014-08-20T12:52:35Z</time>
</trkpt>
<trkpt lat="49.26662201" lon="19.81622939">
<ele>1011</ele>
<time>2014-08-20T12:52:41Z</time>
</trkpt>
<trkpt lat="49.26662478" lon="19.8161234">
<ele>1007</ele>
<time>2014-08-20T12:52:47Z</time>
</trkpt>
<trkpt lat="49.26662478" lon="19.8161234">
<ele>1007</ele>
<time>2014-08-20T12:52:53Z</time>
</trkpt>
<trkpt lat="49.26659837" lon="19.81609568">
<ele>1004</ele>
<time>2014-08-20T12:52:59Z</time>
</trkpt>
<trkpt lat="49.26656047" lon="19.81609533">
<ele>1003</ele>
<time>2014-08-20T12:53:05Z</time>
</trkpt>
<trkpt lat="49.26657031" lon="19.81602931">
<ele>1006</ele>
<time>2014-08-20T12:53:11Z</time>
</trkpt>
<trkpt lat="49.26648184" lon="19.81606678">
<ele>1008</ele>
<time>2014-08-20T12:53:17Z</time>
</trkpt>
<trkpt lat="49.26642017" lon="19.81607453">
<ele>1006</ele>
<time>2014-08-20T12:53:23Z</time>
</trkpt>
<trkpt lat="49.26635146" lon="19.81608888">
<ele>1005</ele>
<time>2014-08-20T12:53:29Z</time>
</trkpt>
<trkpt lat="49.26635146" lon="19.81608888">
<ele>1005</ele>
<time>2014-08-20T12:53:35Z</time>
</trkpt>
<trkpt lat="49.26628865" lon="19.81610516">
<ele>1008</ele>
<time>2014-08-20T12:53:41Z</time>
</trkpt>
<trkpt lat="49.26621547" lon="19.81614841">
<ele>1014</ele>
<time>2014-08-20T12:53:47Z</time>
</trkpt>
<trkpt lat="49.26621547" lon="19.81614841">
<ele>1014</ele>
<time>2014-08-20T12:53:53Z</time>
</trkpt>
<trkpt lat="49.26617865" lon="19.81606632">
<ele>1017</ele>
<time>2014-08-20T12:53:59Z</time>
</trkpt>
<trkpt lat="49.26617865" lon="19.81606632">
<ele>1017</ele>
<time>2014-08-20T12:54:05Z</time>
</trkpt>
<trkpt lat="49.26608403" lon="19.81605322">
<ele>1019</ele>
<time>2014-08-20T12:54:11Z</time>
</trkpt>
<trkpt lat="49.26608403" lon="19.81605322">
<ele>1019</ele>
<time>2014-08-20T12:54:17Z</time>
</trkpt>
<trkpt lat="49.2659068" lon="19.81615036">
<ele>1020</ele>
<time>2014-08-20T12:54:23Z</time>
</trkpt>
<trkpt lat="49.26582842" lon="19.81618262">
<ele>1024</ele>
<time>2014-08-20T12:54:29Z</time>
</trkpt>
<trkpt lat="49.26574359" lon="19.8161903">
<ele>1028</ele>
<time>2014-08-20T12:54:35Z</time>
</trkpt>
<trkpt lat="49.26567398" lon="19.81620584">
<ele>1027</ele>
<time>2014-08-20T12:54:41Z</time>
</trkpt>
<trkpt lat="49.26567398" lon="19.81620584">
<ele>1027</ele>
<time>2014-08-20T12:54:47Z</time>
</trkpt>
<trkpt lat="49.26556034" lon="19.81622124">
<ele>1032</ele>
<time>2014-08-20T12:54:53Z</time>
</trkpt>
<trkpt lat="49.26548837" lon="19.81625363">
<ele>1033</ele>
<time>2014-08-20T12:54:59Z</time>
</trkpt>
<trkpt lat="49.26541616" lon="19.81627131">
<ele>1034</ele>
<time>2014-08-20T12:55:05Z</time>
</trkpt>
<trkpt lat="49.26533843" lon="19.81627845">
<ele>1035</ele>
<time>2014-08-20T12:55:11Z</time>
</trkpt>
<trkpt lat="49.26526175" lon="19.81627666">
<ele>1037</ele>
<time>2014-08-20T12:55:17Z</time>
</trkpt>
<trkpt lat="49.26517981" lon="19.81626351">
<ele>1036</ele>
<time>2014-08-20T12:55:23Z</time>
</trkpt>
<trkpt lat="49.26509835" lon="19.81625623">
<ele>1037</ele>
<time>2014-08-20T12:55:29Z</time>
</trkpt>
<trkpt lat="49.26501973" lon="19.81625739">
<ele>1036</ele>
<time>2014-08-20T12:55:35Z</time>
</trkpt>
<trkpt lat="49.26494917" lon="19.8162692">
<ele>1035</ele>
<time>2014-08-20T12:55:41Z</time>
</trkpt>
<trkpt lat="49.26487507" lon="19.81627691">
<ele>1031</ele>
<time>2014-08-20T12:55:47Z</time>
</trkpt>
<trkpt lat="49.26479808" lon="19.81625241">
<ele>1026</ele>
<time>2014-08-20T12:55:53Z</time>
</trkpt>
<trkpt lat="49.26479808" lon="19.81625241">
<ele>1026</ele>
<time>2014-08-20T12:55:59Z</time>
</trkpt>
<trkpt lat="49.26476233" lon="19.81623752">
<ele>1025</ele>
<time>2014-08-20T12:56:05Z</time>
</trkpt>
<trkpt lat="49.26474359" lon="19.81621787">
<ele>1022</ele>
<time>2014-08-20T12:56:11Z</time>
</trkpt>
<trkpt lat="49.26471003" lon="19.81623039">
<ele>1022</ele>
<time>2014-08-20T12:56:17Z</time>
</trkpt>
<trkpt lat="49.26460826" lon="19.81625654">
<ele>1023</ele>
<time>2014-08-20T12:56:23Z</time>
</trkpt>
<trkpt lat="49.26453921" lon="19.81628556">
<ele>1022</ele>
<time>2014-08-20T12:56:29Z</time>
</trkpt>
<trkpt lat="49.26447384" lon="19.81631358">
<ele>1022</ele>
<time>2014-08-20T12:56:35Z</time>
</trkpt>
<trkpt lat="49.26440464" lon="19.81634333">
<ele>1022</ele>
<time>2014-08-20T12:56:41Z</time>
</trkpt>
<trkpt lat="49.26433834" lon="19.81637024">
<ele>1024</ele>
<time>2014-08-20T12:56:47Z</time>
</trkpt>
<trkpt lat="49.26428865" lon="19.81640501">
<ele>1026</ele>
<time>2014-08-20T12:56:53Z</time>
</trkpt>
<trkpt lat="49.26422499" lon="19.81641916">
<ele>1027</ele>
<time>2014-08-20T12:56:59Z</time>
</trkpt>
<trkpt lat="49.26417207" lon="19.81643906">
<ele>1026</ele>
<time>2014-08-20T12:57:05Z</time>
</trkpt>
<trkpt lat="49.26410132" lon="19.81644292">
<ele>1025</ele>
<time>2014-08-20T12:57:11Z</time>
</trkpt>
<trkpt lat="49.26410132" lon="19.81644292">
<ele>1025</ele>
<time>2014-08-20T12:57:17Z</time>
</trkpt>
<trkpt lat="49.26394596" lon="19.81646115">
<ele>1026</ele>
<time>2014-08-20T12:57:23Z</time>
</trkpt>
<trkpt lat="49.26388948" lon="19.81648068">
<ele>1028</ele>
<time>2014-08-20T12:57:29Z</time>
</trkpt>
<trkpt lat="49.26384128" lon="19.81652024">
<ele>1029</ele>
<time>2014-08-20T12:57:35Z</time>
</trkpt>
<trkpt lat="49.26384128" lon="19.81652024">
<ele>1029</ele>
<time>2014-08-20T12:57:41Z</time>
</trkpt>
<trkpt lat="49.26372366" lon="19.81654563">
<ele>1032</ele>
<time>2014-08-20T12:57:47Z</time>
</trkpt>
<trkpt lat="49.26365569" lon="19.81655006">
<ele>1031</ele>
<time>2014-08-20T12:57:53Z</time>
</trkpt>
<trkpt lat="49.26358216" lon="19.81654254">
<ele>1031</ele>
<time>2014-08-20T12:57:59Z</time>
</trkpt>
<trkpt lat="49.26351247" lon="19.81651931">
<ele>1030</ele>
<time>2014-08-20T12:58:05Z</time>
</trkpt>
<trkpt lat="49.26345738" lon="19.81652867">
<ele>1031</ele>
<time>2014-08-20T12:58:11Z</time>
</trkpt>
<trkpt lat="49.26340872" lon="19.81654414">
<ele>1031</ele>
<time>2014-08-20T12:58:17Z</time>
</trkpt>
<trkpt lat="49.26335011" lon="19.81655178">
<ele>1033</ele>
<time>2014-08-20T12:58:23Z</time>
</trkpt>
<trkpt lat="49.26329026" lon="19.81657288">
<ele>1033</ele>
<time>2014-08-20T12:58:29Z</time>
</trkpt>
<trkpt lat="49.26321159" lon="19.81662243">
<ele>1032</ele>
<time>2014-08-20T12:58:35Z</time>
</trkpt>
<trkpt lat="49.26313905" lon="19.81665152">
<ele>1030</ele>
<time>2014-08-20T12:58:41Z</time>
</trkpt>
<trkpt lat="49.26307209" lon="19.8166655">
<ele>1032</ele>
<time>2014-08-20T12:58:47Z</time>
</trkpt>
<trkpt lat="49.26300429" lon="19.81668309">
<ele>1032</ele>
<time>2014-08-20T12:58:53Z</time>
</trkpt>
<trkpt lat="49.26294708" lon="19.81670335">
<ele>1032</ele>
<time>2014-08-20T12:58:59Z</time>
</trkpt>
<trkpt lat="49.26287603" lon="19.8166864">
<ele>1034</ele>
<time>2014-08-20T12:59:05Z</time>
</trkpt>
<trkpt lat="49.26287603" lon="19.8166864">
<ele>1034</ele>
<time>2014-08-20T12:59:11Z</time>
</trkpt>
<trkpt lat="49.26273497" lon="19.81668354">
<ele>1033</ele>
<time>2014-08-20T12:59:17Z</time>
</trkpt>
<trkpt lat="49.26265283" lon="19.81669905">
<ele>1029</ele>
<time>2014-08-20T12:59:23Z</time>
</trkpt>
<trkpt lat="49.26257317" lon="19.81671146">
<ele>1029</ele>
<time>2014-08-20T12:59:29Z</time>
</trkpt>
<trkpt lat="49.26249568" lon="19.81671792">
<ele>1029</ele>
<time>2014-08-20T12:59:35Z</time>
</trkpt>
<trkpt lat="49.26241719" lon="19.81671912">
<ele>1030</ele>
<time>2014-08-20T12:59:41Z</time>
</trkpt>
<trkpt lat="49.26234506" lon="19.81673346">
<ele>1030</ele>
<time>2014-08-20T12:59:47Z</time>
</trkpt>
<trkpt lat="49.26227971" lon="19.81674722">
<ele>1032</ele>
<time>2014-08-20T12:59:53Z</time>
</trkpt>
<trkpt lat="49.26222575" lon="19.81677217">
<ele>1032</ele>
<time>2014-08-20T12:59:59Z</time>
</trkpt>
<trkpt lat="49.26215939" lon="19.8167986">
<ele>1034</ele>
<time>2014-08-20T13:00:05Z</time>
</trkpt>
<trkpt lat="49.26210209" lon="19.8168422">
<ele>1037</ele>
<time>2014-08-20T13:00:11Z</time>
</trkpt>
<trkpt lat="49.2620366" lon="19.81685477">
<ele>1038</ele>
<time>2014-08-20T13:00:17Z</time>
</trkpt>
<trkpt lat="49.26195465" lon="19.81684257">
<ele>1037</ele>
<time>2014-08-20T13:00:23Z</time>
</trkpt>
<trkpt lat="49.26186838" lon="19.81682691">
<ele>1036</ele>
<time>2014-08-20T13:00:29Z</time>
</trkpt>
<trkpt lat="49.26177666" lon="19.81680172">
<ele>1036</ele>
<time>2014-08-20T13:00:35Z</time>
</trkpt>
<trkpt lat="49.26167373" lon="19.81674481">
<ele>1035</ele>
<time>2014-08-20T13:00:41Z</time>
</trkpt>
<trkpt lat="49.26159916" lon="19.81668618">
<ele>1034</ele>
<time>2014-08-20T13:00:47Z</time>
</trkpt>
<trkpt lat="49.26153487" lon="19.81664511">
<ele>1033</ele>
<time>2014-08-20T13:00:53Z</time>
</trkpt>
<trkpt lat="49.26139826" lon="19.81659611">
<ele>1032</ele>
<time>2014-08-20T13:00:59Z</time>
</trkpt>
<trkpt lat="49.26131599" lon="19.81656291">
<ele>1030</ele>
<time>2014-08-20T13:01:05Z</time>
</trkpt>
<trkpt lat="49.26127061" lon="19.8165274">
<ele>1029</ele>
<time>2014-08-20T13:01:11Z</time>
</trkpt>
<trkpt lat="49.26127061" lon="19.8165274">
<ele>1029</ele>
<time>2014-08-20T13:01:17Z</time>
</trkpt>
<trkpt lat="49.26116545" lon="19.81644485">
<ele>1027</ele>
<time>2014-08-20T13:01:23Z</time>
</trkpt>
<trkpt lat="49.26110301" lon="19.81643218">
<ele>1025</ele>
<time>2014-08-20T13:01:29Z</time>
</trkpt>
<trkpt lat="49.26104166" lon="19.81641406">
<ele>1025</ele>
<time>2014-08-20T13:01:35Z</time>
</trkpt>
<trkpt lat="49.26098079" lon="19.81639731">
<ele>1025</ele>
<time>2014-08-20T13:01:41Z</time>
</trkpt>
<trkpt lat="49.26091551" lon="19.81637586">
<ele>1026</ele>
<time>2014-08-20T13:01:47Z</time>
</trkpt>
<trkpt lat="49.26086362" lon="19.81636964">
<ele>1027</ele>
<time>2014-08-20T13:01:53Z</time>
</trkpt>
<trkpt lat="49.26080431" lon="19.8163572">
<ele>1028</ele>
<time>2014-08-20T13:01:59Z</time>
</trkpt>
<trkpt lat="49.26073919" lon="19.81634216">
<ele>1029</ele>
<time>2014-08-20T13:02:05Z</time>
</trkpt>
<trkpt lat="49.26067314" lon="19.8163226">
<ele>1029</ele>
<time>2014-08-20T13:02:11Z</time>
</trkpt>
<trkpt lat="49.26060144" lon="19.81628607">
<ele>1028</ele>
<time>2014-08-20T13:02:17Z</time>
</trkpt>
<trkpt lat="49.26053673" lon="19.81625195">
<ele>1028</ele>
<time>2014-08-20T13:02:23Z</time>
</trkpt>
<trkpt lat="49.26046175" lon="19.81620968">
<ele>1028</ele>
<time>2014-08-20T13:02:29Z</time>
</trkpt>
<trkpt lat="49.26040299" lon="19.81617682">
<ele>1028</ele>
<time>2014-08-20T13:02:35Z</time>
</trkpt>
<trkpt lat="49.26033985" lon="19.8161524">
<ele>1030</ele>
<time>2014-08-20T13:02:41Z</time>
</trkpt>
<trkpt lat="49.26027615" lon="19.81611104">
<ele>1030</ele>
<time>2014-08-20T13:02:47Z</time>
</trkpt>
<trkpt lat="49.26020903" lon="19.81608504">
<ele>1031</ele>
<time>2014-08-20T13:02:53Z</time>
</trkpt>
<trkpt lat="49.26013776" lon="19.81604234">
<ele>1031</ele>
<time>2014-08-20T13:02:59Z</time>
</trkpt>
<trkpt lat="49.26005874" lon="19.81599069">
<ele>1031</ele>
<time>2014-08-20T13:03:05Z</time>
</trkpt>
<trkpt lat="49.26000053" lon="19.81595489">
<ele>1030</ele>
<time>2014-08-20T13:03:11Z</time>
</trkpt>
<trkpt lat="49.25993491" lon="19.8159151">
<ele>1030</ele>
<time>2014-08-20T13:03:17Z</time>
</trkpt>
<trkpt lat="49.25987954" lon="19.81586903">
<ele>1029</ele>
<time>2014-08-20T13:03:23Z</time>
</trkpt>
<trkpt lat="49.25987954" lon="19.81586903">
<ele>1029</ele>
<time>2014-08-20T13:03:29Z</time>
</trkpt>
<trkpt lat="49.2598661" lon="19.8158364">
<ele>1029</ele>
<time>2014-08-20T13:03:35Z</time>
</trkpt>
<trkpt lat="49.25986196" lon="19.81582889">
<ele>1028</ele>
<time>2014-08-20T13:03:41Z</time>
</trkpt>
<trkpt lat="49.25985621" lon="19.81582204">
<ele>1028</ele>
<time>2014-08-20T13:03:47Z</time>
</trkpt>
<trkpt lat="49.25986023" lon="19.81579049">
<ele>1029</ele>
<time>2014-08-20T13:03:53Z</time>
</trkpt>
<trkpt lat="49.25986176" lon="19.81578723">
<ele>1028</ele>
<time>2014-08-20T13:03:59Z</time>
</trkpt>
<trkpt lat="49.25986186" lon="19.81578703">
<ele>1028</ele>
<time>2014-08-20T13:04:05Z</time>
</trkpt>
<trkpt lat="49.25986175" lon="19.81578681">
<ele>1029</ele>
<time>2014-08-20T13:04:11Z</time>
</trkpt>
<trkpt lat="49.25986174" lon="19.81578678">
<ele>1029</ele>
<time>2014-08-20T13:04:17Z</time>
</trkpt>
<trkpt lat="49.25986165" lon="19.8157865">
<ele>1029</ele>
<time>2014-08-20T13:04:23Z</time>
</trkpt>
<trkpt lat="49.25986159" lon="19.81578634">
<ele>1029</ele>
<time>2014-08-20T13:04:29Z</time>
</trkpt>
<trkpt lat="49.25986149" lon="19.81578624">
<ele>1028</ele>
<time>2014-08-20T13:04:35Z</time>
</trkpt>
<trkpt lat="49.25986233" lon="19.81577526">
<ele>1029</ele>
<time>2014-08-20T13:04:41Z</time>
</trkpt>
<trkpt lat="49.25986493" lon="19.81572805">
<ele>1030</ele>
<time>2014-08-20T13:04:47Z</time>
</trkpt>
<trkpt lat="49.25987536" lon="19.81571217">
<ele>1029</ele>
<time>2014-08-20T13:04:53Z</time>
</trkpt>
<trkpt lat="49.25980678" lon="19.81570072">
<ele>1029</ele>
<time>2014-08-20T13:04:59Z</time>
</trkpt>
<trkpt lat="49.25975953" lon="19.81562597">
<ele>1027</ele>
<time>2014-08-20T13:05:05Z</time>
</trkpt>
<trkpt lat="49.25975953" lon="19.81562597">
<ele>1027</ele>
<time>2014-08-20T13:05:11Z</time>
</trkpt>
<trkpt lat="49.25975617" lon="19.81559947">
<ele>1028</ele>
<time>2014-08-20T13:05:17Z</time>
</trkpt>
<trkpt lat="49.25975693" lon="19.81558347">
<ele>1029</ele>
<time>2014-08-20T13:05:23Z</time>
</trkpt>
<trkpt lat="49.25975632" lon="19.81558195">
<ele>1029</ele>
<time>2014-08-20T13:05:29Z</time>
</trkpt>
<trkpt lat="49.25975614" lon="19.81557961">
<ele>1029</ele>
<time>2014-08-20T13:05:35Z</time>
</trkpt>
<trkpt lat="49.25975602" lon="19.81557919">
<ele>1029</ele>
<time>2014-08-20T13:05:41Z</time>
</trkpt>
<trkpt lat="49.25975579" lon="19.81557896">
<ele>1029</ele>
<time>2014-08-20T13:05:47Z</time>
</trkpt>
<trkpt lat="49.25975572" lon="19.81557898">
<ele>1029</ele>
<time>2014-08-20T13:05:53Z</time>
</trkpt>
<trkpt lat="49.2597557" lon="19.81557899">
<ele>1029</ele>
<time>2014-08-20T13:05:59Z</time>
</trkpt>
<trkpt lat="49.25975571" lon="19.81557902">
<ele>1029</ele>
<time>2014-08-20T13:06:05Z</time>
</trkpt>
<trkpt lat="49.25975576" lon="19.81557925">
<ele>1029</ele>
<time>2014-08-20T13:06:11Z</time>
</trkpt>
<trkpt lat="49.25975579" lon="19.81557981">
<ele>1029</ele>
<time>2014-08-20T13:06:17Z</time>
</trkpt>
<trkpt lat="49.25975584" lon="19.81557998">
<ele>1029</ele>
<time>2014-08-20T13:06:23Z</time>
</trkpt>
<trkpt lat="49.25975591" lon="19.81558007">
<ele>1029</ele>
<time>2014-08-20T13:06:29Z</time>
</trkpt>
<trkpt lat="49.25975599" lon="19.81557991">
<ele>1029</ele>
<time>2014-08-20T13:06:35Z</time>
</trkpt>
<trkpt lat="49.25975609" lon="19.81557988">
<ele>1029</ele>
<time>2014-08-20T13:06:41Z</time>
</trkpt>
<trkpt lat="49.25975622" lon="19.81557989">
<ele>1029</ele>
<time>2014-08-20T13:06:47Z</time>
</trkpt>
<trkpt lat="49.25975621" lon="19.81557985">
<ele>1029</ele>
<time>2014-08-20T13:06:53Z</time>
</trkpt>
<trkpt lat="49.25975633" lon="19.81557984">
<ele>1029</ele>
<time>2014-08-20T13:06:59Z</time>
</trkpt>
<trkpt lat="49.25975438" lon="19.81559322">
<ele>1029</ele>
<time>2014-08-20T13:07:05Z</time>
</trkpt>
<trkpt lat="49.25975754" lon="19.81562044">
<ele>1031</ele>
<time>2014-08-20T13:07:11Z</time>
</trkpt>
<trkpt lat="49.25976426" lon="19.81562916">
<ele>1032</ele>
<time>2014-08-20T13:07:17Z</time>
</trkpt>
<trkpt lat="49.25976466" lon="19.81562919">
<ele>1032</ele>
<time>2014-08-20T13:07:23Z</time>
</trkpt>
<trkpt lat="49.25976463" lon="19.81562901">
<ele>1032</ele>
<time>2014-08-20T13:07:29Z</time>
</trkpt>
<trkpt lat="49.25976475" lon="19.81562881">
<ele>1032</ele>
<time>2014-08-20T13:07:35Z</time>
</trkpt>
<trkpt lat="49.25976492" lon="19.81562872">
<ele>1032</ele>
<time>2014-08-20T13:07:41Z</time>
</trkpt>
<trkpt lat="49.25976509" lon="19.81562893">
<ele>1032</ele>
<time>2014-08-20T13:07:47Z</time>
</trkpt>
<trkpt lat="49.25976512" lon="19.81562892">
<ele>1032</ele>
<time>2014-08-20T13:07:53Z</time>
</trkpt>
<trkpt lat="49.25976506" lon="19.81562891">
<ele>1032</ele>
<time>2014-08-20T13:07:59Z</time>
</trkpt>
<trkpt lat="49.25976504" lon="19.81562892">
<ele>1032</ele>
<time>2014-08-20T13:08:05Z</time>
</trkpt>
<trkpt lat="49.25976499" lon="19.815629">
<ele>1032</ele>
<time>2014-08-20T13:08:11Z</time>
</trkpt>
<trkpt lat="49.25976507" lon="19.81562906">
<ele>1032</ele>
<time>2014-08-20T13:08:17Z</time>
</trkpt>
<trkpt lat="49.25976833" lon="19.81562639">
<ele>1031</ele>
<time>2014-08-20T13:08:23Z</time>
</trkpt>
<trkpt lat="49.25977959" lon="19.81561724">
<ele>1031</ele>
<time>2014-08-20T13:08:29Z</time>
</trkpt>
<trkpt lat="49.25978624" lon="19.81561148">
<ele>1031</ele>
<time>2014-08-20T13:08:35Z</time>
</trkpt>
<trkpt lat="49.25978802" lon="19.8156134">
<ele>1032</ele>
<time>2014-08-20T13:08:41Z</time>
</trkpt>
<trkpt lat="49.25978844" lon="19.81561395">
<ele>1032</ele>
<time>2014-08-20T13:08:47Z</time>
</trkpt>
<trkpt lat="49.25978852" lon="19.81561448">
<ele>1032</ele>
<time>2014-08-20T13:08:53Z</time>
</trkpt>
<trkpt lat="49.2597885" lon="19.81561482">
<ele>1032</ele>
<time>2014-08-20T13:08:59Z</time>
</trkpt>
<trkpt lat="49.25978851" lon="19.815615">
<ele>1032</ele>
<time>2014-08-20T13:09:05Z</time>
</trkpt>
<trkpt lat="49.25978834" lon="19.81561501">
<ele>1032</ele>
<time>2014-08-20T13:09:11Z</time>
</trkpt>
<trkpt lat="49.25978856" lon="19.81561506">
<ele>1032</ele>
<time>2014-08-20T13:09:17Z</time>
</trkpt>
<trkpt lat="49.25978852" lon="19.81561463">
<ele>1032</ele>
<time>2014-08-20T13:09:23Z</time>
</trkpt>
<trkpt lat="49.25978876" lon="19.81561521">
<ele>1032</ele>
<time>2014-08-20T13:09:29Z</time>
</trkpt>
<trkpt lat="49.25978901" lon="19.81561601">
<ele>1032</ele>
<time>2014-08-20T13:09:35Z</time>
</trkpt>
<trkpt lat="49.25978901" lon="19.81561629">
<ele>1032</ele>
<time>2014-08-20T13:09:41Z</time>
</trkpt>
<trkpt lat="49.25978905" lon="19.81561634">
<ele>1032</ele>
<time>2014-08-20T13:09:47Z</time>
</trkpt>
<trkpt lat="49.25978913" lon="19.81561652">
<ele>1032</ele>
<time>2014-08-20T13:09:53Z</time>
</trkpt>
<trkpt lat="49.25978916" lon="19.81561662">
<ele>1032</ele>
<time>2014-08-20T13:09:59Z</time>
</trkpt>
<trkpt lat="49.25978926" lon="19.81561712">
<ele>1032</ele>
<time>2014-08-20T13:10:05Z</time>
</trkpt>
<trkpt lat="49.25978958" lon="19.81561769">
<ele>1032</ele>
<time>2014-08-20T13:10:11Z</time>
</trkpt>
<trkpt lat="49.25978975" lon="19.81561824">
<ele>1032</ele>
<time>2014-08-20T13:10:17Z</time>
</trkpt>
<trkpt lat="49.25978995" lon="19.81561885">
<ele>1032</ele>
<time>2014-08-20T13:10:23Z</time>
</trkpt>
<trkpt lat="49.25979014" lon="19.81561922">
<ele>1032</ele>
<time>2014-08-20T13:10:29Z</time>
</trkpt>
<trkpt lat="49.25979013" lon="19.81561974">
<ele>1032</ele>
<time>2014-08-20T13:10:35Z</time>
</trkpt>
<trkpt lat="49.25979014" lon="19.81561986">
<ele>1032</ele>
<time>2014-08-20T13:10:41Z</time>
</trkpt>
<trkpt lat="49.25979008" lon="19.81562021">
<ele>1032</ele>
<time>2014-08-20T13:10:47Z</time>
</trkpt>
<trkpt lat="49.25979017" lon="19.81562055">
<ele>1032</ele>
<time>2014-08-20T13:10:53Z</time>
</trkpt>
<trkpt lat="49.25979076" lon="19.81562281">
<ele>1032</ele>
<time>2014-08-20T13:10:59Z</time>
</trkpt>
<trkpt lat="49.25979212" lon="19.81562807">
<ele>1033</ele>
<time>2014-08-20T13:11:05Z</time>
</trkpt>
<trkpt lat="49.25979362" lon="19.8156156">
<ele>1034</ele>
<time>2014-08-20T13:11:11Z</time>
</trkpt>
<trkpt lat="49.2598008" lon="19.81559249">
<ele>1034</ele>
<time>2014-08-20T13:11:17Z</time>
</trkpt>
<trkpt lat="49.25976143" lon="19.81560811">
<ele>1036</ele>
<time>2014-08-20T13:11:23Z</time>
</trkpt>
<trkpt lat="49.25965876" lon="19.81558636">
<ele>1037</ele>
<time>2014-08-20T13:11:29Z</time>
</trkpt>
<trkpt lat="49.25965876" lon="19.81558636">
<ele>1037</ele>
<time>2014-08-20T13:11:35Z</time>
</trkpt>
<trkpt lat="49.25961953" lon="19.81559982">
<ele>1037</ele>
<time>2014-08-20T13:11:41Z</time>
</trkpt>
<trkpt lat="49.25953381" lon="19.81555717">
<ele>1035</ele>
<time>2014-08-20T13:11:47Z</time>
</trkpt>
<trkpt lat="49.25948346" lon="19.81554732">
<ele>1035</ele>
<time>2014-08-20T13:11:53Z</time>
</trkpt>
<trkpt lat="49.25941517" lon="19.81553085">
<ele>1036</ele>
<time>2014-08-20T13:11:59Z</time>
</trkpt>
<trkpt lat="49.25934017" lon="19.81550636">
<ele>1037</ele>
<time>2014-08-20T13:12:05Z</time>
</trkpt>
<trkpt lat="49.25927457" lon="19.81545375">
<ele>1037</ele>
<time>2014-08-20T13:12:11Z</time>
</trkpt>
<trkpt lat="49.25921252" lon="19.81542471">
<ele>1037</ele>
<time>2014-08-20T13:12:17Z</time>
</trkpt>
<trkpt lat="49.25915269" lon="19.81539266">
<ele>1038</ele>
<time>2014-08-20T13:12:23Z</time>
</trkpt>
<trkpt lat="49.25915269" lon="19.81539266">
<ele>1038</ele>
<time>2014-08-20T13:12:29Z</time>
</trkpt>
<trkpt lat="49.25912987" lon="19.81540812">
<ele>1038</ele>
<time>2014-08-20T13:12:35Z</time>
</trkpt>
<trkpt lat="49.25901888" lon="19.81534951">
<ele>1030</ele>
<time>2014-08-20T13:12:41Z</time>
</trkpt>
<trkpt lat="49.25895042" lon="19.81531565">
<ele>1030</ele>
<time>2014-08-20T13:12:47Z</time>
</trkpt>
<trkpt lat="49.25888335" lon="19.81526298">
<ele>1028</ele>
<time>2014-08-20T13:12:53Z</time>
</trkpt>
<trkpt lat="49.25882142" lon="19.81519631">
<ele>1025</ele>
<time>2014-08-20T13:12:59Z</time>
</trkpt>
<trkpt lat="49.25878823" lon="19.8151088">
<ele>1026</ele>
<time>2014-08-20T13:13:05Z</time>
</trkpt>
<trkpt lat="49.25877659" lon="19.815027">
<ele>1028</ele>
<time>2014-08-20T13:13:11Z</time>
</trkpt>
<trkpt lat="49.25877488" lon="19.81492456">
<ele>1028</ele>
<time>2014-08-20T13:13:17Z</time>
</trkpt>
<trkpt lat="49.25879156" lon="19.81481664">
<ele>1028</ele>
<time>2014-08-20T13:13:23Z</time>
</trkpt>
<trkpt lat="49.25879156" lon="19.81481664">
<ele>1028</ele>
<time>2014-08-20T13:13:29Z</time>
</trkpt>
<trkpt lat="49.25879617" lon="19.81479835">
<ele>1028</ele>
<time>2014-08-20T13:13:35Z</time>
</trkpt>
<trkpt lat="49.25879581" lon="19.81480094">
<ele>1027</ele>
<time>2014-08-20T13:13:41Z</time>
</trkpt>
<trkpt lat="49.25880165" lon="19.81484584">
<ele>1026</ele>
<time>2014-08-20T13:13:47Z</time>
</trkpt>
<trkpt lat="49.2588017" lon="19.81489229">
<ele>1025</ele>
<time>2014-08-20T13:13:53Z</time>
</trkpt>
<trkpt lat="49.25879177" lon="19.81489589">
<ele>1023</ele>
<time>2014-08-20T13:13:59Z</time>
</trkpt>
<trkpt lat="49.25879156" lon="19.81491195">
<ele>1023</ele>
<time>2014-08-20T13:14:05Z</time>
</trkpt>
<trkpt lat="49.25880696" lon="19.81492678">
<ele>1026</ele>
<time>2014-08-20T13:14:11Z</time>
</trkpt>
<trkpt lat="49.25879422" lon="19.81493306">
<ele>1026</ele>
<time>2014-08-20T13:14:17Z</time>
</trkpt>
<trkpt lat="49.25878761" lon="19.81493124">
<ele>1026</ele>
<time>2014-08-20T13:14:23Z</time>
</trkpt>
<trkpt lat="49.25879093" lon="19.81492989">
<ele>1024</ele>
<time>2014-08-20T13:14:29Z</time>
</trkpt>
<trkpt lat="49.25878742" lon="19.81496484">
<ele>1023</ele>
<time>2014-08-20T13:14:35Z</time>
</trkpt>
<trkpt lat="49.25879417" lon="19.81495287">
<ele>1020</ele>
<time>2014-08-20T13:14:41Z</time>
</trkpt>
<trkpt lat="49.25878695" lon="19.81495079">
<ele>1020</ele>
<time>2014-08-20T13:14:47Z</time>
</trkpt>
<trkpt lat="49.25877667" lon="19.81496455">
<ele>1022</ele>
<time>2014-08-20T13:14:53Z</time>
</trkpt>
<trkpt lat="49.25876427" lon="19.81499953">
<ele>1022</ele>
<time>2014-08-20T13:14:59Z</time>
</trkpt>
<trkpt lat="49.2587159" lon="19.8151206">
<ele>1020</ele>
<time>2014-08-20T13:15:05Z</time>
</trkpt>
<trkpt lat="49.25867197" lon="19.81514774">
<ele>1024</ele>
<time>2014-08-20T13:15:11Z</time>
</trkpt>
<trkpt lat="49.25861704" lon="19.8151628">
<ele>1026</ele>
<time>2014-08-20T13:15:17Z</time>
</trkpt>
<trkpt lat="49.25856151" lon="19.81517253">
<ele>1027</ele>
<time>2014-08-20T13:15:23Z</time>
</trkpt>
<trkpt lat="49.25850194" lon="19.8151978">
<ele>1028</ele>
<time>2014-08-20T13:15:29Z</time>
</trkpt>
<trkpt lat="49.25845296" lon="19.81521455">
<ele>1029</ele>
<time>2014-08-20T13:15:35Z</time>
</trkpt>
<trkpt lat="49.25845296" lon="19.81521455">
<ele>1029</ele>
<time>2014-08-20T13:15:41Z</time>
</trkpt>
<trkpt lat="49.25840749" lon="19.81519683">
<ele>1028</ele>
<time>2014-08-20T13:15:47Z</time>
</trkpt>
<trkpt lat="49.25840749" lon="19.81519683">
<ele>1028</ele>
<time>2014-08-20T13:15:53Z</time>
</trkpt>
<trkpt lat="49.25837225" lon="19.81520895">
<ele>1029</ele>
<time>2014-08-20T13:15:59Z</time>
</trkpt>
<trkpt lat="49.2583159" lon="19.81524725">
<ele>1033</ele>
<time>2014-08-20T13:16:05Z</time>
</trkpt>
<trkpt lat="49.25824432" lon="19.81527034">
<ele>1033</ele>
<time>2014-08-20T13:16:11Z</time>
</trkpt>
<trkpt lat="49.25818004" lon="19.81531014">
<ele>1036</ele>
<time>2014-08-20T13:16:17Z</time>
</trkpt>
<trkpt lat="49.25812017" lon="19.81535705">
<ele>1039</ele>
<time>2014-08-20T13:16:23Z</time>
</trkpt>
<trkpt lat="49.25805236" lon="19.8153795">
<ele>1039</ele>
<time>2014-08-20T13:16:29Z</time>
</trkpt>
<trkpt lat="49.25801144" lon="19.81523518">
<ele>1036</ele>
<time>2014-08-20T13:16:35Z</time>
</trkpt>
<trkpt lat="49.25801144" lon="19.81523518">
<ele>1036</ele>
<time>2014-08-20T13:16:41Z</time>
</trkpt>
<trkpt lat="49.25798677" lon="19.81522188">
<ele>1036</ele>
<time>2014-08-20T13:16:47Z</time>
</trkpt>
<trkpt lat="49.25797959" lon="19.81522965">
<ele>1036</ele>
<time>2014-08-20T13:16:53Z</time>
</trkpt>
<trkpt lat="49.25797834" lon="19.8152301">
<ele>1036</ele>
<time>2014-08-20T13:16:59Z</time>
</trkpt>
<trkpt lat="49.25797609" lon="19.81522783">
<ele>1036</ele>
<time>2014-08-20T13:17:05Z</time>
</trkpt>
<trkpt lat="49.25796512" lon="19.81521752">
<ele>1037</ele>
<time>2014-08-20T13:17:11Z</time>
</trkpt>
<trkpt lat="49.2579538" lon="19.81521115">
<ele>1036</ele>
<time>2014-08-20T13:17:17Z</time>
</trkpt>
<trkpt lat="49.25795203" lon="19.81520657">
<ele>1037</ele>
<time>2014-08-20T13:17:23Z</time>
</trkpt>
<trkpt lat="49.25785359" lon="19.81528796">
<ele>1038</ele>
<time>2014-08-20T13:17:29Z</time>
</trkpt>
<trkpt lat="49.25785359" lon="19.81528796">
<ele>1038</ele>
<time>2014-08-20T13:17:35Z</time>
</trkpt>
<trkpt lat="49.25784064" lon="19.81525793">
<ele>1037</ele>
<time>2014-08-20T13:17:41Z</time>
</trkpt>
<trkpt lat="49.25783544" lon="19.81524097">
<ele>1038</ele>
<time>2014-08-20T13:17:47Z</time>
</trkpt>
<trkpt lat="49.25775537" lon="19.81530301">
<ele>1039</ele>
<time>2014-08-20T13:17:53Z</time>
</trkpt>
<trkpt lat="49.25775537" lon="19.81530301">
<ele>1039</ele>
<time>2014-08-20T13:17:59Z</time>
</trkpt>
<trkpt lat="49.25771391" lon="19.81531636">
<ele>1042</ele>
<time>2014-08-20T13:18:05Z</time>
</trkpt>
<trkpt lat="49.25769171" lon="19.81529495">
<ele>1041</ele>
<time>2014-08-20T13:18:11Z</time>
</trkpt>
<trkpt lat="49.25765078" lon="19.81530231">
<ele>1041</ele>
<time>2014-08-20T13:18:17Z</time>
</trkpt>
<trkpt lat="49.25757555" lon="19.81535966">
<ele>1041</ele>
<time>2014-08-20T13:18:23Z</time>
</trkpt>
<trkpt lat="49.25752453" lon="19.81537918">
<ele>1045</ele>
<time>2014-08-20T13:18:29Z</time>
</trkpt>
<trkpt lat="49.25747645" lon="19.81537297">
<ele>1044</ele>
<time>2014-08-20T13:18:35Z</time>
</trkpt>
<trkpt lat="49.25747645" lon="19.81537297">
<ele>1044</ele>
<time>2014-08-20T13:18:41Z</time>
</trkpt>
<trkpt lat="49.25737715" lon="19.81544459">
<ele>1044</ele>
<time>2014-08-20T13:18:47Z</time>
</trkpt>
<trkpt lat="49.25733793" lon="19.81549095">
<ele>1041</ele>
<time>2014-08-20T13:18:53Z</time>
</trkpt>
<trkpt lat="49.25733793" lon="19.81549095">
<ele>1041</ele>
<time>2014-08-20T13:18:59Z</time>
</trkpt>
<trkpt lat="49.25732619" lon="19.81545066">
<ele>1041</ele>
<time>2014-08-20T13:19:05Z</time>
</trkpt>
<trkpt lat="49.25728576" lon="19.81545896">
<ele>1042</ele>
<time>2014-08-20T13:19:11Z</time>
</trkpt>
<trkpt lat="49.25718745" lon="19.8155884">
<ele>1041</ele>
<time>2014-08-20T13:19:17Z</time>
</trkpt>
<trkpt lat="49.25713498" lon="19.81561357">
<ele>1044</ele>
<time>2014-08-20T13:19:23Z</time>
</trkpt>
<trkpt lat="49.25709626" lon="19.81565915">
<ele>1046</ele>
<time>2014-08-20T13:19:29Z</time>
</trkpt>
<trkpt lat="49.25704202" lon="19.81572318">
<ele>1043</ele>
<time>2014-08-20T13:19:35Z</time>
</trkpt>
<trkpt lat="49.25699854" lon="19.81579774">
<ele>1043</ele>
<time>2014-08-20T13:19:41Z</time>
</trkpt>
<trkpt lat="49.25693496" lon="19.81580251">
<ele>1043</ele>
<time>2014-08-20T13:19:47Z</time>
</trkpt>
<trkpt lat="49.25686464" lon="19.81576912">
<ele>1046</ele>
<time>2014-08-20T13:19:53Z</time>
</trkpt>
<trkpt lat="49.25679961" lon="19.81577009">
<ele>1044</ele>
<time>2014-08-20T13:19:59Z</time>
</trkpt>
<trkpt lat="49.2567211" lon="19.81575853">
<ele>1045</ele>
<time>2014-08-20T13:20:05Z</time>
</trkpt>
<trkpt lat="49.25664696" lon="19.81572598">
<ele>1045</ele>
<time>2014-08-20T13:20:11Z</time>
</trkpt>
<trkpt lat="49.25664696" lon="19.81572598">
<ele>1045</ele>
<time>2014-08-20T13:20:17Z</time>
</trkpt>
<trkpt lat="49.25655249" lon="19.81567481">
<ele>1045</ele>
<time>2014-08-20T13:20:23Z</time>
</trkpt>
<trkpt lat="49.25644878" lon="19.81569873">
<ele>1045</ele>
<time>2014-08-20T13:20:29Z</time>
</trkpt>
<trkpt lat="49.25637795" lon="19.81570759">
<ele>1044</ele>
<time>2014-08-20T13:20:35Z</time>
</trkpt>
<trkpt lat="49.25632284" lon="19.81573224">
<ele>1043</ele>
<time>2014-08-20T13:20:41Z</time>
</trkpt>
<trkpt lat="49.25626365" lon="19.81575771">
<ele>1042</ele>
<time>2014-08-20T13:20:47Z</time>
</trkpt>
<trkpt lat="49.25626365" lon="19.81575771">
<ele>1042</ele>
<time>2014-08-20T13:20:53Z</time>
</trkpt>
<trkpt lat="49.25611527" lon="19.81574867">
<ele>1040</ele>
<time>2014-08-20T13:20:59Z</time>
</trkpt>
<trkpt lat="49.25602856" lon="19.81574792">
<ele>1042</ele>
<time>2014-08-20T13:21:05Z</time>
</trkpt>
<trkpt lat="49.25594789" lon="19.81573966">
<ele>1044</ele>
<time>2014-08-20T13:21:11Z</time>
</trkpt>
<trkpt lat="49.25594789" lon="19.81573966">
<ele>1044</ele>
<time>2014-08-20T13:21:17Z</time>
</trkpt>
<trkpt lat="49.25580088" lon="19.81574506">
<ele>1046</ele>
<time>2014-08-20T13:21:23Z</time>
</trkpt>
<trkpt lat="49.25580088" lon="19.81574506">
<ele>1046</ele>
<time>2014-08-20T13:21:29Z</time>
</trkpt>
<trkpt lat="49.25567187" lon="19.81571548">
<ele>1051</ele>
<time>2014-08-20T13:21:35Z</time>
</trkpt>
<trkpt lat="49.25559908" lon="19.81571562">
<ele>1052</ele>
<time>2014-08-20T13:21:41Z</time>
</trkpt>
<trkpt lat="49.25552116" lon="19.81571518">
<ele>1053</ele>
<time>2014-08-20T13:21:47Z</time>
</trkpt>
<trkpt lat="49.25543799" lon="19.81570452">
<ele>1055</ele>
<time>2014-08-20T13:21:53Z</time>
</trkpt>
<trkpt lat="49.25534402" lon="19.81570415">
<ele>1055</ele>
<time>2014-08-20T13:22:01Z</time>
</trkpt>
<trkpt lat="49.25534402" lon="19.81570415">
<ele>1055</ele>
<time>2014-08-20T13:22:07Z</time>
</trkpt>
<trkpt lat="49.25525287" lon="19.81563985">
<ele>1053</ele>
<time>2014-08-20T13:22:13Z</time>
</trkpt>
<trkpt lat="49.25517396" lon="19.81561815">
<ele>1053</ele>
<time>2014-08-20T13:22:19Z</time>
</trkpt>
<trkpt lat="49.25509952" lon="19.81563288">
<ele>1055</ele>
<time>2014-08-20T13:22:25Z</time>
</trkpt>
<trkpt lat="49.25502363" lon="19.81564203">
<ele>1056</ele>
<time>2014-08-20T13:22:31Z</time>
</trkpt>
<trkpt lat="49.25496176" lon="19.81566185">
<ele>1056</ele>
<time>2014-08-20T13:22:37Z</time>
</trkpt>
<trkpt lat="49.25490699" lon="19.81566396">
<ele>1058</ele>
<time>2014-08-20T13:22:43Z</time>
</trkpt>
<trkpt lat="49.25483348" lon="19.81565094">
<ele>1061</ele>
<time>2014-08-20T13:22:49Z</time>
</trkpt>
<trkpt lat="49.25476777" lon="19.81565717">
<ele>1062</ele>
<time>2014-08-20T13:22:55Z</time>
</trkpt>
<trkpt lat="49.25470011" lon="19.8156383">
<ele>1061</ele>
<time>2014-08-20T13:23:01Z</time>
</trkpt>
<trkpt lat="49.25470011" lon="19.8156383">
<ele>1061</ele>
<time>2014-08-20T13:23:07Z</time>
</trkpt>
<trkpt lat="49.25460832" lon="19.81557045">
<ele>1057</ele>
<time>2014-08-20T13:23:13Z</time>
</trkpt>
<trkpt lat="49.25452555" lon="19.81553621">
<ele>1054</ele>
<time>2014-08-20T13:23:19Z</time>
</trkpt>
<trkpt lat="49.25446422" lon="19.81549084">
<ele>1052</ele>
<time>2014-08-20T13:23:25Z</time>
</trkpt>
<trkpt lat="49.25439021" lon="19.81547638">
<ele>1052</ele>
<time>2014-08-20T13:23:31Z</time>
</trkpt>
<trkpt lat="49.25431259" lon="19.81545168">
<ele>1050</ele>
<time>2014-08-20T13:23:37Z</time>
</trkpt>
<trkpt lat="49.25424717" lon="19.81543065">
<ele>1050</ele>
<time>2014-08-20T13:23:43Z</time>
</trkpt>
<trkpt lat="49.2541864" lon="19.81541857">
<ele>1047</ele>
<time>2014-08-20T13:23:49Z</time>
</trkpt>
<trkpt lat="49.2541864" lon="19.81541857">
<ele>1047</ele>
<time>2014-08-20T13:23:56Z</time>
</trkpt>
<trkpt lat="49.25416729" lon="19.8153728">
<ele>1048</ele>
<time>2014-08-20T13:24:02Z</time>
</trkpt>
<trkpt lat="49.2540707" lon="19.81539991">
<ele>1047</ele>
<time>2014-08-20T13:24:08Z</time>
</trkpt>
<trkpt lat="49.25402011" lon="19.81542062">
<ele>1047</ele>
<time>2014-08-20T13:24:14Z</time>
</trkpt>
<trkpt lat="49.25396543" lon="19.8154612">
<ele>1049</ele>
<time>2014-08-20T13:24:20Z</time>
</trkpt>
<trkpt lat="49.25390546" lon="19.81549324">
<ele>1052</ele>
<time>2014-08-20T13:24:26Z</time>
</trkpt>
<trkpt lat="49.25383891" lon="19.81551715">
<ele>1053</ele>
<time>2014-08-20T13:24:33Z</time>
</trkpt>
<trkpt lat="49.25377673" lon="19.81550546">
<ele>1056</ele>
<time>2014-08-20T13:24:39Z</time>
</trkpt>
<trkpt lat="49.25370937" lon="19.81548972">
<ele>1057</ele>
<time>2014-08-20T13:24:45Z</time>
</trkpt>
<trkpt lat="49.25362702" lon="19.81544035">
<ele>1054</ele>
<time>2014-08-20T13:24:52Z</time>
</trkpt>
<trkpt lat="49.25357763" lon="19.8154297">
<ele>1053</ele>
<time>2014-08-20T13:24:58Z</time>
</trkpt>
<trkpt lat="49.25357763" lon="19.8154297">
<ele>1053</ele>
<time>2014-08-20T13:25:04Z</time>
</trkpt>
<trkpt lat="49.25349405" lon="19.81548872">
<ele>1056</ele>
<time>2014-08-20T13:25:10Z</time>
</trkpt>
<trkpt lat="49.25344199" lon="19.81551966">
<ele>1057</ele>
<time>2014-08-20T13:25:16Z</time>
</trkpt>
<trkpt lat="49.25338271" lon="19.81554167">
<ele>1058</ele>
<time>2014-08-20T13:25:22Z</time>
</trkpt>
<trkpt lat="49.2533303" lon="19.81556821">
<ele>1061</ele>
<time>2014-08-20T13:25:28Z</time>
</trkpt>
<trkpt lat="49.25325937" lon="19.81559768">
<ele>1063</ele>
<time>2014-08-20T13:25:34Z</time>
</trkpt>
<trkpt lat="49.25318389" lon="19.81561523">
<ele>1062</ele>
<time>2014-08-20T13:25:40Z</time>
</trkpt>
<trkpt lat="49.25311382" lon="19.81562216">
<ele>1063</ele>
<time>2014-08-20T13:25:46Z</time>
</trkpt>
<trkpt lat="49.25304988" lon="19.8156262">
<ele>1064</ele>
<time>2014-08-20T13:25:52Z</time>
</trkpt>
<trkpt lat="49.2529962" lon="19.81561229">
<ele>1064</ele>
<time>2014-08-20T13:25:58Z</time>
</trkpt>
<trkpt lat="49.25293665" lon="19.8156149">
<ele>1065</ele>
<time>2014-08-20T13:26:04Z</time>
</trkpt>
<trkpt lat="49.2528694" lon="19.81559026">
<ele>1066</ele>
<time>2014-08-20T13:26:10Z</time>
</trkpt>
<trkpt lat="49.25281654" lon="19.81554807">
<ele>1066</ele>
<time>2014-08-20T13:26:16Z</time>
</trkpt>
<trkpt lat="49.25275087" lon="19.81556748">
<ele>1064</ele>
<time>2014-08-20T13:26:22Z</time>
</trkpt>
<trkpt lat="49.25268597" lon="19.81557975">
<ele>1066</ele>
<time>2014-08-20T13:26:28Z</time>
</trkpt>
<trkpt lat="49.25268597" lon="19.81557975">
<ele>1066</ele>
<time>2014-08-20T13:26:35Z</time>
</trkpt>
<trkpt lat="49.25267095" lon="19.81558266">
<ele>1065</ele>
<time>2014-08-20T13:26:41Z</time>
</trkpt>
<trkpt lat="49.25250118" lon="19.81552909">
<ele>1067</ele>
<time>2014-08-20T13:26:47Z</time>
</trkpt>
<trkpt lat="49.2524529" lon="19.81547216">
<ele>1066</ele>
<time>2014-08-20T13:26:53Z</time>
</trkpt>
<trkpt lat="49.25240342" lon="19.81546889">
<ele>1065</ele>
<time>2014-08-20T13:26:59Z</time>
</trkpt>
<trkpt lat="49.25235394" lon="19.81549613">
<ele>1067</ele>
<time>2014-08-20T13:27:05Z</time>
</trkpt>
<trkpt lat="49.25229474" lon="19.8155286">
<ele>1070</ele>
<time>2014-08-20T13:27:11Z</time>
</trkpt>
<trkpt lat="49.25222888" lon="19.81554541">
<ele>1071</ele>
<time>2014-08-20T13:27:17Z</time>
</trkpt>
<trkpt lat="49.25215994" lon="19.81553209">
<ele>1073</ele>
<time>2014-08-20T13:27:23Z</time>
</trkpt>
<trkpt lat="49.25209867" lon="19.81547432">
<ele>1072</ele>
<time>2014-08-20T13:27:29Z</time>
</trkpt>
<trkpt lat="49.25209867" lon="19.81547432">
<ele>1072</ele>
<time>2014-08-20T13:27:36Z</time>
</trkpt>
<trkpt lat="49.25202533" lon="19.81542234">
<ele>1072</ele>
<time>2014-08-20T13:27:42Z</time>
</trkpt>
<trkpt lat="49.25196834" lon="19.81540951">
<ele>1072</ele>
<time>2014-08-20T13:27:48Z</time>
</trkpt>
<trkpt lat="49.25190762" lon="19.8153981">
<ele>1072</ele>
<time>2014-08-20T13:27:54Z</time>
</trkpt>
<trkpt lat="49.25184293" lon="19.81538799">
<ele>1071</ele>
<time>2014-08-20T13:28:00Z</time>
</trkpt>
<trkpt lat="49.25177658" lon="19.81538062">
<ele>1073</ele>
<time>2014-08-20T13:28:06Z</time>
</trkpt>
<trkpt lat="49.25171013" lon="19.81537883">
<ele>1074</ele>
<time>2014-08-20T13:28:12Z</time>
</trkpt>
<trkpt lat="49.25165602" lon="19.81538318">
<ele>1073</ele>
<time>2014-08-20T13:28:18Z</time>
</trkpt>
<trkpt lat="49.25159744" lon="19.81539408">
<ele>1073</ele>
<time>2014-08-20T13:28:24Z</time>
</trkpt>
<trkpt lat="49.25153317" lon="19.81537083">
<ele>1072</ele>
<time>2014-08-20T13:28:30Z</time>
</trkpt>
<trkpt lat="49.25153317" lon="19.81537083">
<ele>1072</ele>
<time>2014-08-20T13:28:38Z</time>
</trkpt>
<trkpt lat="49.25136145" lon="19.81527689">
<ele>1071</ele>
<time>2014-08-20T13:28:44Z</time>
</trkpt>
<trkpt lat="49.25128139" lon="19.81523348">
<ele>1071</ele>
<time>2014-08-20T13:28:50Z</time>
</trkpt>
<trkpt lat="49.25120258" lon="19.81514714">
<ele>1070</ele>
<time>2014-08-20T13:28:56Z</time>
</trkpt>
<trkpt lat="49.25113836" lon="19.81510055">
<ele>1070</ele>
<time>2014-08-20T13:29:02Z</time>
</trkpt>
<trkpt lat="49.25108519" lon="19.81507046">
<ele>1069</ele>
<time>2014-08-20T13:29:08Z</time>
</trkpt>
<trkpt lat="49.25103559" lon="19.81507388">
<ele>1069</ele>
<time>2014-08-20T13:29:14Z</time>
</trkpt>
<trkpt lat="49.25098526" lon="19.81507957">
<ele>1070</ele>
<time>2014-08-20T13:29:20Z</time>
</trkpt>
<trkpt lat="49.25093799" lon="19.81508968">
<ele>1069</ele>
<time>2014-08-20T13:29:26Z</time>
</trkpt>
<trkpt lat="49.25088429" lon="19.81510284">
<ele>1070</ele>
<time>2014-08-20T13:29:33Z</time>
</trkpt>
<trkpt lat="49.25088429" lon="19.81510284">
<ele>1070</ele>
<time>2014-08-20T13:29:39Z</time>
</trkpt>
<trkpt lat="49.25074476" lon="19.81504853">
<ele>1066</ele>
<time>2014-08-20T13:29:45Z</time>
</trkpt>
<trkpt lat="49.25069074" lon="19.81500926">
<ele>1069</ele>
<time>2014-08-20T13:29:51Z</time>
</trkpt>
<trkpt lat="49.25064349" lon="19.81499397">
<ele>1071</ele>
<time>2014-08-20T13:29:57Z</time>
</trkpt>
<trkpt lat="49.250589" lon="19.81497375">
<ele>1071</ele>
<time>2014-08-20T13:30:03Z</time>
</trkpt>
<trkpt lat="49.25052091" lon="19.81499006">
<ele>1072</ele>
<time>2014-08-20T13:30:09Z</time>
</trkpt>
<trkpt lat="49.2504506" lon="19.81500321">
<ele>1070</ele>
<time>2014-08-20T13:30:15Z</time>
</trkpt>
<trkpt lat="49.25038546" lon="19.81501213">
<ele>1071</ele>
<time>2014-08-20T13:30:21Z</time>
</trkpt>
<trkpt lat="49.25033321" lon="19.81503526">
<ele>1071</ele>
<time>2014-08-20T13:30:27Z</time>
</trkpt>
<trkpt lat="49.25026776" lon="19.81506716">
<ele>1070</ele>
<time>2014-08-20T13:30:34Z</time>
</trkpt>
<trkpt lat="49.25020796" lon="19.81511032">
<ele>1070</ele>
<time>2014-08-20T13:30:40Z</time>
</trkpt>
<trkpt lat="49.2501503" lon="19.81513116">
<ele>1070</ele>
<time>2014-08-20T13:30:46Z</time>
</trkpt>
<trkpt lat="49.25010385" lon="19.81512761">
<ele>1071</ele>
<time>2014-08-20T13:30:52Z</time>
</trkpt>
<trkpt lat="49.25003196" lon="19.81514892">
<ele>1069</ele>
<time>2014-08-20T13:30:58Z</time>
</trkpt>
<trkpt lat="49.25003196" lon="19.81514892">
<ele>1069</ele>
<time>2014-08-20T13:31:04Z</time>
</trkpt>
<trkpt lat="49.24989496" lon="19.81521045">
<ele>1069</ele>
<time>2014-08-20T13:31:10Z</time>
</trkpt>
<trkpt lat="49.24983499" lon="19.81520974">
<ele>1068</ele>
<time>2014-08-20T13:31:16Z</time>
</trkpt>
<trkpt lat="49.24970471" lon="19.81516136">
<ele>1069</ele>
<time>2014-08-20T13:31:22Z</time>
</trkpt>
<trkpt lat="49.24964999" lon="19.81514279">
<ele>1070</ele>
<time>2014-08-20T13:31:28Z</time>
</trkpt>
<trkpt lat="49.24960003" lon="19.81511943">
<ele>1070</ele>
<time>2014-08-20T13:31:35Z</time>
</trkpt>
<trkpt lat="49.24944686" lon="19.81502574">
<ele>1071</ele>
<time>2014-08-20T13:31:42Z</time>
</trkpt>
<trkpt lat="49.2493678" lon="19.81500994">
<ele>1074</ele>
<time>2014-08-20T13:31:48Z</time>
</trkpt>
<trkpt lat="49.2493678" lon="19.81500994">
<ele>1074</ele>
<time>2014-08-20T13:31:54Z</time>
</trkpt>
<trkpt lat="49.24924792" lon="19.81487073">
<ele>1074</ele>
<time>2014-08-20T13:32:00Z</time>
</trkpt>
<trkpt lat="49.24920804" lon="19.81483555">
<ele>1074</ele>
<time>2014-08-20T13:32:06Z</time>
</trkpt>
<trkpt lat="49.24914297" lon="19.81482998">
<ele>1073</ele>
<time>2014-08-20T13:32:12Z</time>
</trkpt>
<trkpt lat="49.24906732" lon="19.81479506">
<ele>1074</ele>
<time>2014-08-20T13:32:18Z</time>
</trkpt>
<trkpt lat="49.24901577" lon="19.81476393">
<ele>1074</ele>
<time>2014-08-20T13:32:24Z</time>
</trkpt>
<trkpt lat="49.24895651" lon="19.81472689">
<ele>1073</ele>
<time>2014-08-20T13:32:30Z</time>
</trkpt>
<trkpt lat="49.24895651" lon="19.81472689">
<ele>1073</ele>
<time>2014-08-20T13:32:38Z</time>
</trkpt>
<trkpt lat="49.24882081" lon="19.81466621">
<ele>1077</ele>
<time>2014-08-20T13:32:44Z</time>
</trkpt>
<trkpt lat="49.2487512" lon="19.81463415">
<ele>1079</ele>
<time>2014-08-20T13:32:50Z</time>
</trkpt>
<trkpt lat="49.2486918" lon="19.81460807">
<ele>1079</ele>
<time>2014-08-20T13:32:56Z</time>
</trkpt>
<trkpt lat="49.24863272" lon="19.8145929">
<ele>1082</ele>
<time>2014-08-20T13:33:02Z</time>
</trkpt>
<trkpt lat="49.24859971" lon="19.81451225">
<ele>1078</ele>
<time>2014-08-20T13:33:08Z</time>
</trkpt>
<trkpt lat="49.24859971" lon="19.81451225">
<ele>1078</ele>
<time>2014-08-20T13:33:14Z</time>
</trkpt>
<trkpt lat="49.24863213" lon="19.8143056">
<ele>1074</ele>
<time>2014-08-20T13:33:20Z</time>
</trkpt>
<trkpt lat="49.24858926" lon="19.81434515">
<ele>1072</ele>
<time>2014-08-20T13:33:26Z</time>
</trkpt>
<trkpt lat="49.24847386" lon="19.81437484">
<ele>1070</ele>
<time>2014-08-20T13:33:33Z</time>
</trkpt>
<trkpt lat="49.24837136" lon="19.81436806">
<ele>1068</ele>
<time>2014-08-20T13:33:40Z</time>
</trkpt>
<trkpt lat="49.24828914" lon="19.81437122">
<ele>1070</ele>
<time>2014-08-20T13:33:46Z</time>
</trkpt>
<trkpt lat="49.24821172" lon="19.81438684">
<ele>1072</ele>
<time>2014-08-20T13:33:52Z</time>
</trkpt>
<trkpt lat="49.24812953" lon="19.81437511">
<ele>1073</ele>
<time>2014-08-20T13:33:58Z</time>
</trkpt>
<trkpt lat="49.24804734" lon="19.81437578">
<ele>1075</ele>
<time>2014-08-20T13:34:04Z</time>
</trkpt>
<trkpt lat="49.24796912" lon="19.8143714">
<ele>1076</ele>
<time>2014-08-20T13:34:10Z</time>
</trkpt>
<trkpt lat="49.2478955" lon="19.81436963">
<ele>1077</ele>
<time>2014-08-20T13:34:16Z</time>
</trkpt>
<trkpt lat="49.2478291" lon="19.81435337">
<ele>1079</ele>
<time>2014-08-20T13:34:22Z</time>
</trkpt>
<trkpt lat="49.24775976" lon="19.8142978">
<ele>1081</ele>
<time>2014-08-20T13:34:28Z</time>
</trkpt>
<trkpt lat="49.24769137" lon="19.81426323">
<ele>1080</ele>
<time>2014-08-20T13:34:35Z</time>
</trkpt>
<trkpt lat="49.24755581" lon="19.81421754">
<ele>1082</ele>
<time>2014-08-20T13:34:42Z</time>
</trkpt>
<trkpt lat="49.24748223" lon="19.81416603">
<ele>1081</ele>
<time>2014-08-20T13:34:48Z</time>
</trkpt>
<trkpt lat="49.2474028" lon="19.81413439">
<ele>1080</ele>
<time>2014-08-20T13:34:54Z</time>
</trkpt>
<trkpt lat="49.24731603" lon="19.81412308">
<ele>1081</ele>
<time>2014-08-20T13:35:00Z</time>
</trkpt>
<trkpt lat="49.24722308" lon="19.81413721">
<ele>1080</ele>
<time>2014-08-20T13:35:06Z</time>
</trkpt>
<trkpt lat="49.24714053" lon="19.81412425">
<ele>1079</ele>
<time>2014-08-20T13:35:12Z</time>
</trkpt>
<trkpt lat="49.24706926" lon="19.81411553">
<ele>1079</ele>
<time>2014-08-20T13:35:18Z</time>
</trkpt>
<trkpt lat="49.24706926" lon="19.81411553">
<ele>1079</ele>
<time>2014-08-20T13:35:24Z</time>
</trkpt>
<trkpt lat="49.24706028" lon="19.81411386">
<ele>1078</ele>
<time>2014-08-20T13:35:30Z</time>
</trkpt>
<trkpt lat="49.24704069" lon="19.81408411">
<ele>1079</ele>
<time>2014-08-20T13:35:37Z</time>
</trkpt>
<trkpt lat="49.24695062" lon="19.81399492">
<ele>1073</ele>
<time>2014-08-20T13:35:44Z</time>
</trkpt>
<trkpt lat="49.24686569" lon="19.81396093">
<ele>1069</ele>
<time>2014-08-20T13:35:50Z</time>
</trkpt>
<trkpt lat="49.24680564" lon="19.81391528">
<ele>1068</ele>
<time>2014-08-20T13:35:56Z</time>
</trkpt>
<trkpt lat="49.2467348" lon="19.81385636">
<ele>1065</ele>
<time>2014-08-20T13:36:02Z</time>
</trkpt>
<trkpt lat="49.24669257" lon="19.81378389">
<ele>1065</ele>
<time>2014-08-20T13:36:08Z</time>
</trkpt>
<trkpt lat="49.24664921" lon="19.81371499">
<ele>1065</ele>
<time>2014-08-20T13:36:14Z</time>
</trkpt>
<trkpt lat="49.24664821" lon="19.81362126">
<ele>1065</ele>
<time>2014-08-20T13:36:20Z</time>
</trkpt>
<trkpt lat="49.24664827" lon="19.81353131">
<ele>1065</ele>
<time>2014-08-20T13:36:26Z</time>
</trkpt>
<trkpt lat="49.24664827" lon="19.81353131">
<ele>1065</ele>
<time>2014-08-20T13:36:33Z</time>
</trkpt>
<trkpt lat="49.24660311" lon="19.81340302">
<ele>1065</ele>
<time>2014-08-20T13:36:40Z</time>
</trkpt>
<trkpt lat="49.24654642" lon="19.81334917">
<ele>1066</ele>
<time>2014-08-20T13:36:46Z</time>
</trkpt>
<trkpt lat="49.24654642" lon="19.81334917">
<ele>1066</ele>
<time>2014-08-20T13:36:52Z</time>
</trkpt>
<trkpt lat="49.24645037" lon="19.8133196">
<ele>1065</ele>
<time>2014-08-20T13:36:58Z</time>
</trkpt>
<trkpt lat="49.24645037" lon="19.8133196">
<ele>1065</ele>
<time>2014-08-20T13:37:04Z</time>
</trkpt>
<trkpt lat="49.24635941" lon="19.81329711">
<ele>1067</ele>
<time>2014-08-20T13:37:10Z</time>
</trkpt>
<trkpt lat="49.24635941" lon="19.81329711">
<ele>1067</ele>
<time>2014-08-20T13:37:16Z</time>
</trkpt>
<trkpt lat="49.24634661" lon="19.81326721">
<ele>1067</ele>
<time>2014-08-20T13:37:22Z</time>
</trkpt>
<trkpt lat="49.24635138" lon="19.81322691">
<ele>1068</ele>
<time>2014-08-20T13:37:28Z</time>
</trkpt>
<trkpt lat="49.24635426" lon="19.81321939">
<ele>1067</ele>
<time>2014-08-20T13:37:35Z</time>
</trkpt>
<trkpt lat="49.24625926" lon="19.81322035">
<ele>1076</ele>
<time>2014-08-20T13:37:42Z</time>
</trkpt>
<trkpt lat="49.24620818" lon="19.81323442">
<ele>1079</ele>
<time>2014-08-20T13:37:48Z</time>
</trkpt>
<trkpt lat="49.24616286" lon="19.81323755">
<ele>1080</ele>
<time>2014-08-20T13:37:54Z</time>
</trkpt>
<trkpt lat="49.24616286" lon="19.81323755">
<ele>1080</ele>
<time>2014-08-20T13:38:00Z</time>
</trkpt>
<trkpt lat="49.24614119" lon="19.8131795">
<ele>1085</ele>
<time>2014-08-20T13:38:06Z</time>
</trkpt>
<trkpt lat="49.2460603" lon="19.81309779">
<ele>1092</ele>
<time>2014-08-20T13:38:12Z</time>
</trkpt>
<trkpt lat="49.24602291" lon="19.81305172">
<ele>1097</ele>
<time>2014-08-20T13:38:18Z</time>
</trkpt>
<trkpt lat="49.24602291" lon="19.81305172">
<ele>1097</ele>
<time>2014-08-20T13:38:24Z</time>
</trkpt>
<trkpt lat="49.24592963" lon="19.81298421">
<ele>1108</ele>
<time>2014-08-20T13:38:30Z</time>
</trkpt>
<trkpt lat="49.24592963" lon="19.81298421">
<ele>1108</ele>
<time>2014-08-20T13:38:38Z</time>
</trkpt>
<trkpt lat="49.24579683" lon="19.81297764">
<ele>1110</ele>
<time>2014-08-20T13:38:44Z</time>
</trkpt>
<trkpt lat="49.24568245" lon="19.81286884">
<ele>1113</ele>
<time>2014-08-20T13:38:50Z</time>
</trkpt>
<trkpt lat="49.24568245" lon="19.81286884">
<ele>1113</ele>
<time>2014-08-20T13:38:56Z</time>
</trkpt>
<trkpt lat="49.24555382" lon="19.81285327">
<ele>1114</ele>
<time>2014-08-20T13:39:02Z</time>
</trkpt>
<trkpt lat="49.24549304" lon="19.81282916">
<ele>1116</ele>
<time>2014-08-20T13:39:08Z</time>
</trkpt>
<trkpt lat="49.24542963" lon="19.81277932">
<ele>1113</ele>
<time>2014-08-20T13:39:14Z</time>
</trkpt>
<trkpt lat="49.24542963" lon="19.81277932">
<ele>1113</ele>
<time>2014-08-20T13:39:20Z</time>
</trkpt>
<trkpt lat="49.24534377" lon="19.81272522">
<ele>1104</ele>
<time>2014-08-20T13:39:26Z</time>
</trkpt>
<trkpt lat="49.24526727" lon="19.81269401">
<ele>1097</ele>
<time>2014-08-20T13:39:33Z</time>
</trkpt>
<trkpt lat="49.24522425" lon="19.81264696">
<ele>1089</ele>
<time>2014-08-20T13:39:40Z</time>
</trkpt>
<trkpt lat="49.24516251" lon="19.81262001">
<ele>1084</ele>
<time>2014-08-20T13:39:46Z</time>
</trkpt>
<trkpt lat="49.24508237" lon="19.81265338">
<ele>1080</ele>
<time>2014-08-20T13:39:52Z</time>
</trkpt>
<trkpt lat="49.24501188" lon="19.81264409">
<ele>1079</ele>
<time>2014-08-20T13:39:58Z</time>
</trkpt>
<trkpt lat="49.24493294" lon="19.81263594">
<ele>1076</ele>
<time>2014-08-20T13:40:04Z</time>
</trkpt>
<trkpt lat="49.24485013" lon="19.81265033">
<ele>1074</ele>
<time>2014-08-20T13:40:10Z</time>
</trkpt>
<trkpt lat="49.24478173" lon="19.8126542">
<ele>1074</ele>
<time>2014-08-20T13:40:16Z</time>
</trkpt>
<trkpt lat="49.2447112" lon="19.81266">
<ele>1073</ele>
<time>2014-08-20T13:40:22Z</time>
</trkpt>
<trkpt lat="49.24463721" lon="19.81266452">
<ele>1071</ele>
<time>2014-08-20T13:40:28Z</time>
</trkpt>
<trkpt lat="49.24463721" lon="19.81266452">
<ele>1071</ele>
<time>2014-08-20T13:40:35Z</time>
</trkpt>
<trkpt lat="49.24455638" lon="19.81236539">
<ele>1074</ele>
<time>2014-08-20T13:40:42Z</time>
</trkpt>
<trkpt lat="49.24450902" lon="19.81228108">
<ele>1074</ele>
<time>2014-08-20T13:40:48Z</time>
</trkpt>
<trkpt lat="49.24444061" lon="19.81221131">
<ele>1073</ele>
<time>2014-08-20T13:40:54Z</time>
</trkpt>
<trkpt lat="49.24437623" lon="19.81214177">
<ele>1074</ele>
<time>2014-08-20T13:41:00Z</time>
</trkpt>
<trkpt lat="49.24431508" lon="19.81209353">
<ele>1075</ele>
<time>2014-08-20T13:41:06Z</time>
</trkpt>
<trkpt lat="49.24425918" lon="19.81207766">
<ele>1075</ele>
<time>2014-08-20T13:41:12Z</time>
</trkpt>
<trkpt lat="49.24419943" lon="19.81204615">
<ele>1078</ele>
<time>2014-08-20T13:41:18Z</time>
</trkpt>
<trkpt lat="49.24419943" lon="19.81204615">
<ele>1078</ele>
<time>2014-08-20T13:41:24Z</time>
</trkpt>
<trkpt lat="49.24409715" lon="19.8119527">
<ele>1086</ele>
<time>2014-08-20T13:41:30Z</time>
</trkpt>
<trkpt lat="49.24409715" lon="19.8119527">
<ele>1086</ele>
<time>2014-08-20T13:41:38Z</time>
</trkpt>
<trkpt lat="49.24398375" lon="19.81179251">
<ele>1087</ele>
<time>2014-08-20T13:41:44Z</time>
</trkpt>
<trkpt lat="49.24395356" lon="19.8116904">
<ele>1085</ele>
<time>2014-08-20T13:41:50Z</time>
</trkpt>
<trkpt lat="49.24391628" lon="19.81160859">
<ele>1092</ele>
<time>2014-08-20T13:41:56Z</time>
</trkpt>
<trkpt lat="49.24387706" lon="19.81153825">
<ele>1096</ele>
<time>2014-08-20T13:42:02Z</time>
</trkpt>
<trkpt lat="49.24383083" lon="19.81151043">
<ele>1100</ele>
<time>2014-08-20T13:42:08Z</time>
</trkpt>
<trkpt lat="49.24383083" lon="19.81151043">
<ele>1100</ele>
<time>2014-08-20T13:42:14Z</time>
</trkpt>
<trkpt lat="49.24380208" lon="19.81153321">
<ele>1101</ele>
<time>2014-08-20T13:42:20Z</time>
</trkpt>
<trkpt lat="49.24382648" lon="19.81143049">
<ele>1099</ele>
<time>2014-08-20T13:42:26Z</time>
</trkpt>
<trkpt lat="49.24382648" lon="19.81143049">
<ele>1099</ele>
<time>2014-08-20T13:42:33Z</time>
</trkpt>
<trkpt lat="49.24372818" lon="19.81139929">
<ele>1103</ele>
<time>2014-08-20T13:42:40Z</time>
</trkpt>
<trkpt lat="49.24363812" lon="19.81137957">
<ele>1109</ele>
<time>2014-08-20T13:42:46Z</time>
</trkpt>
<trkpt lat="49.24356241" lon="19.8113617">
<ele>1109</ele>
<time>2014-08-20T13:42:52Z</time>
</trkpt>
<trkpt lat="49.24349893" lon="19.81132027">
<ele>1110</ele>
<time>2014-08-20T13:42:58Z</time>
</trkpt>
<trkpt lat="49.24344614" lon="19.81127111">
<ele>1106</ele>
<time>2014-08-20T13:43:04Z</time>
</trkpt>
<trkpt lat="49.24338725" lon="19.81122429">
<ele>1105</ele>
<time>2014-08-20T13:43:10Z</time>
</trkpt>
<trkpt lat="49.24338725" lon="19.81122429">
<ele>1105</ele>
<time>2014-08-20T13:43:16Z</time>
</trkpt>
<trkpt lat="49.24326391" lon="19.81112">
<ele>1105</ele>
<time>2014-08-20T13:43:22Z</time>
</trkpt>
<trkpt lat="49.24320727" lon="19.81107182">
<ele>1103</ele>
<time>2014-08-20T13:43:28Z</time>
</trkpt>
<trkpt lat="49.24320727" lon="19.81107182">
<ele>1103</ele>
<time>2014-08-20T13:43:35Z</time>
</trkpt>
<trkpt lat="49.24308713" lon="19.81088627">
<ele>1106</ele>
<time>2014-08-20T13:43:42Z</time>
</trkpt>
<trkpt lat="49.24300918" lon="19.81083459">
<ele>1103</ele>
<time>2014-08-20T13:43:48Z</time>
</trkpt>
<trkpt lat="49.24296168" lon="19.81081978">
<ele>1102</ele>
<time>2014-08-20T13:43:54Z</time>
</trkpt>
<trkpt lat="49.24286242" lon="19.81083389">
<ele>1103</ele>
<time>2014-08-20T13:44:00Z</time>
</trkpt>
<trkpt lat="49.24279427" lon="19.81080855">
<ele>1103</ele>
<time>2014-08-20T13:44:06Z</time>
</trkpt>
<trkpt lat="49.24273763" lon="19.81078036">
<ele>1104</ele>
<time>2014-08-20T13:44:12Z</time>
</trkpt>
<trkpt lat="49.24268898" lon="19.81075303">
<ele>1105</ele>
<time>2014-08-20T13:44:18Z</time>
</trkpt>
<trkpt lat="49.24268898" lon="19.81075303">
<ele>1105</ele>
<time>2014-08-20T13:44:24Z</time>
</trkpt>
<trkpt lat="49.24262166" lon="19.81064033">
<ele>1105</ele>
<time>2014-08-20T13:44:30Z</time>
</trkpt>
<trkpt lat="49.24262166" lon="19.81064033">
<ele>1105</ele>
<time>2014-08-20T13:44:37Z</time>
</trkpt>
<trkpt lat="49.24251362" lon="19.81041819">
<ele>1108</ele>
<time>2014-08-20T13:44:44Z</time>
</trkpt>
<trkpt lat="49.24248573" lon="19.81033889">
<ele>1110</ele>
<time>2014-08-20T13:44:50Z</time>
</trkpt>
<trkpt lat="49.24243757" lon="19.81029329">
<ele>1112</ele>
<time>2014-08-20T13:44:56Z</time>
</trkpt>
<trkpt lat="49.24238737" lon="19.81020766">
<ele>1110</ele>
<time>2014-08-20T13:45:02Z</time>
</trkpt>
<trkpt lat="49.24233506" lon="19.81007023">
<ele>1107</ele>
<time>2014-08-20T13:45:08Z</time>
</trkpt>
<trkpt lat="49.2422897" lon="19.80990748">
<ele>1106</ele>
<time>2014-08-20T13:45:14Z</time>
</trkpt>
<trkpt lat="49.24225153" lon="19.80976964">
<ele>1106</ele>
<time>2014-08-20T13:45:20Z</time>
</trkpt>
<trkpt lat="49.24224186" lon="19.80963397">
<ele>1104</ele>
<time>2014-08-20T13:45:26Z</time>
</trkpt>
<trkpt lat="49.24221346" lon="19.80948954">
<ele>1101</ele>
<time>2014-08-20T13:45:33Z</time>
</trkpt>
<trkpt lat="49.24221346" lon="19.80948954">
<ele>1101</ele>
<time>2014-08-20T13:45:40Z</time>
</trkpt>
<trkpt lat="49.24218173" lon="19.8092431">
<ele>1102</ele>
<time>2014-08-20T13:45:46Z</time>
</trkpt>
<trkpt lat="49.24216135" lon="19.80917455">
<ele>1105</ele>
<time>2014-08-20T13:45:52Z</time>
</trkpt>
<trkpt lat="49.24210419" lon="19.80915149">
<ele>1108</ele>
<time>2014-08-20T13:45:58Z</time>
</trkpt>
<trkpt lat="49.24203815" lon="19.80914299">
<ele>1109</ele>
<time>2014-08-20T13:46:04Z</time>
</trkpt>
<trkpt lat="49.2419577" lon="19.80914112">
<ele>1112</ele>
<time>2014-08-20T13:46:10Z</time>
</trkpt>
<trkpt lat="49.24189213" lon="19.80912123">
<ele>1113</ele>
<time>2014-08-20T13:46:16Z</time>
</trkpt>
<trkpt lat="49.24182855" lon="19.80909877">
<ele>1116</ele>
<time>2014-08-20T13:46:22Z</time>
</trkpt>
<trkpt lat="49.24178436" lon="19.80906738">
<ele>1117</ele>
<time>2014-08-20T13:46:28Z</time>
</trkpt>
<trkpt lat="49.24178436" lon="19.80906738">
<ele>1117</ele>
<time>2014-08-20T13:46:35Z</time>
</trkpt>
<trkpt lat="49.2416813" lon="19.80889178">
<ele>1119</ele>
<time>2014-08-20T13:46:42Z</time>
</trkpt>
<trkpt lat="49.2416813" lon="19.80889178">
<ele>1119</ele>
<time>2014-08-20T13:46:48Z</time>
</trkpt>
<trkpt lat="49.24163101" lon="19.80870776">
<ele>1114</ele>
<time>2014-08-20T13:46:54Z</time>
</trkpt>
<trkpt lat="49.24156473" lon="19.80848746">
<ele>1109</ele>
<time>2014-08-20T13:47:00Z</time>
</trkpt>
<trkpt lat="49.24153212" lon="19.80835366">
<ele>1110</ele>
<time>2014-08-20T13:47:06Z</time>
</trkpt>
<trkpt lat="49.24150784" lon="19.80823914">
<ele>1110</ele>
<time>2014-08-20T13:47:12Z</time>
</trkpt>
<trkpt lat="49.24149888" lon="19.80814283">
<ele>1110</ele>
<time>2014-08-20T13:47:18Z</time>
</trkpt>
<trkpt lat="49.24146771" lon="19.80807">
<ele>1109</ele>
<time>2014-08-20T13:47:24Z</time>
</trkpt>
<trkpt lat="49.24143031" lon="19.80800943">
<ele>1113</ele>
<time>2014-08-20T13:47:30Z</time>
</trkpt>
<trkpt lat="49.24143031" lon="19.80800943">
<ele>1113</ele>
<time>2014-08-20T13:47:38Z</time>
</trkpt>
<trkpt lat="49.24135726" lon="19.80788772">
<ele>1116</ele>
<time>2014-08-20T13:47:44Z</time>
</trkpt>
<trkpt lat="49.24127917" lon="19.80786097">
<ele>1117</ele>
<time>2014-08-20T13:47:50Z</time>
</trkpt>
<trkpt lat="49.24120718" lon="19.80785266">
<ele>1118</ele>
<time>2014-08-20T13:47:56Z</time>
</trkpt>
<trkpt lat="49.2411384" lon="19.80782586">
<ele>1119</ele>
<time>2014-08-20T13:48:02Z</time>
</trkpt>
<trkpt lat="49.24107175" lon="19.80780268">
<ele>1118</ele>
<time>2014-08-20T13:48:08Z</time>
</trkpt>
<trkpt lat="49.24100574" lon="19.80779526">
<ele>1119</ele>
<time>2014-08-20T13:48:14Z</time>
</trkpt>
<trkpt lat="49.24092182" lon="19.80779732">
<ele>1121</ele>
<time>2014-08-20T13:48:20Z</time>
</trkpt>
<trkpt lat="49.24084372" lon="19.80779345">
<ele>1123</ele>
<time>2014-08-20T13:48:26Z</time>
</trkpt>
<trkpt lat="49.24077685" lon="19.80777075">
<ele>1123</ele>
<time>2014-08-20T13:48:33Z</time>
</trkpt>
<trkpt lat="49.24077685" lon="19.80777075">
<ele>1123</ele>
<time>2014-08-20T13:48:40Z</time>
</trkpt>
<trkpt lat="49.24064541" lon="19.80763437">
<ele>1122</ele>
<time>2014-08-20T13:48:46Z</time>
</trkpt>
<trkpt lat="49.24060936" lon="19.80754442">
<ele>1123</ele>
<time>2014-08-20T13:48:52Z</time>
</trkpt>
<trkpt lat="49.24055935" lon="19.80748867">
<ele>1128</ele>
<time>2014-08-20T13:48:58Z</time>
</trkpt>
<trkpt lat="49.24050084" lon="19.8074559">
<ele>1129</ele>
<time>2014-08-20T13:49:04Z</time>
</trkpt>
<trkpt lat="49.24044371" lon="19.80741248">
<ele>1131</ele>
<time>2014-08-20T13:49:10Z</time>
</trkpt>
<trkpt lat="49.24038355" lon="19.80738528">
<ele>1135</ele>
<time>2014-08-20T13:49:16Z</time>
</trkpt>
<trkpt lat="49.24031998" lon="19.80735862">
<ele>1137</ele>
<time>2014-08-20T13:49:22Z</time>
</trkpt>
<trkpt lat="49.2402522" lon="19.80734532">
<ele>1137</ele>
<time>2014-08-20T13:49:28Z</time>
</trkpt>
<trkpt lat="49.2402522" lon="19.80734532">
<ele>1137</ele>
<time>2014-08-20T13:49:35Z</time>
</trkpt>
<trkpt lat="49.24018376" lon="19.80713231">
<ele>1135</ele>
<time>2014-08-20T13:49:41Z</time>
</trkpt>
<trkpt lat="49.2401478" lon="19.80704174">
<ele>1135</ele>
<time>2014-08-20T13:49:47Z</time>
</trkpt>
<trkpt lat="49.2401478" lon="19.80704174">
<ele>1135</ele>
<time>2014-08-20T13:49:53Z</time>
</trkpt>
<trkpt lat="49.24004491" lon="19.80699129">
<ele>1136</ele>
<time>2014-08-20T13:49:59Z</time>
</trkpt>
<trkpt lat="49.23997262" lon="19.80696497">
<ele>1134</ele>
<time>2014-08-20T13:50:05Z</time>
</trkpt>
<trkpt lat="49.23997262" lon="19.80696497">
<ele>1134</ele>
<time>2014-08-20T13:50:11Z</time>
</trkpt>
<trkpt lat="49.23984167" lon="19.80688661">
<ele>1132</ele>
<time>2014-08-20T13:50:17Z</time>
</trkpt>
<trkpt lat="49.23984167" lon="19.80688661">
<ele>1132</ele>
<time>2014-08-20T13:50:23Z</time>
</trkpt>
<trkpt lat="49.23977149" lon="19.80678554">
<ele>1130</ele>
<time>2014-08-20T13:50:29Z</time>
</trkpt>
<trkpt lat="49.23974333" lon="19.80651939">
<ele>1125</ele>
<time>2014-08-20T13:50:36Z</time>
</trkpt>
<trkpt lat="49.23969542" lon="19.80642952">
<ele>1125</ele>
<time>2014-08-20T13:50:42Z</time>
</trkpt>
<trkpt lat="49.23964494" lon="19.8063782">
<ele>1124</ele>
<time>2014-08-20T13:50:48Z</time>
</trkpt>
<trkpt lat="49.23964494" lon="19.8063782">
<ele>1124</ele>
<time>2014-08-20T13:50:54Z</time>
</trkpt>
<trkpt lat="49.23963204" lon="19.80636558">
<ele>1124</ele>
<time>2014-08-20T13:51:00Z</time>
</trkpt>
<trkpt lat="49.23965341" lon="19.80623542">
<ele>1125</ele>
<time>2014-08-20T13:51:06Z</time>
</trkpt>
<trkpt lat="49.23966217" lon="19.80616496">
<ele>1124</ele>
<time>2014-08-20T13:51:12Z</time>
</trkpt>
<trkpt lat="49.23965988" lon="19.80608374">
<ele>1123</ele>
<time>2014-08-20T13:51:18Z</time>
</trkpt>
<trkpt lat="49.23965797" lon="19.80596746">
<ele>1123</ele>
<time>2014-08-20T13:51:24Z</time>
</trkpt>
<trkpt lat="49.2396359" lon="19.80587948">
<ele>1121</ele>
<time>2014-08-20T13:51:30Z</time>
</trkpt>
<trkpt lat="49.2396359" lon="19.80587948">
<ele>1121</ele>
<time>2014-08-20T13:51:37Z</time>
</trkpt>
<trkpt lat="49.23961032" lon="19.80556859">
<ele>1118</ele>
<time>2014-08-20T13:51:44Z</time>
</trkpt>
<trkpt lat="49.23960054" lon="19.80545385">
<ele>1115</ele>
<time>2014-08-20T13:51:50Z</time>
</trkpt>
<trkpt lat="49.23960456" lon="19.80531377">
<ele>1113</ele>
<time>2014-08-20T13:51:56Z</time>
</trkpt>
<trkpt lat="49.23959076" lon="19.80520224">
<ele>1110</ele>
<time>2014-08-20T13:52:02Z</time>
</trkpt>
<trkpt lat="49.23956769" lon="19.80510069">
<ele>1107</ele>
<time>2014-08-20T13:52:08Z</time>
</trkpt>
<trkpt lat="49.23955504" lon="19.80499384">
<ele>1105</ele>
<time>2014-08-20T13:52:14Z</time>
</trkpt>
<trkpt lat="49.23954071" lon="19.80488417">
<ele>1105</ele>
<time>2014-08-20T13:52:20Z</time>
</trkpt>
<trkpt lat="49.23952345" lon="19.80475788">
<ele>1105</ele>
<time>2014-08-20T13:52:26Z</time>
</trkpt>
<trkpt lat="49.23950393" lon="19.80460464">
<ele>1107</ele>
<time>2014-08-20T13:52:33Z</time>
</trkpt>
<trkpt lat="49.23947992" lon="19.80445259">
<ele>1106</ele>
<time>2014-08-20T13:52:40Z</time>
</trkpt>
<trkpt lat="49.23945444" lon="19.80434465">
<ele>1107</ele>
<time>2014-08-20T13:52:46Z</time>
</trkpt>
<trkpt lat="49.23943896" lon="19.80422781">
<ele>1104</ele>
<time>2014-08-20T13:52:52Z</time>
</trkpt>
<trkpt lat="49.23942926" lon="19.80411133">
<ele>1103</ele>
<time>2014-08-20T13:52:58Z</time>
</trkpt>
<trkpt lat="49.23941274" lon="19.80400904">
<ele>1102</ele>
<time>2014-08-20T13:53:04Z</time>
</trkpt>
<trkpt lat="49.23938351" lon="19.80391629">
<ele>1101</ele>
<time>2014-08-20T13:53:10Z</time>
</trkpt>
<trkpt lat="49.23938351" lon="19.80391629">
<ele>1101</ele>
<time>2014-08-20T13:53:16Z</time>
</trkpt>
<trkpt lat="49.23936046" lon="19.80368655">
<ele>1099</ele>
<time>2014-08-20T13:53:22Z</time>
</trkpt>
<trkpt lat="49.23936046" lon="19.80368655">
<ele>1099</ele>
<time>2014-08-20T13:53:28Z</time>
</trkpt>
<trkpt lat="49.23933914" lon="19.80354701">
<ele>1102</ele>
<time>2014-08-20T13:53:35Z</time>
</trkpt>
<trkpt lat="49.2392937" lon="19.80330798">
<ele>1110</ele>
<time>2014-08-20T13:53:42Z</time>
</trkpt>
<trkpt lat="49.23928161" lon="19.80322092">
<ele>1115</ele>
<time>2014-08-20T13:53:48Z</time>
</trkpt>
<trkpt lat="49.23926633" lon="19.80312403">
<ele>1115</ele>
<time>2014-08-20T13:53:54Z</time>
</trkpt>
<trkpt lat="49.23926633" lon="19.80312403">
<ele>1115</ele>
<time>2014-08-20T13:54:00Z</time>
</trkpt>
<trkpt lat="49.23925567" lon="19.80289262">
<ele>1111</ele>
<time>2014-08-20T13:54:06Z</time>
</trkpt>
<trkpt lat="49.2392299" lon="19.80276888">
<ele>1109</ele>
<time>2014-08-20T13:54:12Z</time>
</trkpt>
<trkpt lat="49.2392222" lon="19.80264844">
<ele>1108</ele>
<time>2014-08-20T13:54:18Z</time>
</trkpt>
<trkpt lat="49.23919121" lon="19.80254219">
<ele>1108</ele>
<time>2014-08-20T13:54:24Z</time>
</trkpt>
<trkpt lat="49.23916019" lon="19.80242765">
<ele>1111</ele>
<time>2014-08-20T13:54:30Z</time>
</trkpt>
<trkpt lat="49.23916019" lon="19.80242765">
<ele>1111</ele>
<time>2014-08-20T13:54:38Z</time>
</trkpt>
<trkpt lat="49.23906754" lon="19.80233845">
<ele>1117</ele>
<time>2014-08-20T13:54:44Z</time>
</trkpt>
<trkpt lat="49.23902039" lon="19.80218727">
<ele>1118</ele>
<time>2014-08-20T13:54:50Z</time>
</trkpt>
<trkpt lat="49.23898047" lon="19.80206033">
<ele>1119</ele>
<time>2014-08-20T13:54:56Z</time>
</trkpt>
<trkpt lat="49.23894667" lon="19.80198059">
<ele>1120</ele>
<time>2014-08-20T13:55:02Z</time>
</trkpt>
<trkpt lat="49.2389052" lon="19.80187786">
<ele>1122</ele>
<time>2014-08-20T13:55:08Z</time>
</trkpt>
<trkpt lat="49.23884754" lon="19.80180165">
<ele>1121</ele>
<time>2014-08-20T13:55:14Z</time>
</trkpt>
<trkpt lat="49.23879807" lon="19.80169479">
<ele>1121</ele>
<time>2014-08-20T13:55:20Z</time>
</trkpt>
<trkpt lat="49.2387631" lon="19.8015766">
<ele>1121</ele>
<time>2014-08-20T13:55:26Z</time>
</trkpt>
<trkpt lat="49.23874475" lon="19.80143482">
<ele>1120</ele>
<time>2014-08-20T13:55:33Z</time>
</trkpt>
<trkpt lat="49.23871524" lon="19.80130856">
<ele>1122</ele>
<time>2014-08-20T13:55:39Z</time>
</trkpt>
<trkpt lat="49.23870047" lon="19.801202">
<ele>1123</ele>
<time>2014-08-20T13:55:45Z</time>
</trkpt>
<trkpt lat="49.23867473" lon="19.80112173">
<ele>1125</ele>
<time>2014-08-20T13:55:52Z</time>
</trkpt>
<trkpt lat="49.2386562" lon="19.80102542">
<ele>1122</ele>
<time>2014-08-20T13:55:58Z</time>
</trkpt>
<trkpt lat="49.23863632" lon="19.80091017">
<ele>1119</ele>
<time>2014-08-20T13:56:04Z</time>
</trkpt>
<trkpt lat="49.238612" lon="19.80077518">
<ele>1120</ele>
<time>2014-08-20T13:56:10Z</time>
</trkpt>
<trkpt lat="49.23857295" lon="19.80067957">
<ele>1122</ele>
<time>2014-08-20T13:56:16Z</time>
</trkpt>
<trkpt lat="49.23854821" lon="19.80054342">
<ele>1122</ele>
<time>2014-08-20T13:56:22Z</time>
</trkpt>
<trkpt lat="49.23852991" lon="19.8003997">
<ele>1122</ele>
<time>2014-08-20T13:56:28Z</time>
</trkpt>
<trkpt lat="49.23851427" lon="19.8002949">
<ele>1121</ele>
<time>2014-08-20T13:56:35Z</time>
</trkpt>
<trkpt lat="49.23850225" lon="19.80011705">
<ele>1121</ele>
<time>2014-08-20T13:56:41Z</time>
</trkpt>
<trkpt lat="49.23847851" lon="19.80000143">
<ele>1123</ele>
<time>2014-08-20T13:56:47Z</time>
</trkpt>
<trkpt lat="49.23845979" lon="19.79988646">
<ele>1124</ele>
<time>2014-08-20T13:56:53Z</time>
</trkpt>
<trkpt lat="49.23843908" lon="19.79977181">
<ele>1125</ele>
<time>2014-08-20T13:56:59Z</time>
</trkpt>
<trkpt lat="49.23841391" lon="19.79967161">
<ele>1122</ele>
<time>2014-08-20T13:57:05Z</time>
</trkpt>
<trkpt lat="49.23840751" lon="19.79955729">
<ele>1123</ele>
<time>2014-08-20T13:57:11Z</time>
</trkpt>
<trkpt lat="49.23840574" lon="19.79943312">
<ele>1123</ele>
<time>2014-08-20T13:57:17Z</time>
</trkpt>
<trkpt lat="49.23840891" lon="19.79931227">
<ele>1122</ele>
<time>2014-08-20T13:57:23Z</time>
</trkpt>
<trkpt lat="49.23841485" lon="19.79919949">
<ele>1121</ele>
<time>2014-08-20T13:57:29Z</time>
</trkpt>
<trkpt lat="49.2384042" lon="19.79909601">
<ele>1119</ele>
<time>2014-08-20T13:57:35Z</time>
</trkpt>
<trkpt lat="49.23838633" lon="19.79899368">
<ele>1121</ele>
<time>2014-08-20T13:57:41Z</time>
</trkpt>
<trkpt lat="49.23838633" lon="19.79899368">
<ele>1121</ele>
<time>2014-08-20T13:57:47Z</time>
</trkpt>
<trkpt lat="49.23836461" lon="19.798939">
<ele>1122</ele>
<time>2014-08-20T13:57:53Z</time>
</trkpt>
<trkpt lat="49.23836246" lon="19.79893724">
<ele>1123</ele>
<time>2014-08-20T13:57:59Z</time>
</trkpt>
<trkpt lat="49.23831126" lon="19.79878734">
<ele>1125</ele>
<time>2014-08-20T13:58:05Z</time>
</trkpt>
<trkpt lat="49.2382779" lon="19.79869652">
<ele>1126</ele>
<time>2014-08-20T13:58:11Z</time>
</trkpt>
<trkpt lat="49.23824853" lon="19.79859318">
<ele>1127</ele>
<time>2014-08-20T13:58:17Z</time>
</trkpt>
<trkpt lat="49.23821323" lon="19.79850209">
<ele>1128</ele>
<time>2014-08-20T13:58:23Z</time>
</trkpt>
<trkpt lat="49.23817744" lon="19.79840936">
<ele>1128</ele>
<time>2014-08-20T13:58:29Z</time>
</trkpt>
<trkpt lat="49.23814411" lon="19.79831925">
<ele>1130</ele>
<time>2014-08-20T13:58:35Z</time>
</trkpt>
<trkpt lat="49.23810357" lon="19.79823644">
<ele>1130</ele>
<time>2014-08-20T13:58:41Z</time>
</trkpt>
<trkpt lat="49.23806577" lon="19.79814912">
<ele>1131</ele>
<time>2014-08-20T13:58:47Z</time>
</trkpt>
<trkpt lat="49.23801896" lon="19.7980602">
<ele>1130</ele>
<time>2014-08-20T13:58:53Z</time>
</trkpt>
<trkpt lat="49.23798274" lon="19.79796653">
<ele>1131</ele>
<time>2014-08-20T13:58:59Z</time>
</trkpt>
<trkpt lat="49.23793638" lon="19.79789205">
<ele>1130</ele>
<time>2014-08-20T13:59:05Z</time>
</trkpt>
<trkpt lat="49.23788839" lon="19.7978337">
<ele>1130</ele>
<time>2014-08-20T13:59:11Z</time>
</trkpt>
<trkpt lat="49.23782971" lon="19.79777859">
<ele>1131</ele>
<time>2014-08-20T13:59:17Z</time>
</trkpt>
<trkpt lat="49.23777935" lon="19.79770063">
<ele>1129</ele>
<time>2014-08-20T13:59:23Z</time>
</trkpt>
<trkpt lat="49.23773398" lon="19.79762679">
<ele>1130</ele>
<time>2014-08-20T13:59:29Z</time>
</trkpt>
<trkpt lat="49.23773398" lon="19.79762679">
<ele>1130</ele>
<time>2014-08-20T13:59:36Z</time>
</trkpt>
<trkpt lat="49.23771973" lon="19.7975942">
<ele>1129</ele>
<time>2014-08-20T13:59:42Z</time>
</trkpt>
<trkpt lat="49.2377169" lon="19.79757189">
<ele>1128</ele>
<time>2014-08-20T13:59:48Z</time>
</trkpt>
<trkpt lat="49.23771345" lon="19.79753809">
<ele>1127</ele>
<time>2014-08-20T13:59:54Z</time>
</trkpt>
<trkpt lat="49.23771723" lon="19.79753031">
<ele>1127</ele>
<time>2014-08-20T14:00:00Z</time>
</trkpt>
<trkpt lat="49.23768978" lon="19.79750837">
<ele>1127</ele>
<time>2014-08-20T14:00:06Z</time>
</trkpt>
<trkpt lat="49.2376791" lon="19.79748456">
<ele>1127</ele>
<time>2014-08-20T14:00:12Z</time>
</trkpt>
<trkpt lat="49.23766441" lon="19.79746301">
<ele>1128</ele>
<time>2014-08-20T14:00:18Z</time>
</trkpt>
<trkpt lat="49.23766034" lon="19.79743621">
<ele>1128</ele>
<time>2014-08-20T14:00:24Z</time>
</trkpt>
<trkpt lat="49.23759716" lon="19.79728349">
<ele>1130</ele>
<time>2014-08-20T14:00:30Z</time>
</trkpt>
<trkpt lat="49.23759716" lon="19.79728349">
<ele>1130</ele>
<time>2014-08-20T14:00:38Z</time>
</trkpt>
<trkpt lat="49.23752315" lon="19.79704503">
<ele>1131</ele>
<time>2014-08-20T14:00:44Z</time>
</trkpt>
<trkpt lat="49.23748011" lon="19.79696653">
<ele>1130</ele>
<time>2014-08-20T14:00:50Z</time>
</trkpt>
<trkpt lat="49.23743434" lon="19.7968865">
<ele>1130</ele>
<time>2014-08-20T14:00:56Z</time>
</trkpt>
<trkpt lat="49.23739559" lon="19.79680621">
<ele>1131</ele>
<time>2014-08-20T14:01:02Z</time>
</trkpt>
<trkpt lat="49.237377" lon="19.79673762">
<ele>1132</ele>
<time>2014-08-20T14:01:08Z</time>
</trkpt>
<trkpt lat="49.237377" lon="19.79673762">
<ele>1132</ele>
<time>2014-08-20T14:01:14Z</time>
</trkpt>
<trkpt lat="49.23735379" lon="19.7966546">
<ele>1133</ele>
<time>2014-08-20T14:01:20Z</time>
</trkpt>
<trkpt lat="49.23732219" lon="19.79653401">
<ele>1134</ele>
<time>2014-08-20T14:01:26Z</time>
</trkpt>
<trkpt lat="49.23730128" lon="19.79642567">
<ele>1136</ele>
<time>2014-08-20T14:01:33Z</time>
</trkpt>
<trkpt lat="49.23727402" lon="19.79631231">
<ele>1136</ele>
<time>2014-08-20T14:01:40Z</time>
</trkpt>
<trkpt lat="49.23725228" lon="19.79622071">
<ele>1137</ele>
<time>2014-08-20T14:01:46Z</time>
</trkpt>
<trkpt lat="49.23723018" lon="19.79612883">
<ele>1137</ele>
<time>2014-08-20T14:01:52Z</time>
</trkpt>
<trkpt lat="49.23720559" lon="19.79603474">
<ele>1137</ele>
<time>2014-08-20T14:01:58Z</time>
</trkpt>
<trkpt lat="49.23717517" lon="19.79594616">
<ele>1137</ele>
<time>2014-08-20T14:02:04Z</time>
</trkpt>
<trkpt lat="49.23712746" lon="19.79587629">
<ele>1138</ele>
<time>2014-08-20T14:02:10Z</time>
</trkpt>
<trkpt lat="49.23706821" lon="19.79581894">
<ele>1139</ele>
<time>2014-08-20T14:02:16Z</time>
</trkpt>
<trkpt lat="49.23706821" lon="19.79581894">
<ele>1139</ele>
<time>2014-08-20T14:02:22Z</time>
</trkpt>
<trkpt lat="49.23705216" lon="19.79575969">
<ele>1139</ele>
<time>2014-08-20T14:02:28Z</time>
</trkpt>
<trkpt lat="49.23705108" lon="19.79572551">
<ele>1138</ele>
<time>2014-08-20T14:02:35Z</time>
</trkpt>
<trkpt lat="49.23704111" lon="19.79564655">
<ele>1135</ele>
<time>2014-08-20T14:02:42Z</time>
</trkpt>
<trkpt lat="49.23700747" lon="19.79555186">
<ele>1137</ele>
<time>2014-08-20T14:02:48Z</time>
</trkpt>
<trkpt lat="49.23700747" lon="19.79555186">
<ele>1137</ele>
<time>2014-08-20T14:02:54Z</time>
</trkpt>
<trkpt lat="49.23699559" lon="19.79549699">
<ele>1137</ele>
<time>2014-08-20T14:03:00Z</time>
</trkpt>
<trkpt lat="49.23699372" lon="19.79549882">
<ele>1138</ele>
<time>2014-08-20T14:03:06Z</time>
</trkpt>
<trkpt lat="49.236924" lon="19.79536058">
<ele>1139</ele>
<time>2014-08-20T14:03:12Z</time>
</trkpt>
<trkpt lat="49.23687866" lon="19.79526995">
<ele>1138</ele>
<time>2014-08-20T14:03:18Z</time>
</trkpt>
<trkpt lat="49.23687866" lon="19.79526995">
<ele>1138</ele>
<time>2014-08-20T14:03:24Z</time>
</trkpt>
<trkpt lat="49.23686198" lon="19.79522646">
<ele>1139</ele>
<time>2014-08-20T14:03:30Z</time>
</trkpt>
<trkpt lat="49.23686065" lon="19.79522407">
<ele>1138</ele>
<time>2014-08-20T14:03:38Z</time>
</trkpt>
<trkpt lat="49.23686349" lon="19.79521523">
<ele>1137</ele>
<time>2014-08-20T14:03:44Z</time>
</trkpt>
<trkpt lat="49.23686179" lon="19.79519663">
<ele>1137</ele>
<time>2014-08-20T14:03:50Z</time>
</trkpt>
<trkpt lat="49.2368557" lon="19.79518604">
<ele>1137</ele>
<time>2014-08-20T14:03:56Z</time>
</trkpt>
<trkpt lat="49.236783" lon="19.79508089">
<ele>1136</ele>
<time>2014-08-20T14:04:02Z</time>
</trkpt>
<trkpt lat="49.2367335" lon="19.7950022">
<ele>1137</ele>
<time>2014-08-20T14:04:08Z</time>
</trkpt>
<trkpt lat="49.23668573" lon="19.79492136">
<ele>1138</ele>
<time>2014-08-20T14:04:14Z</time>
</trkpt>
<trkpt lat="49.23663877" lon="19.79484354">
<ele>1139</ele>
<time>2014-08-20T14:04:20Z</time>
</trkpt>
<trkpt lat="49.23659855" lon="19.79476595">
<ele>1139</ele>
<time>2014-08-20T14:04:26Z</time>
</trkpt>
<trkpt lat="49.23656249" lon="19.79467071">
<ele>1140</ele>
<time>2014-08-20T14:04:33Z</time>
</trkpt>
<trkpt lat="49.23652048" lon="19.79456453">
<ele>1138</ele>
<time>2014-08-20T14:04:40Z</time>
</trkpt>
<trkpt lat="49.23649371" lon="19.79447555">
<ele>1140</ele>
<time>2014-08-20T14:04:46Z</time>
</trkpt>
<trkpt lat="49.23648889" lon="19.79438722">
<ele>1140</ele>
<time>2014-08-20T14:04:52Z</time>
</trkpt>
<trkpt lat="49.23646143" lon="19.79432213">
<ele>1140</ele>
<time>2014-08-20T14:04:58Z</time>
</trkpt>
<trkpt lat="49.23644911" lon="19.7942143">
<ele>1140</ele>
<time>2014-08-20T14:05:04Z</time>
</trkpt>
<trkpt lat="49.23644281" lon="19.79410233">
<ele>1138</ele>
<time>2014-08-20T14:05:10Z</time>
</trkpt>
<trkpt lat="49.23643909" lon="19.79399756">
<ele>1139</ele>
<time>2014-08-20T14:05:16Z</time>
</trkpt>
<trkpt lat="49.2364344" lon="19.79388865">
<ele>1138</ele>
<time>2014-08-20T14:05:22Z</time>
</trkpt>
<trkpt lat="49.23642914" lon="19.79379825">
<ele>1139</ele>
<time>2014-08-20T14:05:28Z</time>
</trkpt>
<trkpt lat="49.23642914" lon="19.79379825">
<ele>1139</ele>
<time>2014-08-20T14:05:36Z</time>
</trkpt>
<trkpt lat="49.23650549" lon="19.79370813">
<ele>1139</ele>
<time>2014-08-20T14:05:42Z</time>
</trkpt>
<trkpt lat="49.23655688" lon="19.79367519">
<ele>1139</ele>
<time>2014-08-20T14:05:48Z</time>
</trkpt>
<trkpt lat="49.23660331" lon="19.79364984">
<ele>1138</ele>
<time>2014-08-20T14:05:54Z</time>
</trkpt>
<trkpt lat="49.23660331" lon="19.79364984">
<ele>1138</ele>
<time>2014-08-20T14:06:00Z</time>
</trkpt>
<trkpt lat="49.23661105" lon="19.79365058">
<ele>1139</ele>
<time>2014-08-20T14:06:06Z</time>
</trkpt>
<trkpt lat="49.23660848" lon="19.79364758">
<ele>1138</ele>
<time>2014-08-20T14:06:12Z</time>
</trkpt>
<trkpt lat="49.23660981" lon="19.79365191">
<ele>1138</ele>
<time>2014-08-20T14:06:18Z</time>
</trkpt>
<trkpt lat="49.23661489" lon="19.79366627">
<ele>1139</ele>
<time>2014-08-20T14:06:24Z</time>
</trkpt>
<trkpt lat="49.2366221" lon="19.79367717">
<ele>1139</ele>
<time>2014-08-20T14:06:30Z</time>
</trkpt>
<trkpt lat="49.23662338" lon="19.79368521">
<ele>1140</ele>
<time>2014-08-20T14:06:38Z</time>
</trkpt>
<trkpt lat="49.2366216" lon="19.79368706">
<ele>1140</ele>
<time>2014-08-20T14:06:44Z</time>
</trkpt>
<trkpt lat="49.23662014" lon="19.79368453">
<ele>1140</ele>
<time>2014-08-20T14:06:50Z</time>
</trkpt>
<trkpt lat="49.23662024" lon="19.79368386">
<ele>1140</ele>
<time>2014-08-20T14:06:56Z</time>
</trkpt>
<trkpt lat="49.23662017" lon="19.79368386">
<ele>1140</ele>
<time>2014-08-20T14:07:02Z</time>
</trkpt>
<trkpt lat="49.23662026" lon="19.79368383">
<ele>1140</ele>
<time>2014-08-20T14:07:08Z</time>
</trkpt>
<trkpt lat="49.23662026" lon="19.79368395">
<ele>1140</ele>
<time>2014-08-20T14:07:14Z</time>
</trkpt>
<trkpt lat="49.23662025" lon="19.79368398">
<ele>1140</ele>
<time>2014-08-20T14:07:20Z</time>
</trkpt>
<trkpt lat="49.23662038" lon="19.79368402">
<ele>1140</ele>
<time>2014-08-20T14:07:26Z</time>
</trkpt>
<trkpt lat="49.2366755" lon="19.79366661">
<ele>1144</ele>
<time>2014-08-20T14:07:33Z</time>
</trkpt>
<trkpt lat="49.2366755" lon="19.79366661">
<ele>1144</ele>
<time>2014-08-20T14:07:40Z</time>
</trkpt>
<trkpt lat="49.23668069" lon="19.79365763">
<ele>1143</ele>
<time>2014-08-20T14:07:46Z</time>
</trkpt>
<trkpt lat="49.23668409" lon="19.79365459">
<ele>1144</ele>
<time>2014-08-20T14:07:52Z</time>
</trkpt>
<trkpt lat="49.23676027" lon="19.7936154">
<ele>1141</ele>
<time>2014-08-20T14:07:58Z</time>
</trkpt>
<trkpt lat="49.23682565" lon="19.79357549">
<ele>1142</ele>
<time>2014-08-20T14:08:04Z</time>
</trkpt>
<trkpt lat="49.23688588" lon="19.79354934">
<ele>1140</ele>
<time>2014-08-20T14:08:10Z</time>
</trkpt>
<trkpt lat="49.23696665" lon="19.79354266">
<ele>1145</ele>
<time>2014-08-20T14:08:16Z</time>
</trkpt>
<trkpt lat="49.23696665" lon="19.79354266">
<ele>1145</ele>
<time>2014-08-20T14:08:22Z</time>
</trkpt>
<trkpt lat="49.23705292" lon="19.79347152">
<ele>1146</ele>
<time>2014-08-20T14:08:28Z</time>
</trkpt>
<trkpt lat="49.23711651" lon="19.79347033">
<ele>1147</ele>
<time>2014-08-20T14:08:36Z</time>
</trkpt>
<trkpt lat="49.23711651" lon="19.79347033">
<ele>1147</ele>
<time>2014-08-20T14:08:42Z</time>
</trkpt>
<trkpt lat="49.23713279" lon="19.79347007">
<ele>1147</ele>
<time>2014-08-20T14:08:48Z</time>
</trkpt>
<trkpt lat="49.2371617" lon="19.79345541">
<ele>1149</ele>
<time>2014-08-20T14:08:54Z</time>
</trkpt>
<trkpt lat="49.23715967" lon="19.79344861">
<ele>1149</ele>
<time>2014-08-20T14:09:00Z</time>
</trkpt>
<trkpt lat="49.23723739" lon="19.79342518">
<ele>1145</ele>
<time>2014-08-20T14:09:06Z</time>
</trkpt>
<trkpt lat="49.23723739" lon="19.79342518">
<ele>1145</ele>
<time>2014-08-20T14:09:12Z</time>
</trkpt>
<trkpt lat="49.23731504" lon="19.7933708">
<ele>1144</ele>
<time>2014-08-20T14:09:18Z</time>
</trkpt>
<trkpt lat="49.23741274" lon="19.79333535">
<ele>1148</ele>
<time>2014-08-20T14:09:24Z</time>
</trkpt>
<trkpt lat="49.23749853" lon="19.79331685">
<ele>1148</ele>
<time>2014-08-20T14:09:30Z</time>
</trkpt>
<trkpt lat="49.23749853" lon="19.79331685">
<ele>1148</ele>
<time>2014-08-20T14:09:38Z</time>
</trkpt>
<trkpt lat="49.23763886" lon="19.79321462">
<ele>1152</ele>
<time>2014-08-20T14:09:44Z</time>
</trkpt>
<trkpt lat="49.23763886" lon="19.79321462">
<ele>1152</ele>
<time>2014-08-20T14:09:50Z</time>
</trkpt>
<trkpt lat="49.23766827" lon="19.79320879">
<ele>1152</ele>
<time>2014-08-20T14:09:56Z</time>
</trkpt>
<trkpt lat="49.23766832" lon="19.79321215">
<ele>1151</ele>
<time>2014-08-20T14:10:02Z</time>
</trkpt>
<trkpt lat="49.23768614" lon="19.79319249">
<ele>1152</ele>
<time>2014-08-20T14:10:08Z</time>
</trkpt>
<trkpt lat="49.23777992" lon="19.79314202">
<ele>1155</ele>
<time>2014-08-20T14:10:14Z</time>
</trkpt>
<trkpt lat="49.23777992" lon="19.79314202">
<ele>1155</ele>
<time>2014-08-20T14:10:20Z</time>
</trkpt>
<trkpt lat="49.23789529" lon="19.79310762">
<ele>1154</ele>
<time>2014-08-20T14:10:26Z</time>
</trkpt>
<trkpt lat="49.23798442" lon="19.79309562">
<ele>1156</ele>
<time>2014-08-20T14:10:33Z</time>
</trkpt>
<trkpt lat="49.23805548" lon="19.79307499">
<ele>1158</ele>
<time>2014-08-20T14:10:40Z</time>
</trkpt>
<trkpt lat="49.23813393" lon="19.79305056">
<ele>1161</ele>
<time>2014-08-20T14:10:46Z</time>
</trkpt>
<trkpt lat="49.23819414" lon="19.79301325">
<ele>1161</ele>
<time>2014-08-20T14:10:52Z</time>
</trkpt>
<trkpt lat="49.23824186" lon="19.79299604">
<ele>1160</ele>
<time>2014-08-20T14:10:58Z</time>
</trkpt>
<trkpt lat="49.23824186" lon="19.79299604">
<ele>1160</ele>
<time>2014-08-20T14:11:04Z</time>
</trkpt>
<trkpt lat="49.23824916" lon="19.79299397">
<ele>1161</ele>
<time>2014-08-20T14:11:10Z</time>
</trkpt>
<trkpt lat="49.23824264" lon="19.79300767">
<ele>1161</ele>
<time>2014-08-20T14:11:16Z</time>
</trkpt>
<trkpt lat="49.23824221" lon="19.79301336">
<ele>1161</ele>
<time>2014-08-20T14:11:22Z</time>
</trkpt>
<trkpt lat="49.23830643" lon="19.7930053">
<ele>1162</ele>
<time>2014-08-20T14:11:28Z</time>
</trkpt>
<trkpt lat="49.23830643" lon="19.7930053">
<ele>1162</ele>
<time>2014-08-20T14:11:36Z</time>
</trkpt>
<trkpt lat="49.23844488" lon="19.79295805">
<ele>1163</ele>
<time>2014-08-20T14:11:42Z</time>
</trkpt>
<trkpt lat="49.23844488" lon="19.79295805">
<ele>1163</ele>
<time>2014-08-20T14:11:48Z</time>
</trkpt>
<trkpt lat="49.23846607" lon="19.79294298">
<ele>1165</ele>
<time>2014-08-20T14:11:54Z</time>
</trkpt>
<trkpt lat="49.23847119" lon="19.79293881">
<ele>1166</ele>
<time>2014-08-20T14:12:00Z</time>
</trkpt>
<trkpt lat="49.2384961" lon="19.79292049">
<ele>1168</ele>
<time>2014-08-20T14:12:06Z</time>
</trkpt>
<trkpt lat="49.23850458" lon="19.79290092">
<ele>1168</ele>
<time>2014-08-20T14:12:12Z</time>
</trkpt>
<trkpt lat="49.23850386" lon="19.79288314">
<ele>1170</ele>
<time>2014-08-20T14:12:18Z</time>
</trkpt>
<trkpt lat="49.23851544" lon="19.79285672">
<ele>1171</ele>
<time>2014-08-20T14:12:24Z</time>
</trkpt>
<trkpt lat="49.2385376" lon="19.79282978">
<ele>1169</ele>
<time>2014-08-20T14:12:30Z</time>
</trkpt>
<trkpt lat="49.23856404" lon="19.79278573">
<ele>1170</ele>
<time>2014-08-20T14:12:38Z</time>
</trkpt>
<trkpt lat="49.23862575" lon="19.79270151">
<ele>1174</ele>
<time>2014-08-20T14:12:44Z</time>
</trkpt>
<trkpt lat="49.23862575" lon="19.79270151">
<ele>1174</ele>
<time>2014-08-20T14:12:50Z</time>
</trkpt>
<trkpt lat="49.23863931" lon="19.79269756">
<ele>1175</ele>
<time>2014-08-20T14:12:56Z</time>
</trkpt>
<trkpt lat="49.23863664" lon="19.7927">
<ele>1176</ele>
<time>2014-08-20T14:13:02Z</time>
</trkpt>
<trkpt lat="49.23863949" lon="19.79270364">
<ele>1177</ele>
<time>2014-08-20T14:13:08Z</time>
</trkpt>
<trkpt lat="49.2386784" lon="19.79267453">
<ele>1178</ele>
<time>2014-08-20T14:13:14Z</time>
</trkpt>
<trkpt lat="49.23869969" lon="19.79270456">
<ele>1179</ele>
<time>2014-08-20T14:13:20Z</time>
</trkpt>
<trkpt lat="49.23871891" lon="19.79274017">
<ele>1178</ele>
<time>2014-08-20T14:13:26Z</time>
</trkpt>
<trkpt lat="49.23871061" lon="19.79273662">
<ele>1178</ele>
<time>2014-08-20T14:13:34Z</time>
</trkpt>
<trkpt lat="49.23868444" lon="19.79274738">
<ele>1178</ele>
<time>2014-08-20T14:13:40Z</time>
</trkpt>
<trkpt lat="49.23869061" lon="19.79273836">
<ele>1178</ele>
<time>2014-08-20T14:13:46Z</time>
</trkpt>
<trkpt lat="49.23872914" lon="19.79272728">
<ele>1177</ele>
<time>2014-08-20T14:13:52Z</time>
</trkpt>
<trkpt lat="49.23872038" lon="19.79272261">
<ele>1176</ele>
<time>2014-08-20T14:13:58Z</time>
</trkpt>
<trkpt lat="49.23872092" lon="19.79272106">
<ele>1176</ele>
<time>2014-08-20T14:14:04Z</time>
</trkpt>
<trkpt lat="49.23871978" lon="19.79271953">
<ele>1176</ele>
<time>2014-08-20T14:14:10Z</time>
</trkpt>
<trkpt lat="49.23871769" lon="19.79273567">
<ele>1175</ele>
<time>2014-08-20T14:14:16Z</time>
</trkpt>
<trkpt lat="49.23871925" lon="19.79274433">
<ele>1176</ele>
<time>2014-08-20T14:14:22Z</time>
</trkpt>
<trkpt lat="49.23870365" lon="19.792753">
<ele>1175</ele>
<time>2014-08-20T14:14:28Z</time>
</trkpt>
<trkpt lat="49.23870775" lon="19.79266096">
<ele>1175</ele>
<time>2014-08-20T14:14:36Z</time>
</trkpt>
<trkpt lat="49.23870775" lon="19.79266096">
<ele>1175</ele>
<time>2014-08-20T14:14:42Z</time>
</trkpt>
<trkpt lat="49.23871046" lon="19.79265851">
<ele>1175</ele>
<time>2014-08-20T14:14:48Z</time>
</trkpt>
<trkpt lat="49.23871012" lon="19.79265849">
<ele>1175</ele>
<time>2014-08-20T14:14:54Z</time>
</trkpt>
<trkpt lat="49.23870969" lon="19.79265836">
<ele>1175</ele>
<time>2014-08-20T14:15:00Z</time>
</trkpt>
<trkpt lat="49.2387094" lon="19.79265861">
<ele>1175</ele>
<time>2014-08-20T14:15:06Z</time>
</trkpt>
<trkpt lat="49.23870918" lon="19.79265863">
<ele>1175</ele>
<time>2014-08-20T14:15:12Z</time>
</trkpt>
<trkpt lat="49.23870902" lon="19.79265868">
<ele>1175</ele>
<time>2014-08-20T14:15:18Z</time>
</trkpt>
<trkpt lat="49.2387089" lon="19.79265868">
<ele>1175</ele>
<time>2014-08-20T14:15:24Z</time>
</trkpt>
<trkpt lat="49.23870881" lon="19.79265866">
<ele>1175</ele>
<time>2014-08-20T14:15:30Z</time>
</trkpt>
<trkpt lat="49.23870879" lon="19.79265865">
<ele>1175</ele>
<time>2014-08-20T14:15:38Z</time>
</trkpt>
<trkpt lat="49.23870422" lon="19.79264719">
<ele>1177</ele>
<time>2014-08-20T14:15:44Z</time>
</trkpt>
<trkpt lat="49.23870753" lon="19.79265142">
<ele>1177</ele>
<time>2014-08-20T14:15:50Z</time>
</trkpt>
<trkpt lat="49.23870765" lon="19.79265264">
<ele>1177</ele>
<time>2014-08-20T14:15:56Z</time>
</trkpt>
<trkpt lat="49.23870446" lon="19.79268216">
<ele>1176</ele>
<time>2014-08-20T14:16:02Z</time>
</trkpt>
<trkpt lat="49.23872912" lon="19.79272538">
<ele>1174</ele>
<time>2014-08-20T14:16:08Z</time>
</trkpt>
<trkpt lat="49.2387284" lon="19.79271494">
<ele>1174</ele>
<time>2014-08-20T14:16:14Z</time>
</trkpt>
<trkpt lat="49.23873022" lon="19.79269861">
<ele>1175</ele>
<time>2014-08-20T14:16:20Z</time>
</trkpt>
<trkpt lat="49.23873015" lon="19.7926707">
<ele>1175</ele>
<time>2014-08-20T14:16:26Z</time>
</trkpt>
<trkpt lat="49.23872134" lon="19.79267987">
<ele>1176</ele>
<time>2014-08-20T14:16:34Z</time>
</trkpt>
<trkpt lat="49.23870736" lon="19.79267868">
<ele>1175</ele>
<time>2014-08-20T14:16:40Z</time>
</trkpt>
<trkpt lat="49.23869949" lon="19.79268304">
<ele>1175</ele>
<time>2014-08-20T14:16:46Z</time>
</trkpt>
<trkpt lat="49.23869485" lon="19.7926897">
<ele>1175</ele>
<time>2014-08-20T14:16:52Z</time>
</trkpt>
<trkpt lat="49.23868884" lon="19.79269943">
<ele>1175</ele>
<time>2014-08-20T14:16:58Z</time>
</trkpt>
<trkpt lat="49.23868813" lon="19.79269988">
<ele>1175</ele>
<time>2014-08-20T14:17:04Z</time>
</trkpt>
<trkpt lat="49.23868812" lon="19.79269989">
<ele>1175</ele>
<time>2014-08-20T14:17:10Z</time>
</trkpt>
<trkpt lat="49.23869228" lon="19.79270105">
<ele>1175</ele>
<time>2014-08-20T14:17:16Z</time>
</trkpt>
<trkpt lat="49.23868491" lon="19.79271437">
<ele>1178</ele>
<time>2014-08-20T14:17:22Z</time>
</trkpt>
<trkpt lat="49.23870198" lon="19.79275288">
<ele>1178</ele>
<time>2014-08-20T14:17:28Z</time>
</trkpt>
<trkpt lat="49.23870367" lon="19.79274339">
<ele>1178</ele>
<time>2014-08-20T14:17:36Z</time>
</trkpt>
<trkpt lat="49.23870425" lon="19.79274342">
<ele>1178</ele>
<time>2014-08-20T14:17:42Z</time>
</trkpt>
<trkpt lat="49.23870414" lon="19.7927461">
<ele>1178</ele>
<time>2014-08-20T14:17:48Z</time>
</trkpt>
<trkpt lat="49.23870407" lon="19.79274622">
<ele>1178</ele>
<time>2014-08-20T14:17:54Z</time>
</trkpt>
<trkpt lat="49.23871357" lon="19.79274685">
<ele>1178</ele>
<time>2014-08-20T14:18:00Z</time>
</trkpt>
<trkpt lat="49.23871277" lon="19.79275748">
<ele>1177</ele>
<time>2014-08-20T14:18:06Z</time>
</trkpt>
<trkpt lat="49.23871076" lon="19.79275907">
<ele>1177</ele>
<time>2014-08-20T14:18:12Z</time>
</trkpt>
<trkpt lat="49.23871431" lon="19.79275677">
<ele>1178</ele>
<time>2014-08-20T14:18:18Z</time>
</trkpt>
<trkpt lat="49.23871695" lon="19.79275125">
<ele>1178</ele>
<time>2014-08-20T14:18:24Z</time>
</trkpt>
<trkpt lat="49.238717" lon="19.7927496">
<ele>1177</ele>
<time>2014-08-20T14:18:30Z</time>
</trkpt>
<trkpt lat="49.23871268" lon="19.79275668">
<ele>1177</ele>
<time>2014-08-20T14:18:38Z</time>
</trkpt>
<trkpt lat="49.23871894" lon="19.79275018">
<ele>1177</ele>
<time>2014-08-20T14:18:44Z</time>
</trkpt>
<trkpt lat="49.238723" lon="19.79274324">
<ele>1176</ele>
<time>2014-08-20T14:18:50Z</time>
</trkpt>
<trkpt lat="49.23872502" lon="19.79274314">
<ele>1176</ele>
<time>2014-08-20T14:18:56Z</time>
</trkpt>
<trkpt lat="49.23872331" lon="19.79274704">
<ele>1176</ele>
<time>2014-08-20T14:19:02Z</time>
</trkpt>
<trkpt lat="49.23872325" lon="19.79274727">
<ele>1176</ele>
<time>2014-08-20T14:19:08Z</time>
</trkpt>
<trkpt lat="49.23872323" lon="19.79274731">
<ele>1176</ele>
<time>2014-08-20T14:19:14Z</time>
</trkpt>
<trkpt lat="49.23872331" lon="19.79274726">
<ele>1176</ele>
<time>2014-08-20T14:19:20Z</time>
</trkpt>
<trkpt lat="49.23872336" lon="19.79274728">
<ele>1176</ele>
<time>2014-08-20T14:19:26Z</time>
</trkpt>
<trkpt lat="49.23872337" lon="19.79274731">
<ele>1176</ele>
<time>2014-08-20T14:19:33Z</time>
</trkpt>
<trkpt lat="49.23870535" lon="19.7927611">
<ele>1174</ele>
<time>2014-08-20T14:19:40Z</time>
</trkpt>
<trkpt lat="49.23869237" lon="19.7927178">
<ele>1177</ele>
<time>2014-08-20T14:19:46Z</time>
</trkpt>
<trkpt lat="49.23867008" lon="19.79270291">
<ele>1179</ele>
<time>2014-08-20T14:19:52Z</time>
</trkpt>
<trkpt lat="49.23867329" lon="19.79272323">
<ele>1177</ele>
<time>2014-08-20T14:19:58Z</time>
</trkpt>
<trkpt lat="49.23866765" lon="19.79272173">
<ele>1177</ele>
<time>2014-08-20T14:20:04Z</time>
</trkpt>
<trkpt lat="49.23866283" lon="19.79272352">
<ele>1177</ele>
<time>2014-08-20T14:20:10Z</time>
</trkpt>
<trkpt lat="49.23866249" lon="19.79272242">
<ele>1176</ele>
<time>2014-08-20T14:20:16Z</time>
</trkpt>
<trkpt lat="49.23866234" lon="19.79272232">
<ele>1176</ele>
<time>2014-08-20T14:20:22Z</time>
</trkpt>
<trkpt lat="49.23866043" lon="19.79272368">
<ele>1177</ele>
<time>2014-08-20T14:20:28Z</time>
</trkpt>
<trkpt lat="49.23866061" lon="19.79271986">
<ele>1177</ele>
<time>2014-08-20T14:20:36Z</time>
</trkpt>
<trkpt lat="49.23866327" lon="19.79270627">
<ele>1176</ele>
<time>2014-08-20T14:20:42Z</time>
</trkpt>
<trkpt lat="49.23865965" lon="19.79268923">
<ele>1174</ele>
<time>2014-08-20T14:20:48Z</time>
</trkpt>
<trkpt lat="49.23865561" lon="19.79268374">
<ele>1173</ele>
<time>2014-08-20T14:20:54Z</time>
</trkpt>
<trkpt lat="49.23866528" lon="19.79267404">
<ele>1173</ele>
<time>2014-08-20T14:21:00Z</time>
</trkpt>
<trkpt lat="49.23866722" lon="19.79267819">
<ele>1174</ele>
<time>2014-08-20T14:21:06Z</time>
</trkpt>
<trkpt lat="49.23867916" lon="19.79267987">
<ele>1175</ele>
<time>2014-08-20T14:21:12Z</time>
</trkpt>
<trkpt lat="49.23868276" lon="19.79269085">
<ele>1175</ele>
<time>2014-08-20T14:21:18Z</time>
</trkpt>
<trkpt lat="49.23868204" lon="19.79269615">
<ele>1175</ele>
<time>2014-08-20T14:21:24Z</time>
</trkpt>
<trkpt lat="49.23868475" lon="19.79269822">
<ele>1175</ele>
<time>2014-08-20T14:21:30Z</time>
</trkpt>
<trkpt lat="49.23868205" lon="19.79269721">
<ele>1176</ele>
<time>2014-08-20T14:21:38Z</time>
</trkpt>
<trkpt lat="49.23868131" lon="19.79269689">
<ele>1176</ele>
<time>2014-08-20T14:21:44Z</time>
</trkpt>
<trkpt lat="49.23868062" lon="19.79270401">
<ele>1177</ele>
<time>2014-08-20T14:21:50Z</time>
</trkpt>
<trkpt lat="49.23867992" lon="19.79270758">
<ele>1176</ele>
<time>2014-08-20T14:21:56Z</time>
</trkpt>
<trkpt lat="49.23868601" lon="19.79270707">
<ele>1176</ele>
<time>2014-08-20T14:22:02Z</time>
</trkpt>
<trkpt lat="49.23869771" lon="19.7926948">
<ele>1177</ele>
<time>2014-08-20T14:22:08Z</time>
</trkpt>
<trkpt lat="49.23869554" lon="19.79267922">
<ele>1177</ele>
<time>2014-08-20T14:22:14Z</time>
</trkpt>
<trkpt lat="49.23869268" lon="19.79265539">
<ele>1176</ele>
<time>2014-08-20T14:22:20Z</time>
</trkpt>
<trkpt lat="49.23867004" lon="19.79260081">
<ele>1179</ele>
<time>2014-08-20T14:22:26Z</time>
</trkpt>
<trkpt lat="49.23867168" lon="19.79254716">
<ele>1179</ele>
<time>2014-08-20T14:22:34Z</time>
</trkpt>
<trkpt lat="49.23867237" lon="19.79255197">
<ele>1178</ele>
<time>2014-08-20T14:22:40Z</time>
</trkpt>
<trkpt lat="49.2386743" lon="19.79254263">
<ele>1179</ele>
<time>2014-08-20T14:22:46Z</time>
</trkpt>
<trkpt lat="49.23867021" lon="19.79248852">
<ele>1180</ele>
<time>2014-08-20T14:22:52Z</time>
</trkpt>
<trkpt lat="49.23865036" lon="19.79242937">
<ele>1180</ele>
<time>2014-08-20T14:22:58Z</time>
</trkpt>
<trkpt lat="49.23862732" lon="19.79237825">
<ele>1181</ele>
<time>2014-08-20T14:23:04Z</time>
</trkpt>
<trkpt lat="49.23859726" lon="19.7923838">
<ele>1184</ele>
<time>2014-08-20T14:23:10Z</time>
</trkpt>
<trkpt lat="49.23859822" lon="19.79238751">
<ele>1184</ele>
<time>2014-08-20T14:23:16Z</time>
</trkpt>
<trkpt lat="49.2385969" lon="19.79238722">
<ele>1184</ele>
<time>2014-08-20T14:23:22Z</time>
</trkpt>
<trkpt lat="49.23859627" lon="19.79238815">
<ele>1184</ele>
<time>2014-08-20T14:23:28Z</time>
</trkpt>
<trkpt lat="49.23859626" lon="19.79238826">
<ele>1184</ele>
<time>2014-08-20T14:23:36Z</time>
</trkpt>
<trkpt lat="49.2385817" lon="19.7922885">
<ele>1183</ele>
<time>2014-08-20T14:23:42Z</time>
</trkpt>
<trkpt lat="49.2385817" lon="19.7922885">
<ele>1183</ele>
<time>2014-08-20T14:23:48Z</time>
</trkpt>
<trkpt lat="49.23856792" lon="19.79214686">
<ele>1184</ele>
<time>2014-08-20T14:23:54Z</time>
</trkpt>
<trkpt lat="49.23856716" lon="19.79204675">
<ele>1184</ele>
<time>2014-08-20T14:24:00Z</time>
</trkpt>
<trkpt lat="49.23855457" lon="19.79196701">
<ele>1185</ele>
<time>2014-08-20T14:24:06Z</time>
</trkpt>
<trkpt lat="49.23854513" lon="19.79188874">
<ele>1185</ele>
<time>2014-08-20T14:24:12Z</time>
</trkpt>
<trkpt lat="49.23854513" lon="19.79188874">
<ele>1185</ele>
<time>2014-08-20T14:24:18Z</time>
</trkpt>
<trkpt lat="49.23853726" lon="19.79183068">
<ele>1185</ele>
<time>2014-08-20T14:24:24Z</time>
</trkpt>
<trkpt lat="49.23852737" lon="19.79176529">
<ele>1185</ele>
<time>2014-08-20T14:24:30Z</time>
</trkpt>
<trkpt lat="49.23852417" lon="19.79171029">
<ele>1185</ele>
<time>2014-08-20T14:24:38Z</time>
</trkpt>
<trkpt lat="49.23851134" lon="19.79148469">
<ele>1187</ele>
<time>2014-08-20T14:24:44Z</time>
</trkpt>
<trkpt lat="49.23849023" lon="19.79140938">
<ele>1188</ele>
<time>2014-08-20T14:24:50Z</time>
</trkpt>
<trkpt lat="49.23847962" lon="19.79132436">
<ele>1190</ele>
<time>2014-08-20T14:24:56Z</time>
</trkpt>
<trkpt lat="49.23847688" lon="19.79123873">
<ele>1188</ele>
<time>2014-08-20T14:25:02Z</time>
</trkpt>
<trkpt lat="49.23847025" lon="19.79115957">
<ele>1189</ele>
<time>2014-08-20T14:25:08Z</time>
</trkpt>
<trkpt lat="49.23845408" lon="19.79107075">
<ele>1190</ele>
<time>2014-08-20T14:25:14Z</time>
</trkpt>
<trkpt lat="49.23843959" lon="19.79097357">
<ele>1190</ele>
<time>2014-08-20T14:25:20Z</time>
</trkpt>
<trkpt lat="49.23840846" lon="19.79091036">
<ele>1192</ele>
<time>2014-08-20T14:25:26Z</time>
</trkpt>
<trkpt lat="49.23837891" lon="19.79084374">
<ele>1193</ele>
<time>2014-08-20T14:25:33Z</time>
</trkpt>
<trkpt lat="49.2383539" lon="19.79073648">
<ele>1192</ele>
<time>2014-08-20T14:25:40Z</time>
</trkpt>
<trkpt lat="49.2383539" lon="19.79073648">
<ele>1192</ele>
<time>2014-08-20T14:25:46Z</time>
</trkpt>
<trkpt lat="49.23832234" lon="19.79064036">
<ele>1191</ele>
<time>2014-08-20T14:25:52Z</time>
</trkpt>
<trkpt lat="49.23829527" lon="19.79058089">
<ele>1191</ele>
<time>2014-08-20T14:25:58Z</time>
</trkpt>
<trkpt lat="49.23829527" lon="19.79058089">
<ele>1191</ele>
<time>2014-08-20T14:26:04Z</time>
</trkpt>
<trkpt lat="49.23824902" lon="19.79047902">
<ele>1191</ele>
<time>2014-08-20T14:26:10Z</time>
</trkpt>
<trkpt lat="49.23824902" lon="19.79047902">
<ele>1191</ele>
<time>2014-08-20T14:26:16Z</time>
</trkpt>
<trkpt lat="49.23825373" lon="19.79048035">
<ele>1191</ele>
<time>2014-08-20T14:26:22Z</time>
</trkpt>
<trkpt lat="49.23825418" lon="19.79048285">
<ele>1192</ele>
<time>2014-08-20T14:26:28Z</time>
</trkpt>
<trkpt lat="49.23824859" lon="19.7904893">
<ele>1191</ele>
<time>2014-08-20T14:26:36Z</time>
</trkpt>
<trkpt lat="49.23817452" lon="19.7903447">
<ele>1191</ele>
<time>2014-08-20T14:26:42Z</time>
</trkpt>
<trkpt lat="49.23812974" lon="19.79028496">
<ele>1194</ele>
<time>2014-08-20T14:26:48Z</time>
</trkpt>
<trkpt lat="49.23808549" lon="19.79021524">
<ele>1194</ele>
<time>2014-08-20T14:26:54Z</time>
</trkpt>
<trkpt lat="49.23805047" lon="19.79014412">
<ele>1194</ele>
<time>2014-08-20T14:27:00Z</time>
</trkpt>
<trkpt lat="49.23799861" lon="19.79007142">
<ele>1195</ele>
<time>2014-08-20T14:27:06Z</time>
</trkpt>
<trkpt lat="49.23795088" lon="19.78999959">
<ele>1194</ele>
<time>2014-08-20T14:27:12Z</time>
</trkpt>
<trkpt lat="49.23791369" lon="19.78993491">
<ele>1192</ele>
<time>2014-08-20T14:27:18Z</time>
</trkpt>
<trkpt lat="49.23787412" lon="19.789869">
<ele>1193</ele>
<time>2014-08-20T14:27:24Z</time>
</trkpt>
<trkpt lat="49.23783682" lon="19.78980483">
<ele>1193</ele>
<time>2014-08-20T14:27:30Z</time>
</trkpt>
<trkpt lat="49.23783682" lon="19.78980483">
<ele>1193</ele>
<time>2014-08-20T14:27:38Z</time>
</trkpt>
<trkpt lat="49.23776424" lon="19.78964387">
<ele>1194</ele>
<time>2014-08-20T14:27:44Z</time>
</trkpt>
<trkpt lat="49.23776424" lon="19.78964387">
<ele>1194</ele>
<time>2014-08-20T14:27:50Z</time>
</trkpt>
<trkpt lat="49.23778176" lon="19.7896744">
<ele>1194</ele>
<time>2014-08-20T14:27:56Z</time>
</trkpt>
<trkpt lat="49.23779227" lon="19.78966668">
<ele>1196</ele>
<time>2014-08-20T14:28:02Z</time>
</trkpt>
<trkpt lat="49.23779255" lon="19.78966737">
<ele>1196</ele>
<time>2014-08-20T14:28:08Z</time>
</trkpt>
<trkpt lat="49.23778446" lon="19.78966605">
<ele>1196</ele>
<time>2014-08-20T14:28:14Z</time>
</trkpt>
<trkpt lat="49.23775254" lon="19.78957916">
<ele>1193</ele>
<time>2014-08-20T14:28:20Z</time>
</trkpt>
<trkpt lat="49.23767691" lon="19.78952054">
<ele>1193</ele>
<time>2014-08-20T14:28:26Z</time>
</trkpt>
<trkpt lat="49.23761007" lon="19.78949945">
<ele>1192</ele>
<time>2014-08-20T14:28:33Z</time>
</trkpt>
<trkpt lat="49.23756303" lon="19.78944636">
<ele>1190</ele>
<time>2014-08-20T14:28:40Z</time>
</trkpt>
<trkpt lat="49.23752849" lon="19.78939349">
<ele>1190</ele>
<time>2014-08-20T14:28:46Z</time>
</trkpt>
<trkpt lat="49.23752849" lon="19.78939349">
<ele>1190</ele>
<time>2014-08-20T14:28:52Z</time>
</trkpt>
<trkpt lat="49.23742448" lon="19.7894088">
<ele>1189</ele>
<time>2014-08-20T14:28:58Z</time>
</trkpt>
<trkpt lat="49.23742448" lon="19.7894088">
<ele>1189</ele>
<time>2014-08-20T14:29:04Z</time>
</trkpt>
<trkpt lat="49.23738234" lon="19.78941473">
<ele>1188</ele>
<time>2014-08-20T14:29:10Z</time>
</trkpt>
<trkpt lat="49.23736924" lon="19.78940031">
<ele>1187</ele>
<time>2014-08-20T14:29:16Z</time>
</trkpt>
<trkpt lat="49.23737171" lon="19.78940466">
<ele>1187</ele>
<time>2014-08-20T14:29:22Z</time>
</trkpt>
<trkpt lat="49.23731282" lon="19.78923229">
<ele>1186</ele>
<time>2014-08-20T14:29:28Z</time>
</trkpt>
<trkpt lat="49.23726826" lon="19.78912599">
<ele>1184</ele>
<time>2014-08-20T14:29:37Z</time>
</trkpt>
<trkpt lat="49.23718275" lon="19.78908004">
<ele>1184</ele>
<time>2014-08-20T14:29:43Z</time>
</trkpt>
<trkpt lat="49.23718275" lon="19.78908004">
<ele>1184</ele>
<time>2014-08-20T14:29:49Z</time>
</trkpt>
<trkpt lat="49.23718427" lon="19.78906262">
<ele>1183</ele>
<time>2014-08-20T14:29:55Z</time>
</trkpt>
<trkpt lat="49.2371454" lon="19.78905115">
<ele>1183</ele>
<time>2014-08-20T14:30:01Z</time>
</trkpt>
<trkpt lat="49.23708269" lon="19.78903031">
<ele>1183</ele>
<time>2014-08-20T14:30:07Z</time>
</trkpt>
<trkpt lat="49.23702412" lon="19.78900801">
<ele>1182</ele>
<time>2014-08-20T14:30:13Z</time>
</trkpt>
<trkpt lat="49.23696802" lon="19.7889654">
<ele>1180</ele>
<time>2014-08-20T14:30:19Z</time>
</trkpt>
<trkpt lat="49.23690304" lon="19.78893186">
<ele>1178</ele>
<time>2014-08-20T14:30:25Z</time>
</trkpt>
<trkpt lat="49.23686328" lon="19.78889017">
<ele>1177</ele>
<time>2014-08-20T14:30:31Z</time>
</trkpt>
<trkpt lat="49.23686328" lon="19.78889017">
<ele>1177</ele>
<time>2014-08-20T14:30:38Z</time>
</trkpt>
<trkpt lat="49.2368298" lon="19.78887011">
<ele>1177</ele>
<time>2014-08-20T14:30:44Z</time>
</trkpt>
<trkpt lat="49.23683009" lon="19.78886943">
<ele>1176</ele>
<time>2014-08-20T14:30:50Z</time>
</trkpt>
<trkpt lat="49.23675982" lon="19.78881697">
<ele>1176</ele>
<time>2014-08-20T14:30:56Z</time>
</trkpt>
<trkpt lat="49.23671086" lon="19.78878903">
<ele>1175</ele>
<time>2014-08-20T14:31:02Z</time>
</trkpt>
<trkpt lat="49.23666287" lon="19.78876264">
<ele>1175</ele>
<time>2014-08-20T14:31:08Z</time>
</trkpt>
<trkpt lat="49.2366108" lon="19.78872442">
<ele>1173</ele>
<time>2014-08-20T14:31:14Z</time>
</trkpt>
<trkpt lat="49.23655236" lon="19.78869223">
<ele>1173</ele>
<time>2014-08-20T14:31:20Z</time>
</trkpt>
<trkpt lat="49.23651088" lon="19.78866366">
<ele>1174</ele>
<time>2014-08-20T14:31:26Z</time>
</trkpt>
<trkpt lat="49.23651088" lon="19.78866366">
<ele>1174</ele>
<time>2014-08-20T14:31:34Z</time>
</trkpt>
<trkpt lat="49.23649078" lon="19.78866071">
<ele>1176</ele>
<time>2014-08-20T14:31:40Z</time>
</trkpt>
<trkpt lat="49.23646077" lon="19.78855595">
<ele>1176</ele>
<time>2014-08-20T14:31:46Z</time>
</trkpt>
<trkpt lat="49.23644097" lon="19.78848203">
<ele>1176</ele>
<time>2014-08-20T14:31:52Z</time>
</trkpt>
<trkpt lat="49.23641234" lon="19.78841413">
<ele>1176</ele>
<time>2014-08-20T14:31:58Z</time>
</trkpt>
<trkpt lat="49.23638074" lon="19.7883421">
<ele>1175</ele>
<time>2014-08-20T14:32:04Z</time>
</trkpt>
<trkpt lat="49.23638074" lon="19.7883421">
<ele>1175</ele>
<time>2014-08-20T14:32:10Z</time>
</trkpt>
<trkpt lat="49.23636385" lon="19.78829991">
<ele>1176</ele>
<time>2014-08-20T14:32:16Z</time>
</trkpt>
<trkpt lat="49.2363552" lon="19.78826321">
<ele>1177</ele>
<time>2014-08-20T14:32:22Z</time>
</trkpt>
<trkpt lat="49.2363521" lon="19.78824489">
<ele>1177</ele>
<time>2014-08-20T14:32:28Z</time>
</trkpt>
<trkpt lat="49.23635162" lon="19.7882325">
<ele>1179</ele>
<time>2014-08-20T14:32:36Z</time>
</trkpt>
<trkpt lat="49.23636075" lon="19.78819878">
<ele>1179</ele>
<time>2014-08-20T14:32:42Z</time>
</trkpt>
<trkpt lat="49.23636907" lon="19.78824472">
<ele>1178</ele>
<time>2014-08-20T14:32:48Z</time>
</trkpt>
<trkpt lat="49.23636907" lon="19.78824472">
<ele>1178</ele>
<time>2014-08-20T14:32:54Z</time>
</trkpt>
<trkpt lat="49.236368" lon="19.78824737">
<ele>1178</ele>
<time>2014-08-20T14:33:00Z</time>
</trkpt>
<trkpt lat="49.23635933" lon="19.78823448">
<ele>1177</ele>
<time>2014-08-20T14:33:06Z</time>
</trkpt>
<trkpt lat="49.2363565" lon="19.7882279">
<ele>1177</ele>
<time>2014-08-20T14:33:12Z</time>
</trkpt>
<trkpt lat="49.23635676" lon="19.78822908">
<ele>1177</ele>
<time>2014-08-20T14:33:18Z</time>
</trkpt>
<trkpt lat="49.23635689" lon="19.7882303">
<ele>1177</ele>
<time>2014-08-20T14:33:24Z</time>
</trkpt>
<trkpt lat="49.23635688" lon="19.78823059">
<ele>1177</ele>
<time>2014-08-20T14:33:30Z</time>
</trkpt>
<trkpt lat="49.23635828" lon="19.78823363">
<ele>1177</ele>
<time>2014-08-20T14:33:43Z</time>
</trkpt>
<trkpt lat="49.2363567" lon="19.78822269">
<ele>1177</ele>
<time>2014-08-20T14:33:49Z</time>
</trkpt>
<trkpt lat="49.23635847" lon="19.78823258">
<ele>1177</ele>
<time>2014-08-20T14:33:55Z</time>
</trkpt>
<trkpt lat="49.23635851" lon="19.78823281">
<ele>1177</ele>
<time>2014-08-20T14:34:01Z</time>
</trkpt>
<trkpt lat="49.23635958" lon="19.78824441">
<ele>1177</ele>
<time>2014-08-20T14:34:07Z</time>
</trkpt>
<trkpt lat="49.23635985" lon="19.78824852">
<ele>1177</ele>
<time>2014-08-20T14:34:13Z</time>
</trkpt>
<trkpt lat="49.23636273" lon="19.78829363">
<ele>1177</ele>
<time>2014-08-20T14:34:19Z</time>
</trkpt>
<trkpt lat="49.23636376" lon="19.78831176">
<ele>1177</ele>
<time>2014-08-20T14:34:25Z</time>
</trkpt>
<trkpt lat="49.23636452" lon="19.78831577">
<ele>1177</ele>
<time>2014-08-20T14:34:31Z</time>
</trkpt>
<trkpt lat="49.23636858" lon="19.78837405">
<ele>1182</ele>
<time>2014-08-20T14:34:38Z</time>
</trkpt>
<trkpt lat="49.23641141" lon="19.78846096">
<ele>1185</ele>
<time>2014-08-20T14:34:44Z</time>
</trkpt>
<trkpt lat="49.23641141" lon="19.78846096">
<ele>1185</ele>
<time>2014-08-20T14:34:50Z</time>
</trkpt>
<trkpt lat="49.23640203" lon="19.78847954">
<ele>1186</ele>
<time>2014-08-20T14:34:56Z</time>
</trkpt>
<trkpt lat="49.23640248" lon="19.78847911">
<ele>1187</ele>
<time>2014-08-20T14:35:02Z</time>
</trkpt>
<trkpt lat="49.23640268" lon="19.78848929">
<ele>1187</ele>
<time>2014-08-20T14:35:08Z</time>
</trkpt>
<trkpt lat="49.2364024" lon="19.78849524">
<ele>1187</ele>
<time>2014-08-20T14:35:14Z</time>
</trkpt>
<trkpt lat="49.23640217" lon="19.78849638">
<ele>1187</ele>
<time>2014-08-20T14:35:20Z</time>
</trkpt>
<trkpt lat="49.23640215" lon="19.7884964">
<ele>1187</ele>
<time>2014-08-20T14:35:26Z</time>
</trkpt>
<trkpt lat="49.23640423" lon="19.78850034">
<ele>1187</ele>
<time>2014-08-20T14:35:33Z</time>
</trkpt>
<trkpt lat="49.23640659" lon="19.78850092">
<ele>1187</ele>
<time>2014-08-20T14:35:40Z</time>
</trkpt>
<trkpt lat="49.23640716" lon="19.78850124">
<ele>1187</ele>
<time>2014-08-20T14:35:46Z</time>
</trkpt>
<trkpt lat="49.23640763" lon="19.78850136">
<ele>1188</ele>
<time>2014-08-20T14:35:52Z</time>
</trkpt>
<trkpt lat="49.23640774" lon="19.78850136">
<ele>1188</ele>
<time>2014-08-20T14:35:58Z</time>
</trkpt>
<trkpt lat="49.23640915" lon="19.78849815">
<ele>1187</ele>
<time>2014-08-20T14:36:04Z</time>
</trkpt>
<trkpt lat="49.23643687" lon="19.78862206">
<ele>1196</ele>
<time>2014-08-20T14:36:10Z</time>
</trkpt>
<trkpt lat="49.23643687" lon="19.78862206">
<ele>1196</ele>
<time>2014-08-20T14:36:16Z</time>
</trkpt>
<trkpt lat="49.23643767" lon="19.78861978">
<ele>1196</ele>
<time>2014-08-20T14:36:22Z</time>
</trkpt>
<trkpt lat="49.2364488" lon="19.78861831">
<ele>1198</ele>
<time>2014-08-20T14:36:28Z</time>
</trkpt>
<trkpt lat="49.23646119" lon="19.78864483">
<ele>1200</ele>
<time>2014-08-20T14:36:36Z</time>
</trkpt>
<trkpt lat="49.23646691" lon="19.78866117">
<ele>1201</ele>
<time>2014-08-20T14:36:42Z</time>
</trkpt>
<trkpt lat="49.2364675" lon="19.7886625">
<ele>1201</ele>
<time>2014-08-20T14:36:48Z</time>
</trkpt>
<trkpt lat="49.23646698" lon="19.78866107">
<ele>1201</ele>
<time>2014-08-20T14:36:54Z</time>
</trkpt>
<trkpt lat="49.23646215" lon="19.78864507">
<ele>1200</ele>
<time>2014-08-20T14:37:00Z</time>
</trkpt>
<trkpt lat="49.23646036" lon="19.78863851">
<ele>1200</ele>
<time>2014-08-20T14:37:06Z</time>
</trkpt>
<trkpt lat="49.23645974" lon="19.78863618">
<ele>1200</ele>
<time>2014-08-20T14:37:12Z</time>
</trkpt>
<trkpt lat="49.2364593" lon="19.78863456">
<ele>1200</ele>
<time>2014-08-20T14:37:18Z</time>
</trkpt>
<trkpt lat="49.23645914" lon="19.7886341">
<ele>1200</ele>
<time>2014-08-20T14:37:24Z</time>
</trkpt>
<trkpt lat="49.23645875" lon="19.78863266">
<ele>1200</ele>
<time>2014-08-20T14:37:30Z</time>
</trkpt>
<trkpt lat="49.23645869" lon="19.78863206">
<ele>1200</ele>
<time>2014-08-20T14:37:38Z</time>
</trkpt>
<trkpt lat="49.2364587" lon="19.78863182">
<ele>1200</ele>
<time>2014-08-20T14:37:44Z</time>
</trkpt>
<trkpt lat="49.23645906" lon="19.78863223">
<ele>1200</ele>
<time>2014-08-20T14:37:50Z</time>
</trkpt>
<trkpt lat="49.23645913" lon="19.7886323">
<ele>1200</ele>
<time>2014-08-20T14:37:56Z</time>
</trkpt>
<trkpt lat="49.23645932" lon="19.78863193">
<ele>1200</ele>
<time>2014-08-20T14:38:02Z</time>
</trkpt>
<trkpt lat="49.23645947" lon="19.78863182">
<ele>1200</ele>
<time>2014-08-20T14:38:08Z</time>
</trkpt>
<trkpt lat="49.23645952" lon="19.78863178">
<ele>1200</ele>
<time>2014-08-20T14:38:14Z</time>
</trkpt>
<trkpt lat="49.23645973" lon="19.78863163">
<ele>1200</ele>
<time>2014-08-20T14:38:20Z</time>
</trkpt>
<trkpt lat="49.23645983" lon="19.78863147">
<ele>1200</ele>
<time>2014-08-20T14:38:26Z</time>
</trkpt>
<trkpt lat="49.23645985" lon="19.78863144">
<ele>1200</ele>
<time>2014-08-20T14:38:33Z</time>
</trkpt>
<trkpt lat="49.23645995" lon="19.78863123">
<ele>1200</ele>
<time>2014-08-20T14:38:40Z</time>
</trkpt>
<trkpt lat="49.23646002" lon="19.78863072">
<ele>1200</ele>
<time>2014-08-20T14:38:46Z</time>
</trkpt>
<trkpt lat="49.2364969" lon="19.78857915">
<ele>1209</ele>
<time>2014-08-20T14:38:52Z</time>
</trkpt>
<trkpt lat="49.2364969" lon="19.78857915">
<ele>1209</ele>
<time>2014-08-20T14:38:58Z</time>
</trkpt>
<trkpt lat="49.2365141" lon="19.78854986">
<ele>1215</ele>
<time>2014-08-20T14:39:04Z</time>
</trkpt>
<trkpt lat="49.23651763" lon="19.7885369">
<ele>1215</ele>
<time>2014-08-20T14:39:10Z</time>
</trkpt>
<trkpt lat="49.23653132" lon="19.78853756">
<ele>1217</ele>
<time>2014-08-20T14:39:16Z</time>
</trkpt>
<trkpt lat="49.23653102" lon="19.78854092">
<ele>1217</ele>
<time>2014-08-20T14:39:22Z</time>
</trkpt>
<trkpt lat="49.23653068" lon="19.78854114">
<ele>1217</ele>
<time>2014-08-20T14:39:28Z</time>
</trkpt>
<trkpt lat="49.23652063" lon="19.78852304">
<ele>1216</ele>
<time>2014-08-20T14:39:36Z</time>
</trkpt>
<trkpt lat="49.23651752" lon="19.78851735">
<ele>1216</ele>
<time>2014-08-20T14:39:42Z</time>
</trkpt>
<trkpt lat="49.2365122" lon="19.78850783">
<ele>1215</ele>
<time>2014-08-20T14:39:48Z</time>
</trkpt>
<trkpt lat="49.23651191" lon="19.7885074">
<ele>1215</ele>
<time>2014-08-20T14:39:54Z</time>
</trkpt>
<trkpt lat="49.2365119" lon="19.78850735">
<ele>1215</ele>
<time>2014-08-20T14:40:00Z</time>
</trkpt>
<trkpt lat="49.23651195" lon="19.78850733">
<ele>1215</ele>
<time>2014-08-20T14:40:06Z</time>
</trkpt>
<trkpt lat="49.23651202" lon="19.78850734">
<ele>1215</ele>
<time>2014-08-20T14:40:12Z</time>
</trkpt>
<trkpt lat="49.23651213" lon="19.78850735">
<ele>1215</ele>
<time>2014-08-20T14:40:18Z</time>
</trkpt>
<trkpt lat="49.23651231" lon="19.78850744">
<ele>1215</ele>
<time>2014-08-20T14:40:24Z</time>
</trkpt>
<trkpt lat="49.23651238" lon="19.78850744">
<ele>1215</ele>
<time>2014-08-20T14:40:30Z</time>
</trkpt>
<trkpt lat="49.2365124" lon="19.78850751">
<ele>1215</ele>
<time>2014-08-20T14:40:38Z</time>
</trkpt>
<trkpt lat="49.23651236" lon="19.78850753">
<ele>1215</ele>
<time>2014-08-20T14:40:44Z</time>
</trkpt>
<trkpt lat="49.23651175" lon="19.78850762">
<ele>1215</ele>
<time>2014-08-20T14:40:50Z</time>
</trkpt>
<trkpt lat="49.2365114" lon="19.78850749">
<ele>1215</ele>
<time>2014-08-20T14:40:56Z</time>
</trkpt>
<trkpt lat="49.23651113" lon="19.78850739">
<ele>1215</ele>
<time>2014-08-20T14:41:02Z</time>
</trkpt>
<trkpt lat="49.23651084" lon="19.78850719">
<ele>1215</ele>
<time>2014-08-20T14:41:08Z</time>
</trkpt>
<trkpt lat="49.23651061" lon="19.78850701">
<ele>1215</ele>
<time>2014-08-20T14:41:14Z</time>
</trkpt>
<trkpt lat="49.23651045" lon="19.788507">
<ele>1215</ele>
<time>2014-08-20T14:41:20Z</time>
</trkpt>
<trkpt lat="49.23651025" lon="19.78850698">
<ele>1215</ele>
<time>2014-08-20T14:41:26Z</time>
</trkpt>
<trkpt lat="49.23651017" lon="19.78850718">
<ele>1215</ele>
<time>2014-08-20T14:41:32Z</time>
</trkpt>
<trkpt lat="49.23651015" lon="19.78850736">
<ele>1215</ele>
<time>2014-08-20T14:41:38Z</time>
</trkpt>
<trkpt lat="49.23651016" lon="19.78850742">
<ele>1215</ele>
<time>2014-08-20T14:41:44Z</time>
</trkpt>
<trkpt lat="49.23651012" lon="19.78850734">
<ele>1215</ele>
<time>2014-08-20T14:41:50Z</time>
</trkpt>
<trkpt lat="49.23651012" lon="19.7885074">
<ele>1215</ele>
<time>2014-08-20T14:41:56Z</time>
</trkpt>
<trkpt lat="49.23651007" lon="19.78850735">
<ele>1215</ele>
<time>2014-08-20T14:42:02Z</time>
</trkpt>
<trkpt lat="49.23651009" lon="19.78850733">
<ele>1215</ele>
<time>2014-08-20T14:42:08Z</time>
</trkpt>
<trkpt lat="49.2365101" lon="19.78850733">
<ele>1215</ele>
<time>2014-08-20T14:42:14Z</time>
</trkpt>
<trkpt lat="49.23651008" lon="19.7885071">
<ele>1215</ele>
<time>2014-08-20T14:42:20Z</time>
</trkpt>
<trkpt lat="49.23650992" lon="19.78850685">
<ele>1215</ele>
<time>2014-08-20T14:42:26Z</time>
</trkpt>
<trkpt lat="49.23650978" lon="19.78850672">
<ele>1215</ele>
<time>2014-08-20T14:42:33Z</time>
</trkpt>
<trkpt lat="49.23650959" lon="19.78850655">
<ele>1215</ele>
<time>2014-08-20T14:42:40Z</time>
</trkpt>
<trkpt lat="49.23650948" lon="19.7885065">
<ele>1215</ele>
<time>2014-08-20T14:42:46Z</time>
</trkpt>
<trkpt lat="49.23650942" lon="19.78850644">
<ele>1215</ele>
<time>2014-08-20T14:42:52Z</time>
</trkpt>
<trkpt lat="49.23650935" lon="19.78850636">
<ele>1215</ele>
<time>2014-08-20T14:42:58Z</time>
</trkpt>
<trkpt lat="49.23650923" lon="19.78850629">
<ele>1215</ele>
<time>2014-08-20T14:43:04Z</time>
</trkpt>
<trkpt lat="49.23650919" lon="19.78850626">
<ele>1215</ele>
<time>2014-08-20T14:43:10Z</time>
</trkpt>
<trkpt lat="49.23650892" lon="19.78850607">
<ele>1215</ele>
<time>2014-08-20T14:43:16Z</time>
</trkpt>
<trkpt lat="49.23650869" lon="19.78850603">
<ele>1215</ele>
<time>2014-08-20T14:43:22Z</time>
</trkpt>
<trkpt lat="49.2365084" lon="19.78850593">
<ele>1215</ele>
<time>2014-08-20T14:43:28Z</time>
</trkpt>
<trkpt lat="49.2365081" lon="19.78850576">
<ele>1215</ele>
<time>2014-08-20T14:43:36Z</time>
</trkpt>
<trkpt lat="49.23650775" lon="19.78850559">
<ele>1215</ele>
<time>2014-08-20T14:43:42Z</time>
</trkpt>
<trkpt lat="49.23650711" lon="19.78850522">
<ele>1215</ele>
<time>2014-08-20T14:43:48Z</time>
</trkpt>
<trkpt lat="49.23650678" lon="19.78850501">
<ele>1215</ele>
<time>2014-08-20T14:43:54Z</time>
</trkpt>
<trkpt lat="49.23650656" lon="19.78850489">
<ele>1215</ele>
<time>2014-08-20T14:44:00Z</time>
</trkpt>
<trkpt lat="49.23650636" lon="19.78850476">
<ele>1215</ele>
<time>2014-08-20T14:44:06Z</time>
</trkpt>
<trkpt lat="49.23650609" lon="19.7885046">
<ele>1215</ele>
<time>2014-08-20T14:44:12Z</time>
</trkpt>
<trkpt lat="49.23650584" lon="19.78850446">
<ele>1215</ele>
<time>2014-08-20T14:44:18Z</time>
</trkpt>
<trkpt lat="49.23650551" lon="19.78850431">
<ele>1215</ele>
<time>2014-08-20T14:44:24Z</time>
</trkpt>
<trkpt lat="49.23650534" lon="19.78850416">
<ele>1215</ele>
<time>2014-08-20T14:44:30Z</time>
</trkpt>
<trkpt lat="49.2365052" lon="19.78850404">
<ele>1215</ele>
<time>2014-08-20T14:44:38Z</time>
</trkpt>
<trkpt lat="49.23650513" lon="19.788504">
<ele>1215</ele>
<time>2014-08-20T14:44:44Z</time>
</trkpt>
<trkpt lat="49.23650493" lon="19.78850392">
<ele>1215</ele>
<time>2014-08-20T14:44:50Z</time>
</trkpt>
<trkpt lat="49.23650487" lon="19.78850398">
<ele>1215</ele>
<time>2014-08-20T14:44:56Z</time>
</trkpt>
<trkpt lat="49.23650485" lon="19.78850407">
<ele>1215</ele>
<time>2014-08-20T14:45:02Z</time>
</trkpt>
<trkpt lat="49.23650482" lon="19.78850438">
<ele>1215</ele>
<time>2014-08-20T14:45:08Z</time>
</trkpt>
<trkpt lat="49.23650483" lon="19.78850454">
<ele>1215</ele>
<time>2014-08-20T14:45:14Z</time>
</trkpt>
<trkpt lat="49.23650476" lon="19.78850465">
<ele>1215</ele>
<time>2014-08-20T14:45:20Z</time>
</trkpt>
<trkpt lat="49.23650475" lon="19.78850479">
<ele>1215</ele>
<time>2014-08-20T14:45:26Z</time>
</trkpt>
<trkpt lat="49.23650472" lon="19.78850518">
<ele>1215</ele>
<time>2014-08-20T14:45:34Z</time>
</trkpt>
<trkpt lat="49.2365047" lon="19.78850539">
<ele>1215</ele>
<time>2014-08-20T14:45:41Z</time>
</trkpt>
<trkpt lat="49.23650469" lon="19.78850543">
<ele>1215</ele>
<time>2014-08-20T14:45:47Z</time>
</trkpt>
<trkpt lat="49.23650458" lon="19.78850548">
<ele>1215</ele>
<time>2014-08-20T14:45:53Z</time>
</trkpt>
<trkpt lat="49.23650454" lon="19.78850546">
<ele>1215</ele>
<time>2014-08-20T14:45:59Z</time>
</trkpt>
<trkpt lat="49.23650443" lon="19.78850538">
<ele>1215</ele>
<time>2014-08-20T14:46:05Z</time>
</trkpt>
<trkpt lat="49.23650433" lon="19.78850542">
<ele>1215</ele>
<time>2014-08-20T14:46:11Z</time>
</trkpt>
<trkpt lat="49.23650431" lon="19.78850541">
<ele>1215</ele>
<time>2014-08-20T14:46:17Z</time>
</trkpt>
<trkpt lat="49.23650426" lon="19.78850541">
<ele>1215</ele>
<time>2014-08-20T14:46:23Z</time>
</trkpt>
<trkpt lat="49.23650424" lon="19.7885054">
<ele>1215</ele>
<time>2014-08-20T14:46:29Z</time>
</trkpt>
<trkpt lat="49.23650423" lon="19.78850541">
<ele>1215</ele>
<time>2014-08-20T14:46:36Z</time>
</trkpt>
<trkpt lat="49.23650422" lon="19.78850543">
<ele>1215</ele>
<time>2014-08-20T14:46:42Z</time>
</trkpt>
<trkpt lat="49.2365042" lon="19.78850543">
<ele>1215</ele>
<time>2014-08-20T14:46:48Z</time>
</trkpt>
<trkpt lat="49.23650414" lon="19.78850545">
<ele>1215</ele>
<time>2014-08-20T14:46:54Z</time>
</trkpt>
<trkpt lat="49.23650415" lon="19.78850545">
<ele>1215</ele>
<time>2014-08-20T14:47:00Z</time>
</trkpt>
<trkpt lat="49.23650418" lon="19.78850543">
<ele>1215</ele>
<time>2014-08-20T14:47:06Z</time>
</trkpt>
<trkpt lat="49.23650419" lon="19.78850543">
<ele>1215</ele>
<time>2014-08-20T14:47:12Z</time>
</trkpt>
<trkpt lat="49.23650422" lon="19.78850544">
<ele>1215</ele>
<time>2014-08-20T14:47:18Z</time>
</trkpt>
<trkpt lat="49.23650421" lon="19.78850545">
<ele>1215</ele>
<time>2014-08-20T14:47:24Z</time>
</trkpt>
<trkpt lat="49.23650419" lon="19.78850542">
<ele>1215</ele>
<time>2014-08-20T14:47:30Z</time>
</trkpt>
<trkpt lat="49.23650418" lon="19.78850541">
<ele>1215</ele>
<time>2014-08-20T14:47:36Z</time>
</trkpt>
<trkpt lat="49.23650417" lon="19.78850542">
<ele>1215</ele>
<time>2014-08-20T14:47:44Z</time>
</trkpt>
<trkpt lat="49.23650416" lon="19.78850541">
<ele>1215</ele>
<time>2014-08-20T14:47:50Z</time>
</trkpt>
<trkpt lat="49.23650408" lon="19.78850544">
<ele>1215</ele>
<time>2014-08-20T14:47:56Z</time>
</trkpt>
<trkpt lat="49.23650407" lon="19.78850545">
<ele>1215</ele>
<time>2014-08-20T14:48:02Z</time>
</trkpt>
<trkpt lat="49.23650407" lon="19.78850545">
<ele>1215</ele>
<time>2014-08-20T14:48:08Z</time>
</trkpt>
<trkpt lat="49.23650404" lon="19.78850549">
<ele>1215</ele>
<time>2014-08-20T14:48:14Z</time>
</trkpt>
<trkpt lat="49.23650406" lon="19.7885055">
<ele>1215</ele>
<time>2014-08-20T14:48:20Z</time>
</trkpt>
<trkpt lat="49.23650406" lon="19.78850551">
<ele>1215</ele>
<time>2014-08-20T14:48:26Z</time>
</trkpt>
<trkpt lat="49.23650406" lon="19.78850551">
<ele>1215</ele>
<time>2014-08-20T14:48:33Z</time>
</trkpt>
<trkpt lat="49.23650406" lon="19.78850552">
<ele>1215</ele>
<time>2014-08-20T14:48:40Z</time>
</trkpt>
<trkpt lat="49.23650406" lon="19.78850552">
<ele>1215</ele>
<time>2014-08-20T14:48:46Z</time>
</trkpt>
<trkpt lat="49.23650409" lon="19.78850552">
<ele>1215</ele>
<time>2014-08-20T14:48:52Z</time>
</trkpt>
<trkpt lat="49.23650421" lon="19.78850552">
<ele>1215</ele>
<time>2014-08-20T14:48:58Z</time>
</trkpt>
<trkpt lat="49.23650423" lon="19.78850553">
<ele>1215</ele>
<time>2014-08-20T14:49:04Z</time>
</trkpt>
<trkpt lat="49.23650434" lon="19.78850551">
<ele>1215</ele>
<time>2014-08-20T14:49:10Z</time>
</trkpt>
<trkpt lat="49.23650446" lon="19.7885056">
<ele>1215</ele>
<time>2014-08-20T14:49:16Z</time>
</trkpt>
<trkpt lat="49.2365048" lon="19.78850586">
<ele>1215</ele>
<time>2014-08-20T14:49:22Z</time>
</trkpt>
<trkpt lat="49.23650481" lon="19.78850591">
<ele>1215</ele>
<time>2014-08-20T14:49:28Z</time>
</trkpt>
<trkpt lat="49.23650483" lon="19.78850592">
<ele>1215</ele>
<time>2014-08-20T14:49:38Z</time>
</trkpt>
<trkpt lat="49.23650478" lon="19.7885059">
<ele>1215</ele>
<time>2014-08-20T14:49:44Z</time>
</trkpt>
<trkpt lat="49.23650398" lon="19.78850534">
<ele>1215</ele>
<time>2014-08-20T14:49:50Z</time>
</trkpt>
<trkpt lat="49.23650351" lon="19.78850503">
<ele>1215</ele>
<time>2014-08-20T14:49:56Z</time>
</trkpt>
<trkpt lat="49.236503" lon="19.7885048">
<ele>1215</ele>
<time>2014-08-20T14:50:02Z</time>
</trkpt>
<trkpt lat="49.2365026" lon="19.78850454">
<ele>1215</ele>
<time>2014-08-20T14:50:08Z</time>
</trkpt>
<trkpt lat="49.23650196" lon="19.7885041">
<ele>1214</ele>
<time>2014-08-20T14:50:14Z</time>
</trkpt>
<trkpt lat="49.23650115" lon="19.78850344">
<ele>1214</ele>
<time>2014-08-20T14:50:20Z</time>
</trkpt>
<trkpt lat="49.23650022" lon="19.78850278">
<ele>1214</ele>
<time>2014-08-20T14:50:26Z</time>
</trkpt>
<trkpt lat="49.2364999" lon="19.78850274">
<ele>1214</ele>
<time>2014-08-20T14:50:34Z</time>
</trkpt>
<trkpt lat="49.236498" lon="19.78850162">
<ele>1214</ele>
<time>2014-08-20T14:50:40Z</time>
</trkpt>
<trkpt lat="49.23649664" lon="19.7885015">
<ele>1214</ele>
<time>2014-08-20T14:50:46Z</time>
</trkpt>
<trkpt lat="49.23649516" lon="19.78850184">
<ele>1214</ele>
<time>2014-08-20T14:50:52Z</time>
</trkpt>
<trkpt lat="49.23649379" lon="19.7885014">
<ele>1214</ele>
<time>2014-08-20T14:50:58Z</time>
</trkpt>
<trkpt lat="49.23649261" lon="19.78850067">
<ele>1214</ele>
<time>2014-08-20T14:51:04Z</time>
</trkpt>
<trkpt lat="49.23649233" lon="19.78850053">
<ele>1214</ele>
<time>2014-08-20T14:51:10Z</time>
</trkpt>
<trkpt lat="49.23649066" lon="19.78849935">
<ele>1214</ele>
<time>2014-08-20T14:51:16Z</time>
</trkpt>
<trkpt lat="49.23648934" lon="19.78849856">
<ele>1214</ele>
<time>2014-08-20T14:51:22Z</time>
</trkpt>
<trkpt lat="49.23648811" lon="19.78849781">
<ele>1214</ele>
<time>2014-08-20T14:51:28Z</time>
</trkpt>
<trkpt lat="49.23648701" lon="19.78849707">
<ele>1214</ele>
<time>2014-08-20T14:51:36Z</time>
</trkpt>
<trkpt lat="49.23648617" lon="19.78849642">
<ele>1214</ele>
<time>2014-08-20T14:51:42Z</time>
</trkpt>
<trkpt lat="49.23648478" lon="19.7884957">
<ele>1214</ele>
<time>2014-08-20T14:51:48Z</time>
</trkpt>
<trkpt lat="49.23648407" lon="19.7884954">
<ele>1214</ele>
<time>2014-08-20T14:51:54Z</time>
</trkpt>
<trkpt lat="49.23648333" lon="19.78849505">
<ele>1214</ele>
<time>2014-08-20T14:52:00Z</time>
</trkpt>
<trkpt lat="49.23648257" lon="19.78849444">
<ele>1214</ele>
<time>2014-08-20T14:52:06Z</time>
</trkpt>
<trkpt lat="49.23648164" lon="19.78849381">
<ele>1213</ele>
<time>2014-08-20T14:52:12Z</time>
</trkpt>
<trkpt lat="49.23648076" lon="19.78849315">
<ele>1213</ele>
<time>2014-08-20T14:52:18Z</time>
</trkpt>
<trkpt lat="49.23648027" lon="19.78849287">
<ele>1213</ele>
<time>2014-08-20T14:52:24Z</time>
</trkpt>
<trkpt lat="49.23647989" lon="19.78849248">
<ele>1213</ele>
<time>2014-08-20T14:52:30Z</time>
</trkpt>
<trkpt lat="49.23647951" lon="19.7884922">
<ele>1213</ele>
<time>2014-08-20T14:52:38Z</time>
</trkpt>
<trkpt lat="49.23647941" lon="19.78849211">
<ele>1213</ele>
<time>2014-08-20T14:52:44Z</time>
</trkpt>
<trkpt lat="49.23647721" lon="19.78849027">
<ele>1213</ele>
<time>2014-08-20T14:52:50Z</time>
</trkpt>
<trkpt lat="49.23643498" lon="19.78850245">
<ele>1212</ele>
<time>2014-08-20T14:52:56Z</time>
</trkpt>
<trkpt lat="49.23643236" lon="19.78849119">
<ele>1211</ele>
<time>2014-08-20T14:53:02Z</time>
</trkpt>
<trkpt lat="49.23643191" lon="19.78849297">
<ele>1211</ele>
<time>2014-08-20T14:53:08Z</time>
</trkpt>
<trkpt lat="49.23643171" lon="19.78849434">
<ele>1211</ele>
<time>2014-08-20T14:53:14Z</time>
</trkpt>
<trkpt lat="49.23643188" lon="19.78849474">
<ele>1211</ele>
<time>2014-08-20T14:53:20Z</time>
</trkpt>
<trkpt lat="49.23643209" lon="19.7884951">
<ele>1211</ele>
<time>2014-08-20T14:53:26Z</time>
</trkpt>
<trkpt lat="49.2364322" lon="19.78849519">
<ele>1211</ele>
<time>2014-08-20T14:53:34Z</time>
</trkpt>
<trkpt lat="49.2364322" lon="19.78849514">
<ele>1211</ele>
<time>2014-08-20T14:53:41Z</time>
</trkpt>
<trkpt lat="49.23643211" lon="19.78849516">
<ele>1211</ele>
<time>2014-08-20T14:53:47Z</time>
</trkpt>
<trkpt lat="49.23643211" lon="19.78849515">
<ele>1211</ele>
<time>2014-08-20T14:53:53Z</time>
</trkpt>
<trkpt lat="49.23643211" lon="19.78849514">
<ele>1211</ele>
<time>2014-08-20T14:58:44Z</time>
</trkpt>
<trkpt lat="49.23643211" lon="19.78849514">
<ele>1211</ele>
<time>2014-08-20T14:58:51Z</time>
</trkpt>
<trkpt lat="49.23644492" lon="19.78830686">
<ele>1207</ele>
<time>2014-08-20T14:58:57Z</time>
</trkpt>
<trkpt lat="49.23644492" lon="19.78830686">
<ele>1207</ele>
<time>2014-08-20T14:59:03Z</time>
</trkpt>
<trkpt lat="49.23646845" lon="19.78825662">
<ele>1202</ele>
<time>2014-08-20T14:59:09Z</time>
</trkpt>
<trkpt lat="49.23649551" lon="19.78822126">
<ele>1199</ele>
<time>2014-08-20T14:59:15Z</time>
</trkpt>
<trkpt lat="49.23645811" lon="19.78821474">
<ele>1197</ele>
<time>2014-08-20T14:59:21Z</time>
</trkpt>
<trkpt lat="49.23639347" lon="19.78815918">
<ele>1194</ele>
<time>2014-08-20T14:59:27Z</time>
</trkpt>
<trkpt lat="49.23639347" lon="19.78815918">
<ele>1194</ele>
<time>2014-08-20T14:59:34Z</time>
</trkpt>
<trkpt lat="49.23635559" lon="19.78814198">
<ele>1194</ele>
<time>2014-08-20T14:59:40Z</time>
</trkpt>
<trkpt lat="49.23635921" lon="19.78816717">
<ele>1195</ele>
<time>2014-08-20T14:59:46Z</time>
</trkpt>
<trkpt lat="49.2363601" lon="19.78819145">
<ele>1194</ele>
<time>2014-08-20T14:59:52Z</time>
</trkpt>
<trkpt lat="49.23635411" lon="19.78819289">
<ele>1194</ele>
<time>2014-08-20T14:59:58Z</time>
</trkpt>
<trkpt lat="49.23634258" lon="19.78821309">
<ele>1194</ele>
<time>2014-08-20T15:00:04Z</time>
</trkpt>
<trkpt lat="49.23635112" lon="19.78826015">
<ele>1196</ele>
<time>2014-08-20T15:00:10Z</time>
</trkpt>
<trkpt lat="49.23635034" lon="19.78826356">
<ele>1196</ele>
<time>2014-08-20T15:00:16Z</time>
</trkpt>
<trkpt lat="49.23635059" lon="19.78826176">
<ele>1197</ele>
<time>2014-08-20T15:00:22Z</time>
</trkpt>
<trkpt lat="49.2363507" lon="19.78826156">
<ele>1197</ele>
<time>2014-08-20T15:00:28Z</time>
</trkpt>
<trkpt lat="49.23635056" lon="19.78826235">
<ele>1197</ele>
<time>2014-08-20T15:00:37Z</time>
</trkpt>
<trkpt lat="49.23635053" lon="19.78826237">
<ele>1197</ele>
<time>2014-08-20T15:00:43Z</time>
</trkpt>
<trkpt lat="49.2363505" lon="19.78826241">
<ele>1197</ele>
<time>2014-08-20T15:00:49Z</time>
</trkpt>
<trkpt lat="49.2363498" lon="19.78826332">
<ele>1196</ele>
<time>2014-08-20T15:00:55Z</time>
</trkpt>
<trkpt lat="49.23635242" lon="19.78828438">
<ele>1196</ele>
<time>2014-08-20T15:01:01Z</time>
</trkpt>
<trkpt lat="49.23639461" lon="19.78827799">
<ele>1191</ele>
<time>2014-08-20T15:01:07Z</time>
</trkpt>
<trkpt lat="49.23646762" lon="19.78830984">
<ele>1188</ele>
<time>2014-08-20T15:01:13Z</time>
</trkpt>
<trkpt lat="49.23649995" lon="19.78835922">
<ele>1190</ele>
<time>2014-08-20T15:01:19Z</time>
</trkpt>
<trkpt lat="49.23649995" lon="19.78835922">
<ele>1190</ele>
<time>2014-08-20T15:01:25Z</time>
</trkpt>
<trkpt lat="49.23655927" lon="19.78850632">
<ele>1187</ele>
<time>2014-08-20T15:01:31Z</time>
</trkpt>
<trkpt lat="49.2365575" lon="19.78862452">
<ele>1191</ele>
<time>2014-08-20T15:01:38Z</time>
</trkpt>
<trkpt lat="49.23654877" lon="19.78872764">
<ele>1196</ele>
<time>2014-08-20T15:01:44Z</time>
</trkpt>
<trkpt lat="49.23651785" lon="19.78883469">
<ele>1196</ele>
<time>2014-08-20T15:01:50Z</time>
</trkpt>
<trkpt lat="49.23651785" lon="19.78883469">
<ele>1196</ele>
<time>2014-08-20T15:01:56Z</time>
</trkpt>
<trkpt lat="49.23638536" lon="19.78892611">
<ele>1189</ele>
<time>2014-08-20T15:02:02Z</time>
</trkpt>
<trkpt lat="49.23632016" lon="19.78894795">
<ele>1187</ele>
<time>2014-08-20T15:02:08Z</time>
</trkpt>
<trkpt lat="49.23626332" lon="19.78897403">
<ele>1187</ele>
<time>2014-08-20T15:02:14Z</time>
</trkpt>
<trkpt lat="49.23620542" lon="19.78901293">
<ele>1188</ele>
<time>2014-08-20T15:02:20Z</time>
</trkpt>
<trkpt lat="49.2361545" lon="19.7890305">
<ele>1185</ele>
<time>2014-08-20T15:02:26Z</time>
</trkpt>
<trkpt lat="49.2361545" lon="19.7890305">
<ele>1185</ele>
<time>2014-08-20T15:02:34Z</time>
</trkpt>
<trkpt lat="49.23608" lon="19.78907936">
<ele>1183</ele>
<time>2014-08-20T15:02:40Z</time>
</trkpt>
<trkpt lat="49.23602157" lon="19.78915962">
<ele>1177</ele>
<time>2014-08-20T15:02:46Z</time>
</trkpt>
<trkpt lat="49.2359711" lon="19.78923117">
<ele>1175</ele>
<time>2014-08-20T15:02:52Z</time>
</trkpt>
<trkpt lat="49.23593129" lon="19.78930247">
<ele>1176</ele>
<time>2014-08-20T15:02:58Z</time>
</trkpt>
<trkpt lat="49.23588584" lon="19.78936216">
<ele>1174</ele>
<time>2014-08-20T15:03:04Z</time>
</trkpt>
<trkpt lat="49.23588584" lon="19.78936216">
<ele>1174</ele>
<time>2014-08-20T15:03:10Z</time>
</trkpt>
<trkpt lat="49.23587484" lon="19.78941997">
<ele>1173</ele>
<time>2014-08-20T15:03:16Z</time>
</trkpt>
<trkpt lat="49.23587615" lon="19.78958106">
<ele>1173</ele>
<time>2014-08-20T15:03:22Z</time>
</trkpt>
<trkpt lat="49.23588841" lon="19.78967418">
<ele>1173</ele>
<time>2014-08-20T15:03:28Z</time>
</trkpt>
<trkpt lat="49.23588841" lon="19.78967418">
<ele>1173</ele>
<time>2014-08-20T15:03:36Z</time>
</trkpt>
<trkpt lat="49.23591457" lon="19.78985884">
<ele>1167</ele>
<time>2014-08-20T15:03:42Z</time>
</trkpt>
<trkpt lat="49.23591457" lon="19.78985884">
<ele>1167</ele>
<time>2014-08-20T15:03:48Z</time>
</trkpt>
<trkpt lat="49.23592546" lon="19.78992192">
<ele>1165</ele>
<time>2014-08-20T15:03:54Z</time>
</trkpt>
<trkpt lat="49.23593298" lon="19.78998616">
<ele>1164</ele>
<time>2014-08-20T15:04:00Z</time>
</trkpt>
<trkpt lat="49.23592196" lon="19.78998791">
<ele>1164</ele>
<time>2014-08-20T15:04:06Z</time>
</trkpt>
<trkpt lat="49.23591275" lon="19.78998537">
<ele>1165</ele>
<time>2014-08-20T15:04:12Z</time>
</trkpt>
<trkpt lat="49.23594856" lon="19.79010062">
<ele>1162</ele>
<time>2014-08-20T15:04:18Z</time>
</trkpt>
<trkpt lat="49.2359459" lon="19.79019341">
<ele>1161</ele>
<time>2014-08-20T15:04:24Z</time>
</trkpt>
<trkpt lat="49.23594148" lon="19.7902706">
<ele>1162</ele>
<time>2014-08-20T15:04:30Z</time>
</trkpt>
<trkpt lat="49.23594148" lon="19.7902706">
<ele>1162</ele>
<time>2014-08-20T15:04:38Z</time>
</trkpt>
<trkpt lat="49.23592219" lon="19.79047351">
<ele>1162</ele>
<time>2014-08-20T15:04:44Z</time>
</trkpt>
<trkpt lat="49.23592219" lon="19.79047351">
<ele>1162</ele>
<time>2014-08-20T15:04:50Z</time>
</trkpt>
<trkpt lat="49.23592932" lon="19.79058478">
<ele>1160</ele>
<time>2014-08-20T15:04:56Z</time>
</trkpt>
<trkpt lat="49.23593708" lon="19.79066569">
<ele>1160</ele>
<time>2014-08-20T15:05:02Z</time>
</trkpt>
<trkpt lat="49.23596008" lon="19.79073533">
<ele>1159</ele>
<time>2014-08-20T15:05:08Z</time>
</trkpt>
<trkpt lat="49.23600043" lon="19.79080308">
<ele>1158</ele>
<time>2014-08-20T15:05:14Z</time>
</trkpt>
<trkpt lat="49.23600043" lon="19.79080308">
<ele>1158</ele>
<time>2014-08-20T15:05:20Z</time>
</trkpt>
<trkpt lat="49.23603438" lon="19.79083754">
<ele>1155</ele>
<time>2014-08-20T15:05:26Z</time>
</trkpt>
<trkpt lat="49.23605906" lon="19.79086134">
<ele>1156</ele>
<time>2014-08-20T15:05:33Z</time>
</trkpt>
<trkpt lat="49.23606673" lon="19.7908482">
<ele>1156</ele>
<time>2014-08-20T15:05:40Z</time>
</trkpt>
<trkpt lat="49.23610132" lon="19.79092032">
<ele>1157</ele>
<time>2014-08-20T15:05:46Z</time>
</trkpt>
<trkpt lat="49.23615077" lon="19.79102172">
<ele>1157</ele>
<time>2014-08-20T15:05:52Z</time>
</trkpt>
<trkpt lat="49.23618654" lon="19.79111503">
<ele>1158</ele>
<time>2014-08-20T15:05:58Z</time>
</trkpt>
<trkpt lat="49.23618654" lon="19.79111503">
<ele>1158</ele>
<time>2014-08-20T15:06:04Z</time>
</trkpt>
<trkpt lat="49.23623024" lon="19.79133257">
<ele>1157</ele>
<time>2014-08-20T15:06:10Z</time>
</trkpt>
<trkpt lat="49.23625064" lon="19.79142836">
<ele>1157</ele>
<time>2014-08-20T15:06:16Z</time>
</trkpt>
<trkpt lat="49.23628422" lon="19.79153024">
<ele>1156</ele>
<time>2014-08-20T15:06:22Z</time>
</trkpt>
<trkpt lat="49.23629888" lon="19.79163088">
<ele>1157</ele>
<time>2014-08-20T15:06:28Z</time>
</trkpt>
<trkpt lat="49.23630572" lon="19.79181739">
<ele>1155</ele>
<time>2014-08-20T15:06:36Z</time>
</trkpt>
<trkpt lat="49.23629789" lon="19.79195674">
<ele>1152</ele>
<time>2014-08-20T15:06:42Z</time>
</trkpt>
<trkpt lat="49.23629789" lon="19.79195674">
<ele>1152</ele>
<time>2014-08-20T15:06:48Z</time>
</trkpt>
<trkpt lat="49.23629734" lon="19.79194315">
<ele>1152</ele>
<time>2014-08-20T15:06:54Z</time>
</trkpt>
<trkpt lat="49.23629564" lon="19.79194816">
<ele>1151</ele>
<time>2014-08-20T15:07:00Z</time>
</trkpt>
<trkpt lat="49.23629821" lon="19.79195762">
<ele>1152</ele>
<time>2014-08-20T15:07:06Z</time>
</trkpt>
<trkpt lat="49.23629186" lon="19.79196709">
<ele>1152</ele>
<time>2014-08-20T15:07:12Z</time>
</trkpt>
<trkpt lat="49.23629398" lon="19.79197491">
<ele>1151</ele>
<time>2014-08-20T15:07:18Z</time>
</trkpt>
<trkpt lat="49.2362966" lon="19.79197189">
<ele>1149</ele>
<time>2014-08-20T15:07:24Z</time>
</trkpt>
<trkpt lat="49.23629508" lon="19.79196766">
<ele>1148</ele>
<time>2014-08-20T15:07:30Z</time>
</trkpt>
<trkpt lat="49.23628948" lon="19.79196081">
<ele>1148</ele>
<time>2014-08-20T15:07:38Z</time>
</trkpt>
<trkpt lat="49.23628532" lon="19.79195534">
<ele>1148</ele>
<time>2014-08-20T15:07:44Z</time>
</trkpt>
<trkpt lat="49.23628848" lon="19.79196692">
<ele>1147</ele>
<time>2014-08-20T15:07:50Z</time>
</trkpt>
<trkpt lat="49.23628939" lon="19.79196738">
<ele>1147</ele>
<time>2014-08-20T15:07:56Z</time>
</trkpt>
<trkpt lat="49.23628106" lon="19.79202084">
<ele>1146</ele>
<time>2014-08-20T15:08:02Z</time>
</trkpt>
<trkpt lat="49.23627921" lon="19.79202334">
<ele>1146</ele>
<time>2014-08-20T15:08:08Z</time>
</trkpt>
<trkpt lat="49.23627756" lon="19.79202472">
<ele>1144</ele>
<time>2014-08-20T15:08:14Z</time>
</trkpt>
<trkpt lat="49.23627568" lon="19.79211345">
<ele>1144</ele>
<time>2014-08-20T15:08:20Z</time>
</trkpt>
<trkpt lat="49.23625421" lon="19.79224497">
<ele>1144</ele>
<time>2014-08-20T15:08:26Z</time>
</trkpt>
<trkpt lat="49.23623982" lon="19.79240644">
<ele>1144</ele>
<time>2014-08-20T15:08:34Z</time>
</trkpt>
<trkpt lat="49.23625605" lon="19.79247121">
<ele>1142</ele>
<time>2014-08-20T15:08:40Z</time>
</trkpt>
<trkpt lat="49.23625605" lon="19.79247121">
<ele>1142</ele>
<time>2014-08-20T15:08:46Z</time>
</trkpt>
<trkpt lat="49.23626548" lon="19.7926293">
<ele>1140</ele>
<time>2014-08-20T15:08:52Z</time>
</trkpt>
<trkpt lat="49.23626941" lon="19.79272809">
<ele>1140</ele>
<time>2014-08-20T15:08:58Z</time>
</trkpt>
<trkpt lat="49.23626941" lon="19.79272809">
<ele>1140</ele>
<time>2014-08-20T15:09:04Z</time>
</trkpt>
<trkpt lat="49.23628483" lon="19.7928713">
<ele>1140</ele>
<time>2014-08-20T15:09:10Z</time>
</trkpt>
<trkpt lat="49.23629163" lon="19.79296049">
<ele>1142</ele>
<time>2014-08-20T15:09:16Z</time>
</trkpt>
<trkpt lat="49.23629163" lon="19.79296049">
<ele>1142</ele>
<time>2014-08-20T15:09:22Z</time>
</trkpt>
<trkpt lat="49.23630572" lon="19.79301121">
<ele>1141</ele>
<time>2014-08-20T15:09:28Z</time>
</trkpt>
<trkpt lat="49.23631653" lon="19.79305579">
<ele>1140</ele>
<time>2014-08-20T15:09:36Z</time>
</trkpt>
<trkpt lat="49.2363198" lon="19.79316369">
<ele>1141</ele>
<time>2014-08-20T15:09:42Z</time>
</trkpt>
<trkpt lat="49.23634361" lon="19.79327427">
<ele>1139</ele>
<time>2014-08-20T15:09:48Z</time>
</trkpt>
<trkpt lat="49.2363519" lon="19.79338025">
<ele>1139</ele>
<time>2014-08-20T15:09:54Z</time>
</trkpt>
<trkpt lat="49.23636816" lon="19.79348237">
<ele>1139</ele>
<time>2014-08-20T15:10:00Z</time>
</trkpt>
<trkpt lat="49.23638944" lon="19.79358753">
<ele>1138</ele>
<time>2014-08-20T15:10:06Z</time>
</trkpt>
<trkpt lat="49.23640377" lon="19.79368499">
<ele>1138</ele>
<time>2014-08-20T15:10:12Z</time>
</trkpt>
<trkpt lat="49.23640377" lon="19.79368499">
<ele>1138</ele>
<time>2014-08-20T15:10:18Z</time>
</trkpt>
<trkpt lat="49.23645226" lon="19.79378253">
<ele>1137</ele>
<time>2014-08-20T15:10:24Z</time>
</trkpt>
<trkpt lat="49.23645226" lon="19.79378253">
<ele>1137</ele>
<time>2014-08-20T15:10:30Z</time>
</trkpt>
<trkpt lat="49.23644824" lon="19.79395554">
<ele>1135</ele>
<time>2014-08-20T15:10:38Z</time>
</trkpt>
<trkpt lat="49.23645747" lon="19.79406056">
<ele>1136</ele>
<time>2014-08-20T15:10:44Z</time>
</trkpt>
<trkpt lat="49.23645747" lon="19.79406056">
<ele>1136</ele>
<time>2014-08-20T15:10:50Z</time>
</trkpt>
<trkpt lat="49.23647484" lon="19.79419989">
<ele>1136</ele>
<time>2014-08-20T15:10:56Z</time>
</trkpt>
<trkpt lat="49.23648476" lon="19.79435234">
<ele>1135</ele>
<time>2014-08-20T15:11:02Z</time>
</trkpt>
<trkpt lat="49.23650175" lon="19.79444808">
<ele>1135</ele>
<time>2014-08-20T15:11:08Z</time>
</trkpt>
<trkpt lat="49.23651958" lon="19.79452994">
<ele>1134</ele>
<time>2014-08-20T15:11:14Z</time>
</trkpt>
<trkpt lat="49.23654719" lon="19.79461415">
<ele>1133</ele>
<time>2014-08-20T15:11:20Z</time>
</trkpt>
<trkpt lat="49.23654719" lon="19.79461415">
<ele>1133</ele>
<time>2014-08-20T15:11:26Z</time>
</trkpt>
<trkpt lat="49.23662766" lon="19.79478387">
<ele>1133</ele>
<time>2014-08-20T15:11:33Z</time>
</trkpt>
<trkpt lat="49.23667206" lon="19.79490409">
<ele>1132</ele>
<time>2014-08-20T15:11:40Z</time>
</trkpt>
<trkpt lat="49.23671029" lon="19.79498132">
<ele>1131</ele>
<time>2014-08-20T15:11:46Z</time>
</trkpt>
<trkpt lat="49.23671029" lon="19.79498132">
<ele>1131</ele>
<time>2014-08-20T15:11:52Z</time>
</trkpt>
<trkpt lat="49.23679502" lon="19.79514211">
<ele>1129</ele>
<time>2014-08-20T15:11:58Z</time>
</trkpt>
<trkpt lat="49.23682248" lon="19.79520257">
<ele>1131</ele>
<time>2014-08-20T15:12:04Z</time>
</trkpt>
<trkpt lat="49.23685969" lon="19.7952777">
<ele>1134</ele>
<time>2014-08-20T15:12:10Z</time>
</trkpt>
<trkpt lat="49.23690085" lon="19.79536243">
<ele>1134</ele>
<time>2014-08-20T15:12:16Z</time>
</trkpt>
<trkpt lat="49.23690085" lon="19.79536243">
<ele>1134</ele>
<time>2014-08-20T15:12:22Z</time>
</trkpt>
<trkpt lat="49.23697163" lon="19.79553054">
<ele>1135</ele>
<time>2014-08-20T15:12:28Z</time>
</trkpt>
<trkpt lat="49.2370144" lon="19.79563842">
<ele>1136</ele>
<time>2014-08-20T15:12:34Z</time>
</trkpt>
<trkpt lat="49.23705885" lon="19.79574433">
<ele>1135</ele>
<time>2014-08-20T15:12:40Z</time>
</trkpt>
<trkpt lat="49.23710006" lon="19.79585611">
<ele>1134</ele>
<time>2014-08-20T15:12:46Z</time>
</trkpt>
<trkpt lat="49.2371304" lon="19.79597143">
<ele>1134</ele>
<time>2014-08-20T15:12:52Z</time>
</trkpt>
<trkpt lat="49.23715125" lon="19.79606546">
<ele>1133</ele>
<time>2014-08-20T15:12:58Z</time>
</trkpt>
<trkpt lat="49.23715125" lon="19.79606546">
<ele>1133</ele>
<time>2014-08-20T15:13:04Z</time>
</trkpt>
<trkpt lat="49.23715368" lon="19.79612498">
<ele>1132</ele>
<time>2014-08-20T15:13:10Z</time>
</trkpt>
<trkpt lat="49.23717422" lon="19.79618162">
<ele>1133</ele>
<time>2014-08-20T15:13:16Z</time>
</trkpt>
<trkpt lat="49.23722507" lon="19.7963829">
<ele>1132</ele>
<time>2014-08-20T15:13:22Z</time>
</trkpt>
<trkpt lat="49.23724697" lon="19.79649389">
<ele>1131</ele>
<time>2014-08-20T15:13:28Z</time>
</trkpt>
<trkpt lat="49.23727081" lon="19.79658621">
<ele>1132</ele>
<time>2014-08-20T15:13:36Z</time>
</trkpt>
<trkpt lat="49.23728952" lon="19.79673146">
<ele>1131</ele>
<time>2014-08-20T15:13:42Z</time>
</trkpt>
<trkpt lat="49.23735458" lon="19.79686237">
<ele>1130</ele>
<time>2014-08-20T15:13:48Z</time>
</trkpt>
<trkpt lat="49.23739176" lon="19.79693944">
<ele>1131</ele>
<time>2014-08-20T15:13:54Z</time>
</trkpt>
<trkpt lat="49.23739176" lon="19.79693944">
<ele>1131</ele>
<time>2014-08-20T15:14:00Z</time>
</trkpt>
<trkpt lat="49.2374247" lon="19.79698329">
<ele>1131</ele>
<time>2014-08-20T15:14:06Z</time>
</trkpt>
<trkpt lat="49.23751236" lon="19.79716592">
<ele>1129</ele>
<time>2014-08-20T15:14:12Z</time>
</trkpt>
<trkpt lat="49.23756377" lon="19.79724774">
<ele>1127</ele>
<time>2014-08-20T15:14:18Z</time>
</trkpt>
<trkpt lat="49.23761107" lon="19.79731146">
<ele>1129</ele>
<time>2014-08-20T15:14:24Z</time>
</trkpt>
<trkpt lat="49.23764637" lon="19.79740649">
<ele>1128</ele>
<time>2014-08-20T15:14:30Z</time>
</trkpt>
<trkpt lat="49.23764637" lon="19.79740649">
<ele>1128</ele>
<time>2014-08-20T15:14:38Z</time>
</trkpt>
<trkpt lat="49.23774218" lon="19.79758438">
<ele>1130</ele>
<time>2014-08-20T15:14:44Z</time>
</trkpt>
<trkpt lat="49.23779592" lon="19.79767767">
<ele>1129</ele>
<time>2014-08-20T15:14:50Z</time>
</trkpt>
<trkpt lat="49.23783442" lon="19.79776782">
<ele>1128</ele>
<time>2014-08-20T15:14:56Z</time>
</trkpt>
<trkpt lat="49.23788346" lon="19.79785813">
<ele>1126</ele>
<time>2014-08-20T15:15:02Z</time>
</trkpt>
<trkpt lat="49.23793298" lon="19.7979364">
<ele>1127</ele>
<time>2014-08-20T15:15:08Z</time>
</trkpt>
<trkpt lat="49.23797329" lon="19.79800781">
<ele>1129</ele>
<time>2014-08-20T15:15:14Z</time>
</trkpt>
<trkpt lat="49.23802636" lon="19.79810827">
<ele>1129</ele>
<time>2014-08-20T15:15:20Z</time>
</trkpt>
<trkpt lat="49.23807728" lon="19.7982204">
<ele>1129</ele>
<time>2014-08-20T15:15:26Z</time>
</trkpt>
<trkpt lat="49.23811638" lon="19.79835933">
<ele>1128</ele>
<time>2014-08-20T15:15:34Z</time>
</trkpt>
<trkpt lat="49.23815779" lon="19.7984669">
<ele>1129</ele>
<time>2014-08-20T15:15:40Z</time>
</trkpt>
<trkpt lat="49.23817941" lon="19.79855418">
<ele>1128</ele>
<time>2014-08-20T15:15:46Z</time>
</trkpt>
<trkpt lat="49.23817941" lon="19.79855418">
<ele>1128</ele>
<time>2014-08-20T15:15:52Z</time>
</trkpt>
<trkpt lat="49.23819682" lon="19.79861131">
<ele>1131</ele>
<time>2014-08-20T15:15:58Z</time>
</trkpt>
<trkpt lat="49.23822272" lon="19.79864922">
<ele>1132</ele>
<time>2014-08-20T15:16:04Z</time>
</trkpt>
<trkpt lat="49.23824357" lon="19.79865203">
<ele>1133</ele>
<time>2014-08-20T15:16:10Z</time>
</trkpt>
<trkpt lat="49.23825227" lon="19.79868442">
<ele>1132</ele>
<time>2014-08-20T15:16:16Z</time>
</trkpt>
<trkpt lat="49.23825759" lon="19.79872296">
<ele>1133</ele>
<time>2014-08-20T15:16:22Z</time>
</trkpt>
<trkpt lat="49.23828046" lon="19.79890104">
<ele>1132</ele>
<time>2014-08-20T15:16:28Z</time>
</trkpt>
<trkpt lat="49.23830465" lon="19.7990224">
<ele>1130</ele>
<time>2014-08-20T15:16:36Z</time>
</trkpt>
<trkpt lat="49.23834539" lon="19.79924859">
<ele>1129</ele>
<time>2014-08-20T15:16:42Z</time>
</trkpt>
<trkpt lat="49.23837541" lon="19.79938191">
<ele>1128</ele>
<time>2014-08-20T15:16:48Z</time>
</trkpt>
<trkpt lat="49.23839916" lon="19.79950254">
<ele>1127</ele>
<time>2014-08-20T15:16:54Z</time>
</trkpt>
<trkpt lat="49.23842687" lon="19.79961562">
<ele>1128</ele>
<time>2014-08-20T15:17:00Z</time>
</trkpt>
<trkpt lat="49.23847452" lon="19.79973445">
<ele>1129</ele>
<time>2014-08-20T15:17:06Z</time>
</trkpt>
<trkpt lat="49.23850781" lon="19.79984461">
<ele>1129</ele>
<time>2014-08-20T15:17:12Z</time>
</trkpt>
<trkpt lat="49.23853581" lon="19.79996527">
<ele>1128</ele>
<time>2014-08-20T15:17:18Z</time>
</trkpt>
<trkpt lat="49.23856467" lon="19.80007983">
<ele>1128</ele>
<time>2014-08-20T15:17:24Z</time>
</trkpt>
<trkpt lat="49.2385714" lon="19.80015318">
<ele>1127</ele>
<time>2014-08-20T15:17:30Z</time>
</trkpt>
<trkpt lat="49.2385714" lon="19.80015318">
<ele>1127</ele>
<time>2014-08-20T15:17:38Z</time>
</trkpt>
<trkpt lat="49.23858658" lon="19.80029495">
<ele>1126</ele>
<time>2014-08-20T15:17:44Z</time>
</trkpt>
<trkpt lat="49.23854045" lon="19.80033829">
<ele>1125</ele>
<time>2014-08-20T15:17:50Z</time>
</trkpt>
<trkpt lat="49.23854045" lon="19.80033829">
<ele>1125</ele>
<time>2014-08-20T15:17:56Z</time>
</trkpt>
<trkpt lat="49.23856148" lon="19.80046899">
<ele>1133</ele>
<time>2014-08-20T15:18:02Z</time>
</trkpt>
<trkpt lat="49.23856148" lon="19.80046899">
<ele>1133</ele>
<time>2014-08-20T15:18:08Z</time>
</trkpt>
<trkpt lat="49.23859264" lon="19.80060287">
<ele>1140</ele>
<time>2014-08-20T15:18:14Z</time>
</trkpt>
<trkpt lat="49.23863465" lon="19.80070905">
<ele>1140</ele>
<time>2014-08-20T15:18:20Z</time>
</trkpt>
<trkpt lat="49.23866563" lon="19.80080037">
<ele>1143</ele>
<time>2014-08-20T15:18:26Z</time>
</trkpt>
<trkpt lat="49.23865561" lon="19.80088067">
<ele>1151</ele>
<time>2014-08-20T15:18:34Z</time>
</trkpt>
<trkpt lat="49.23868522" lon="19.80102803">
<ele>1149</ele>
<time>2014-08-20T15:18:40Z</time>
</trkpt>
<trkpt lat="49.23872416" lon="19.80115941">
<ele>1144</ele>
<time>2014-08-20T15:18:46Z</time>
</trkpt>
<trkpt lat="49.23876304" lon="19.80131997">
<ele>1144</ele>
<time>2014-08-20T15:18:52Z</time>
</trkpt>
<trkpt lat="49.23881662" lon="19.80144586">
<ele>1143</ele>
<time>2014-08-20T15:18:58Z</time>
</trkpt>
<trkpt lat="49.23882881" lon="19.80152822">
<ele>1150</ele>
<time>2014-08-20T15:19:04Z</time>
</trkpt>
<trkpt lat="49.23882881" lon="19.80152822">
<ele>1150</ele>
<time>2014-08-20T15:19:10Z</time>
</trkpt>
<trkpt lat="49.23885048" lon="19.80164378">
<ele>1159</ele>
<time>2014-08-20T15:19:16Z</time>
</trkpt>
<trkpt lat="49.23884745" lon="19.8017171">
<ele>1162</ele>
<time>2014-08-20T15:19:22Z</time>
</trkpt>
<trkpt lat="49.23888239" lon="19.80181847">
<ele>1164</ele>
<time>2014-08-20T15:19:28Z</time>
</trkpt>
<trkpt lat="49.23888458" lon="19.80189216">
<ele>1170</ele>
<time>2014-08-20T15:19:36Z</time>
</trkpt>
<trkpt lat="49.23893039" lon="19.80203955">
<ele>1169</ele>
<time>2014-08-20T15:19:42Z</time>
</trkpt>
<trkpt lat="49.23894688" lon="19.8021118">
<ele>1173</ele>
<time>2014-08-20T15:19:48Z</time>
</trkpt>
<trkpt lat="49.23897963" lon="19.8022028">
<ele>1175</ele>
<time>2014-08-20T15:19:54Z</time>
</trkpt>
<trkpt lat="49.23902769" lon="19.80231191">
<ele>1178</ele>
<time>2014-08-20T15:20:00Z</time>
</trkpt>
<trkpt lat="49.23907722" lon="19.80241673">
<ele>1179</ele>
<time>2014-08-20T15:20:06Z</time>
</trkpt>
<trkpt lat="49.23910204" lon="19.80252329">
<ele>1183</ele>
<time>2014-08-20T15:20:12Z</time>
</trkpt>
<trkpt lat="49.2391373" lon="19.80263137">
<ele>1187</ele>
<time>2014-08-20T15:20:18Z</time>
</trkpt>
<trkpt lat="49.23916614" lon="19.80276705">
<ele>1187</ele>
<time>2014-08-20T15:20:24Z</time>
</trkpt>
<trkpt lat="49.2391945" lon="19.80289139">
<ele>1182</ele>
<time>2014-08-20T15:20:30Z</time>
</trkpt>
<trkpt lat="49.2391945" lon="19.80289139">
<ele>1182</ele>
<time>2014-08-20T15:20:38Z</time>
</trkpt>
<trkpt lat="49.23930012" lon="19.80322918">
<ele>1169</ele>
<time>2014-08-20T15:20:44Z</time>
</trkpt>
<trkpt lat="49.23932036" lon="19.80338071">
<ele>1170</ele>
<time>2014-08-20T15:20:50Z</time>
</trkpt>
<trkpt lat="49.23938707" lon="19.8035273">
<ele>1158</ele>
<time>2014-08-20T15:20:56Z</time>
</trkpt>
<trkpt lat="49.23942483" lon="19.80368184">
<ele>1154</ele>
<time>2014-08-20T15:21:02Z</time>
</trkpt>
<trkpt lat="49.2394636" lon="19.80380682">
<ele>1147</ele>
<time>2014-08-20T15:21:08Z</time>
</trkpt>
<trkpt lat="49.23949745" lon="19.80390494">
<ele>1145</ele>
<time>2014-08-20T15:21:14Z</time>
</trkpt>
<trkpt lat="49.23952519" lon="19.80399926">
<ele>1141</ele>
<time>2014-08-20T15:21:20Z</time>
</trkpt>
<trkpt lat="49.23954124" lon="19.80410119">
<ele>1143</ele>
<time>2014-08-20T15:21:26Z</time>
</trkpt>
<trkpt lat="49.23957482" lon="19.80421813">
<ele>1140</ele>
<time>2014-08-20T15:21:33Z</time>
</trkpt>
<trkpt lat="49.23962478" lon="19.8043387">
<ele>1132</ele>
<time>2014-08-20T15:21:40Z</time>
</trkpt>
<trkpt lat="49.23963636" lon="19.80444769">
<ele>1132</ele>
<time>2014-08-20T15:21:46Z</time>
</trkpt>
<trkpt lat="49.23964875" lon="19.80456281">
<ele>1129</ele>
<time>2014-08-20T15:21:52Z</time>
</trkpt>
<trkpt lat="49.23966104" lon="19.80465369">
<ele>1131</ele>
<time>2014-08-20T15:21:58Z</time>
</trkpt>
<trkpt lat="49.23966998" lon="19.80474766">
<ele>1133</ele>
<time>2014-08-20T15:22:04Z</time>
</trkpt>
<trkpt lat="49.23969647" lon="19.80483821">
<ele>1130</ele>
<time>2014-08-20T15:22:10Z</time>
</trkpt>
<trkpt lat="49.23971316" lon="19.80494234">
<ele>1126</ele>
<time>2014-08-20T15:22:16Z</time>
</trkpt>
<trkpt lat="49.23973292" lon="19.80503694">
<ele>1130</ele>
<time>2014-08-20T15:22:22Z</time>
</trkpt>
<trkpt lat="49.23974879" lon="19.8051213">
<ele>1130</ele>
<time>2014-08-20T15:22:28Z</time>
</trkpt>
<trkpt lat="49.23978611" lon="19.80519451">
<ele>1130</ele>
<time>2014-08-20T15:22:36Z</time>
</trkpt>
<trkpt lat="49.23980394" lon="19.80527573">
<ele>1132</ele>
<time>2014-08-20T15:22:42Z</time>
</trkpt>
<trkpt lat="49.23981308" lon="19.80547347">
<ele>1131</ele>
<time>2014-08-20T15:22:48Z</time>
</trkpt>
<trkpt lat="49.23983204" lon="19.80558681">
<ele>1131</ele>
<time>2014-08-20T15:22:54Z</time>
</trkpt>
<trkpt lat="49.23985635" lon="19.80568399">
<ele>1128</ele>
<time>2014-08-20T15:23:00Z</time>
</trkpt>
<trkpt lat="49.23986654" lon="19.80579366">
<ele>1126</ele>
<time>2014-08-20T15:23:06Z</time>
</trkpt>
<trkpt lat="49.23985283" lon="19.80590802">
<ele>1124</ele>
<time>2014-08-20T15:23:12Z</time>
</trkpt>
<trkpt lat="49.23986871" lon="19.80597914">
<ele>1124</ele>
<time>2014-08-20T15:23:18Z</time>
</trkpt>
<trkpt lat="49.23991086" lon="19.80603506">
<ele>1128</ele>
<time>2014-08-20T15:23:24Z</time>
</trkpt>
<trkpt lat="49.23995311" lon="19.80608478">
<ele>1133</ele>
<time>2014-08-20T15:23:30Z</time>
</trkpt>
<trkpt lat="49.23995311" lon="19.80608478">
<ele>1133</ele>
<time>2014-08-20T15:23:38Z</time>
</trkpt>
<trkpt lat="49.24007038" lon="19.8061901">
<ele>1139</ele>
<time>2014-08-20T15:23:44Z</time>
</trkpt>
<trkpt lat="49.24012624" lon="19.80626701">
<ele>1142</ele>
<time>2014-08-20T15:23:50Z</time>
</trkpt>
<trkpt lat="49.24019593" lon="19.80632056">
<ele>1144</ele>
<time>2014-08-20T15:23:56Z</time>
</trkpt>
<trkpt lat="49.24027232" lon="19.80638211">
<ele>1144</ele>
<time>2014-08-20T15:24:02Z</time>
</trkpt>
<trkpt lat="49.24034381" lon="19.80643164">
<ele>1146</ele>
<time>2014-08-20T15:24:08Z</time>
</trkpt>
<trkpt lat="49.24040457" lon="19.80650082">
<ele>1140</ele>
<time>2014-08-20T15:24:14Z</time>
</trkpt>
<trkpt lat="49.240481" lon="19.80659821">
<ele>1134</ele>
<time>2014-08-20T15:24:20Z</time>
</trkpt>
<trkpt lat="49.24058834" lon="19.80667843">
<ele>1132</ele>
<time>2014-08-20T15:24:26Z</time>
</trkpt>
<trkpt lat="49.2406961" lon="19.80674431">
<ele>1130</ele>
<time>2014-08-20T15:24:34Z</time>
</trkpt>
<trkpt lat="49.24076247" lon="19.80682507">
<ele>1124</ele>
<time>2014-08-20T15:24:40Z</time>
</trkpt>
<trkpt lat="49.24076247" lon="19.80682507">
<ele>1124</ele>
<time>2014-08-20T15:24:46Z</time>
</trkpt>
<trkpt lat="49.24084161" lon="19.80686886">
<ele>1126</ele>
<time>2014-08-20T15:24:52Z</time>
</trkpt>
<trkpt lat="49.24084161" lon="19.80686886">
<ele>1126</ele>
<time>2014-08-20T15:24:58Z</time>
</trkpt>
<trkpt lat="49.24097392" lon="19.80699479">
<ele>1120</ele>
<time>2014-08-20T15:25:04Z</time>
</trkpt>
<trkpt lat="49.24105078" lon="19.80703206">
<ele>1120</ele>
<time>2014-08-20T15:25:10Z</time>
</trkpt>
<trkpt lat="49.24112664" lon="19.80706917">
<ele>1121</ele>
<time>2014-08-20T15:25:16Z</time>
</trkpt>
<trkpt lat="49.2411854" lon="19.80712704">
<ele>1119</ele>
<time>2014-08-20T15:25:22Z</time>
</trkpt>
<trkpt lat="49.24126267" lon="19.80715349">
<ele>1119</ele>
<time>2014-08-20T15:25:28Z</time>
</trkpt>
<trkpt lat="49.24131507" lon="19.80718618">
<ele>1119</ele>
<time>2014-08-20T15:25:36Z</time>
</trkpt>
<trkpt lat="49.24135496" lon="19.80722091">
<ele>1120</ele>
<time>2014-08-20T15:25:42Z</time>
</trkpt>
<trkpt lat="49.24145023" lon="19.80725607">
<ele>1123</ele>
<time>2014-08-20T15:25:48Z</time>
</trkpt>
<trkpt lat="49.2415272" lon="19.80729897">
<ele>1124</ele>
<time>2014-08-20T15:25:54Z</time>
</trkpt>
<trkpt lat="49.24157186" lon="19.80735819">
<ele>1125</ele>
<time>2014-08-20T15:26:00Z</time>
</trkpt>
<trkpt lat="49.24157186" lon="19.80735819">
<ele>1125</ele>
<time>2014-08-20T15:26:06Z</time>
</trkpt>
<trkpt lat="49.24165923" lon="19.8075114">
<ele>1132</ele>
<time>2014-08-20T15:26:12Z</time>
</trkpt>
<trkpt lat="49.24171307" lon="19.80760933">
<ele>1133</ele>
<time>2014-08-20T15:26:18Z</time>
</trkpt>
<trkpt lat="49.24175793" lon="19.80770052">
<ele>1132</ele>
<time>2014-08-20T15:26:24Z</time>
</trkpt>
<trkpt lat="49.24180827" lon="19.80777928">
<ele>1132</ele>
<time>2014-08-20T15:26:30Z</time>
</trkpt>
<trkpt lat="49.24180827" lon="19.80777928">
<ele>1132</ele>
<time>2014-08-20T15:26:38Z</time>
</trkpt>
<trkpt lat="49.24190523" lon="19.8079984">
<ele>1131</ele>
<time>2014-08-20T15:26:44Z</time>
</trkpt>
<trkpt lat="49.2419535" lon="19.80804395">
<ele>1132</ele>
<time>2014-08-20T15:26:50Z</time>
</trkpt>
<trkpt lat="49.24198607" lon="19.8081194">
<ele>1132</ele>
<time>2014-08-20T15:26:56Z</time>
</trkpt>
<trkpt lat="49.24201958" lon="19.80819781">
<ele>1132</ele>
<time>2014-08-20T15:27:02Z</time>
</trkpt>
<trkpt lat="49.24205072" lon="19.80828925">
<ele>1131</ele>
<time>2014-08-20T15:27:08Z</time>
</trkpt>
<trkpt lat="49.24209065" lon="19.8083653">
<ele>1131</ele>
<time>2014-08-20T15:27:14Z</time>
</trkpt>
<trkpt lat="49.24212931" lon="19.80844287">
<ele>1133</ele>
<time>2014-08-20T15:27:20Z</time>
</trkpt>
<trkpt lat="49.24217438" lon="19.80850843">
<ele>1136</ele>
<time>2014-08-20T15:27:26Z</time>
</trkpt>
<trkpt lat="49.24223738" lon="19.80858487">
<ele>1136</ele>
<time>2014-08-20T15:27:33Z</time>
</trkpt>
<trkpt lat="49.24223738" lon="19.80858487">
<ele>1136</ele>
<time>2014-08-20T15:27:40Z</time>
</trkpt>
<trkpt lat="49.24235662" lon="19.80885636">
<ele>1129</ele>
<time>2014-08-20T15:27:46Z</time>
</trkpt>
<trkpt lat="49.24238961" lon="19.80894292">
<ele>1128</ele>
<time>2014-08-20T15:27:52Z</time>
</trkpt>
<trkpt lat="49.24244682" lon="19.80910304">
<ele>1131</ele>
<time>2014-08-20T15:27:58Z</time>
</trkpt>
<trkpt lat="49.24248287" lon="19.80921496">
<ele>1128</ele>
<time>2014-08-20T15:28:04Z</time>
</trkpt>
<trkpt lat="49.24251975" lon="19.80931394">
<ele>1129</ele>
<time>2014-08-20T15:28:10Z</time>
</trkpt>
<trkpt lat="49.24255599" lon="19.80940853">
<ele>1130</ele>
<time>2014-08-20T15:28:16Z</time>
</trkpt>
<trkpt lat="49.24259988" lon="19.8094944">
<ele>1129</ele>
<time>2014-08-20T15:28:22Z</time>
</trkpt>
<trkpt lat="49.24263771" lon="19.8095615">
<ele>1129</ele>
<time>2014-08-20T15:28:28Z</time>
</trkpt>
<trkpt lat="49.24263771" lon="19.8095615">
<ele>1129</ele>
<time>2014-08-20T15:28:36Z</time>
</trkpt>
<trkpt lat="49.24272119" lon="19.80970165">
<ele>1131</ele>
<time>2014-08-20T15:28:42Z</time>
</trkpt>
<trkpt lat="49.24272119" lon="19.80970165">
<ele>1131</ele>
<time>2014-08-20T15:28:48Z</time>
</trkpt>
<trkpt lat="49.24278101" lon="19.80984849">
<ele>1128</ele>
<time>2014-08-20T15:28:54Z</time>
</trkpt>
<trkpt lat="49.24283714" lon="19.80991834">
<ele>1125</ele>
<time>2014-08-20T15:29:00Z</time>
</trkpt>
<trkpt lat="49.24287621" lon="19.80997565">
<ele>1123</ele>
<time>2014-08-20T15:29:06Z</time>
</trkpt>
<trkpt lat="49.24290241" lon="19.81004027">
<ele>1126</ele>
<time>2014-08-20T15:29:12Z</time>
</trkpt>
<trkpt lat="49.24293184" lon="19.81010229">
<ele>1128</ele>
<time>2014-08-20T15:29:18Z</time>
</trkpt>
<trkpt lat="49.242981" lon="19.81016813">
<ele>1126</ele>
<time>2014-08-20T15:29:24Z</time>
</trkpt>
<trkpt lat="49.24303185" lon="19.81024212">
<ele>1121</ele>
<time>2014-08-20T15:29:30Z</time>
</trkpt>
<trkpt lat="49.24303185" lon="19.81024212">
<ele>1121</ele>
<time>2014-08-20T15:29:38Z</time>
</trkpt>
<trkpt lat="49.24318196" lon="19.81034656">
<ele>1115</ele>
<time>2014-08-20T15:29:44Z</time>
</trkpt>
<trkpt lat="49.24325477" lon="19.81040797">
<ele>1108</ele>
<time>2014-08-20T15:29:50Z</time>
</trkpt>
<trkpt lat="49.24333816" lon="19.81047948">
<ele>1105</ele>
<time>2014-08-20T15:29:56Z</time>
</trkpt>
<trkpt lat="49.24341246" lon="19.8105718">
<ele>1102</ele>
<time>2014-08-20T15:30:02Z</time>
</trkpt>
<trkpt lat="49.24347529" lon="19.81064722">
<ele>1098</ele>
<time>2014-08-20T15:30:08Z</time>
</trkpt>
<trkpt lat="49.24353421" lon="19.8107114">
<ele>1093</ele>
<time>2014-08-20T15:30:14Z</time>
</trkpt>
<trkpt lat="49.24358813" lon="19.81077676">
<ele>1091</ele>
<time>2014-08-20T15:30:20Z</time>
</trkpt>
<trkpt lat="49.24364541" lon="19.81083085">
<ele>1089</ele>
<time>2014-08-20T15:30:26Z</time>
</trkpt>
<trkpt lat="49.24370104" lon="19.81089421">
<ele>1088</ele>
<time>2014-08-20T15:30:33Z</time>
</trkpt>
<trkpt lat="49.24374958" lon="19.81095062">
<ele>1089</ele>
<time>2014-08-20T15:30:39Z</time>
</trkpt>
<trkpt lat="49.24381669" lon="19.81106756">
<ele>1088</ele>
<time>2014-08-20T15:30:45Z</time>
</trkpt>
<trkpt lat="49.24381669" lon="19.81106756">
<ele>1088</ele>
<time>2014-08-20T15:30:51Z</time>
</trkpt>
<trkpt lat="49.24381656" lon="19.81123147">
<ele>1086</ele>
<time>2014-08-20T15:30:57Z</time>
</trkpt>
<trkpt lat="49.2437498" lon="19.81126248">
<ele>1087</ele>
<time>2014-08-20T15:31:03Z</time>
</trkpt>
<trkpt lat="49.2437498" lon="19.81126248">
<ele>1087</ele>
<time>2014-08-20T15:31:09Z</time>
</trkpt>
<trkpt lat="49.24373521" lon="19.81128846">
<ele>1087</ele>
<time>2014-08-20T15:31:15Z</time>
</trkpt>
<trkpt lat="49.24371186" lon="19.81143106">
<ele>1093</ele>
<time>2014-08-20T15:31:21Z</time>
</trkpt>
<trkpt lat="49.24369152" lon="19.81149576">
<ele>1097</ele>
<time>2014-08-20T15:31:27Z</time>
</trkpt>
<trkpt lat="49.24364738" lon="19.81156203">
<ele>1098</ele>
<time>2014-08-20T15:31:34Z</time>
</trkpt>
<trkpt lat="49.24364738" lon="19.81156203">
<ele>1098</ele>
<time>2014-08-20T15:31:40Z</time>
</trkpt>
<trkpt lat="49.24357131" lon="19.81166603">
<ele>1102</ele>
<time>2014-08-20T15:31:46Z</time>
</trkpt>
<trkpt lat="49.24350531" lon="19.81171799">
<ele>1104</ele>
<time>2014-08-20T15:31:52Z</time>
</trkpt>
<trkpt lat="49.24345269" lon="19.81175412">
<ele>1106</ele>
<time>2014-08-20T15:31:58Z</time>
</trkpt>
<trkpt lat="49.24338907" lon="19.81177994">
<ele>1106</ele>
<time>2014-08-20T15:32:04Z</time>
</trkpt>
<trkpt lat="49.24338907" lon="19.81177994">
<ele>1106</ele>
<time>2014-08-20T15:32:10Z</time>
</trkpt>
<trkpt lat="49.24335704" lon="19.81179258">
<ele>1108</ele>
<time>2014-08-20T15:32:16Z</time>
</trkpt>
<trkpt lat="49.24324552" lon="19.81185323">
<ele>1113</ele>
<time>2014-08-20T15:32:22Z</time>
</trkpt>
<trkpt lat="49.24324552" lon="19.81185323">
<ele>1113</ele>
<time>2014-08-20T15:32:28Z</time>
</trkpt>
<trkpt lat="49.24324012" lon="19.81187243">
<ele>1112</ele>
<time>2014-08-20T15:32:36Z</time>
</trkpt>
<trkpt lat="49.24321305" lon="19.81187541">
<ele>1115</ele>
<time>2014-08-20T15:32:42Z</time>
</trkpt>
<trkpt lat="49.24318858" lon="19.81187484">
<ele>1115</ele>
<time>2014-08-20T15:32:48Z</time>
</trkpt>
<trkpt lat="49.24317025" lon="19.81198084">
<ele>1110</ele>
<time>2014-08-20T15:32:54Z</time>
</trkpt>
<trkpt lat="49.24317025" lon="19.81198084">
<ele>1110</ele>
<time>2014-08-20T15:33:00Z</time>
</trkpt>
<trkpt lat="49.24310888" lon="19.81200824">
<ele>1109</ele>
<time>2014-08-20T15:33:06Z</time>
</trkpt>
<trkpt lat="49.24310888" lon="19.81200824">
<ele>1109</ele>
<time>2014-08-20T15:33:12Z</time>
</trkpt>
<trkpt lat="49.24309922" lon="19.81203427">
<ele>1104</ele>
<time>2014-08-20T15:33:18Z</time>
</trkpt>
<trkpt lat="49.24307762" lon="19.81204859">
<ele>1102</ele>
<time>2014-08-20T15:33:24Z</time>
</trkpt>
<trkpt lat="49.24298733" lon="19.81206646">
<ele>1103</ele>
<time>2014-08-20T15:33:30Z</time>
</trkpt>
<trkpt lat="49.24298733" lon="19.81206646">
<ele>1103</ele>
<time>2014-08-20T15:33:38Z</time>
</trkpt>
<trkpt lat="49.24290211" lon="19.8121391">
<ele>1102</ele>
<time>2014-08-20T15:33:44Z</time>
</trkpt>
<trkpt lat="49.24287562" lon="19.81219931">
<ele>1098</ele>
<time>2014-08-20T15:33:50Z</time>
</trkpt>
<trkpt lat="49.24282686" lon="19.81224405">
<ele>1098</ele>
<time>2014-08-20T15:33:56Z</time>
</trkpt>
<trkpt lat="49.24277778" lon="19.8122662">
<ele>1103</ele>
<time>2014-08-20T15:34:02Z</time>
</trkpt>
<trkpt lat="49.24273392" lon="19.81229379">
<ele>1106</ele>
<time>2014-08-20T15:34:08Z</time>
</trkpt>
<trkpt lat="49.24270563" lon="19.81235184">
<ele>1107</ele>
<time>2014-08-20T15:34:14Z</time>
</trkpt>
<trkpt lat="49.24266454" lon="19.8124138">
<ele>1104</ele>
<time>2014-08-20T15:34:20Z</time>
</trkpt>
<trkpt lat="49.24260577" lon="19.81246161">
<ele>1106</ele>
<time>2014-08-20T15:34:26Z</time>
</trkpt>
<trkpt lat="49.24253475" lon="19.81252392">
<ele>1109</ele>
<time>2014-08-20T15:34:33Z</time>
</trkpt>
<trkpt lat="49.24247603" lon="19.81263802">
<ele>1105</ele>
<time>2014-08-20T15:34:40Z</time>
</trkpt>
<trkpt lat="49.24245755" lon="19.81272665">
<ele>1108</ele>
<time>2014-08-20T15:34:46Z</time>
</trkpt>
<trkpt lat="49.24241321" lon="19.81276097">
<ele>1112</ele>
<time>2014-08-20T15:34:52Z</time>
</trkpt>
<trkpt lat="49.24241321" lon="19.81276097">
<ele>1112</ele>
<time>2014-08-20T15:34:58Z</time>
</trkpt>
<trkpt lat="49.24238909" lon="19.81276311">
<ele>1113</ele>
<time>2014-08-20T15:35:04Z</time>
</trkpt>
<trkpt lat="49.24237154" lon="19.8128049">
<ele>1113</ele>
<time>2014-08-20T15:35:10Z</time>
</trkpt>
<trkpt lat="49.24232942" lon="19.8128218">
<ele>1116</ele>
<time>2014-08-20T15:35:16Z</time>
</trkpt>
<trkpt lat="49.24224474" lon="19.81282718">
<ele>1120</ele>
<time>2014-08-20T15:35:22Z</time>
</trkpt>
<trkpt lat="49.24224474" lon="19.81282718">
<ele>1120</ele>
<time>2014-08-20T15:35:28Z</time>
</trkpt>
<trkpt lat="49.24220059" lon="19.8128248">
<ele>1120</ele>
<time>2014-08-20T15:35:36Z</time>
</trkpt>
<trkpt lat="49.24216667" lon="19.81290147">
<ele>1118</ele>
<time>2014-08-20T15:35:42Z</time>
</trkpt>
<trkpt lat="49.24210866" lon="19.81294385">
<ele>1115</ele>
<time>2014-08-20T15:35:48Z</time>
</trkpt>
<trkpt lat="49.24210866" lon="19.81294385">
<ele>1115</ele>
<time>2014-08-20T15:35:54Z</time>
</trkpt>
<trkpt lat="49.24202228" lon="19.81298848">
<ele>1112</ele>
<time>2014-08-20T15:36:00Z</time>
</trkpt>
<trkpt lat="49.24202228" lon="19.81298848">
<ele>1112</ele>
<time>2014-08-20T15:36:06Z</time>
</trkpt>
<trkpt lat="49.24198283" lon="19.81300895">
<ele>1111</ele>
<time>2014-08-20T15:36:12Z</time>
</trkpt>
<trkpt lat="49.24194277" lon="19.81300975">
<ele>1108</ele>
<time>2014-08-20T15:36:18Z</time>
</trkpt>
<trkpt lat="49.24193894" lon="19.81300435">
<ele>1107</ele>
<time>2014-08-20T15:36:24Z</time>
</trkpt>
<trkpt lat="49.24195532" lon="19.8130003">
<ele>1104</ele>
<time>2014-08-20T15:36:30Z</time>
</trkpt>
<trkpt lat="49.24196301" lon="19.81302415">
<ele>1105</ele>
<time>2014-08-20T15:36:38Z</time>
</trkpt>
<trkpt lat="49.24196323" lon="19.8130262">
<ele>1105</ele>
<time>2014-08-20T15:36:44Z</time>
</trkpt>
<trkpt lat="49.24196341" lon="19.8130267">
<ele>1105</ele>
<time>2014-08-20T15:36:50Z</time>
</trkpt>
<trkpt lat="49.24194791" lon="19.81302718">
<ele>1105</ele>
<time>2014-08-20T15:36:56Z</time>
</trkpt>
<trkpt lat="49.24190649" lon="19.81301893">
<ele>1108</ele>
<time>2014-08-20T15:37:02Z</time>
</trkpt>
<trkpt lat="49.24187476" lon="19.81302671">
<ele>1109</ele>
<time>2014-08-20T15:37:08Z</time>
</trkpt>
<trkpt lat="49.24185164" lon="19.81307117">
<ele>1110</ele>
<time>2014-08-20T15:37:14Z</time>
</trkpt>
<trkpt lat="49.2418264" lon="19.81311383">
<ele>1109</ele>
<time>2014-08-20T15:37:20Z</time>
</trkpt>
<trkpt lat="49.24173594" lon="19.81307701">
<ele>1113</ele>
<time>2014-08-20T15:37:26Z</time>
</trkpt>
<trkpt lat="49.24161292" lon="19.81305772">
<ele>1114</ele>
<time>2014-08-20T15:37:34Z</time>
</trkpt>
<trkpt lat="49.24152304" lon="19.81302138">
<ele>1123</ele>
<time>2014-08-20T15:37:40Z</time>
</trkpt>
<trkpt lat="49.24152304" lon="19.81302138">
<ele>1123</ele>
<time>2014-08-20T15:37:46Z</time>
</trkpt>
<trkpt lat="49.24150505" lon="19.81307159">
<ele>1122</ele>
<time>2014-08-20T15:37:52Z</time>
</trkpt>
<trkpt lat="49.24147756" lon="19.81309832">
<ele>1123</ele>
<time>2014-08-20T15:37:58Z</time>
</trkpt>
<trkpt lat="49.24144138" lon="19.81310553">
<ele>1124</ele>
<time>2014-08-20T15:38:04Z</time>
</trkpt>
<trkpt lat="49.24141179" lon="19.81315192">
<ele>1123</ele>
<time>2014-08-20T15:38:10Z</time>
</trkpt>
<trkpt lat="49.24140464" lon="19.81323479">
<ele>1120</ele>
<time>2014-08-20T15:38:16Z</time>
</trkpt>
<trkpt lat="49.24136571" lon="19.8132853">
<ele>1119</ele>
<time>2014-08-20T15:38:22Z</time>
</trkpt>
<trkpt lat="49.24128882" lon="19.81330947">
<ele>1120</ele>
<time>2014-08-20T15:38:28Z</time>
</trkpt>
<trkpt lat="49.24125218" lon="19.81335705">
<ele>1118</ele>
<time>2014-08-20T15:38:36Z</time>
</trkpt>
<trkpt lat="49.24122205" lon="19.8134335">
<ele>1113</ele>
<time>2014-08-20T15:38:42Z</time>
</trkpt>
<trkpt lat="49.24122205" lon="19.8134335">
<ele>1113</ele>
<time>2014-08-20T15:38:48Z</time>
</trkpt>
<trkpt lat="49.24118874" lon="19.81343901">
<ele>1115</ele>
<time>2014-08-20T15:38:54Z</time>
</trkpt>
<trkpt lat="49.2411768" lon="19.81344614">
<ele>1114</ele>
<time>2014-08-20T15:39:00Z</time>
</trkpt>
<trkpt lat="49.24109024" lon="19.81352796">
<ele>1113</ele>
<time>2014-08-20T15:39:06Z</time>
</trkpt>
<trkpt lat="49.24109024" lon="19.81352796">
<ele>1113</ele>
<time>2014-08-20T15:39:12Z</time>
</trkpt>
<trkpt lat="49.24100528" lon="19.81365079">
<ele>1113</ele>
<time>2014-08-20T15:39:18Z</time>
</trkpt>
<trkpt lat="49.24097867" lon="19.81371173">
<ele>1114</ele>
<time>2014-08-20T15:39:24Z</time>
</trkpt>
<trkpt lat="49.24097867" lon="19.81371173">
<ele>1114</ele>
<time>2014-08-20T15:39:30Z</time>
</trkpt>
<trkpt lat="49.24096524" lon="19.81370533">
<ele>1113</ele>
<time>2014-08-20T15:39:38Z</time>
</trkpt>
<trkpt lat="49.24095515" lon="19.81369556">
<ele>1113</ele>
<time>2014-08-20T15:39:44Z</time>
</trkpt>
<trkpt lat="49.24088033" lon="19.81372242">
<ele>1114</ele>
<time>2014-08-20T15:39:50Z</time>
</trkpt>
<trkpt lat="49.24088033" lon="19.81372242">
<ele>1114</ele>
<time>2014-08-20T15:39:56Z</time>
</trkpt>
<trkpt lat="49.24084367" lon="19.813756">
<ele>1114</ele>
<time>2014-08-20T15:40:02Z</time>
</trkpt>
<trkpt lat="49.24083718" lon="19.81374448">
<ele>1114</ele>
<time>2014-08-20T15:40:08Z</time>
</trkpt>
<trkpt lat="49.24074159" lon="19.81376959">
<ele>1112</ele>
<time>2014-08-20T15:40:14Z</time>
</trkpt>
<trkpt lat="49.24074159" lon="19.81376959">
<ele>1112</ele>
<time>2014-08-20T15:40:20Z</time>
</trkpt>
<trkpt lat="49.24063735" lon="19.81382935">
<ele>1117</ele>
<time>2014-08-20T15:40:26Z</time>
</trkpt>
<trkpt lat="49.24057138" lon="19.8138821">
<ele>1114</ele>
<time>2014-08-20T15:40:34Z</time>
</trkpt>
<trkpt lat="49.24057138" lon="19.8138821">
<ele>1114</ele>
<time>2014-08-20T15:40:40Z</time>
</trkpt>
<trkpt lat="49.24053903" lon="19.81390525">
<ele>1113</ele>
<time>2014-08-20T15:40:46Z</time>
</trkpt>
<trkpt lat="49.24043801" lon="19.81396312">
<ele>1115</ele>
<time>2014-08-20T15:40:52Z</time>
</trkpt>
<trkpt lat="49.24036908" lon="19.81399607">
<ele>1116</ele>
<time>2014-08-20T15:40:58Z</time>
</trkpt>
<trkpt lat="49.24036908" lon="19.81399607">
<ele>1116</ele>
<time>2014-08-20T15:41:04Z</time>
</trkpt>
<trkpt lat="49.24033711" lon="19.81403394">
<ele>1114</ele>
<time>2014-08-20T15:41:10Z</time>
</trkpt>
<trkpt lat="49.24026283" lon="19.81407693">
<ele>1118</ele>
<time>2014-08-20T15:41:16Z</time>
</trkpt>
<trkpt lat="49.24026283" lon="19.81407693">
<ele>1118</ele>
<time>2014-08-20T15:41:22Z</time>
</trkpt>
<trkpt lat="49.24024788" lon="19.81408807">
<ele>1121</ele>
<time>2014-08-20T15:41:28Z</time>
</trkpt>
<trkpt lat="49.24024585" lon="19.81407729">
<ele>1122</ele>
<time>2014-08-20T15:41:36Z</time>
</trkpt>
<trkpt lat="49.24023308" lon="19.81402158">
<ele>1124</ele>
<time>2014-08-20T15:41:42Z</time>
</trkpt>
<trkpt lat="49.24017249" lon="19.81408696">
<ele>1123</ele>
<time>2014-08-20T15:41:48Z</time>
</trkpt>
<trkpt lat="49.24017249" lon="19.81408696">
<ele>1123</ele>
<time>2014-08-20T15:41:54Z</time>
</trkpt>
<trkpt lat="49.24012438" lon="19.81414607">
<ele>1129</ele>
<time>2014-08-20T15:42:00Z</time>
</trkpt>
<trkpt lat="49.24008414" lon="19.81419125">
<ele>1127</ele>
<time>2014-08-20T15:42:06Z</time>
</trkpt>
<trkpt lat="49.24008414" lon="19.81419125">
<ele>1127</ele>
<time>2014-08-20T15:42:12Z</time>
</trkpt>
<trkpt lat="49.24004334" lon="19.81420883">
<ele>1127</ele>
<time>2014-08-20T15:42:18Z</time>
</trkpt>
<trkpt lat="49.24002162" lon="19.81421764">
<ele>1128</ele>
<time>2014-08-20T15:42:24Z</time>
</trkpt>
<trkpt lat="49.23999958" lon="19.81422413">
<ele>1129</ele>
<time>2014-08-20T15:42:30Z</time>
</trkpt>
<trkpt lat="49.23997978" lon="19.81425507">
<ele>1130</ele>
<time>2014-08-20T15:42:38Z</time>
</trkpt>
<trkpt lat="49.23984329" lon="19.81430081">
<ele>1130</ele>
<time>2014-08-20T15:42:44Z</time>
</trkpt>
<trkpt lat="49.23978229" lon="19.81435053">
<ele>1133</ele>
<time>2014-08-20T15:42:50Z</time>
</trkpt>
<trkpt lat="49.23971417" lon="19.81439205">
<ele>1133</ele>
<time>2014-08-20T15:42:56Z</time>
</trkpt>
<trkpt lat="49.23966032" lon="19.81442897">
<ele>1133</ele>
<time>2014-08-20T15:43:02Z</time>
</trkpt>
<trkpt lat="49.23961048" lon="19.81445948">
<ele>1133</ele>
<time>2014-08-20T15:43:08Z</time>
</trkpt>
<trkpt lat="49.23961048" lon="19.81445948">
<ele>1133</ele>
<time>2014-08-20T15:43:14Z</time>
</trkpt>
<trkpt lat="49.23959129" lon="19.81446924">
<ele>1133</ele>
<time>2014-08-20T15:43:20Z</time>
</trkpt>
<trkpt lat="49.23956523" lon="19.81449708">
<ele>1132</ele>
<time>2014-08-20T15:43:26Z</time>
</trkpt>
<trkpt lat="49.23947249" lon="19.81453749">
<ele>1135</ele>
<time>2014-08-20T15:43:34Z</time>
</trkpt>
<trkpt lat="49.23939362" lon="19.81453486">
<ele>1138</ele>
<time>2014-08-20T15:43:40Z</time>
</trkpt>
<trkpt lat="49.23933643" lon="19.81454131">
<ele>1139</ele>
<time>2014-08-20T15:43:46Z</time>
</trkpt>
<trkpt lat="49.23928657" lon="19.81453657">
<ele>1139</ele>
<time>2014-08-20T15:43:52Z</time>
</trkpt>
<trkpt lat="49.23928657" lon="19.81453657">
<ele>1139</ele>
<time>2014-08-20T15:43:58Z</time>
</trkpt>
<trkpt lat="49.23926034" lon="19.81453612">
<ele>1138</ele>
<time>2014-08-20T15:44:04Z</time>
</trkpt>
<trkpt lat="49.23924449" lon="19.81454134">
<ele>1137</ele>
<time>2014-08-20T15:44:10Z</time>
</trkpt>
<trkpt lat="49.23924014" lon="19.81452902">
<ele>1134</ele>
<time>2014-08-20T15:44:16Z</time>
</trkpt>
<trkpt lat="49.2392221" lon="19.81452481">
<ele>1133</ele>
<time>2014-08-20T15:44:22Z</time>
</trkpt>
<trkpt lat="49.23918641" lon="19.81452511">
<ele>1136</ele>
<time>2014-08-20T15:44:28Z</time>
</trkpt>
<trkpt lat="49.23909881" lon="19.81453161">
<ele>1138</ele>
<time>2014-08-20T15:44:36Z</time>
</trkpt>
<trkpt lat="49.23909881" lon="19.81453161">
<ele>1138</ele>
<time>2014-08-20T15:44:42Z</time>
</trkpt>
<trkpt lat="49.23908159" lon="19.81452348">
<ele>1137</ele>
<time>2014-08-20T15:44:48Z</time>
</trkpt>
<trkpt lat="49.23907987" lon="19.81451628">
<ele>1137</ele>
<time>2014-08-20T15:44:54Z</time>
</trkpt>
<trkpt lat="49.23905798" lon="19.81449919">
<ele>1143</ele>
<time>2014-08-20T15:45:00Z</time>
</trkpt>
<trkpt lat="49.23902217" lon="19.81450646">
<ele>1147</ele>
<time>2014-08-20T15:45:06Z</time>
</trkpt>
<trkpt lat="49.23900617" lon="19.81451874">
<ele>1147</ele>
<time>2014-08-20T15:45:12Z</time>
</trkpt>
<trkpt lat="49.23898621" lon="19.81454046">
<ele>1147</ele>
<time>2014-08-20T15:45:18Z</time>
</trkpt>
<trkpt lat="49.23895181" lon="19.81457654">
<ele>1146</ele>
<time>2014-08-20T15:45:24Z</time>
</trkpt>
<trkpt lat="49.23887635" lon="19.81463991">
<ele>1146</ele>
<time>2014-08-20T15:45:30Z</time>
</trkpt>
<trkpt lat="49.23887635" lon="19.81463991">
<ele>1146</ele>
<time>2014-08-20T15:45:38Z</time>
</trkpt>
<trkpt lat="49.23874204" lon="19.81466702">
<ele>1138</ele>
<time>2014-08-20T15:45:44Z</time>
</trkpt>
<trkpt lat="49.23874204" lon="19.81466702">
<ele>1138</ele>
<time>2014-08-20T15:45:50Z</time>
</trkpt>
<trkpt lat="49.23872883" lon="19.81466713">
<ele>1136</ele>
<time>2014-08-20T15:45:56Z</time>
</trkpt>
<trkpt lat="49.23864549" lon="19.81471435">
<ele>1136</ele>
<time>2014-08-20T15:46:02Z</time>
</trkpt>
<trkpt lat="49.23859611" lon="19.81472352">
<ele>1139</ele>
<time>2014-08-20T15:46:08Z</time>
</trkpt>
<trkpt lat="49.238537" lon="19.81472714">
<ele>1143</ele>
<time>2014-08-20T15:46:14Z</time>
</trkpt>
<trkpt lat="49.238537" lon="19.81472714">
<ele>1143</ele>
<time>2014-08-20T15:46:20Z</time>
</trkpt>
<trkpt lat="49.23849765" lon="19.81475469">
<ele>1143</ele>
<time>2014-08-20T15:46:26Z</time>
</trkpt>
<trkpt lat="49.23841" lon="19.81481919">
<ele>1144</ele>
<time>2014-08-20T15:46:34Z</time>
</trkpt>
<trkpt lat="49.23841" lon="19.81481919">
<ele>1144</ele>
<time>2014-08-20T15:46:40Z</time>
</trkpt>
<trkpt lat="49.23837474" lon="19.81485194">
<ele>1144</ele>
<time>2014-08-20T15:46:46Z</time>
</trkpt>
<trkpt lat="49.23829771" lon="19.81491371">
<ele>1146</ele>
<time>2014-08-20T15:46:52Z</time>
</trkpt>
<trkpt lat="49.23829771" lon="19.81491371">
<ele>1146</ele>
<time>2014-08-20T15:46:58Z</time>
</trkpt>
<trkpt lat="49.23827114" lon="19.81496728">
<ele>1143</ele>
<time>2014-08-20T15:47:04Z</time>
</trkpt>
<trkpt lat="49.23824935" lon="19.81501444">
<ele>1144</ele>
<time>2014-08-20T15:47:10Z</time>
</trkpt>
<trkpt lat="49.23823127" lon="19.81515822">
<ele>1141</ele>
<time>2014-08-20T15:47:16Z</time>
</trkpt>
<trkpt lat="49.23823127" lon="19.81515822">
<ele>1141</ele>
<time>2014-08-20T15:47:22Z</time>
</trkpt>
<trkpt lat="49.23819847" lon="19.8151982">
<ele>1141</ele>
<time>2014-08-20T15:47:30Z</time>
</trkpt>
<trkpt lat="49.2381316" lon="19.81532864">
<ele>1140</ele>
<time>2014-08-20T15:47:38Z</time>
</trkpt>
<trkpt lat="49.23808662" lon="19.81540379">
<ele>1142</ele>
<time>2014-08-20T15:47:44Z</time>
</trkpt>
<trkpt lat="49.23803234" lon="19.81545868">
<ele>1142</ele>
<time>2014-08-20T15:47:50Z</time>
</trkpt>
<trkpt lat="49.23800118" lon="19.81551613">
<ele>1144</ele>
<time>2014-08-20T15:47:56Z</time>
</trkpt>
<trkpt lat="49.23797292" lon="19.81557465">
<ele>1144</ele>
<time>2014-08-20T15:48:02Z</time>
</trkpt>
<trkpt lat="49.23793111" lon="19.8156372">
<ele>1145</ele>
<time>2014-08-20T15:48:08Z</time>
</trkpt>
<trkpt lat="49.23788368" lon="19.81569927">
<ele>1146</ele>
<time>2014-08-20T15:48:14Z</time>
</trkpt>
<trkpt lat="49.23785495" lon="19.81576857">
<ele>1147</ele>
<time>2014-08-20T15:48:20Z</time>
</trkpt>
<trkpt lat="49.23785495" lon="19.81576857">
<ele>1147</ele>
<time>2014-08-20T15:48:26Z</time>
</trkpt>
<trkpt lat="49.23783773" lon="19.81584723">
<ele>1150</ele>
<time>2014-08-20T15:48:33Z</time>
</trkpt>
<trkpt lat="49.23777991" lon="19.81590541">
<ele>1151</ele>
<time>2014-08-20T15:48:40Z</time>
</trkpt>
<trkpt lat="49.23773833" lon="19.81595544">
<ele>1153</ele>
<time>2014-08-20T15:48:46Z</time>
</trkpt>
<trkpt lat="49.23773833" lon="19.81595544">
<ele>1153</ele>
<time>2014-08-20T15:48:52Z</time>
</trkpt>
<trkpt lat="49.23771986" lon="19.81600863">
<ele>1154</ele>
<time>2014-08-20T15:48:58Z</time>
</trkpt>
<trkpt lat="49.23772072" lon="19.81600244">
<ele>1154</ele>
<time>2014-08-20T15:49:04Z</time>
</trkpt>
<trkpt lat="49.23772375" lon="19.81602085">
<ele>1154</ele>
<time>2014-08-20T15:49:10Z</time>
</trkpt>
<trkpt lat="49.23771607" lon="19.8161188">
<ele>1156</ele>
<time>2014-08-20T15:49:16Z</time>
</trkpt>
<trkpt lat="49.23770385" lon="19.8161982">
<ele>1155</ele>
<time>2014-08-20T15:49:22Z</time>
</trkpt>
<trkpt lat="49.23768229" lon="19.81626502">
<ele>1154</ele>
<time>2014-08-20T15:49:28Z</time>
</trkpt>
<trkpt lat="49.23768229" lon="19.81626502">
<ele>1154</ele>
<time>2014-08-20T15:49:36Z</time>
</trkpt>
<trkpt lat="49.23761441" lon="19.81635152">
<ele>1156</ele>
<time>2014-08-20T15:49:42Z</time>
</trkpt>
<trkpt lat="49.23761441" lon="19.81635152">
<ele>1156</ele>
<time>2014-08-20T15:49:48Z</time>
</trkpt>
<trkpt lat="49.23761671" lon="19.8163325">
<ele>1155</ele>
<time>2014-08-20T15:49:54Z</time>
</trkpt>
<trkpt lat="49.23761944" lon="19.81633276">
<ele>1153</ele>
<time>2014-08-20T15:50:00Z</time>
</trkpt>
<trkpt lat="49.23761639" lon="19.8163287">
<ele>1153</ele>
<time>2014-08-20T15:50:06Z</time>
</trkpt>
<trkpt lat="49.23761025" lon="19.81632201">
<ele>1152</ele>
<time>2014-08-20T15:50:12Z</time>
</trkpt>
<trkpt lat="49.23760379" lon="19.81631308">
<ele>1151</ele>
<time>2014-08-20T15:50:18Z</time>
</trkpt>
<trkpt lat="49.23760124" lon="19.8163046">
<ele>1151</ele>
<time>2014-08-20T15:50:24Z</time>
</trkpt>
<trkpt lat="49.2375887" lon="19.81630046">
<ele>1150</ele>
<time>2014-08-20T15:50:30Z</time>
</trkpt>
<trkpt lat="49.23758224" lon="19.81630698">
<ele>1150</ele>
<time>2014-08-20T15:50:38Z</time>
</trkpt>
<trkpt lat="49.23758921" lon="19.81631406">
<ele>1151</ele>
<time>2014-08-20T15:50:44Z</time>
</trkpt>
<trkpt lat="49.23760261" lon="19.81632369">
<ele>1154</ele>
<time>2014-08-20T15:50:50Z</time>
</trkpt>
<trkpt lat="49.2376026" lon="19.81632366">
<ele>1154</ele>
<time>2014-08-20T15:50:56Z</time>
</trkpt>
<trkpt lat="49.23760266" lon="19.81632376">
<ele>1154</ele>
<time>2014-08-20T15:51:02Z</time>
</trkpt>
<trkpt lat="49.23760278" lon="19.8163238">
<ele>1154</ele>
<time>2014-08-20T15:51:08Z</time>
</trkpt>
<trkpt lat="49.23760265" lon="19.81632418">
<ele>1154</ele>
<time>2014-08-20T15:51:14Z</time>
</trkpt>
<trkpt lat="49.23760262" lon="19.81632437">
<ele>1154</ele>
<time>2014-08-20T15:51:20Z</time>
</trkpt>
<trkpt lat="49.23760288" lon="19.81632428">
<ele>1154</ele>
<time>2014-08-20T15:51:26Z</time>
</trkpt>
<trkpt lat="49.23760309" lon="19.81632425">
<ele>1154</ele>
<time>2014-08-20T15:51:34Z</time>
</trkpt>
<trkpt lat="49.23760347" lon="19.81632444">
<ele>1154</ele>
<time>2014-08-20T15:51:40Z</time>
</trkpt>
<trkpt lat="49.23760371" lon="19.81632473">
<ele>1154</ele>
<time>2014-08-20T15:51:46Z</time>
</trkpt>
<trkpt lat="49.23760383" lon="19.8163249">
<ele>1154</ele>
<time>2014-08-20T15:51:52Z</time>
</trkpt>
<trkpt lat="49.23760467" lon="19.81632524">
<ele>1154</ele>
<time>2014-08-20T15:51:58Z</time>
</trkpt>
<trkpt lat="49.23760491" lon="19.81632531">
<ele>1154</ele>
<time>2014-08-20T15:52:04Z</time>
</trkpt>
<trkpt lat="49.23760541" lon="19.81632559">
<ele>1154</ele>
<time>2014-08-20T15:52:10Z</time>
</trkpt>
<trkpt lat="49.23760565" lon="19.81632551">
<ele>1154</ele>
<time>2014-08-20T15:52:16Z</time>
</trkpt>
<trkpt lat="49.23760576" lon="19.81632549">
<ele>1154</ele>
<time>2014-08-20T15:52:22Z</time>
</trkpt>
<trkpt lat="49.23760595" lon="19.81632556">
<ele>1154</ele>
<time>2014-08-20T15:52:28Z</time>
</trkpt>
<trkpt lat="49.237606" lon="19.81632579">
<ele>1154</ele>
<time>2014-08-20T15:52:37Z</time>
</trkpt>
<trkpt lat="49.23760601" lon="19.816326">
<ele>1154</ele>
<time>2014-08-20T15:52:43Z</time>
</trkpt>
<trkpt lat="49.23760634" lon="19.81632627">
<ele>1154</ele>
<time>2014-08-20T15:52:49Z</time>
</trkpt>
<trkpt lat="49.23760663" lon="19.81632644">
<ele>1154</ele>
<time>2014-08-20T15:52:55Z</time>
</trkpt>
<trkpt lat="49.23760678" lon="19.81632661">
<ele>1154</ele>
<time>2014-08-20T15:53:01Z</time>
</trkpt>
<trkpt lat="49.23760705" lon="19.81632674">
<ele>1154</ele>
<time>2014-08-20T15:53:07Z</time>
</trkpt>
<trkpt lat="49.23760699" lon="19.81632681">
<ele>1154</ele>
<time>2014-08-20T15:53:13Z</time>
</trkpt>
<trkpt lat="49.2376068" lon="19.81632664">
<ele>1154</ele>
<time>2014-08-20T15:53:19Z</time>
</trkpt>
<trkpt lat="49.23760669" lon="19.81632624">
<ele>1154</ele>
<time>2014-08-20T15:53:25Z</time>
</trkpt>
<trkpt lat="49.23760668" lon="19.81632619">
<ele>1154</ele>
<time>2014-08-20T15:53:31Z</time>
</trkpt>
<trkpt lat="49.23760657" lon="19.81632627">
<ele>1154</ele>
<time>2014-08-20T15:53:37Z</time>
</trkpt>
<trkpt lat="49.23760118" lon="19.81632699">
<ele>1155</ele>
<time>2014-08-20T15:53:43Z</time>
</trkpt>
<trkpt lat="49.23759356" lon="19.81632909">
<ele>1156</ele>
<time>2014-08-20T15:53:49Z</time>
</trkpt>
<trkpt lat="49.23759177" lon="19.81632777">
<ele>1156</ele>
<time>2014-08-20T15:53:55Z</time>
</trkpt>
<trkpt lat="49.23759116" lon="19.81632735">
<ele>1156</ele>
<time>2014-08-20T15:54:01Z</time>
</trkpt>
<trkpt lat="49.23758783" lon="19.81632522">
<ele>1157</ele>
<time>2014-08-20T15:54:07Z</time>
</trkpt>
<trkpt lat="49.23758734" lon="19.81632512">
<ele>1157</ele>
<time>2014-08-20T15:54:13Z</time>
</trkpt>
<trkpt lat="49.2375843" lon="19.81631041">
<ele>1159</ele>
<time>2014-08-20T15:54:19Z</time>
</trkpt>
<trkpt lat="49.23758931" lon="19.81629221">
<ele>1159</ele>
<time>2014-08-20T15:54:25Z</time>
</trkpt>
<trkpt lat="49.23757863" lon="19.81628042">
<ele>1160</ele>
<time>2014-08-20T15:54:31Z</time>
</trkpt>
<trkpt lat="49.23758077" lon="19.81628368">
<ele>1159</ele>
<time>2014-08-20T15:54:38Z</time>
</trkpt>
<trkpt lat="49.23758971" lon="19.8163321">
<ele>1159</ele>
<time>2014-08-20T15:54:44Z</time>
</trkpt>
<trkpt lat="49.23762366" lon="19.81646005">
<ele>1163</ele>
<time>2014-08-20T15:54:50Z</time>
</trkpt>
<trkpt lat="49.23762366" lon="19.81646005">
<ele>1163</ele>
<time>2014-08-20T15:54:56Z</time>
</trkpt>
<trkpt lat="49.23762849" lon="19.81652505">
<ele>1165</ele>
<time>2014-08-20T15:55:02Z</time>
</trkpt>
<trkpt lat="49.23763821" lon="19.81667211">
<ele>1172</ele>
<time>2014-08-20T15:55:10Z</time>
</trkpt>
<trkpt lat="49.23763821" lon="19.81667211">
<ele>1172</ele>
<time>2014-08-20T15:55:16Z</time>
</trkpt>
<trkpt lat="49.23763531" lon="19.81671476">
<ele>1171</ele>
<time>2014-08-20T15:55:22Z</time>
</trkpt>
<trkpt lat="49.23760653" lon="19.81672236">
<ele>1169</ele>
<time>2014-08-20T15:55:28Z</time>
</trkpt>
<trkpt lat="49.23759612" lon="19.81673321">
<ele>1168</ele>
<time>2014-08-20T15:55:36Z</time>
</trkpt>
<trkpt lat="49.23759439" lon="19.81674036">
<ele>1169</ele>
<time>2014-08-20T15:55:42Z</time>
</trkpt>
<trkpt lat="49.23758237" lon="19.81675131">
<ele>1171</ele>
<time>2014-08-20T15:55:48Z</time>
</trkpt>
<trkpt lat="49.2375708" lon="19.81674635">
<ele>1172</ele>
<time>2014-08-20T15:55:54Z</time>
</trkpt>
<trkpt lat="49.23757025" lon="19.81674678">
<ele>1172</ele>
<time>2014-08-20T15:56:00Z</time>
</trkpt>
<trkpt lat="49.23754213" lon="19.81675865">
<ele>1172</ele>
<time>2014-08-20T15:56:06Z</time>
</trkpt>
<trkpt lat="49.23753283" lon="19.81674804">
<ele>1174</ele>
<time>2014-08-20T15:56:12Z</time>
</trkpt>
<trkpt lat="49.23751655" lon="19.816744">
<ele>1176</ele>
<time>2014-08-20T15:56:18Z</time>
</trkpt>
<trkpt lat="49.23750534" lon="19.81673784">
<ele>1177</ele>
<time>2014-08-20T15:56:24Z</time>
</trkpt>
<trkpt lat="49.23750487" lon="19.81673937">
<ele>1177</ele>
<time>2014-08-20T15:56:30Z</time>
</trkpt>
<trkpt lat="49.23750466" lon="19.81673989">
<ele>1177</ele>
<time>2014-08-20T15:56:39Z</time>
</trkpt>
<trkpt lat="49.23750518" lon="19.81674109">
<ele>1177</ele>
<time>2014-08-20T15:56:45Z</time>
</trkpt>
<trkpt lat="49.23753677" lon="19.81681073">
<ele>1179</ele>
<time>2014-08-20T15:56:51Z</time>
</trkpt>
<trkpt lat="49.23758496" lon="19.8168926">
<ele>1177</ele>
<time>2014-08-20T15:56:57Z</time>
</trkpt>
<trkpt lat="49.23758496" lon="19.8168926">
<ele>1177</ele>
<time>2014-08-20T15:57:03Z</time>
</trkpt>
<trkpt lat="49.23762623" lon="19.81705066">
<ele>1181</ele>
<time>2014-08-20T15:57:09Z</time>
</trkpt>
<trkpt lat="49.23763818" lon="19.81714919">
<ele>1184</ele>
<time>2014-08-20T15:57:15Z</time>
</trkpt>
<trkpt lat="49.23763818" lon="19.81714919">
<ele>1184</ele>
<time>2014-08-20T15:57:21Z</time>
</trkpt>
<trkpt lat="49.23763263" lon="19.81728447">
<ele>1188</ele>
<time>2014-08-20T15:57:27Z</time>
</trkpt>
<trkpt lat="49.23763263" lon="19.81728447">
<ele>1188</ele>
<time>2014-08-20T15:57:34Z</time>
</trkpt>
<trkpt lat="49.23763457" lon="19.81729579">
<ele>1188</ele>
<time>2014-08-20T15:57:40Z</time>
</trkpt>
<trkpt lat="49.23765799" lon="19.8174137">
<ele>1190</ele>
<time>2014-08-20T15:57:46Z</time>
</trkpt>
<trkpt lat="49.23765967" lon="19.81750084">
<ele>1192</ele>
<time>2014-08-20T15:57:52Z</time>
</trkpt>
<trkpt lat="49.23765967" lon="19.81750084">
<ele>1192</ele>
<time>2014-08-20T15:57:58Z</time>
</trkpt>
<trkpt lat="49.2376581" lon="19.81753859">
<ele>1193</ele>
<time>2014-08-20T15:58:04Z</time>
</trkpt>
<trkpt lat="49.23766217" lon="19.81758828">
<ele>1193</ele>
<time>2014-08-20T15:58:10Z</time>
</trkpt>
<trkpt lat="49.23767776" lon="19.817649">
<ele>1194</ele>
<time>2014-08-20T15:58:16Z</time>
</trkpt>
<trkpt lat="49.23762623" lon="19.81772217">
<ele>1200</ele>
<time>2014-08-20T15:58:22Z</time>
</trkpt>
<trkpt lat="49.23762623" lon="19.81772217">
<ele>1200</ele>
<time>2014-08-20T15:58:28Z</time>
</trkpt>
<trkpt lat="49.23762834" lon="19.81774906">
<ele>1199</ele>
<time>2014-08-20T15:58:36Z</time>
</trkpt>
<trkpt lat="49.23762263" lon="19.81774347">
<ele>1199</ele>
<time>2014-08-20T15:58:42Z</time>
</trkpt>
<trkpt lat="49.23761289" lon="19.8177849">
<ele>1198</ele>
<time>2014-08-20T15:58:48Z</time>
</trkpt>
<trkpt lat="49.23763183" lon="19.81781531">
<ele>1197</ele>
<time>2014-08-20T15:58:54Z</time>
</trkpt>
<trkpt lat="49.2376767" lon="19.81794596">
<ele>1197</ele>
<time>2014-08-20T15:59:00Z</time>
</trkpt>
<trkpt lat="49.23770606" lon="19.81801075">
<ele>1199</ele>
<time>2014-08-20T15:59:06Z</time>
</trkpt>
<trkpt lat="49.23773494" lon="19.8180665">
<ele>1201</ele>
<time>2014-08-20T15:59:12Z</time>
</trkpt>
<trkpt lat="49.23774765" lon="19.81814505">
<ele>1200</ele>
<time>2014-08-20T15:59:18Z</time>
</trkpt>
<trkpt lat="49.23774765" lon="19.81814505">
<ele>1200</ele>
<time>2014-08-20T15:59:24Z</time>
</trkpt>
<trkpt lat="49.23776695" lon="19.81824691">
<ele>1200</ele>
<time>2014-08-20T15:59:30Z</time>
</trkpt>
<trkpt lat="49.23776695" lon="19.81824691">
<ele>1200</ele>
<time>2014-08-20T15:59:38Z</time>
</trkpt>
<trkpt lat="49.23770865" lon="19.81844511">
<ele>1200</ele>
<time>2014-08-20T15:59:44Z</time>
</trkpt>
<trkpt lat="49.23770865" lon="19.81844511">
<ele>1200</ele>
<time>2014-08-20T15:59:50Z</time>
</trkpt>
<trkpt lat="49.23769254" lon="19.81849726">
<ele>1200</ele>
<time>2014-08-20T15:59:56Z</time>
</trkpt>
<trkpt lat="49.23768871" lon="19.81855333">
<ele>1200</ele>
<time>2014-08-20T16:00:02Z</time>
</trkpt>
<trkpt lat="49.23767428" lon="19.81860084">
<ele>1199</ele>
<time>2014-08-20T16:00:08Z</time>
</trkpt>
<trkpt lat="49.23766731" lon="19.81865208">
<ele>1200</ele>
<time>2014-08-20T16:00:14Z</time>
</trkpt>
<trkpt lat="49.23765627" lon="19.81877761">
<ele>1199</ele>
<time>2014-08-20T16:00:20Z</time>
</trkpt>
<trkpt lat="49.23765627" lon="19.81877761">
<ele>1199</ele>
<time>2014-08-20T16:00:26Z</time>
</trkpt>
<trkpt lat="49.23763982" lon="19.81882791">
<ele>1200</ele>
<time>2014-08-20T16:00:33Z</time>
</trkpt>
<trkpt lat="49.23761747" lon="19.81887231">
<ele>1200</ele>
<time>2014-08-20T16:00:40Z</time>
</trkpt>
<trkpt lat="49.23760936" lon="19.81886391">
<ele>1200</ele>
<time>2014-08-20T16:00:46Z</time>
</trkpt>
<trkpt lat="49.2376108" lon="19.81886221">
<ele>1200</ele>
<time>2014-08-20T16:00:52Z</time>
</trkpt>
<trkpt lat="49.23761041" lon="19.81886027">
<ele>1200</ele>
<time>2014-08-20T16:00:58Z</time>
</trkpt>
<trkpt lat="49.23762992" lon="19.81895441">
<ele>1201</ele>
<time>2014-08-20T16:01:04Z</time>
</trkpt>
<trkpt lat="49.23762534" lon="19.81903136">
<ele>1201</ele>
<time>2014-08-20T16:01:10Z</time>
</trkpt>
<trkpt lat="49.23762534" lon="19.81903136">
<ele>1201</ele>
<time>2014-08-20T16:01:16Z</time>
</trkpt>
<trkpt lat="49.23760829" lon="19.81909186">
<ele>1203</ele>
<time>2014-08-20T16:01:22Z</time>
</trkpt>
<trkpt lat="49.23759847" lon="19.81914589">
<ele>1200</ele>
<time>2014-08-20T16:01:28Z</time>
</trkpt>
<trkpt lat="49.23757815" lon="19.81914723">
<ele>1199</ele>
<time>2014-08-20T16:01:36Z</time>
</trkpt>
<trkpt lat="49.23750779" lon="19.81924545">
<ele>1201</ele>
<time>2014-08-20T16:01:42Z</time>
</trkpt>
<trkpt lat="49.23750779" lon="19.81924545">
<ele>1201</ele>
<time>2014-08-20T16:01:48Z</time>
</trkpt>
<trkpt lat="49.23743115" lon="19.81931493">
<ele>1199</ele>
<time>2014-08-20T16:01:54Z</time>
</trkpt>
<trkpt lat="49.23736976" lon="19.81941935">
<ele>1199</ele>
<time>2014-08-20T16:02:00Z</time>
</trkpt>
<trkpt lat="49.23731234" lon="19.8194568">
<ele>1201</ele>
<time>2014-08-20T16:02:06Z</time>
</trkpt>
<trkpt lat="49.23731234" lon="19.8194568">
<ele>1201</ele>
<time>2014-08-20T16:02:12Z</time>
</trkpt>
<trkpt lat="49.23727398" lon="19.81947378">
<ele>1195</ele>
<time>2014-08-20T16:02:18Z</time>
</trkpt>
<trkpt lat="49.2372343" lon="19.81949817">
<ele>1192</ele>
<time>2014-08-20T16:02:24Z</time>
</trkpt>
<trkpt lat="49.23722744" lon="19.81950941">
<ele>1191</ele>
<time>2014-08-20T16:02:30Z</time>
</trkpt>
<trkpt lat="49.2371922" lon="19.81954435">
<ele>1195</ele>
<time>2014-08-20T16:02:38Z</time>
</trkpt>
<trkpt lat="49.23714445" lon="19.81949097">
<ele>1201</ele>
<time>2014-08-20T16:02:44Z</time>
</trkpt>
<trkpt lat="49.23714445" lon="19.81949097">
<ele>1201</ele>
<time>2014-08-20T16:02:50Z</time>
</trkpt>
<trkpt lat="49.23715205" lon="19.81948401">
<ele>1201</ele>
<time>2014-08-20T16:02:56Z</time>
</trkpt>
<trkpt lat="49.2371272" lon="19.81950885">
<ele>1198</ele>
<time>2014-08-20T16:03:02Z</time>
</trkpt>
<trkpt lat="49.23705275" lon="19.81950084">
<ele>1201</ele>
<time>2014-08-20T16:03:08Z</time>
</trkpt>
<trkpt lat="49.23705275" lon="19.81950084">
<ele>1201</ele>
<time>2014-08-20T16:03:14Z</time>
</trkpt>
<trkpt lat="49.23702262" lon="19.81953811">
<ele>1203</ele>
<time>2014-08-20T16:03:20Z</time>
</trkpt>
<trkpt lat="49.23700901" lon="19.81953499">
<ele>1206</ele>
<time>2014-08-20T16:03:26Z</time>
</trkpt>
<trkpt lat="49.23699332" lon="19.81953207">
<ele>1208</ele>
<time>2014-08-20T16:03:34Z</time>
</trkpt>
<trkpt lat="49.23696918" lon="19.81953591">
<ele>1210</ele>
<time>2014-08-20T16:03:40Z</time>
</trkpt>
<trkpt lat="49.23695561" lon="19.81957991">
<ele>1213</ele>
<time>2014-08-20T16:03:46Z</time>
</trkpt>
<trkpt lat="49.23690985" lon="19.81966272">
<ele>1213</ele>
<time>2014-08-20T16:03:52Z</time>
</trkpt>
<trkpt lat="49.23690985" lon="19.81966272">
<ele>1213</ele>
<time>2014-08-20T16:03:58Z</time>
</trkpt>
<trkpt lat="49.23688429" lon="19.81967925">
<ele>1212</ele>
<time>2014-08-20T16:04:04Z</time>
</trkpt>
<trkpt lat="49.23686929" lon="19.81969313">
<ele>1211</ele>
<time>2014-08-20T16:04:10Z</time>
</trkpt>
<trkpt lat="49.23686544" lon="19.8196969">
<ele>1211</ele>
<time>2014-08-20T16:04:16Z</time>
</trkpt>
<trkpt lat="49.23684365" lon="19.81971851">
<ele>1210</ele>
<time>2014-08-20T16:04:22Z</time>
</trkpt>
<trkpt lat="49.23675372" lon="19.8197668">
<ele>1209</ele>
<time>2014-08-20T16:04:28Z</time>
</trkpt>
<trkpt lat="49.23675372" lon="19.8197668">
<ele>1209</ele>
<time>2014-08-20T16:04:36Z</time>
</trkpt>
<trkpt lat="49.23666287" lon="19.8198108">
<ele>1209</ele>
<time>2014-08-20T16:04:42Z</time>
</trkpt>
<trkpt lat="49.23666287" lon="19.8198108">
<ele>1209</ele>
<time>2014-08-20T16:04:48Z</time>
</trkpt>
<trkpt lat="49.23662124" lon="19.81981056">
<ele>1212</ele>
<time>2014-08-20T16:04:54Z</time>
</trkpt>
<trkpt lat="49.23661289" lon="19.81981946">
<ele>1213</ele>
<time>2014-08-20T16:05:00Z</time>
</trkpt>
<trkpt lat="49.23654147" lon="19.8198897">
<ele>1211</ele>
<time>2014-08-20T16:05:06Z</time>
</trkpt>
<trkpt lat="49.23654147" lon="19.8198897">
<ele>1211</ele>
<time>2014-08-20T16:05:12Z</time>
</trkpt>
<trkpt lat="49.23651757" lon="19.8199355">
<ele>1209</ele>
<time>2014-08-20T16:05:18Z</time>
</trkpt>
<trkpt lat="49.23651648" lon="19.8199361">
<ele>1210</ele>
<time>2014-08-20T16:05:24Z</time>
</trkpt>
<trkpt lat="49.2365159" lon="19.81993321">
<ele>1210</ele>
<time>2014-08-20T16:05:30Z</time>
</trkpt>
<trkpt lat="49.23651401" lon="19.81992629">
<ele>1209</ele>
<time>2014-08-20T16:05:38Z</time>
</trkpt>
<trkpt lat="49.23652473" lon="19.81993757">
<ele>1207</ele>
<time>2014-08-20T16:05:44Z</time>
</trkpt>
<trkpt lat="49.23651679" lon="19.81999434">
<ele>1208</ele>
<time>2014-08-20T16:05:50Z</time>
</trkpt>
<trkpt lat="49.23651776" lon="19.819999">
<ele>1209</ele>
<time>2014-08-20T16:05:56Z</time>
</trkpt>
<trkpt lat="49.23652293" lon="19.82000763">
<ele>1210</ele>
<time>2014-08-20T16:06:02Z</time>
</trkpt>
<trkpt lat="49.23651868" lon="19.82002621">
<ele>1210</ele>
<time>2014-08-20T16:06:08Z</time>
</trkpt>
<trkpt lat="49.23650355" lon="19.82008978">
<ele>1211</ele>
<time>2014-08-20T16:06:14Z</time>
</trkpt>
<trkpt lat="49.2364167" lon="19.8202046">
<ele>1213</ele>
<time>2014-08-20T16:06:20Z</time>
</trkpt>
<trkpt lat="49.2363513" lon="19.82025269">
<ele>1216</ele>
<time>2014-08-20T16:06:26Z</time>
</trkpt>
<trkpt lat="49.23631608" lon="19.82031966">
<ele>1216</ele>
<time>2014-08-20T16:06:34Z</time>
</trkpt>
<trkpt lat="49.23631608" lon="19.82031966">
<ele>1216</ele>
<time>2014-08-20T16:06:40Z</time>
</trkpt>
<trkpt lat="49.23626686" lon="19.82038517">
<ele>1220</ele>
<time>2014-08-20T16:06:46Z</time>
</trkpt>
<trkpt lat="49.23626686" lon="19.82038517">
<ele>1220</ele>
<time>2014-08-20T16:06:52Z</time>
</trkpt>
<trkpt lat="49.23624985" lon="19.82041726">
<ele>1219</ele>
<time>2014-08-20T16:06:58Z</time>
</trkpt>
<trkpt lat="49.23623243" lon="19.82051181">
<ele>1218</ele>
<time>2014-08-20T16:07:04Z</time>
</trkpt>
<trkpt lat="49.23621769" lon="19.82066309">
<ele>1215</ele>
<time>2014-08-20T16:07:10Z</time>
</trkpt>
<trkpt lat="49.23621769" lon="19.82066309">
<ele>1215</ele>
<time>2014-08-20T16:07:16Z</time>
</trkpt>
<trkpt lat="49.23619857" lon="19.8208023">
<ele>1217</ele>
<time>2014-08-20T16:07:22Z</time>
</trkpt>
<trkpt lat="49.23619857" lon="19.8208023">
<ele>1217</ele>
<time>2014-08-20T16:07:28Z</time>
</trkpt>
<trkpt lat="49.23610862" lon="19.82097238">
<ele>1220</ele>
<time>2014-08-20T16:07:36Z</time>
</trkpt>
<trkpt lat="49.23610862" lon="19.82097238">
<ele>1220</ele>
<time>2014-08-20T16:07:42Z</time>
</trkpt>
<trkpt lat="49.23610072" lon="19.8210136">
<ele>1219</ele>
<time>2014-08-20T16:07:48Z</time>
</trkpt>
<trkpt lat="49.23608116" lon="19.82107022">
<ele>1222</ele>
<time>2014-08-20T16:07:54Z</time>
</trkpt>
<trkpt lat="49.23605223" lon="19.82116768">
<ele>1221</ele>
<time>2014-08-20T16:08:00Z</time>
</trkpt>
<trkpt lat="49.23604665" lon="19.82128762">
<ele>1221</ele>
<time>2014-08-20T16:08:06Z</time>
</trkpt>
<trkpt lat="49.2360499" lon="19.82137888">
<ele>1223</ele>
<time>2014-08-20T16:08:12Z</time>
</trkpt>
<trkpt lat="49.2360499" lon="19.82137888">
<ele>1223</ele>
<time>2014-08-20T16:08:18Z</time>
</trkpt>
<trkpt lat="49.236046" lon="19.82142219">
<ele>1225</ele>
<time>2014-08-20T16:08:24Z</time>
</trkpt>
<trkpt lat="49.23598975" lon="19.82155401">
<ele>1219</ele>
<time>2014-08-20T16:08:30Z</time>
</trkpt>
<trkpt lat="49.23598975" lon="19.82155401">
<ele>1219</ele>
<time>2014-08-20T16:08:38Z</time>
</trkpt>
<trkpt lat="49.23593478" lon="19.82145413">
<ele>1234</ele>
<time>2014-08-20T16:08:44Z</time>
</trkpt>
<trkpt lat="49.23593478" lon="19.82145413">
<ele>1234</ele>
<time>2014-08-20T16:08:50Z</time>
</trkpt>
<trkpt lat="49.23593437" lon="19.82145396">
<ele>1234</ele>
<time>2014-08-20T16:08:56Z</time>
</trkpt>
<trkpt lat="49.23593385" lon="19.8214558">
<ele>1234</ele>
<time>2014-08-20T16:09:02Z</time>
</trkpt>
<trkpt lat="49.23593343" lon="19.821455">
<ele>1234</ele>
<time>2014-08-20T16:09:08Z</time>
</trkpt>
<trkpt lat="49.23593331" lon="19.82145482">
<ele>1234</ele>
<time>2014-08-20T16:09:14Z</time>
</trkpt>
<trkpt lat="49.23593297" lon="19.82145452">
<ele>1234</ele>
<time>2014-08-20T16:09:20Z</time>
</trkpt>
<trkpt lat="49.23593266" lon="19.82145447">
<ele>1234</ele>
<time>2014-08-20T16:09:26Z</time>
</trkpt>
<trkpt lat="49.23593264" lon="19.82145456">
<ele>1234</ele>
<time>2014-08-20T16:09:33Z</time>
</trkpt>
<trkpt lat="49.23593522" lon="19.82146525">
<ele>1236</ele>
<time>2014-08-20T16:09:40Z</time>
</trkpt>
<trkpt lat="49.23596619" lon="19.82150957">
<ele>1233</ele>
<time>2014-08-20T16:09:46Z</time>
</trkpt>
<trkpt lat="49.2359713" lon="19.82150155">
<ele>1231</ele>
<time>2014-08-20T16:09:52Z</time>
</trkpt>
<trkpt lat="49.23596205" lon="19.82148573">
<ele>1232</ele>
<time>2014-08-20T16:09:58Z</time>
</trkpt>
<trkpt lat="49.23595998" lon="19.82148417">
<ele>1232</ele>
<time>2014-08-20T16:10:04Z</time>
</trkpt>
<trkpt lat="49.23596492" lon="19.82149782">
<ele>1230</ele>
<time>2014-08-20T16:10:10Z</time>
</trkpt>
<trkpt lat="49.23596255" lon="19.82149573">
<ele>1230</ele>
<time>2014-08-20T16:10:16Z</time>
</trkpt>
<trkpt lat="49.23596209" lon="19.82149537">
<ele>1230</ele>
<time>2014-08-20T16:10:22Z</time>
</trkpt>
<trkpt lat="49.235962" lon="19.82149549">
<ele>1230</ele>
<time>2014-08-20T16:10:28Z</time>
</trkpt>
<trkpt lat="49.23596293" lon="19.8215353">
<ele>1232</ele>
<time>2014-08-20T16:10:36Z</time>
</trkpt>
<trkpt lat="49.23593614" lon="19.82165448">
<ele>1230</ele>
<time>2014-08-20T16:10:42Z</time>
</trkpt>
<trkpt lat="49.23595717" lon="19.82176634">
<ele>1231</ele>
<time>2014-08-20T16:10:48Z</time>
</trkpt>
<trkpt lat="49.23589781" lon="19.82183134">
<ele>1236</ele>
<time>2014-08-20T16:10:54Z</time>
</trkpt>
<trkpt lat="49.23584951" lon="19.82187397">
<ele>1236</ele>
<time>2014-08-20T16:11:00Z</time>
</trkpt>
<trkpt lat="49.235808" lon="19.82194648">
<ele>1234</ele>
<time>2014-08-20T16:11:06Z</time>
</trkpt>
<trkpt lat="49.235808" lon="19.82194648">
<ele>1234</ele>
<time>2014-08-20T16:11:12Z</time>
</trkpt>
<trkpt lat="49.23574805" lon="19.82201883">
<ele>1233</ele>
<time>2014-08-20T16:11:18Z</time>
</trkpt>
<trkpt lat="49.23574805" lon="19.82201883">
<ele>1233</ele>
<time>2014-08-20T16:11:24Z</time>
</trkpt>
<trkpt lat="49.23565539" lon="19.82217506">
<ele>1235</ele>
<time>2014-08-20T16:11:30Z</time>
</trkpt>
<trkpt lat="49.2355994" lon="19.82221744">
<ele>1235</ele>
<time>2014-08-20T16:11:38Z</time>
</trkpt>
<trkpt lat="49.2355994" lon="19.82221744">
<ele>1235</ele>
<time>2014-08-20T16:11:44Z</time>
</trkpt>
<trkpt lat="49.23559295" lon="19.82223373">
<ele>1236</ele>
<time>2014-08-20T16:11:50Z</time>
</trkpt>
<trkpt lat="49.23557802" lon="19.82229812">
<ele>1237</ele>
<time>2014-08-20T16:11:56Z</time>
</trkpt>
<trkpt lat="49.23557909" lon="19.82236602">
<ele>1239</ele>
<time>2014-08-20T16:12:02Z</time>
</trkpt>
<trkpt lat="49.2355673" lon="19.82242423">
<ele>1243</ele>
<time>2014-08-20T16:12:08Z</time>
</trkpt>
<trkpt lat="49.23550101" lon="19.82252596">
<ele>1242</ele>
<time>2014-08-20T16:12:14Z</time>
</trkpt>
<trkpt lat="49.23550101" lon="19.82252596">
<ele>1242</ele>
<time>2014-08-20T16:12:20Z</time>
</trkpt>
<trkpt lat="49.23549064" lon="19.82256064">
<ele>1246</ele>
<time>2014-08-20T16:12:26Z</time>
</trkpt>
<trkpt lat="49.23549488" lon="19.82255936">
<ele>1245</ele>
<time>2014-08-20T16:12:33Z</time>
</trkpt>
<trkpt lat="49.23550428" lon="19.82259214">
<ele>1244</ele>
<time>2014-08-20T16:12:40Z</time>
</trkpt>
<trkpt lat="49.23548739" lon="19.82260641">
<ele>1241</ele>
<time>2014-08-20T16:12:46Z</time>
</trkpt>
<trkpt lat="49.23548323" lon="19.82260928">
<ele>1241</ele>
<time>2014-08-20T16:12:52Z</time>
</trkpt>
<trkpt lat="49.23547533" lon="19.8226928">
<ele>1242</ele>
<time>2014-08-20T16:12:58Z</time>
</trkpt>
<trkpt lat="49.2354691" lon="19.8227873">
<ele>1243</ele>
<time>2014-08-20T16:13:04Z</time>
</trkpt>
<trkpt lat="49.23547422" lon="19.82287629">
<ele>1243</ele>
<time>2014-08-20T16:13:10Z</time>
</trkpt>
<trkpt lat="49.23547422" lon="19.82287629">
<ele>1243</ele>
<time>2014-08-20T16:13:16Z</time>
</trkpt>
<trkpt lat="49.23541965" lon="19.82299166">
<ele>1246</ele>
<time>2014-08-20T16:13:22Z</time>
</trkpt>
<trkpt lat="49.23541965" lon="19.82299166">
<ele>1246</ele>
<time>2014-08-20T16:13:28Z</time>
</trkpt>
<trkpt lat="49.23539109" lon="19.82317736">
<ele>1251</ele>
<time>2014-08-20T16:13:37Z</time>
</trkpt>
<trkpt lat="49.23539109" lon="19.82317736">
<ele>1251</ele>
<time>2014-08-20T16:13:43Z</time>
</trkpt>
<trkpt lat="49.23538546" lon="19.82319055">
<ele>1253</ele>
<time>2014-08-20T16:13:49Z</time>
</trkpt>
<trkpt lat="49.23538831" lon="19.82332216">
<ele>1254</ele>
<time>2014-08-20T16:13:55Z</time>
</trkpt>
<trkpt lat="49.23538831" lon="19.82332216">
<ele>1254</ele>
<time>2014-08-20T16:14:01Z</time>
</trkpt>
<trkpt lat="49.23539665" lon="19.82338785">
<ele>1248</ele>
<time>2014-08-20T16:14:07Z</time>
</trkpt>
<trkpt lat="49.23538386" lon="19.8233932">
<ele>1250</ele>
<time>2014-08-20T16:14:13Z</time>
</trkpt>
<trkpt lat="49.23538815" lon="19.82340199">
<ele>1249</ele>
<time>2014-08-20T16:14:19Z</time>
</trkpt>
<trkpt lat="49.23537842" lon="19.8234664">
<ele>1250</ele>
<time>2014-08-20T16:14:25Z</time>
</trkpt>
<trkpt lat="49.23536525" lon="19.82358323">
<ele>1251</ele>
<time>2014-08-20T16:14:31Z</time>
</trkpt>
<trkpt lat="49.23536525" lon="19.82358323">
<ele>1251</ele>
<time>2014-08-20T16:14:38Z</time>
</trkpt>
<trkpt lat="49.23537596" lon="19.82378842">
<ele>1254</ele>
<time>2014-08-20T16:14:44Z</time>
</trkpt>
<trkpt lat="49.23537596" lon="19.82378842">
<ele>1254</ele>
<time>2014-08-20T16:14:50Z</time>
</trkpt>
<trkpt lat="49.23537304" lon="19.82383036">
<ele>1257</ele>
<time>2014-08-20T16:14:56Z</time>
</trkpt>
<trkpt lat="49.23533986" lon="19.8238305">
<ele>1259</ele>
<time>2014-08-20T16:15:02Z</time>
</trkpt>
<trkpt lat="49.23532913" lon="19.8238257">
<ele>1259</ele>
<time>2014-08-20T16:15:08Z</time>
</trkpt>
<trkpt lat="49.23532495" lon="19.82383434">
<ele>1261</ele>
<time>2014-08-20T16:15:14Z</time>
</trkpt>
<trkpt lat="49.23537118" lon="19.82407251">
<ele>1261</ele>
<time>2014-08-20T16:15:20Z</time>
</trkpt>
<trkpt lat="49.23537118" lon="19.82407251">
<ele>1261</ele>
<time>2014-08-20T16:15:26Z</time>
</trkpt>
<trkpt lat="49.23539227" lon="19.82420516">
<ele>1265</ele>
<time>2014-08-20T16:15:33Z</time>
</trkpt>
<trkpt lat="49.23539227" lon="19.82420516">
<ele>1265</ele>
<time>2014-08-20T16:15:40Z</time>
</trkpt>
<trkpt lat="49.23538552" lon="19.82426705">
<ele>1265</ele>
<time>2014-08-20T16:15:46Z</time>
</trkpt>
<trkpt lat="49.23532795" lon="19.82441255">
<ele>1272</ele>
<time>2014-08-20T16:15:52Z</time>
</trkpt>
<trkpt lat="49.23532795" lon="19.82441255">
<ele>1272</ele>
<time>2014-08-20T16:15:58Z</time>
</trkpt>
<trkpt lat="49.2352925" lon="19.82451264">
<ele>1277</ele>
<time>2014-08-20T16:16:04Z</time>
</trkpt>
<trkpt lat="49.2352925" lon="19.82451264">
<ele>1277</ele>
<time>2014-08-20T16:16:10Z</time>
</trkpt>
<trkpt lat="49.23527212" lon="19.82453254">
<ele>1278</ele>
<time>2014-08-20T16:16:16Z</time>
</trkpt>
<trkpt lat="49.23526024" lon="19.82457603">
<ele>1282</ele>
<time>2014-08-20T16:16:22Z</time>
</trkpt>
<trkpt lat="49.23525886" lon="19.82458703">
<ele>1283</ele>
<time>2014-08-20T16:16:28Z</time>
</trkpt>
<trkpt lat="49.23515755" lon="19.82476174">
<ele>1286</ele>
<time>2014-08-20T16:16:37Z</time>
</trkpt>
<trkpt lat="49.23515755" lon="19.82476174">
<ele>1286</ele>
<time>2014-08-20T16:16:43Z</time>
</trkpt>
<trkpt lat="49.23513796" lon="19.82477787">
<ele>1285</ele>
<time>2014-08-20T16:16:49Z</time>
</trkpt>
<trkpt lat="49.23511148" lon="19.82480392">
<ele>1284</ele>
<time>2014-08-20T16:16:55Z</time>
</trkpt>
<trkpt lat="49.23508848" lon="19.82485524">
<ele>1281</ele>
<time>2014-08-20T16:17:01Z</time>
</trkpt>
<trkpt lat="49.23509454" lon="19.82482377">
<ele>1277</ele>
<time>2014-08-20T16:17:07Z</time>
</trkpt>
<trkpt lat="49.23509847" lon="19.82483417">
<ele>1277</ele>
<time>2014-08-20T16:17:13Z</time>
</trkpt>
<trkpt lat="49.23509771" lon="19.82483376">
<ele>1277</ele>
<time>2014-08-20T16:17:19Z</time>
</trkpt>
<trkpt lat="49.23505786" lon="19.82490332">
<ele>1274</ele>
<time>2014-08-20T16:17:25Z</time>
</trkpt>
<trkpt lat="49.23504106" lon="19.82499714">
<ele>1275</ele>
<time>2014-08-20T16:17:32Z</time>
</trkpt>
<trkpt lat="49.23504106" lon="19.82499714">
<ele>1275</ele>
<time>2014-08-20T16:17:38Z</time>
</trkpt>
<trkpt lat="49.2350619" lon="19.82514384">
<ele>1275</ele>
<time>2014-08-20T16:17:44Z</time>
</trkpt>
<trkpt lat="49.2350619" lon="19.82514384">
<ele>1275</ele>
<time>2014-08-20T16:17:50Z</time>
</trkpt>
<trkpt lat="49.23508837" lon="19.825235">
<ele>1278</ele>
<time>2014-08-20T16:17:56Z</time>
</trkpt>
<trkpt lat="49.23508837" lon="19.825235">
<ele>1278</ele>
<time>2014-08-20T16:18:02Z</time>
</trkpt>
<trkpt lat="49.23509766" lon="19.82527237">
<ele>1280</ele>
<time>2014-08-20T16:18:08Z</time>
</trkpt>
<trkpt lat="49.23508302" lon="19.82538106">
<ele>1283</ele>
<time>2014-08-20T16:18:14Z</time>
</trkpt>
<trkpt lat="49.23507585" lon="19.82547205">
<ele>1286</ele>
<time>2014-08-20T16:18:20Z</time>
</trkpt>
<trkpt lat="49.23507585" lon="19.82547205">
<ele>1286</ele>
<time>2014-08-20T16:18:26Z</time>
</trkpt>
<trkpt lat="49.23505719" lon="19.82552893">
<ele>1287</ele>
<time>2014-08-20T16:18:34Z</time>
</trkpt>
<trkpt lat="49.23504022" lon="19.82555489">
<ele>1287</ele>
<time>2014-08-20T16:18:40Z</time>
</trkpt>
<trkpt lat="49.23503471" lon="19.82557009">
<ele>1288</ele>
<time>2014-08-20T16:18:46Z</time>
</trkpt>
<trkpt lat="49.23495876" lon="19.82570311">
<ele>1283</ele>
<time>2014-08-20T16:18:52Z</time>
</trkpt>
<trkpt lat="49.23495876" lon="19.82570311">
<ele>1283</ele>
<time>2014-08-20T16:18:58Z</time>
</trkpt>
<trkpt lat="49.23495303" lon="19.82570019">
<ele>1283</ele>
<time>2014-08-20T16:19:04Z</time>
</trkpt>
<trkpt lat="49.23495006" lon="19.82569889">
<ele>1283</ele>
<time>2014-08-20T16:19:10Z</time>
</trkpt>
<trkpt lat="49.23494956" lon="19.82569868">
<ele>1283</ele>
<time>2014-08-20T16:19:16Z</time>
</trkpt>
<trkpt lat="49.23494921" lon="19.82569848">
<ele>1283</ele>
<time>2014-08-20T16:19:22Z</time>
</trkpt>
<trkpt lat="49.23491996" lon="19.82572351">
<ele>1289</ele>
<time>2014-08-20T16:19:28Z</time>
</trkpt>
<trkpt lat="49.23480224" lon="19.82576863">
<ele>1289</ele>
<time>2014-08-20T16:19:36Z</time>
</trkpt>
<trkpt lat="49.23480224" lon="19.82576863">
<ele>1289</ele>
<time>2014-08-20T16:19:42Z</time>
</trkpt>
<trkpt lat="49.23478706" lon="19.82578013">
<ele>1286</ele>
<time>2014-08-20T16:19:48Z</time>
</trkpt>
<trkpt lat="49.23475975" lon="19.82583442">
<ele>1288</ele>
<time>2014-08-20T16:19:54Z</time>
</trkpt>
<trkpt lat="49.23474282" lon="19.82587792">
<ele>1291</ele>
<time>2014-08-20T16:20:00Z</time>
</trkpt>
<trkpt lat="49.2347166" lon="19.82586671">
<ele>1291</ele>
<time>2014-08-20T16:20:06Z</time>
</trkpt>
<trkpt lat="49.23470741" lon="19.82587641">
<ele>1292</ele>
<time>2014-08-20T16:20:12Z</time>
</trkpt>
<trkpt lat="49.23470214" lon="19.82596163">
<ele>1294</ele>
<time>2014-08-20T16:20:18Z</time>
</trkpt>
<trkpt lat="49.23470214" lon="19.82596163">
<ele>1294</ele>
<time>2014-08-20T16:20:24Z</time>
</trkpt>
<trkpt lat="49.23470327" lon="19.82600055">
<ele>1296</ele>
<time>2014-08-20T16:20:30Z</time>
</trkpt>
<trkpt lat="49.23471855" lon="19.8262658">
<ele>1299</ele>
<time>2014-08-20T16:20:39Z</time>
</trkpt>
<trkpt lat="49.23471855" lon="19.8262658">
<ele>1299</ele>
<time>2014-08-20T16:20:45Z</time>
</trkpt>
<trkpt lat="49.23471653" lon="19.82632191">
<ele>1301</ele>
<time>2014-08-20T16:20:51Z</time>
</trkpt>
<trkpt lat="49.23470348" lon="19.82638474">
<ele>1302</ele>
<time>2014-08-20T16:20:57Z</time>
</trkpt>
<trkpt lat="49.23470485" lon="19.8264037">
<ele>1301</ele>
<time>2014-08-20T16:21:03Z</time>
</trkpt>
<trkpt lat="49.2347008" lon="19.82646751">
<ele>1305</ele>
<time>2014-08-20T16:21:09Z</time>
</trkpt>
<trkpt lat="49.23471369" lon="19.82660055">
<ele>1311</ele>
<time>2014-08-20T16:21:15Z</time>
</trkpt>
<trkpt lat="49.23470582" lon="19.82668111">
<ele>1313</ele>
<time>2014-08-20T16:21:21Z</time>
</trkpt>
<trkpt lat="49.23471853" lon="19.82675766">
<ele>1313</ele>
<time>2014-08-20T16:21:27Z</time>
</trkpt>
<trkpt lat="49.23471853" lon="19.82675766">
<ele>1313</ele>
<time>2014-08-20T16:21:34Z</time>
</trkpt>
<trkpt lat="49.23472411" lon="19.82681812">
<ele>1315</ele>
<time>2014-08-20T16:21:40Z</time>
</trkpt>
<trkpt lat="49.23467441" lon="19.82685643">
<ele>1313</ele>
<time>2014-08-20T16:21:46Z</time>
</trkpt>
<trkpt lat="49.23467441" lon="19.82685643">
<ele>1313</ele>
<time>2014-08-20T16:21:52Z</time>
</trkpt>
<trkpt lat="49.23465066" lon="19.82686115">
<ele>1312</ele>
<time>2014-08-20T16:21:58Z</time>
</trkpt>
<trkpt lat="49.23464929" lon="19.82686098">
<ele>1313</ele>
<time>2014-08-20T16:22:04Z</time>
</trkpt>
<trkpt lat="49.23464886" lon="19.82686057">
<ele>1313</ele>
<time>2014-08-20T16:22:10Z</time>
</trkpt>
<trkpt lat="49.23465733" lon="19.82687963">
<ele>1312</ele>
<time>2014-08-20T16:22:16Z</time>
</trkpt>
<trkpt lat="49.23465291" lon="19.82690188">
<ele>1311</ele>
<time>2014-08-20T16:22:22Z</time>
</trkpt>
<trkpt lat="49.23464299" lon="19.82690984">
<ele>1311</ele>
<time>2014-08-20T16:22:28Z</time>
</trkpt>
<trkpt lat="49.23463363" lon="19.8269125">
<ele>1311</ele>
<time>2014-08-20T16:22:36Z</time>
</trkpt>
<trkpt lat="49.23462607" lon="19.82691365">
<ele>1311</ele>
<time>2014-08-20T16:22:42Z</time>
</trkpt>
<trkpt lat="49.23462786" lon="19.82691041">
<ele>1309</ele>
<time>2014-08-20T16:22:48Z</time>
</trkpt>
<trkpt lat="49.23463389" lon="19.8269051">
<ele>1308</ele>
<time>2014-08-20T16:22:54Z</time>
</trkpt>
<trkpt lat="49.23463409" lon="19.82690501">
<ele>1308</ele>
<time>2014-08-20T16:23:00Z</time>
</trkpt>
<trkpt lat="49.23463434" lon="19.82690548">
<ele>1308</ele>
<time>2014-08-20T16:23:06Z</time>
</trkpt>
<trkpt lat="49.23463431" lon="19.82690541">
<ele>1308</ele>
<time>2014-08-20T16:23:12Z</time>
</trkpt>
<trkpt lat="49.2346343" lon="19.82690535">
<ele>1308</ele>
<time>2014-08-20T16:23:18Z</time>
</trkpt>
<trkpt lat="49.23463436" lon="19.82690538">
<ele>1308</ele>
<time>2014-08-20T16:23:24Z</time>
</trkpt>
<trkpt lat="49.23463412" lon="19.8269046">
<ele>1310</ele>
<time>2014-08-20T16:23:30Z</time>
</trkpt>
<trkpt lat="49.23463795" lon="19.82694378">
<ele>1309</ele>
<time>2014-08-20T16:23:38Z</time>
</trkpt>
<trkpt lat="49.23462516" lon="19.82694234">
<ele>1310</ele>
<time>2014-08-20T16:23:44Z</time>
</trkpt>
<trkpt lat="49.23462501" lon="19.82694198">
<ele>1310</ele>
<time>2014-08-20T16:23:50Z</time>
</trkpt>
<trkpt lat="49.23463755" lon="19.82695662">
<ele>1309</ele>
<time>2014-08-20T16:23:56Z</time>
</trkpt>
<trkpt lat="49.23465769" lon="19.82693622">
<ele>1309</ele>
<time>2014-08-20T16:24:02Z</time>
</trkpt>
<trkpt lat="49.23467437" lon="19.82694716">
<ele>1307</ele>
<time>2014-08-20T16:24:08Z</time>
</trkpt>
<trkpt lat="49.23468387" lon="19.8269592">
<ele>1306</ele>
<time>2014-08-20T16:24:14Z</time>
</trkpt>
<trkpt lat="49.23468761" lon="19.82697824">
<ele>1305</ele>
<time>2014-08-20T16:24:20Z</time>
</trkpt>
<trkpt lat="49.23468602" lon="19.82697841">
<ele>1305</ele>
<time>2014-08-20T16:24:26Z</time>
</trkpt>
<trkpt lat="49.23468373" lon="19.8269557">
<ele>1303</ele>
<time>2014-08-20T16:24:33Z</time>
</trkpt>
<trkpt lat="49.23469127" lon="19.82692423">
<ele>1302</ele>
<time>2014-08-20T16:24:40Z</time>
</trkpt>
<trkpt lat="49.23468611" lon="19.82693779">
<ele>1299</ele>
<time>2014-08-20T16:24:46Z</time>
</trkpt>
<trkpt lat="49.23468612" lon="19.82693914">
<ele>1300</ele>
<time>2014-08-20T16:24:52Z</time>
</trkpt>
<trkpt lat="49.23468691" lon="19.8269496">
<ele>1301</ele>
<time>2014-08-20T16:24:58Z</time>
</trkpt>
<trkpt lat="49.23470141" lon="19.82693265">
<ele>1303</ele>
<time>2014-08-20T16:25:04Z</time>
</trkpt>
<trkpt lat="49.23471071" lon="19.8269554">
<ele>1304</ele>
<time>2014-08-20T16:25:10Z</time>
</trkpt>
<trkpt lat="49.23471734" lon="19.82698797">
<ele>1310</ele>
<time>2014-08-20T16:25:16Z</time>
</trkpt>
<trkpt lat="49.23474844" lon="19.8270254">
<ele>1312</ele>
<time>2014-08-20T16:25:22Z</time>
</trkpt>
<trkpt lat="49.23474927" lon="19.82704419">
<ele>1313</ele>
<time>2014-08-20T16:25:28Z</time>
</trkpt>
<trkpt lat="49.23476736" lon="19.82707487">
<ele>1314</ele>
<time>2014-08-20T16:25:37Z</time>
</trkpt>
<trkpt lat="49.23477588" lon="19.82708689">
<ele>1315</ele>
<time>2014-08-20T16:25:43Z</time>
</trkpt>
<trkpt lat="49.23477808" lon="19.82709803">
<ele>1315</ele>
<time>2014-08-20T16:25:49Z</time>
</trkpt>
<trkpt lat="49.23477876" lon="19.82710213">
<ele>1315</ele>
<time>2014-08-20T16:25:55Z</time>
</trkpt>
<trkpt lat="49.23477909" lon="19.82710289">
<ele>1315</ele>
<time>2014-08-20T16:26:01Z</time>
</trkpt>
<trkpt lat="49.23478034" lon="19.82713233">
<ele>1318</ele>
<time>2014-08-20T16:26:07Z</time>
</trkpt>
<trkpt lat="49.23478832" lon="19.8271517">
<ele>1319</ele>
<time>2014-08-20T16:26:13Z</time>
</trkpt>
<trkpt lat="49.23478771" lon="19.82717242">
<ele>1319</ele>
<time>2014-08-20T16:26:19Z</time>
</trkpt>
<trkpt lat="49.23478805" lon="19.82717577">
<ele>1320</ele>
<time>2014-08-20T16:26:25Z</time>
</trkpt>
<trkpt lat="49.23478944" lon="19.82718087">
<ele>1321</ele>
<time>2014-08-20T16:26:31Z</time>
</trkpt>
<trkpt lat="49.23479455" lon="19.82719206">
<ele>1322</ele>
<time>2014-08-20T16:26:38Z</time>
</trkpt>
<trkpt lat="49.23479652" lon="19.82719531">
<ele>1322</ele>
<time>2014-08-20T16:26:44Z</time>
</trkpt>
<trkpt lat="49.23479718" lon="19.8271968">
<ele>1322</ele>
<time>2014-08-20T16:26:50Z</time>
</trkpt>
<trkpt lat="49.23479488" lon="19.82726983">
<ele>1324</ele>
<time>2014-08-20T16:26:56Z</time>
</trkpt>
<trkpt lat="49.23482714" lon="19.82732852">
<ele>1327</ele>
<time>2014-08-20T16:27:02Z</time>
</trkpt>
<trkpt lat="49.23482714" lon="19.82732852">
<ele>1327</ele>
<time>2014-08-20T16:27:08Z</time>
</trkpt>
<trkpt lat="49.23483155" lon="19.82733422">
<ele>1327</ele>
<time>2014-08-20T16:27:14Z</time>
</trkpt>
<trkpt lat="49.23486308" lon="19.82743235">
<ele>1327</ele>
<time>2014-08-20T16:27:20Z</time>
</trkpt>
<trkpt lat="49.23486308" lon="19.82743235">
<ele>1327</ele>
<time>2014-08-20T16:27:26Z</time>
</trkpt>
<trkpt lat="49.23486786" lon="19.82744671">
<ele>1327</ele>
<time>2014-08-20T16:27:33Z</time>
</trkpt>
<trkpt lat="49.23488467" lon="19.82748193">
<ele>1329</ele>
<time>2014-08-20T16:27:40Z</time>
</trkpt>
<trkpt lat="49.23489831" lon="19.82754465">
<ele>1331</ele>
<time>2014-08-20T16:27:46Z</time>
</trkpt>
<trkpt lat="49.23488737" lon="19.82764561">
<ele>1335</ele>
<time>2014-08-20T16:27:52Z</time>
</trkpt>
<trkpt lat="49.23488803" lon="19.82773407">
<ele>1338</ele>
<time>2014-08-20T16:27:58Z</time>
</trkpt>
<trkpt lat="49.23488803" lon="19.82773407">
<ele>1338</ele>
<time>2014-08-20T16:28:04Z</time>
</trkpt>
<trkpt lat="49.23494184" lon="19.82794476">
<ele>1350</ele>
<time>2014-08-20T16:28:10Z</time>
</trkpt>
<trkpt lat="49.23494184" lon="19.82794476">
<ele>1350</ele>
<time>2014-08-20T16:28:16Z</time>
</trkpt>
<trkpt lat="49.23497234" lon="19.82797973">
<ele>1351</ele>
<time>2014-08-20T16:28:22Z</time>
</trkpt>
<trkpt lat="49.23498582" lon="19.82801114">
<ele>1350</ele>
<time>2014-08-20T16:28:28Z</time>
</trkpt>
<trkpt lat="49.23499825" lon="19.82803797">
<ele>1351</ele>
<time>2014-08-20T16:28:36Z</time>
</trkpt>
<trkpt lat="49.23501917" lon="19.82808597">
<ele>1353</ele>
<time>2014-08-20T16:28:42Z</time>
</trkpt>
<trkpt lat="49.23501969" lon="19.82809204">
<ele>1353</ele>
<time>2014-08-20T16:28:48Z</time>
</trkpt>
<trkpt lat="49.23504246" lon="19.82818382">
<ele>1351</ele>
<time>2014-08-20T16:28:54Z</time>
</trkpt>
<trkpt lat="49.23504246" lon="19.82818382">
<ele>1351</ele>
<time>2014-08-20T16:29:00Z</time>
</trkpt>
<trkpt lat="49.23504999" lon="19.82824324">
<ele>1349</ele>
<time>2014-08-20T16:29:06Z</time>
</trkpt>
<trkpt lat="49.23505331" lon="19.82825352">
<ele>1351</ele>
<time>2014-08-20T16:29:12Z</time>
</trkpt>
<trkpt lat="49.23505566" lon="19.82825572">
<ele>1351</ele>
<time>2014-08-20T16:29:18Z</time>
</trkpt>
<trkpt lat="49.23506374" lon="19.82827171">
<ele>1351</ele>
<time>2014-08-20T16:29:24Z</time>
</trkpt>
<trkpt lat="49.23507851" lon="19.82832718">
<ele>1354</ele>
<time>2014-08-20T16:29:30Z</time>
</trkpt>
<trkpt lat="49.23508165" lon="19.82833159">
<ele>1354</ele>
<time>2014-08-20T16:29:38Z</time>
</trkpt>
<trkpt lat="49.23511097" lon="19.82845743">
<ele>1355</ele>
<time>2014-08-20T16:29:44Z</time>
</trkpt>
<trkpt lat="49.23512503" lon="19.82854473">
<ele>1355</ele>
<time>2014-08-20T16:29:50Z</time>
</trkpt>
<trkpt lat="49.23512503" lon="19.82854473">
<ele>1355</ele>
<time>2014-08-20T16:29:56Z</time>
</trkpt>
<trkpt lat="49.23513347" lon="19.82855601">
<ele>1356</ele>
<time>2014-08-20T16:30:02Z</time>
</trkpt>
<trkpt lat="49.23516117" lon="19.8286952">
<ele>1365</ele>
<time>2014-08-20T16:30:08Z</time>
</trkpt>
<trkpt lat="49.23516117" lon="19.8286952">
<ele>1365</ele>
<time>2014-08-20T16:30:14Z</time>
</trkpt>
<trkpt lat="49.23515641" lon="19.82874706">
<ele>1361</ele>
<time>2014-08-20T16:30:20Z</time>
</trkpt>
<trkpt lat="49.23516814" lon="19.82878316">
<ele>1362</ele>
<time>2014-08-20T16:30:26Z</time>
</trkpt>
<trkpt lat="49.23516668" lon="19.8288136">
<ele>1363</ele>
<time>2014-08-20T16:30:33Z</time>
</trkpt>
<trkpt lat="49.2351761" lon="19.82882427">
<ele>1366</ele>
<time>2014-08-20T16:30:40Z</time>
</trkpt>
<trkpt lat="49.23514753" lon="19.82892641">
<ele>1369</ele>
<time>2014-08-20T16:30:46Z</time>
</trkpt>
<trkpt lat="49.23514753" lon="19.82892641">
<ele>1369</ele>
<time>2014-08-20T16:30:52Z</time>
</trkpt>
<trkpt lat="49.23514882" lon="19.8289658">
<ele>1369</ele>
<time>2014-08-20T16:30:58Z</time>
</trkpt>
<trkpt lat="49.23513941" lon="19.82905931">
<ele>1368</ele>
<time>2014-08-20T16:31:04Z</time>
</trkpt>
<trkpt lat="49.23513941" lon="19.82905931">
<ele>1368</ele>
<time>2014-08-20T16:31:10Z</time>
</trkpt>
<trkpt lat="49.2351398" lon="19.82905892">
<ele>1369</ele>
<time>2014-08-20T16:31:16Z</time>
</trkpt>
<trkpt lat="49.2351399" lon="19.82906248">
<ele>1369</ele>
<time>2014-08-20T16:31:22Z</time>
</trkpt>
<trkpt lat="49.23513984" lon="19.82906288">
<ele>1369</ele>
<time>2014-08-20T16:31:28Z</time>
</trkpt>
<trkpt lat="49.23513992" lon="19.82906309">
<ele>1369</ele>
<time>2014-08-20T16:31:36Z</time>
</trkpt>
<trkpt lat="49.23513889" lon="19.82905066">
<ele>1368</ele>
<time>2014-08-20T16:31:42Z</time>
</trkpt>
<trkpt lat="49.23513735" lon="19.82905277">
<ele>1369</ele>
<time>2014-08-20T16:31:48Z</time>
</trkpt>
<trkpt lat="49.23513867" lon="19.82906267">
<ele>1368</ele>
<time>2014-08-20T16:31:54Z</time>
</trkpt>
<trkpt lat="49.2351417" lon="19.8290754">
<ele>1368</ele>
<time>2014-08-20T16:32:00Z</time>
</trkpt>
<trkpt lat="49.23514159" lon="19.82907549">
<ele>1368</ele>
<time>2014-08-20T16:32:06Z</time>
</trkpt>
<trkpt lat="49.2351416" lon="19.8290761">
<ele>1368</ele>
<time>2014-08-20T16:32:12Z</time>
</trkpt>
<trkpt lat="49.23514116" lon="19.82907643">
<ele>1368</ele>
<time>2014-08-20T16:32:18Z</time>
</trkpt>
<trkpt lat="49.2351408" lon="19.82907654">
<ele>1368</ele>
<time>2014-08-20T16:32:24Z</time>
</trkpt>
<trkpt lat="49.2351407" lon="19.8290766">
<ele>1368</ele>
<time>2014-08-20T16:32:30Z</time>
</trkpt>
<trkpt lat="49.23514042" lon="19.82907643">
<ele>1368</ele>
<time>2014-08-20T16:32:39Z</time>
</trkpt>
<trkpt lat="49.23514031" lon="19.82907634">
<ele>1368</ele>
<time>2014-08-20T16:32:45Z</time>
</trkpt>
<trkpt lat="49.23514272" lon="19.82907105">
<ele>1370</ele>
<time>2014-08-20T16:32:51Z</time>
</trkpt>
<trkpt lat="49.23515351" lon="19.82904679">
<ele>1372</ele>
<time>2014-08-20T16:32:57Z</time>
</trkpt>
<trkpt lat="49.23514979" lon="19.82903668">
<ele>1372</ele>
<time>2014-08-20T16:33:03Z</time>
</trkpt>
<trkpt lat="49.23514913" lon="19.82903684">
<ele>1374</ele>
<time>2014-08-20T16:33:09Z</time>
</trkpt>
<trkpt lat="49.23515025" lon="19.8290376">
<ele>1374</ele>
<time>2014-08-20T16:33:15Z</time>
</trkpt>
<trkpt lat="49.23516597" lon="19.82906883">
<ele>1379</ele>
<time>2014-08-20T16:33:21Z</time>
</trkpt>
<trkpt lat="49.23516799" lon="19.82911744">
<ele>1378</ele>
<time>2014-08-20T16:33:27Z</time>
</trkpt>
<trkpt lat="49.23515673" lon="19.82913832">
<ele>1378</ele>
<time>2014-08-20T16:33:34Z</time>
</trkpt>
<trkpt lat="49.2351513" lon="19.82916798">
<ele>1378</ele>
<time>2014-08-20T16:33:40Z</time>
</trkpt>
<trkpt lat="49.2351512" lon="19.82916995">
<ele>1378</ele>
<time>2014-08-20T16:33:46Z</time>
</trkpt>
<trkpt lat="49.23514998" lon="19.82917135">
<ele>1378</ele>
<time>2014-08-20T16:33:52Z</time>
</trkpt>
<trkpt lat="49.23514994" lon="19.82917169">
<ele>1378</ele>
<time>2014-08-20T16:33:58Z</time>
</trkpt>
<trkpt lat="49.2350919" lon="19.82916517">
<ele>1377</ele>
<time>2014-08-20T16:34:04Z</time>
</trkpt>
<trkpt lat="49.2350919" lon="19.82916517">
<ele>1377</ele>
<time>2014-08-20T16:34:10Z</time>
</trkpt>
<trkpt lat="49.23505197" lon="19.82923054">
<ele>1378</ele>
<time>2014-08-20T16:34:16Z</time>
</trkpt>
<trkpt lat="49.23505197" lon="19.82923054">
<ele>1378</ele>
<time>2014-08-20T16:34:22Z</time>
</trkpt>
<trkpt lat="49.23505355" lon="19.82923948">
<ele>1376</ele>
<time>2014-08-20T16:34:28Z</time>
</trkpt>
<trkpt lat="49.23491717" lon="19.8292507">
<ele>1377</ele>
<time>2014-08-20T16:34:36Z</time>
</trkpt>
<trkpt lat="49.23491717" lon="19.8292507">
<ele>1377</ele>
<time>2014-08-20T16:34:42Z</time>
</trkpt>
<trkpt lat="49.23485314" lon="19.82928353">
<ele>1379</ele>
<time>2014-08-20T16:34:48Z</time>
</trkpt>
<trkpt lat="49.23485314" lon="19.82928353">
<ele>1379</ele>
<time>2014-08-20T16:34:54Z</time>
</trkpt>
<trkpt lat="49.23484817" lon="19.829286">
<ele>1378</ele>
<time>2014-08-20T16:35:00Z</time>
</trkpt>
<trkpt lat="49.2348472" lon="19.82929576">
<ele>1377</ele>
<time>2014-08-20T16:35:06Z</time>
</trkpt>
<trkpt lat="49.23483875" lon="19.82928536">
<ele>1376</ele>
<time>2014-08-20T16:35:12Z</time>
</trkpt>
<trkpt lat="49.23480785" lon="19.82931327">
<ele>1372</ele>
<time>2014-08-20T16:35:18Z</time>
</trkpt>
<trkpt lat="49.23479378" lon="19.82933548">
<ele>1376</ele>
<time>2014-08-20T16:35:24Z</time>
</trkpt>
<trkpt lat="49.23478641" lon="19.82936552">
<ele>1378</ele>
<time>2014-08-20T16:35:30Z</time>
</trkpt>
<trkpt lat="49.23472976" lon="19.82942719">
<ele>1370</ele>
<time>2014-08-20T16:35:38Z</time>
</trkpt>
<trkpt lat="49.23472976" lon="19.82942719">
<ele>1370</ele>
<time>2014-08-20T16:35:44Z</time>
</trkpt>
<trkpt lat="49.23472658" lon="19.82942634">
<ele>1369</ele>
<time>2014-08-20T16:35:50Z</time>
</trkpt>
<trkpt lat="49.23471901" lon="19.82944452">
<ele>1373</ele>
<time>2014-08-20T16:35:56Z</time>
</trkpt>
<trkpt lat="49.23470899" lon="19.82944754">
<ele>1374</ele>
<time>2014-08-20T16:36:02Z</time>
</trkpt>
<trkpt lat="49.23463986" lon="19.82947039">
<ele>1379</ele>
<time>2014-08-20T16:36:08Z</time>
</trkpt>
<trkpt lat="49.23463986" lon="19.82947039">
<ele>1379</ele>
<time>2014-08-20T16:36:14Z</time>
</trkpt>
<trkpt lat="49.2346273" lon="19.82950992">
<ele>1385</ele>
<time>2014-08-20T16:36:20Z</time>
</trkpt>
<trkpt lat="49.23461816" lon="19.82951718">
<ele>1386</ele>
<time>2014-08-20T16:36:26Z</time>
</trkpt>
<trkpt lat="49.23458305" lon="19.82949126">
<ele>1384</ele>
<time>2014-08-20T16:36:34Z</time>
</trkpt>
<trkpt lat="49.23450217" lon="19.82952147">
<ele>1386</ele>
<time>2014-08-20T16:36:40Z</time>
</trkpt>
<trkpt lat="49.23450217" lon="19.82952147">
<ele>1386</ele>
<time>2014-08-20T16:36:46Z</time>
</trkpt>
<trkpt lat="49.23451133" lon="19.829547">
<ele>1384</ele>
<time>2014-08-20T16:36:52Z</time>
</trkpt>
<trkpt lat="49.23453783" lon="19.82957464">
<ele>1389</ele>
<time>2014-08-20T16:36:58Z</time>
</trkpt>
<trkpt lat="49.23455101" lon="19.82959153">
<ele>1390</ele>
<time>2014-08-20T16:37:04Z</time>
</trkpt>
<trkpt lat="49.23457031" lon="19.8296174">
<ele>1392</ele>
<time>2014-08-20T16:37:10Z</time>
</trkpt>
<trkpt lat="49.23457751" lon="19.82965255">
<ele>1394</ele>
<time>2014-08-20T16:37:16Z</time>
</trkpt>
<trkpt lat="49.23457561" lon="19.82965431">
<ele>1394</ele>
<time>2014-08-20T16:37:22Z</time>
</trkpt>
<trkpt lat="49.23457876" lon="19.82970073">
<ele>1396</ele>
<time>2014-08-20T16:37:28Z</time>
</trkpt>
<trkpt lat="49.23457689" lon="19.82971472">
<ele>1399</ele>
<time>2014-08-20T16:37:36Z</time>
</trkpt>
<trkpt lat="49.23457343" lon="19.82970217">
<ele>1401</ele>
<time>2014-08-20T16:37:42Z</time>
</trkpt>
<trkpt lat="49.23456942" lon="19.82969767">
<ele>1403</ele>
<time>2014-08-20T16:37:48Z</time>
</trkpt>
<trkpt lat="49.2345824" lon="19.82979963">
<ele>1409</ele>
<time>2014-08-20T16:37:54Z</time>
</trkpt>
<trkpt lat="49.23461731" lon="19.82989371">
<ele>1411</ele>
<time>2014-08-20T16:38:00Z</time>
</trkpt>
<trkpt lat="49.23461731" lon="19.82989371">
<ele>1411</ele>
<time>2014-08-20T16:38:06Z</time>
</trkpt>
<trkpt lat="49.23461911" lon="19.82988457">
<ele>1417</ele>
<time>2014-08-20T16:38:12Z</time>
</trkpt>
<trkpt lat="49.23462132" lon="19.82987169">
<ele>1417</ele>
<time>2014-08-20T16:38:18Z</time>
</trkpt>
<trkpt lat="49.23460426" lon="19.830006">
<ele>1416</ele>
<time>2014-08-20T16:38:24Z</time>
</trkpt>
<trkpt lat="49.23460426" lon="19.830006">
<ele>1416</ele>
<time>2014-08-20T16:38:30Z</time>
</trkpt>
<trkpt lat="49.23459994" lon="19.83002666">
<ele>1416</ele>
<time>2014-08-20T16:38:38Z</time>
</trkpt>
<trkpt lat="49.2345365" lon="19.83000076">
<ele>1423</ele>
<time>2014-08-20T16:38:44Z</time>
</trkpt>
<trkpt lat="49.2345365" lon="19.83000076">
<ele>1423</ele>
<time>2014-08-20T16:38:50Z</time>
</trkpt>
<trkpt lat="49.23454396" lon="19.8300606">
<ele>1425</ele>
<time>2014-08-20T16:38:56Z</time>
</trkpt>
<trkpt lat="49.23454283" lon="19.83009539">
<ele>1425</ele>
<time>2014-08-20T16:39:02Z</time>
</trkpt>
<trkpt lat="49.2345161" lon="19.83012104">
<ele>1426</ele>
<time>2014-08-20T16:39:08Z</time>
</trkpt>
<trkpt lat="49.23450503" lon="19.83013394">
<ele>1428</ele>
<time>2014-08-20T16:39:14Z</time>
</trkpt>
<trkpt lat="49.23446081" lon="19.8302276">
<ele>1429</ele>
<time>2014-08-20T16:39:20Z</time>
</trkpt>
<trkpt lat="49.23446081" lon="19.8302276">
<ele>1429</ele>
<time>2014-08-20T16:39:26Z</time>
</trkpt>
<trkpt lat="49.23445683" lon="19.83023455">
<ele>1429</ele>
<time>2014-08-20T16:39:34Z</time>
</trkpt>
<trkpt lat="49.23446293" lon="19.83026669">
<ele>1429</ele>
<time>2014-08-20T16:39:40Z</time>
</trkpt>
<trkpt lat="49.23445967" lon="19.83028306">
<ele>1429</ele>
<time>2014-08-20T16:39:46Z</time>
</trkpt>
<trkpt lat="49.23443903" lon="19.83035916">
<ele>1428</ele>
<time>2014-08-20T16:39:52Z</time>
</trkpt>
<trkpt lat="49.23443903" lon="19.83035916">
<ele>1428</ele>
<time>2014-08-20T16:39:58Z</time>
</trkpt>
<trkpt lat="49.23440696" lon="19.83037373">
<ele>1428</ele>
<time>2014-08-20T16:40:04Z</time>
</trkpt>
<trkpt lat="49.23442376" lon="19.83034051">
<ele>1429</ele>
<time>2014-08-20T16:40:10Z</time>
</trkpt>
<trkpt lat="49.23442597" lon="19.83034337">
<ele>1438</ele>
<time>2014-08-20T16:40:16Z</time>
</trkpt>
<trkpt lat="49.23442208" lon="19.83035125">
<ele>1442</ele>
<time>2014-08-20T16:40:22Z</time>
</trkpt>
<trkpt lat="49.23441346" lon="19.83035998">
<ele>1442</ele>
<time>2014-08-20T16:40:28Z</time>
</trkpt>
<trkpt lat="49.2344056" lon="19.83042017">
<ele>1442</ele>
<time>2014-08-20T16:40:35Z</time>
</trkpt>
<trkpt lat="49.23440005" lon="19.83043375">
<ele>1442</ele>
<time>2014-08-20T16:40:41Z</time>
</trkpt>
<trkpt lat="49.23429798" lon="19.83051396">
<ele>1431</ele>
<time>2014-08-20T16:40:48Z</time>
</trkpt>
<trkpt lat="49.23425164" lon="19.83064485">
<ele>1434</ele>
<time>2014-08-20T16:40:54Z</time>
</trkpt>
<trkpt lat="49.23425164" lon="19.83064485">
<ele>1434</ele>
<time>2014-08-20T16:41:00Z</time>
</trkpt>
<trkpt lat="49.23423919" lon="19.83062388">
<ele>1441</ele>
<time>2014-08-20T16:41:06Z</time>
</trkpt>
<trkpt lat="49.23420577" lon="19.83074872">
<ele>1440</ele>
<time>2014-08-20T16:41:12Z</time>
</trkpt>
<trkpt lat="49.23417296" lon="19.83090411">
<ele>1443</ele>
<time>2014-08-20T16:41:18Z</time>
</trkpt>
<trkpt lat="49.23417296" lon="19.83090411">
<ele>1443</ele>
<time>2014-08-20T16:41:24Z</time>
</trkpt>
<trkpt lat="49.23412283" lon="19.83101148">
<ele>1440</ele>
<time>2014-08-20T16:41:30Z</time>
</trkpt>
<trkpt lat="49.23407101" lon="19.83107987">
<ele>1440</ele>
<time>2014-08-20T16:41:38Z</time>
</trkpt>
<trkpt lat="49.23407101" lon="19.83107987">
<ele>1440</ele>
<time>2014-08-20T16:41:44Z</time>
</trkpt>
<trkpt lat="49.23406221" lon="19.83106083">
<ele>1440</ele>
<time>2014-08-20T16:41:50Z</time>
</trkpt>
<trkpt lat="49.23405523" lon="19.83107609">
<ele>1439</ele>
<time>2014-08-20T16:41:56Z</time>
</trkpt>
<trkpt lat="49.23405967" lon="19.83114395">
<ele>1446</ele>
<time>2014-08-20T16:42:02Z</time>
</trkpt>
<trkpt lat="49.23399048" lon="19.83125925">
<ele>1444</ele>
<time>2014-08-20T16:42:08Z</time>
</trkpt>
<trkpt lat="49.23399048" lon="19.83125925">
<ele>1444</ele>
<time>2014-08-20T16:42:14Z</time>
</trkpt>
<trkpt lat="49.23398132" lon="19.83131321">
<ele>1440</ele>
<time>2014-08-20T16:42:20Z</time>
</trkpt>
<trkpt lat="49.23395036" lon="19.83143123">
<ele>1442</ele>
<time>2014-08-20T16:42:26Z</time>
</trkpt>
<trkpt lat="49.23390225" lon="19.83144529">
<ele>1441</ele>
<time>2014-08-20T16:42:34Z</time>
</trkpt>
<trkpt lat="49.23390225" lon="19.83144529">
<ele>1441</ele>
<time>2014-08-20T16:42:40Z</time>
</trkpt>
<trkpt lat="49.23390215" lon="19.83144032">
<ele>1442</ele>
<time>2014-08-20T16:42:46Z</time>
</trkpt>
<trkpt lat="49.23389577" lon="19.83149109">
<ele>1443</ele>
<time>2014-08-20T16:42:52Z</time>
</trkpt>
<trkpt lat="49.23390042" lon="19.83150032">
<ele>1443</ele>
<time>2014-08-20T16:42:58Z</time>
</trkpt>
<trkpt lat="49.23386097" lon="19.83153075">
<ele>1446</ele>
<time>2014-08-20T16:43:04Z</time>
</trkpt>
<trkpt lat="49.23384829" lon="19.8315912">
<ele>1445</ele>
<time>2014-08-20T16:43:10Z</time>
</trkpt>
<trkpt lat="49.23383415" lon="19.83171502">
<ele>1442</ele>
<time>2014-08-20T16:43:16Z</time>
</trkpt>
<trkpt lat="49.23383415" lon="19.83171502">
<ele>1442</ele>
<time>2014-08-20T16:43:22Z</time>
</trkpt>
<trkpt lat="49.23383535" lon="19.83178264">
<ele>1440</ele>
<time>2014-08-20T16:43:28Z</time>
</trkpt>
<trkpt lat="49.23381602" lon="19.83183875">
<ele>1442</ele>
<time>2014-08-20T16:43:36Z</time>
</trkpt>
<trkpt lat="49.23380916" lon="19.83185411">
<ele>1442</ele>
<time>2014-08-20T16:43:42Z</time>
</trkpt>
<trkpt lat="49.23380754" lon="19.8318789">
<ele>1442</ele>
<time>2014-08-20T16:43:48Z</time>
</trkpt>
<trkpt lat="49.23380652" lon="19.83190557">
<ele>1442</ele>
<time>2014-08-20T16:43:54Z</time>
</trkpt>
<trkpt lat="49.23381508" lon="19.83192313">
<ele>1441</ele>
<time>2014-08-20T16:44:00Z</time>
</trkpt>
<trkpt lat="49.23381111" lon="19.83193458">
<ele>1442</ele>
<time>2014-08-20T16:44:06Z</time>
</trkpt>
<trkpt lat="49.23373843" lon="19.83210388">
<ele>1440</ele>
<time>2014-08-20T16:44:12Z</time>
</trkpt>
<trkpt lat="49.23373843" lon="19.83210388">
<ele>1440</ele>
<time>2014-08-20T16:44:18Z</time>
</trkpt>
<trkpt lat="49.2336889" lon="19.83219393">
<ele>1444</ele>
<time>2014-08-20T16:44:24Z</time>
</trkpt>
<trkpt lat="49.2336889" lon="19.83219393">
<ele>1444</ele>
<time>2014-08-20T16:44:30Z</time>
</trkpt>
<trkpt lat="49.23361908" lon="19.83232078">
<ele>1443</ele>
<time>2014-08-20T16:44:39Z</time>
</trkpt>
<trkpt lat="49.23361908" lon="19.83232078">
<ele>1443</ele>
<time>2014-08-20T16:44:45Z</time>
</trkpt>
<trkpt lat="49.2334784" lon="19.83242369">
<ele>1450</ele>
<time>2014-08-20T16:44:51Z</time>
</trkpt>
<trkpt lat="49.2334784" lon="19.83242369">
<ele>1450</ele>
<time>2014-08-20T16:44:57Z</time>
</trkpt>
<trkpt lat="49.23345592" lon="19.83262535">
<ele>1448</ele>
<time>2014-08-20T16:45:03Z</time>
</trkpt>
<trkpt lat="49.23341329" lon="19.8326822">
<ele>1452</ele>
<time>2014-08-20T16:45:09Z</time>
</trkpt>
<trkpt lat="49.23341329" lon="19.8326822">
<ele>1452</ele>
<time>2014-08-20T16:45:15Z</time>
</trkpt>
<trkpt lat="49.23338118" lon="19.8327224">
<ele>1456</ele>
<time>2014-08-20T16:45:21Z</time>
</trkpt>
<trkpt lat="49.23335878" lon="19.8327583">
<ele>1459</ele>
<time>2014-08-20T16:45:27Z</time>
</trkpt>
<trkpt lat="49.23332541" lon="19.83290109">
<ele>1461</ele>
<time>2014-08-20T16:45:34Z</time>
</trkpt>
<trkpt lat="49.23332541" lon="19.83290109">
<ele>1461</ele>
<time>2014-08-20T16:45:40Z</time>
</trkpt>
<trkpt lat="49.23324143" lon="19.83303499">
<ele>1463</ele>
<time>2014-08-20T16:45:46Z</time>
</trkpt>
<trkpt lat="49.23319385" lon="19.83302484">
<ele>1463</ele>
<time>2014-08-20T16:45:52Z</time>
</trkpt>
<trkpt lat="49.23319385" lon="19.83302484">
<ele>1463</ele>
<time>2014-08-20T16:45:58Z</time>
</trkpt>
<trkpt lat="49.23310297" lon="19.83316183">
<ele>1466</ele>
<time>2014-08-20T16:46:04Z</time>
</trkpt>
<trkpt lat="49.23310297" lon="19.83316183">
<ele>1466</ele>
<time>2014-08-20T16:46:10Z</time>
</trkpt>
<trkpt lat="49.23309823" lon="19.83317408">
<ele>1467</ele>
<time>2014-08-20T16:46:16Z</time>
</trkpt>
<trkpt lat="49.23305031" lon="19.83334555">
<ele>1468</ele>
<time>2014-08-20T16:46:22Z</time>
</trkpt>
<trkpt lat="49.23307766" lon="19.83343221">
<ele>1468</ele>
<time>2014-08-20T16:46:28Z</time>
</trkpt>
<trkpt lat="49.23306116" lon="19.83349911">
<ele>1466</ele>
<time>2014-08-20T16:46:35Z</time>
</trkpt>
<trkpt lat="49.23306116" lon="19.83349911">
<ele>1466</ele>
<time>2014-08-20T16:46:41Z</time>
</trkpt>
<trkpt lat="49.23304163" lon="19.83350445">
<ele>1466</ele>
<time>2014-08-20T16:46:47Z</time>
</trkpt>
<trkpt lat="49.23304111" lon="19.83350899">
<ele>1467</ele>
<time>2014-08-20T16:46:53Z</time>
</trkpt>
<trkpt lat="49.23303904" lon="19.83351581">
<ele>1467</ele>
<time>2014-08-20T16:46:59Z</time>
</trkpt>
<trkpt lat="49.23304426" lon="19.83351438">
<ele>1466</ele>
<time>2014-08-20T16:47:05Z</time>
</trkpt>
<trkpt lat="49.23302426" lon="19.833505">
<ele>1462</ele>
<time>2014-08-20T16:47:11Z</time>
</trkpt>
<trkpt lat="49.2330209" lon="19.83349248">
<ele>1462</ele>
<time>2014-08-20T16:47:17Z</time>
</trkpt>
<trkpt lat="49.23301867" lon="19.83347497">
<ele>1462</ele>
<time>2014-08-20T16:47:23Z</time>
</trkpt>
<trkpt lat="49.23301876" lon="19.83347461">
<ele>1462</ele>
<time>2014-08-20T16:47:29Z</time>
</trkpt>
<trkpt lat="49.23303019" lon="19.83368223">
<ele>1463</ele>
<time>2014-08-20T16:47:36Z</time>
</trkpt>
<trkpt lat="49.23302358" lon="19.83378524">
<ele>1468</ele>
<time>2014-08-20T16:47:42Z</time>
</trkpt>
<trkpt lat="49.23302358" lon="19.83378524">
<ele>1468</ele>
<time>2014-08-20T16:47:48Z</time>
</trkpt>
<trkpt lat="49.23305113" lon="19.833829">
<ele>1470</ele>
<time>2014-08-20T16:47:54Z</time>
</trkpt>
<trkpt lat="49.23296814" lon="19.83386814">
<ele>1476</ele>
<time>2014-08-20T16:48:00Z</time>
</trkpt>
<trkpt lat="49.23296814" lon="19.83386814">
<ele>1476</ele>
<time>2014-08-20T16:48:06Z</time>
</trkpt>
<trkpt lat="49.23294866" lon="19.83387653">
<ele>1476</ele>
<time>2014-08-20T16:48:12Z</time>
</trkpt>
<trkpt lat="49.23291674" lon="19.83396353">
<ele>1476</ele>
<time>2014-08-20T16:48:18Z</time>
</trkpt>
<trkpt lat="49.23291674" lon="19.83396353">
<ele>1476</ele>
<time>2014-08-20T16:48:24Z</time>
</trkpt>
<trkpt lat="49.23291906" lon="19.83397127">
<ele>1482</ele>
<time>2014-08-20T16:48:30Z</time>
</trkpt>
<trkpt lat="49.232837" lon="19.83404379">
<ele>1488</ele>
<time>2014-08-20T16:48:36Z</time>
</trkpt>
<trkpt lat="49.23277877" lon="19.83403691">
<ele>1488</ele>
<time>2014-08-20T16:48:42Z</time>
</trkpt>
<trkpt lat="49.23268759" lon="19.83415629">
<ele>1490</ele>
<time>2014-08-20T16:48:48Z</time>
</trkpt>
<trkpt lat="49.23271082" lon="19.8342611">
<ele>1490</ele>
<time>2014-08-20T16:48:54Z</time>
</trkpt>
<trkpt lat="49.23271082" lon="19.8342611">
<ele>1490</ele>
<time>2014-08-20T16:49:00Z</time>
</trkpt>
<trkpt lat="49.23272696" lon="19.83432407">
<ele>1490</ele>
<time>2014-08-20T16:49:06Z</time>
</trkpt>
<trkpt lat="49.23270913" lon="19.83444438">
<ele>1491</ele>
<time>2014-08-20T16:49:12Z</time>
</trkpt>
<trkpt lat="49.23269278" lon="19.83450963">
<ele>1493</ele>
<time>2014-08-20T16:49:18Z</time>
</trkpt>
<trkpt lat="49.23269278" lon="19.83450963">
<ele>1493</ele>
<time>2014-08-20T16:49:24Z</time>
</trkpt>
<trkpt lat="49.23269034" lon="19.83451782">
<ele>1495</ele>
<time>2014-08-20T16:49:30Z</time>
</trkpt>
<trkpt lat="49.23267309" lon="19.83454505">
<ele>1494</ele>
<time>2014-08-20T16:49:39Z</time>
</trkpt>
<trkpt lat="49.2325948" lon="19.83463083">
<ele>1495</ele>
<time>2014-08-20T16:49:45Z</time>
</trkpt>
<trkpt lat="49.23257156" lon="19.83470017">
<ele>1494</ele>
<time>2014-08-20T16:49:51Z</time>
</trkpt>
<trkpt lat="49.23257156" lon="19.83470017">
<ele>1494</ele>
<time>2014-08-20T16:49:58Z</time>
</trkpt>
<trkpt lat="49.23252386" lon="19.83478318">
<ele>1498</ele>
<time>2014-08-20T16:50:04Z</time>
</trkpt>
<trkpt lat="49.23252386" lon="19.83478318">
<ele>1498</ele>
<time>2014-08-20T16:50:10Z</time>
</trkpt>
<trkpt lat="49.23252929" lon="19.83484142">
<ele>1499</ele>
<time>2014-08-20T16:50:16Z</time>
</trkpt>
<trkpt lat="49.23251286" lon="19.83488254">
<ele>1497</ele>
<time>2014-08-20T16:50:22Z</time>
</trkpt>
<trkpt lat="49.23250715" lon="19.83488595">
<ele>1497</ele>
<time>2014-08-20T16:50:28Z</time>
</trkpt>
<trkpt lat="49.23249614" lon="19.83492843">
<ele>1500</ele>
<time>2014-08-20T16:50:36Z</time>
</trkpt>
<trkpt lat="49.23249014" lon="19.83496436">
<ele>1501</ele>
<time>2014-08-20T16:50:42Z</time>
</trkpt>
<trkpt lat="49.2324867" lon="19.83502766">
<ele>1502</ele>
<time>2014-08-20T16:50:48Z</time>
</trkpt>
<trkpt lat="49.23245117" lon="19.83506873">
<ele>1504</ele>
<time>2014-08-20T16:50:54Z</time>
</trkpt>
<trkpt lat="49.2324315" lon="19.83511266">
<ele>1504</ele>
<time>2014-08-20T16:51:00Z</time>
</trkpt>
<trkpt lat="49.23241765" lon="19.83516747">
<ele>1503</ele>
<time>2014-08-20T16:51:06Z</time>
</trkpt>
<trkpt lat="49.23242671" lon="19.83523429">
<ele>1503</ele>
<time>2014-08-20T16:51:12Z</time>
</trkpt>
<trkpt lat="49.23243048" lon="19.83536646">
<ele>1502</ele>
<time>2014-08-20T16:51:18Z</time>
</trkpt>
<trkpt lat="49.23241708" lon="19.83544393">
<ele>1501</ele>
<time>2014-08-20T16:51:24Z</time>
</trkpt>
<trkpt lat="49.23238894" lon="19.83553455">
<ele>1503</ele>
<time>2014-08-20T16:51:30Z</time>
</trkpt>
<trkpt lat="49.23238894" lon="19.83553455">
<ele>1503</ele>
<time>2014-08-20T16:51:38Z</time>
</trkpt>
<trkpt lat="49.2323574" lon="19.83571997">
<ele>1506</ele>
<time>2014-08-20T16:51:44Z</time>
</trkpt>
<trkpt lat="49.2323574" lon="19.83571997">
<ele>1506</ele>
<time>2014-08-20T16:51:50Z</time>
</trkpt>
<trkpt lat="49.23234151" lon="19.8357739">
<ele>1508</ele>
<time>2014-08-20T16:51:56Z</time>
</trkpt>
<trkpt lat="49.23233772" lon="19.8358396">
<ele>1507</ele>
<time>2014-08-20T16:52:02Z</time>
</trkpt>
<trkpt lat="49.23231089" lon="19.83596275">
<ele>1511</ele>
<time>2014-08-20T16:52:08Z</time>
</trkpt>
<trkpt lat="49.23231089" lon="19.83596275">
<ele>1511</ele>
<time>2014-08-20T16:52:14Z</time>
</trkpt>
<trkpt lat="49.2323069" lon="19.83610729">
<ele>1513</ele>
<time>2014-08-20T16:52:20Z</time>
</trkpt>
<trkpt lat="49.23229366" lon="19.83619254">
<ele>1514</ele>
<time>2014-08-20T16:52:26Z</time>
</trkpt>
<trkpt lat="49.23227075" lon="19.83629665">
<ele>1516</ele>
<time>2014-08-20T16:52:34Z</time>
</trkpt>
<trkpt lat="49.23226229" lon="19.83637929">
<ele>1518</ele>
<time>2014-08-20T16:52:41Z</time>
</trkpt>
<trkpt lat="49.23226229" lon="19.83637929">
<ele>1518</ele>
<time>2014-08-20T16:52:47Z</time>
</trkpt>
<trkpt lat="49.2322442" lon="19.83641473">
<ele>1519</ele>
<time>2014-08-20T16:52:53Z</time>
</trkpt>
<trkpt lat="49.23223018" lon="19.83641903">
<ele>1519</ele>
<time>2014-08-20T16:52:59Z</time>
</trkpt>
<trkpt lat="49.23219454" lon="19.83642495">
<ele>1519</ele>
<time>2014-08-20T16:53:05Z</time>
</trkpt>
<trkpt lat="49.23216994" lon="19.83642713">
<ele>1519</ele>
<time>2014-08-20T16:53:11Z</time>
</trkpt>
<trkpt lat="49.23217357" lon="19.83642079">
<ele>1518</ele>
<time>2014-08-20T16:53:17Z</time>
</trkpt>
<trkpt lat="49.23216863" lon="19.83642076">
<ele>1516</ele>
<time>2014-08-20T16:53:23Z</time>
</trkpt>
<trkpt lat="49.23217485" lon="19.83643318">
<ele>1517</ele>
<time>2014-08-20T16:53:29Z</time>
</trkpt>
<trkpt lat="49.23217725" lon="19.83643191">
<ele>1517</ele>
<time>2014-08-20T16:53:36Z</time>
</trkpt>
<trkpt lat="49.23218228" lon="19.83642573">
<ele>1516</ele>
<time>2014-08-20T16:53:42Z</time>
</trkpt>
<trkpt lat="49.23219214" lon="19.83641901">
<ele>1514</ele>
<time>2014-08-20T16:53:48Z</time>
</trkpt>
<trkpt lat="49.23220669" lon="19.83645034">
<ele>1511</ele>
<time>2014-08-20T16:53:54Z</time>
</trkpt>
<trkpt lat="49.23221647" lon="19.8364926">
<ele>1511</ele>
<time>2014-08-20T16:54:00Z</time>
</trkpt>
<trkpt lat="49.23220108" lon="19.83649646">
<ele>1511</ele>
<time>2014-08-20T16:54:06Z</time>
</trkpt>
<trkpt lat="49.23219647" lon="19.83650269">
<ele>1512</ele>
<time>2014-08-20T16:54:12Z</time>
</trkpt>
<trkpt lat="49.23219617" lon="19.83650547">
<ele>1511</ele>
<time>2014-08-20T16:54:18Z</time>
</trkpt>
<trkpt lat="49.23219427" lon="19.8365108">
<ele>1512</ele>
<time>2014-08-20T16:54:24Z</time>
</trkpt>
<trkpt lat="49.2321941" lon="19.83651104">
<ele>1512</ele>
<time>2014-08-20T16:54:30Z</time>
</trkpt>
<trkpt lat="49.23219393" lon="19.83651118">
<ele>1512</ele>
<time>2014-08-20T16:54:38Z</time>
</trkpt>
<trkpt lat="49.2321921" lon="19.83651636">
<ele>1512</ele>
<time>2014-08-20T16:54:44Z</time>
</trkpt>
<trkpt lat="49.23219149" lon="19.83652208">
<ele>1513</ele>
<time>2014-08-20T16:54:50Z</time>
</trkpt>
<trkpt lat="49.23221657" lon="19.83648719">
<ele>1513</ele>
<time>2014-08-20T16:54:56Z</time>
</trkpt>
<trkpt lat="49.23220239" lon="19.83649401">
<ele>1515</ele>
<time>2014-08-20T16:55:02Z</time>
</trkpt>
<trkpt lat="49.23219253" lon="19.83651016">
<ele>1511</ele>
<time>2014-08-20T16:55:08Z</time>
</trkpt>
<trkpt lat="49.23220034" lon="19.8365036">
<ele>1509</ele>
<time>2014-08-20T16:55:14Z</time>
</trkpt>
<trkpt lat="49.23221392" lon="19.83650128">
<ele>1509</ele>
<time>2014-08-20T16:55:20Z</time>
</trkpt>
<trkpt lat="49.23220004" lon="19.83648571">
<ele>1509</ele>
<time>2014-08-20T16:55:26Z</time>
</trkpt>
<trkpt lat="49.23219752" lon="19.83648519">
<ele>1509</ele>
<time>2014-08-20T16:55:34Z</time>
</trkpt>
<trkpt lat="49.23219599" lon="19.83648641">
<ele>1510</ele>
<time>2014-08-20T16:55:40Z</time>
</trkpt>
<trkpt lat="49.23215773" lon="19.83649184">
<ele>1506</ele>
<time>2014-08-20T16:55:46Z</time>
</trkpt>
<trkpt lat="49.2321551" lon="19.83648385">
<ele>1506</ele>
<time>2014-08-20T16:55:52Z</time>
</trkpt>
<trkpt lat="49.23215412" lon="19.83648349">
<ele>1506</ele>
<time>2014-08-20T16:55:58Z</time>
</trkpt>
<trkpt lat="49.23214749" lon="19.83648622">
<ele>1505</ele>
<time>2014-08-20T16:56:04Z</time>
</trkpt>
<trkpt lat="49.23215631" lon="19.83647301">
<ele>1504</ele>
<time>2014-08-20T16:56:10Z</time>
</trkpt>
<trkpt lat="49.23216259" lon="19.83648245">
<ele>1505</ele>
<time>2014-08-20T16:56:16Z</time>
</trkpt>
<trkpt lat="49.23217016" lon="19.83660984">
<ele>1503</ele>
<time>2014-08-20T16:56:22Z</time>
</trkpt>
<trkpt lat="49.2321604" lon="19.8367077">
<ele>1500</ele>
<time>2014-08-20T16:56:28Z</time>
</trkpt>
<trkpt lat="49.23212005" lon="19.83679656">
<ele>1501</ele>
<time>2014-08-20T16:56:36Z</time>
</trkpt>
<trkpt lat="49.23212005" lon="19.83679656">
<ele>1501</ele>
<time>2014-08-20T16:56:42Z</time>
</trkpt>
<trkpt lat="49.23209536" lon="19.83684549">
<ele>1500</ele>
<time>2014-08-20T16:56:48Z</time>
</trkpt>
<trkpt lat="49.23208163" lon="19.83696258">
<ele>1500</ele>
<time>2014-08-20T16:56:54Z</time>
</trkpt>
<trkpt lat="49.23208163" lon="19.83696258">
<ele>1500</ele>
<time>2014-08-20T16:57:00Z</time>
</trkpt>
<trkpt lat="49.2320582" lon="19.83698221">
<ele>1500</ele>
<time>2014-08-20T16:57:06Z</time>
</trkpt>
<trkpt lat="49.23203117" lon="19.83699317">
<ele>1501</ele>
<time>2014-08-20T16:57:12Z</time>
</trkpt>
<trkpt lat="49.23201951" lon="19.83700723">
<ele>1501</ele>
<time>2014-08-20T16:57:18Z</time>
</trkpt>
<trkpt lat="49.2320216" lon="19.83702906">
<ele>1500</ele>
<time>2014-08-20T16:57:24Z</time>
</trkpt>
<trkpt lat="49.23205765" lon="19.83716787">
<ele>1498</ele>
<time>2014-08-20T16:57:30Z</time>
</trkpt>
<trkpt lat="49.23204817" lon="19.83709833">
<ele>1495</ele>
<time>2014-08-20T16:57:38Z</time>
</trkpt>
<trkpt lat="49.23204817" lon="19.83709833">
<ele>1495</ele>
<time>2014-08-20T16:57:44Z</time>
</trkpt>
<trkpt lat="49.23203925" lon="19.83712383">
<ele>1496</ele>
<time>2014-08-20T16:57:50Z</time>
</trkpt>
<trkpt lat="49.23205058" lon="19.83714032">
<ele>1495</ele>
<time>2014-08-20T16:57:56Z</time>
</trkpt>
<trkpt lat="49.23204249" lon="19.83728268">
<ele>1489</ele>
<time>2014-08-20T16:58:02Z</time>
</trkpt>
<trkpt lat="49.23204249" lon="19.83728268">
<ele>1489</ele>
<time>2014-08-20T16:58:08Z</time>
</trkpt>
<trkpt lat="49.23206118" lon="19.83738008">
<ele>1483</ele>
<time>2014-08-20T16:58:14Z</time>
</trkpt>
<trkpt lat="49.23213189" lon="19.83740297">
<ele>1482</ele>
<time>2014-08-20T16:58:20Z</time>
</trkpt>
<trkpt lat="49.23213189" lon="19.83740297">
<ele>1482</ele>
<time>2014-08-20T16:58:26Z</time>
</trkpt>
<trkpt lat="49.2321977" lon="19.83747624">
<ele>1480</ele>
<time>2014-08-20T16:58:34Z</time>
</trkpt>
<trkpt lat="49.2321977" lon="19.83747624">
<ele>1480</ele>
<time>2014-08-20T16:58:40Z</time>
</trkpt>
<trkpt lat="49.23220236" lon="19.83746524">
<ele>1482</ele>
<time>2014-08-20T16:58:46Z</time>
</trkpt>
<trkpt lat="49.23220632" lon="19.83746186">
<ele>1484</ele>
<time>2014-08-20T16:58:52Z</time>
</trkpt>
<trkpt lat="49.23220815" lon="19.83746687">
<ele>1482</ele>
<time>2014-08-20T16:58:58Z</time>
</trkpt>
<trkpt lat="49.23221306" lon="19.83746251">
<ele>1482</ele>
<time>2014-08-20T16:59:04Z</time>
</trkpt>
<trkpt lat="49.23223816" lon="19.83751015">
<ele>1480</ele>
<time>2014-08-20T16:59:10Z</time>
</trkpt>
<trkpt lat="49.23226879" lon="19.83752935">
<ele>1482</ele>
<time>2014-08-20T16:59:16Z</time>
</trkpt>
<trkpt lat="49.23227789" lon="19.83753818">
<ele>1482</ele>
<time>2014-08-20T16:59:22Z</time>
</trkpt>
<trkpt lat="49.23229358" lon="19.83753994">
<ele>1482</ele>
<time>2014-08-20T16:59:28Z</time>
</trkpt>
<trkpt lat="49.23238318" lon="19.83753415">
<ele>1491</ele>
<time>2014-08-20T16:59:36Z</time>
</trkpt>
<trkpt lat="49.23238318" lon="19.83753415">
<ele>1491</ele>
<time>2014-08-20T16:59:42Z</time>
</trkpt>
<trkpt lat="49.23247125" lon="19.83756208">
<ele>1490</ele>
<time>2014-08-20T16:59:48Z</time>
</trkpt>
<trkpt lat="49.23247125" lon="19.83756208">
<ele>1490</ele>
<time>2014-08-20T16:59:54Z</time>
</trkpt>
<trkpt lat="49.23247633" lon="19.83755646">
<ele>1490</ele>
<time>2014-08-20T17:00:00Z</time>
</trkpt>
<trkpt lat="49.23248934" lon="19.83753384">
<ele>1488</ele>
<time>2014-08-20T17:00:06Z</time>
</trkpt>
<trkpt lat="49.23248987" lon="19.83753182">
<ele>1489</ele>
<time>2014-08-20T17:00:12Z</time>
</trkpt>
<trkpt lat="49.23248939" lon="19.83753213">
<ele>1488</ele>
<time>2014-08-20T17:00:18Z</time>
</trkpt>
<trkpt lat="49.23251476" lon="19.8375547">
<ele>1490</ele>
<time>2014-08-20T17:00:24Z</time>
</trkpt>
<trkpt lat="49.23254772" lon="19.83756145">
<ele>1489</ele>
<time>2014-08-20T17:00:30Z</time>
</trkpt>
<trkpt lat="49.23255403" lon="19.83755072">
<ele>1488</ele>
<time>2014-08-20T17:00:38Z</time>
</trkpt>
<trkpt lat="49.23255332" lon="19.83755393">
<ele>1489</ele>
<time>2014-08-20T17:00:44Z</time>
</trkpt>
<trkpt lat="49.2325535" lon="19.83756217">
<ele>1489</ele>
<time>2014-08-20T17:00:50Z</time>
</trkpt>
<trkpt lat="49.2325538" lon="19.83756195">
<ele>1489</ele>
<time>2014-08-20T17:00:56Z</time>
</trkpt>
<trkpt lat="49.23255385" lon="19.83756187">
<ele>1489</ele>
<time>2014-08-20T17:01:02Z</time>
</trkpt>
<trkpt lat="49.23255406" lon="19.8375625">
<ele>1489</ele>
<time>2014-08-20T17:01:08Z</time>
</trkpt>
<trkpt lat="49.23255393" lon="19.83756287">
<ele>1489</ele>
<time>2014-08-20T17:01:14Z</time>
</trkpt>
<trkpt lat="49.23255396" lon="19.83756323">
<ele>1489</ele>
<time>2014-08-20T17:01:20Z</time>
</trkpt>
<trkpt lat="49.23258043" lon="19.83780759">
<ele>1480</ele>
<time>2014-08-20T17:01:26Z</time>
</trkpt>
<trkpt lat="49.23258043" lon="19.83780759">
<ele>1480</ele>
<time>2014-08-20T17:01:34Z</time>
</trkpt>
<trkpt lat="49.23258852" lon="19.83786861">
<ele>1480</ele>
<time>2014-08-20T17:01:40Z</time>
</trkpt>
<trkpt lat="49.23259622" lon="19.83789865">
<ele>1480</ele>
<time>2014-08-20T17:01:46Z</time>
</trkpt>
<trkpt lat="49.23262024" lon="19.83793922">
<ele>1483</ele>
<time>2014-08-20T17:01:52Z</time>
</trkpt>
<trkpt lat="49.23264897" lon="19.83798643">
<ele>1480</ele>
<time>2014-08-20T17:01:58Z</time>
</trkpt>
<trkpt lat="49.23265332" lon="19.83799075">
<ele>1478</ele>
<time>2014-08-20T17:02:04Z</time>
</trkpt>
<trkpt lat="49.23265557" lon="19.83799134">
<ele>1476</ele>
<time>2014-08-20T17:02:10Z</time>
</trkpt>
<trkpt lat="49.23265735" lon="19.83800573">
<ele>1475</ele>
<time>2014-08-20T17:02:16Z</time>
</trkpt>
<trkpt lat="49.23265291" lon="19.83801533">
<ele>1475</ele>
<time>2014-08-20T17:02:22Z</time>
</trkpt>
<trkpt lat="49.23265198" lon="19.8380172">
<ele>1475</ele>
<time>2014-08-20T17:02:28Z</time>
</trkpt>
<trkpt lat="49.23265141" lon="19.83801771">
<ele>1475</ele>
<time>2014-08-20T17:02:37Z</time>
</trkpt>
<trkpt lat="49.23265126" lon="19.83801786">
<ele>1475</ele>
<time>2014-08-20T17:02:43Z</time>
</trkpt>
<trkpt lat="49.23265115" lon="19.83801788">
<ele>1475</ele>
<time>2014-08-20T17:02:49Z</time>
</trkpt>
<trkpt lat="49.23270859" lon="19.83813558">
<ele>1474</ele>
<time>2014-08-20T17:02:55Z</time>
</trkpt>
<trkpt lat="49.23270859" lon="19.83813558">
<ele>1474</ele>
<time>2014-08-20T17:03:01Z</time>
</trkpt>
<trkpt lat="49.23272813" lon="19.83823771">
<ele>1470</ele>
<time>2014-08-20T17:03:07Z</time>
</trkpt>
<trkpt lat="49.23272813" lon="19.83823771">
<ele>1470</ele>
<time>2014-08-20T17:03:13Z</time>
</trkpt>
<trkpt lat="49.23273265" lon="19.83824576">
<ele>1468</ele>
<time>2014-08-20T17:03:19Z</time>
</trkpt>
<trkpt lat="49.23273603" lon="19.83830342">
<ele>1468</ele>
<time>2014-08-20T17:03:25Z</time>
</trkpt>
<trkpt lat="49.23271408" lon="19.83845236">
<ele>1465</ele>
<time>2014-08-20T17:03:31Z</time>
</trkpt>
<trkpt lat="49.23274093" lon="19.83859281">
<ele>1462</ele>
<time>2014-08-20T17:03:38Z</time>
</trkpt>
<trkpt lat="49.23273916" lon="19.83866557">
<ele>1457</ele>
<time>2014-08-20T17:03:44Z</time>
</trkpt>
<trkpt lat="49.23273916" lon="19.83866557">
<ele>1457</ele>
<time>2014-08-20T17:03:50Z</time>
</trkpt>
<trkpt lat="49.23273588" lon="19.83870694">
<ele>1451</ele>
<time>2014-08-20T17:03:56Z</time>
</trkpt>
<trkpt lat="49.23273138" lon="19.83873247">
<ele>1446</ele>
<time>2014-08-20T17:04:02Z</time>
</trkpt>
<trkpt lat="49.23274095" lon="19.83879155">
<ele>1446</ele>
<time>2014-08-20T17:04:08Z</time>
</trkpt>
<trkpt lat="49.2327436" lon="19.83879936">
<ele>1446</ele>
<time>2014-08-20T17:04:14Z</time>
</trkpt>
<trkpt lat="49.23274744" lon="19.83882576">
<ele>1449</ele>
<time>2014-08-20T17:04:20Z</time>
</trkpt>
<trkpt lat="49.23274558" lon="19.83883784">
<ele>1450</ele>
<time>2014-08-20T17:04:26Z</time>
</trkpt>
<trkpt lat="49.23274395" lon="19.83884186">
<ele>1451</ele>
<time>2014-08-20T17:04:34Z</time>
</trkpt>
<trkpt lat="49.23274234" lon="19.83884365">
<ele>1450</ele>
<time>2014-08-20T17:04:40Z</time>
</trkpt>
<trkpt lat="49.23274171" lon="19.83884483">
<ele>1450</ele>
<time>2014-08-20T17:04:46Z</time>
</trkpt>
<trkpt lat="49.23273265" lon="19.83896396">
<ele>1450</ele>
<time>2014-08-20T17:04:52Z</time>
</trkpt>
<trkpt lat="49.23272" lon="19.83904191">
<ele>1447</ele>
<time>2014-08-20T17:04:58Z</time>
</trkpt>
<trkpt lat="49.23272" lon="19.83904191">
<ele>1447</ele>
<time>2014-08-20T17:05:04Z</time>
</trkpt>
<trkpt lat="49.2327167" lon="19.8390904">
<ele>1447</ele>
<time>2014-08-20T17:05:10Z</time>
</trkpt>
<trkpt lat="49.23270662" lon="19.83909357">
<ele>1448</ele>
<time>2014-08-20T17:05:16Z</time>
</trkpt>
<trkpt lat="49.23269841" lon="19.83909314">
<ele>1448</ele>
<time>2014-08-20T17:05:22Z</time>
</trkpt>
<trkpt lat="49.23269837" lon="19.8390976">
<ele>1449</ele>
<time>2014-08-20T17:05:29Z</time>
</trkpt>
<trkpt lat="49.23258602" lon="19.83907713">
<ele>1443</ele>
<time>2014-08-20T17:05:36Z</time>
</trkpt>
<trkpt lat="49.23251338" lon="19.83905869">
<ele>1444</ele>
<time>2014-08-20T17:05:42Z</time>
</trkpt>
<trkpt lat="49.23251338" lon="19.83905869">
<ele>1444</ele>
<time>2014-08-20T17:05:48Z</time>
</trkpt>
<trkpt lat="49.23242478" lon="19.83903512">
<ele>1439</ele>
<time>2014-08-20T17:05:54Z</time>
</trkpt>
<trkpt lat="49.23236082" lon="19.83903832">
<ele>1443</ele>
<time>2014-08-20T17:06:00Z</time>
</trkpt>
<trkpt lat="49.23236082" lon="19.83903832">
<ele>1443</ele>
<time>2014-08-20T17:06:06Z</time>
</trkpt>
<trkpt lat="49.23232775" lon="19.8390445">
<ele>1443</ele>
<time>2014-08-20T17:06:12Z</time>
</trkpt>
<trkpt lat="49.23231492" lon="19.8390477">
<ele>1448</ele>
<time>2014-08-20T17:06:18Z</time>
</trkpt>
<trkpt lat="49.23230477" lon="19.83904767">
<ele>1452</ele>
<time>2014-08-20T17:06:24Z</time>
</trkpt>
<trkpt lat="49.23229902" lon="19.83903265">
<ele>1452</ele>
<time>2014-08-20T17:06:30Z</time>
</trkpt>
<trkpt lat="49.2323122" lon="19.83903114">
<ele>1450</ele>
<time>2014-08-20T17:06:38Z</time>
</trkpt>
<trkpt lat="49.23231299" lon="19.83903037">
<ele>1451</ele>
<time>2014-08-20T17:06:44Z</time>
</trkpt>
<trkpt lat="49.23231184" lon="19.83903319">
<ele>1450</ele>
<time>2014-08-20T17:06:50Z</time>
</trkpt>
<trkpt lat="49.23231187" lon="19.83903323">
<ele>1450</ele>
<time>2014-08-20T17:06:56Z</time>
</trkpt>
<trkpt lat="49.23231169" lon="19.8390335">
<ele>1450</ele>
<time>2014-08-20T17:07:02Z</time>
</trkpt>
<trkpt lat="49.23230103" lon="19.83903782">
<ele>1452</ele>
<time>2014-08-20T17:07:08Z</time>
</trkpt>
<trkpt lat="49.23229351" lon="19.83903183">
<ele>1450</ele>
<time>2014-08-20T17:07:14Z</time>
</trkpt>
<trkpt lat="49.23229735" lon="19.83902547">
<ele>1449</ele>
<time>2014-08-20T17:07:20Z</time>
</trkpt>
<trkpt lat="49.23230033" lon="19.83901905">
<ele>1449</ele>
<time>2014-08-20T17:07:26Z</time>
</trkpt>
<trkpt lat="49.23230092" lon="19.83902307">
<ele>1448</ele>
<time>2014-08-20T17:07:34Z</time>
</trkpt>
<trkpt lat="49.23227516" lon="19.83904029">
<ele>1451</ele>
<time>2014-08-20T17:07:40Z</time>
</trkpt>
<trkpt lat="49.23225672" lon="19.83906381">
<ele>1449</ele>
<time>2014-08-20T17:07:46Z</time>
</trkpt>
<trkpt lat="49.23224074" lon="19.83905903">
<ele>1450</ele>
<time>2014-08-20T17:07:52Z</time>
</trkpt>
<trkpt lat="49.23223732" lon="19.83905408">
<ele>1449</ele>
<time>2014-08-20T17:07:58Z</time>
</trkpt>
<trkpt lat="49.23223737" lon="19.83905229">
<ele>1449</ele>
<time>2014-08-20T17:08:04Z</time>
</trkpt>
<trkpt lat="49.23222136" lon="19.83904127">
<ele>1448</ele>
<time>2014-08-20T17:08:10Z</time>
</trkpt>
<trkpt lat="49.2322058" lon="19.8390365">
<ele>1448</ele>
<time>2014-08-20T17:08:16Z</time>
</trkpt>
<trkpt lat="49.23219847" lon="19.83903526">
<ele>1448</ele>
<time>2014-08-20T17:08:22Z</time>
</trkpt>
<trkpt lat="49.23219003" lon="19.83904694">
<ele>1447</ele>
<time>2014-08-20T17:08:28Z</time>
</trkpt>
<trkpt lat="49.23217293" lon="19.8390548">
<ele>1446</ele>
<time>2014-08-20T17:08:36Z</time>
</trkpt>
<trkpt lat="49.23215815" lon="19.83904975">
<ele>1444</ele>
<time>2014-08-20T17:08:42Z</time>
</trkpt>
<trkpt lat="49.23215898" lon="19.83906064">
<ele>1443</ele>
<time>2014-08-20T17:08:48Z</time>
</trkpt>
<trkpt lat="49.23216001" lon="19.83906477">
<ele>1443</ele>
<time>2014-08-20T17:08:54Z</time>
</trkpt>
<trkpt lat="49.23216017" lon="19.8390654">
<ele>1443</ele>
<time>2014-08-20T17:09:00Z</time>
</trkpt>
<trkpt lat="49.23216009" lon="19.83906562">
<ele>1443</ele>
<time>2014-08-20T17:09:06Z</time>
</trkpt>
<trkpt lat="49.23215991" lon="19.83906556">
<ele>1443</ele>
<time>2014-08-20T17:09:12Z</time>
</trkpt>
<trkpt lat="49.23210929" lon="19.83911899">
<ele>1445</ele>
<time>2014-08-20T17:09:18Z</time>
</trkpt>
<trkpt lat="49.23210929" lon="19.83911899">
<ele>1445</ele>
<time>2014-08-20T17:09:24Z</time>
</trkpt>
<trkpt lat="49.23209287" lon="19.83911875">
<ele>1444</ele>
<time>2014-08-20T17:09:30Z</time>
</trkpt>
<trkpt lat="49.23208507" lon="19.83911848">
<ele>1442</ele>
<time>2014-08-20T17:09:38Z</time>
</trkpt>
<trkpt lat="49.23208128" lon="19.8391249">
<ele>1441</ele>
<time>2014-08-20T17:09:45Z</time>
</trkpt>
<trkpt lat="49.2320698" lon="19.83914546">
<ele>1440</ele>
<time>2014-08-20T17:09:50Z</time>
</trkpt>
<trkpt lat="49.23206815" lon="19.83916791">
<ele>1440</ele>
<time>2014-08-20T17:09:56Z</time>
</trkpt>
<trkpt lat="49.23205046" lon="19.83920023">
<ele>1440</ele>
<time>2014-08-20T17:10:02Z</time>
</trkpt>
<trkpt lat="49.23204697" lon="19.83920629">
<ele>1440</ele>
<time>2014-08-20T17:10:08Z</time>
</trkpt>
<trkpt lat="49.23203287" lon="19.83922842">
<ele>1439</ele>
<time>2014-08-20T17:10:14Z</time>
</trkpt>
<trkpt lat="49.23202456" lon="19.83923318">
<ele>1438</ele>
<time>2014-08-20T17:10:20Z</time>
</trkpt>
<trkpt lat="49.23202011" lon="19.83923194">
<ele>1437</ele>
<time>2014-08-20T17:10:26Z</time>
</trkpt>
<trkpt lat="49.23201971" lon="19.83923611">
<ele>1435</ele>
<time>2014-08-20T17:10:34Z</time>
</trkpt>
<trkpt lat="49.23198354" lon="19.83925075">
<ele>1435</ele>
<time>2014-08-20T17:10:40Z</time>
</trkpt>
<trkpt lat="49.2319663" lon="19.83931191">
<ele>1435</ele>
<time>2014-08-20T17:10:46Z</time>
</trkpt>
<trkpt lat="49.23194856" lon="19.83932977">
<ele>1434</ele>
<time>2014-08-20T17:10:52Z</time>
</trkpt>
<trkpt lat="49.23193703" lon="19.83934461">
<ele>1437</ele>
<time>2014-08-20T17:10:58Z</time>
</trkpt>
<trkpt lat="49.2319102" lon="19.83938771">
<ele>1432</ele>
<time>2014-08-20T17:11:04Z</time>
</trkpt>
<trkpt lat="49.23190501" lon="19.83939985">
<ele>1430</ele>
<time>2014-08-20T17:11:10Z</time>
</trkpt>
<trkpt lat="49.23188182" lon="19.83944032">
<ele>1429</ele>
<time>2014-08-20T17:11:16Z</time>
</trkpt>
<trkpt lat="49.23186195" lon="19.83944436">
<ele>1428</ele>
<time>2014-08-20T17:11:22Z</time>
</trkpt>
<trkpt lat="49.23184753" lon="19.83946133">
<ele>1427</ele>
<time>2014-08-20T17:11:28Z</time>
</trkpt>
<trkpt lat="49.23183447" lon="19.83947566">
<ele>1426</ele>
<time>2014-08-20T17:11:37Z</time>
</trkpt>
<trkpt lat="49.23183152" lon="19.83948052">
<ele>1426</ele>
<time>2014-08-20T17:11:43Z</time>
</trkpt>
<trkpt lat="49.23176839" lon="19.83964289">
<ele>1417</ele>
<time>2014-08-20T17:11:49Z</time>
</trkpt>
<trkpt lat="49.23170499" lon="19.83971296">
<ele>1420</ele>
<time>2014-08-20T17:11:55Z</time>
</trkpt>
<trkpt lat="49.23170499" lon="19.83971296">
<ele>1420</ele>
<time>2014-08-20T17:12:01Z</time>
</trkpt>
<trkpt lat="49.23168493" lon="19.83973788">
<ele>1412</ele>
<time>2014-08-20T17:12:07Z</time>
</trkpt>
<trkpt lat="49.23167437" lon="19.83975573">
<ele>1413</ele>
<time>2014-08-20T17:12:13Z</time>
</trkpt>
<trkpt lat="49.23167725" lon="19.83974954">
<ele>1411</ele>
<time>2014-08-20T17:12:20Z</time>
</trkpt>
<trkpt lat="49.23167417" lon="19.83973689">
<ele>1414</ele>
<time>2014-08-20T17:12:25Z</time>
</trkpt>
<trkpt lat="49.23167808" lon="19.83974144">
<ele>1414</ele>
<time>2014-08-20T17:12:31Z</time>
</trkpt>
<trkpt lat="49.23167763" lon="19.83974369">
<ele>1414</ele>
<time>2014-08-20T17:12:38Z</time>
</trkpt>
<trkpt lat="49.23167737" lon="19.839744">
<ele>1414</ele>
<time>2014-08-20T17:12:44Z</time>
</trkpt>
<trkpt lat="49.23167619" lon="19.83974434">
<ele>1414</ele>
<time>2014-08-20T17:12:50Z</time>
</trkpt>
<trkpt lat="49.23167633" lon="19.83974449">
<ele>1414</ele>
<time>2014-08-20T17:12:56Z</time>
</trkpt>
<trkpt lat="49.23160306" lon="19.83980689">
<ele>1412</ele>
<time>2014-08-20T17:13:02Z</time>
</trkpt>
<trkpt lat="49.23160306" lon="19.83980689">
<ele>1412</ele>
<time>2014-08-20T17:13:09Z</time>
</trkpt>
<trkpt lat="49.23159192" lon="19.83981285">
<ele>1412</ele>
<time>2014-08-20T17:13:15Z</time>
</trkpt>
<trkpt lat="49.23158163" lon="19.8398286">
<ele>1411</ele>
<time>2014-08-20T17:13:20Z</time>
</trkpt>
<trkpt lat="49.23153509" lon="19.83993262">
<ele>1405</ele>
<time>2014-08-20T17:13:26Z</time>
</trkpt>
<trkpt lat="49.23153509" lon="19.83993262">
<ele>1405</ele>
<time>2014-08-20T17:13:34Z</time>
</trkpt>
<trkpt lat="49.23153259" lon="19.83993501">
<ele>1405</ele>
<time>2014-08-20T17:13:40Z</time>
</trkpt>
<trkpt lat="49.23151078" lon="19.83996147">
<ele>1406</ele>
<time>2014-08-20T17:13:46Z</time>
</trkpt>
<trkpt lat="49.23149231" lon="19.8399848">
<ele>1407</ele>
<time>2014-08-20T17:13:52Z</time>
</trkpt>
<trkpt lat="49.23149017" lon="19.84001788">
<ele>1403</ele>
<time>2014-08-20T17:13:58Z</time>
</trkpt>
<trkpt lat="49.23150891" lon="19.84013206">
<ele>1400</ele>
<time>2014-08-20T17:14:04Z</time>
</trkpt>
<trkpt lat="49.23154986" lon="19.84020584">
<ele>1400</ele>
<time>2014-08-20T17:14:10Z</time>
</trkpt>
<trkpt lat="49.23154986" lon="19.84020584">
<ele>1400</ele>
<time>2014-08-20T17:14:17Z</time>
</trkpt>
<trkpt lat="49.23154678" lon="19.84020217">
<ele>1403</ele>
<time>2014-08-20T17:14:22Z</time>
</trkpt>
<trkpt lat="49.23154271" lon="19.84020899">
<ele>1403</ele>
<time>2014-08-20T17:14:28Z</time>
</trkpt>
<trkpt lat="49.23152817" lon="19.84019832">
<ele>1402</ele>
<time>2014-08-20T17:14:36Z</time>
</trkpt>
<trkpt lat="49.23147282" lon="19.84029776">
<ele>1394</ele>
<time>2014-08-20T17:14:43Z</time>
</trkpt>
<trkpt lat="49.23147282" lon="19.84029776">
<ele>1394</ele>
<time>2014-08-20T17:14:48Z</time>
</trkpt>
<trkpt lat="49.23150828" lon="19.84043693">
<ele>1397</ele>
<time>2014-08-20T17:14:54Z</time>
</trkpt>
<trkpt lat="49.23150828" lon="19.84043693">
<ele>1397</ele>
<time>2014-08-20T17:15:00Z</time>
</trkpt>
<trkpt lat="49.23150174" lon="19.84044942">
<ele>1397</ele>
<time>2014-08-20T17:15:07Z</time>
</trkpt>
<trkpt lat="49.23147429" lon="19.84047654">
<ele>1395</ele>
<time>2014-08-20T17:15:13Z</time>
</trkpt>
<trkpt lat="49.23147789" lon="19.84050558">
<ele>1392</ele>
<time>2014-08-20T17:15:19Z</time>
</trkpt>
<trkpt lat="49.23138579" lon="19.84070312">
<ele>1395</ele>
<time>2014-08-20T17:15:25Z</time>
</trkpt>
<trkpt lat="49.23138579" lon="19.84070312">
<ele>1395</ele>
<time>2014-08-20T17:15:30Z</time>
</trkpt>
<trkpt lat="49.23134764" lon="19.84080874">
<ele>1389</ele>
<time>2014-08-20T17:15:38Z</time>
</trkpt>
<trkpt lat="49.23134764" lon="19.84080874">
<ele>1389</ele>
<time>2014-08-20T17:15:45Z</time>
</trkpt>
<trkpt lat="49.23133988" lon="19.84080717">
<ele>1385</ele>
<time>2014-08-20T17:15:50Z</time>
</trkpt>
<trkpt lat="49.23134203" lon="19.84089625">
<ele>1379</ele>
<time>2014-08-20T17:15:56Z</time>
</trkpt>
<trkpt lat="49.23134203" lon="19.84089625">
<ele>1379</ele>
<time>2014-08-20T17:16:03Z</time>
</trkpt>
<trkpt lat="49.23134812" lon="19.84089913">
<ele>1378</ele>
<time>2014-08-20T17:16:08Z</time>
</trkpt>
<trkpt lat="49.23134357" lon="19.8409069">
<ele>1378</ele>
<time>2014-08-20T17:16:14Z</time>
</trkpt>
<trkpt lat="49.23132514" lon="19.84091149">
<ele>1380</ele>
<time>2014-08-20T17:16:20Z</time>
</trkpt>
<trkpt lat="49.23132829" lon="19.84092498">
<ele>1380</ele>
<time>2014-08-20T17:16:26Z</time>
</trkpt>
<trkpt lat="49.23132803" lon="19.84092714">
<ele>1380</ele>
<time>2014-08-20T17:16:34Z</time>
</trkpt>
<trkpt lat="49.23131487" lon="19.84094104">
<ele>1379</ele>
<time>2014-08-20T17:16:41Z</time>
</trkpt>
<trkpt lat="49.23131393" lon="19.84094289">
<ele>1379</ele>
<time>2014-08-20T17:16:47Z</time>
</trkpt>
<trkpt lat="49.23131754" lon="19.84093793">
<ele>1378</ele>
<time>2014-08-20T17:16:53Z</time>
</trkpt>
<trkpt lat="49.23131456" lon="19.8409362">
<ele>1379</ele>
<time>2014-08-20T17:17:00Z</time>
</trkpt>
<trkpt lat="49.2312997" lon="19.84092964">
<ele>1379</ele>
<time>2014-08-20T17:17:05Z</time>
</trkpt>
<trkpt lat="49.23127432" lon="19.84089715">
<ele>1379</ele>
<time>2014-08-20T17:17:11Z</time>
</trkpt>
<trkpt lat="49.23127125" lon="19.84089937">
<ele>1377</ele>
<time>2014-08-20T17:17:18Z</time>
</trkpt>
<trkpt lat="49.23131575" lon="19.84105841">
<ele>1371</ele>
<time>2014-08-20T17:17:24Z</time>
</trkpt>
<trkpt lat="49.23133784" lon="19.84113039">
<ele>1369</ele>
<time>2014-08-20T17:17:29Z</time>
</trkpt>
<trkpt lat="49.23135601" lon="19.84126474">
<ele>1371</ele>
<time>2014-08-20T17:17:37Z</time>
</trkpt>
<trkpt lat="49.23135601" lon="19.84126474">
<ele>1371</ele>
<time>2014-08-20T17:17:43Z</time>
</trkpt>
<trkpt lat="49.23139134" lon="19.8413037">
<ele>1374</ele>
<time>2014-08-20T17:17:49Z</time>
</trkpt>
<trkpt lat="49.23140084" lon="19.84130511">
<ele>1373</ele>
<time>2014-08-20T17:17:55Z</time>
</trkpt>
<trkpt lat="49.23140315" lon="19.84134904">
<ele>1373</ele>
<time>2014-08-20T17:18:01Z</time>
</trkpt>
<trkpt lat="49.23135448" lon="19.84149716">
<ele>1373</ele>
<time>2014-08-20T17:18:07Z</time>
</trkpt>
<trkpt lat="49.23135448" lon="19.84149716">
<ele>1373</ele>
<time>2014-08-20T17:18:13Z</time>
</trkpt>
<trkpt lat="49.23135338" lon="19.8416534">
<ele>1374</ele>
<time>2014-08-20T17:18:19Z</time>
</trkpt>
<trkpt lat="49.23135629" lon="19.84179233">
<ele>1371</ele>
<time>2014-08-20T17:18:25Z</time>
</trkpt>
<trkpt lat="49.23134894" lon="19.8418832">
<ele>1373</ele>
<time>2014-08-20T17:18:31Z</time>
</trkpt>
<trkpt lat="49.23134894" lon="19.8418832">
<ele>1373</ele>
<time>2014-08-20T17:18:38Z</time>
</trkpt>
<trkpt lat="49.23134822" lon="19.84194862">
<ele>1370</ele>
<time>2014-08-20T17:18:44Z</time>
</trkpt>
<trkpt lat="49.23137646" lon="19.84198343">
<ele>1366</ele>
<time>2014-08-20T17:18:50Z</time>
</trkpt>
<trkpt lat="49.23136662" lon="19.84202536">
<ele>1368</ele>
<time>2014-08-20T17:18:56Z</time>
</trkpt>
<trkpt lat="49.23136011" lon="19.84208528">
<ele>1368</ele>
<time>2014-08-20T17:19:02Z</time>
</trkpt>
<trkpt lat="49.2313762" lon="19.8422884">
<ele>1365</ele>
<time>2014-08-20T17:19:08Z</time>
</trkpt>
<trkpt lat="49.2313762" lon="19.8422884">
<ele>1365</ele>
<time>2014-08-20T17:19:14Z</time>
</trkpt>
<trkpt lat="49.23136767" lon="19.84235079">
<ele>1359</ele>
<time>2014-08-20T17:19:20Z</time>
</trkpt>
<trkpt lat="49.23135396" lon="19.84239246">
<ele>1356</ele>
<time>2014-08-20T17:19:26Z</time>
</trkpt>
<trkpt lat="49.23132912" lon="19.84251014">
<ele>1353</ele>
<time>2014-08-20T17:19:34Z</time>
</trkpt>
<trkpt lat="49.23131432" lon="19.84269556">
<ele>1346</ele>
<time>2014-08-20T17:19:40Z</time>
</trkpt>
<trkpt lat="49.23131432" lon="19.84269556">
<ele>1346</ele>
<time>2014-08-20T17:19:47Z</time>
</trkpt>
<trkpt lat="49.23129633" lon="19.84284662">
<ele>1332</ele>
<time>2014-08-20T17:19:53Z</time>
</trkpt>
<trkpt lat="49.23129633" lon="19.84284662">
<ele>1332</ele>
<time>2014-08-20T17:19:59Z</time>
</trkpt>
<trkpt lat="49.23130038" lon="19.84285981">
<ele>1326</ele>
<time>2014-08-20T17:20:05Z</time>
</trkpt>
<trkpt lat="49.23132685" lon="19.84290438">
<ele>1330</ele>
<time>2014-08-20T17:20:11Z</time>
</trkpt>
<trkpt lat="49.23133338" lon="19.84291112">
<ele>1331</ele>
<time>2014-08-20T17:20:16Z</time>
</trkpt>
<trkpt lat="49.23132861" lon="19.84291497">
<ele>1331</ele>
<time>2014-08-20T17:20:23Z</time>
</trkpt>
<trkpt lat="49.23132688" lon="19.84291613">
<ele>1331</ele>
<time>2014-08-20T17:20:29Z</time>
</trkpt>
<trkpt lat="49.23132646" lon="19.84291655">
<ele>1331</ele>
<time>2014-08-20T17:20:36Z</time>
</trkpt>
<trkpt lat="49.23132459" lon="19.84293823">
<ele>1331</ele>
<time>2014-08-20T17:20:42Z</time>
</trkpt>
<trkpt lat="49.23129431" lon="19.84294287">
<ele>1332</ele>
<time>2014-08-20T17:20:48Z</time>
</trkpt>
<trkpt lat="49.23129658" lon="19.84295655">
<ele>1332</ele>
<time>2014-08-20T17:20:54Z</time>
</trkpt>
<trkpt lat="49.23129928" lon="19.84297183">
<ele>1331</ele>
<time>2014-08-20T17:21:00Z</time>
</trkpt>
<trkpt lat="49.23129746" lon="19.84297384">
<ele>1331</ele>
<time>2014-08-20T17:21:06Z</time>
</trkpt>
<trkpt lat="49.23123524" lon="19.84302135">
<ele>1332</ele>
<time>2014-08-20T17:21:13Z</time>
</trkpt>
<trkpt lat="49.23123524" lon="19.84302135">
<ele>1332</ele>
<time>2014-08-20T17:21:18Z</time>
</trkpt>
<trkpt lat="49.2312278" lon="19.84303566">
<ele>1331</ele>
<time>2014-08-20T17:21:24Z</time>
</trkpt>
<trkpt lat="49.23121999" lon="19.84303837">
<ele>1332</ele>
<time>2014-08-20T17:21:31Z</time>
</trkpt>
<trkpt lat="49.23118161" lon="19.84304898">
<ele>1329</ele>
<time>2014-08-20T17:21:39Z</time>
</trkpt>
<trkpt lat="49.23117867" lon="19.84304409">
<ele>1326</ele>
<time>2014-08-20T17:21:46Z</time>
</trkpt>
<trkpt lat="49.23115097" lon="19.8430125">
<ele>1322</ele>
<time>2014-08-20T17:21:51Z</time>
</trkpt>
<trkpt lat="49.2310749" lon="19.84302054">
<ele>1328</ele>
<time>2014-08-20T17:21:57Z</time>
</trkpt>
<trkpt lat="49.2310749" lon="19.84302054">
<ele>1328</ele>
<time>2014-08-20T17:22:03Z</time>
</trkpt>
<trkpt lat="49.23108142" lon="19.84300954">
<ele>1326</ele>
<time>2014-08-20T17:22:10Z</time>
</trkpt>
<trkpt lat="49.23107965" lon="19.84301558">
<ele>1326</ele>
<time>2014-08-20T17:22:16Z</time>
</trkpt>
<trkpt lat="49.23108249" lon="19.84302016">
<ele>1326</ele>
<time>2014-08-20T17:22:21Z</time>
</trkpt>
<trkpt lat="49.23107247" lon="19.84303004">
<ele>1326</ele>
<time>2014-08-20T17:22:28Z</time>
</trkpt>
<trkpt lat="49.23109604" lon="19.84301904">
<ele>1323</ele>
<time>2014-08-20T17:22:35Z</time>
</trkpt>
<trkpt lat="49.23109226" lon="19.84307328">
<ele>1323</ele>
<time>2014-08-20T17:22:41Z</time>
</trkpt>
<trkpt lat="49.23109186" lon="19.84308564">
<ele>1321</ele>
<time>2014-08-20T17:22:46Z</time>
</trkpt>
<trkpt lat="49.23109149" lon="19.84311851">
<ele>1320</ele>
<time>2014-08-20T17:22:53Z</time>
</trkpt>
<trkpt lat="49.23109803" lon="19.84312509">
<ele>1321</ele>
<time>2014-08-20T17:22:59Z</time>
</trkpt>
<trkpt lat="49.23109452" lon="19.84314301">
<ele>1321</ele>
<time>2014-08-20T17:23:05Z</time>
</trkpt>
<trkpt lat="49.23109963" lon="19.84315213">
<ele>1319</ele>
<time>2014-08-20T17:23:11Z</time>
</trkpt>
<trkpt lat="49.23110263" lon="19.84315166">
<ele>1319</ele>
<time>2014-08-20T17:23:17Z</time>
</trkpt>
<trkpt lat="49.23109418" lon="19.84318636">
<ele>1320</ele>
<time>2014-08-20T17:23:23Z</time>
</trkpt>
<trkpt lat="49.23109056" lon="19.8433117">
<ele>1314</ele>
<time>2014-08-20T17:23:29Z</time>
</trkpt>
<trkpt lat="49.23109056" lon="19.8433117">
<ele>1314</ele>
<time>2014-08-20T17:23:37Z</time>
</trkpt>
<trkpt lat="49.23108732" lon="19.84335639">
<ele>1311</ele>
<time>2014-08-20T17:23:42Z</time>
</trkpt>
<trkpt lat="49.23106419" lon="19.84335948">
<ele>1310</ele>
<time>2014-08-20T17:23:49Z</time>
</trkpt>
<trkpt lat="49.23106133" lon="19.84339432">
<ele>1309</ele>
<time>2014-08-20T17:23:54Z</time>
</trkpt>
<trkpt lat="49.23105226" lon="19.8433957">
<ele>1308</ele>
<time>2014-08-20T17:24:01Z</time>
</trkpt>
<trkpt lat="49.23105021" lon="19.84339485">
<ele>1308</ele>
<time>2014-08-20T17:24:06Z</time>
</trkpt>
<trkpt lat="49.23104966" lon="19.84339423">
<ele>1308</ele>
<time>2014-08-20T17:24:13Z</time>
</trkpt>
<trkpt lat="49.23104868" lon="19.84339677">
<ele>1308</ele>
<time>2014-08-20T17:24:18Z</time>
</trkpt>
<trkpt lat="49.23105603" lon="19.84341447">
<ele>1309</ele>
<time>2014-08-20T17:24:24Z</time>
</trkpt>
<trkpt lat="49.23105987" lon="19.84342272">
<ele>1307</ele>
<time>2014-08-20T17:24:30Z</time>
</trkpt>
<trkpt lat="49.2310847" lon="19.84358346">
<ele>1307</ele>
<time>2014-08-20T17:24:39Z</time>
</trkpt>
<trkpt lat="49.2310847" lon="19.84358346">
<ele>1307</ele>
<time>2014-08-20T17:24:45Z</time>
</trkpt>
<trkpt lat="49.23104099" lon="19.84363911">
<ele>1304</ele>
<time>2014-08-20T17:24:51Z</time>
</trkpt>
<trkpt lat="49.2310888" lon="19.84379403">
<ele>1310</ele>
<time>2014-08-20T17:24:57Z</time>
</trkpt>
<trkpt lat="49.23111481" lon="19.84386684">
<ele>1308</ele>
<time>2014-08-20T17:25:03Z</time>
</trkpt>
<trkpt lat="49.23111481" lon="19.84386684">
<ele>1308</ele>
<time>2014-08-20T17:25:09Z</time>
</trkpt>
<trkpt lat="49.23110357" lon="19.84388546">
<ele>1308</ele>
<time>2014-08-20T17:25:14Z</time>
</trkpt>
<trkpt lat="49.23110337" lon="19.84404994">
<ele>1303</ele>
<time>2014-08-20T17:25:20Z</time>
</trkpt>
<trkpt lat="49.23110337" lon="19.84404994">
<ele>1303</ele>
<time>2014-08-20T17:25:27Z</time>
</trkpt>
<trkpt lat="49.23111371" lon="19.84405625">
<ele>1301</ele>
<time>2014-08-20T17:25:35Z</time>
</trkpt>
<trkpt lat="49.23112701" lon="19.84432784">
<ele>1291</ele>
<time>2014-08-20T17:25:42Z</time>
</trkpt>
<trkpt lat="49.23112701" lon="19.84432784">
<ele>1291</ele>
<time>2014-08-20T17:25:48Z</time>
</trkpt>
<trkpt lat="49.23114106" lon="19.8443797">
<ele>1292</ele>
<time>2014-08-20T17:25:53Z</time>
</trkpt>
<trkpt lat="49.2311399" lon="19.84447487">
<ele>1289</ele>
<time>2014-08-20T17:25:59Z</time>
</trkpt>
<trkpt lat="49.23111948" lon="19.84455311">
<ele>1287</ele>
<time>2014-08-20T17:26:06Z</time>
</trkpt>
<trkpt lat="49.23111948" lon="19.84455311">
<ele>1287</ele>
<time>2014-08-20T17:26:12Z</time>
</trkpt>
<trkpt lat="49.23116544" lon="19.84462935">
<ele>1286</ele>
<time>2014-08-20T17:26:18Z</time>
</trkpt>
<trkpt lat="49.23116544" lon="19.84462935">
<ele>1286</ele>
<time>2014-08-20T17:26:24Z</time>
</trkpt>
<trkpt lat="49.23117323" lon="19.8446465">
<ele>1287</ele>
<time>2014-08-20T17:26:30Z</time>
</trkpt>
<trkpt lat="49.23118707" lon="19.8446929">
<ele>1287</ele>
<time>2014-08-20T17:26:37Z</time>
</trkpt>
<trkpt lat="49.23119131" lon="19.84481288">
<ele>1285</ele>
<time>2014-08-20T17:26:43Z</time>
</trkpt>
<trkpt lat="49.2312011" lon="19.84488332">
<ele>1286</ele>
<time>2014-08-20T17:26:49Z</time>
</trkpt>
<trkpt lat="49.2312011" lon="19.84488332">
<ele>1286</ele>
<time>2014-08-20T17:26:55Z</time>
</trkpt>
<trkpt lat="49.2312031" lon="19.84489529">
<ele>1287</ele>
<time>2014-08-20T17:27:00Z</time>
</trkpt>
<trkpt lat="49.23117589" lon="19.84513432">
<ele>1296</ele>
<time>2014-08-20T17:27:06Z</time>
</trkpt>
<trkpt lat="49.23117589" lon="19.84513432">
<ele>1296</ele>
<time>2014-08-20T17:27:12Z</time>
</trkpt>
<trkpt lat="49.23117671" lon="19.84517435">
<ele>1295</ele>
<time>2014-08-20T17:27:18Z</time>
</trkpt>
<trkpt lat="49.23118052" lon="19.84535472">
<ele>1291</ele>
<time>2014-08-20T17:27:24Z</time>
</trkpt>
<trkpt lat="49.23118052" lon="19.84535472">
<ele>1291</ele>
<time>2014-08-20T17:27:30Z</time>
</trkpt>
<trkpt lat="49.23118514" lon="19.84539547">
<ele>1293</ele>
<time>2014-08-20T17:27:39Z</time>
</trkpt>
<trkpt lat="49.23118404" lon="19.84542144">
<ele>1294</ele>
<time>2014-08-20T17:27:45Z</time>
</trkpt>
<trkpt lat="49.23118104" lon="19.84545116">
<ele>1294</ele>
<time>2014-08-20T17:27:51Z</time>
</trkpt>
<trkpt lat="49.2311715" lon="19.84550544">
<ele>1298</ele>
<time>2014-08-20T17:27:57Z</time>
</trkpt>
<trkpt lat="49.2311755" lon="19.8455297">
<ele>1296</ele>
<time>2014-08-20T17:28:04Z</time>
</trkpt>
<trkpt lat="49.23117587" lon="19.84556547">
<ele>1290</ele>
<time>2014-08-20T17:28:10Z</time>
</trkpt>
<trkpt lat="49.23118371" lon="19.84560973">
<ele>1290</ele>
<time>2014-08-20T17:28:16Z</time>
</trkpt>
<trkpt lat="49.23119303" lon="19.84563779">
<ele>1292</ele>
<time>2014-08-20T17:28:22Z</time>
</trkpt>
<trkpt lat="49.23120022" lon="19.84567491">
<ele>1290</ele>
<time>2014-08-20T17:28:28Z</time>
</trkpt>
<trkpt lat="49.23121626" lon="19.84572748">
<ele>1290</ele>
<time>2014-08-20T17:28:34Z</time>
</trkpt>
<trkpt lat="49.23123073" lon="19.84578674">
<ele>1284</ele>
<time>2014-08-20T17:28:40Z</time>
</trkpt>
<trkpt lat="49.23122591" lon="19.84585409">
<ele>1285</ele>
<time>2014-08-20T17:28:47Z</time>
</trkpt>
<trkpt lat="49.23122816" lon="19.84589147">
<ele>1283</ele>
<time>2014-08-20T17:28:53Z</time>
</trkpt>
<trkpt lat="49.23124166" lon="19.84594645">
<ele>1284</ele>
<time>2014-08-20T17:28:58Z</time>
</trkpt>
<trkpt lat="49.23122445" lon="19.84600969">
<ele>1282</ele>
<time>2014-08-20T17:29:04Z</time>
</trkpt>
<trkpt lat="49.23122734" lon="19.84603073">
<ele>1281</ele>
<time>2014-08-20T17:29:10Z</time>
</trkpt>
<trkpt lat="49.23126299" lon="19.84618273">
<ele>1284</ele>
<time>2014-08-20T17:29:16Z</time>
</trkpt>
<trkpt lat="49.2313019" lon="19.84640125">
<ele>1272</ele>
<time>2014-08-20T17:29:22Z</time>
</trkpt>
<trkpt lat="49.2313071" lon="19.84650469">
<ele>1271</ele>
<time>2014-08-20T17:29:28Z</time>
</trkpt>
<trkpt lat="49.23130041" lon="19.84657695">
<ele>1272</ele>
<time>2014-08-20T17:29:34Z</time>
</trkpt>
<trkpt lat="49.23130757" lon="19.84666098">
<ele>1269</ele>
<time>2014-08-20T17:29:41Z</time>
</trkpt>
<trkpt lat="49.23129899" lon="19.84674818">
<ele>1271</ele>
<time>2014-08-20T17:29:47Z</time>
</trkpt>
<trkpt lat="49.23128408" lon="19.84682912">
<ele>1268</ele>
<time>2014-08-20T17:29:53Z</time>
</trkpt>
<trkpt lat="49.23126636" lon="19.84690897">
<ele>1267</ele>
<time>2014-08-20T17:29:59Z</time>
</trkpt>
<trkpt lat="49.23126636" lon="19.84690897">
<ele>1267</ele>
<time>2014-08-20T17:30:04Z</time>
</trkpt>
<trkpt lat="49.23129246" lon="19.84705925">
<ele>1261</ele>
<time>2014-08-20T17:30:10Z</time>
</trkpt>
<trkpt lat="49.23129415" lon="19.8471322">
<ele>1261</ele>
<time>2014-08-20T17:30:16Z</time>
</trkpt>
<trkpt lat="49.23130137" lon="19.84721386">
<ele>1258</ele>
<time>2014-08-20T17:30:23Z</time>
</trkpt>
<trkpt lat="49.23130137" lon="19.84721386">
<ele>1258</ele>
<time>2014-08-20T17:30:29Z</time>
</trkpt>
<trkpt lat="49.23132591" lon="19.84735739">
<ele>1258</ele>
<time>2014-08-20T17:30:37Z</time>
</trkpt>
<trkpt lat="49.23132591" lon="19.84735739">
<ele>1258</ele>
<time>2014-08-20T17:30:42Z</time>
</trkpt>
<trkpt lat="49.23134149" lon="19.84741904">
<ele>1259</ele>
<time>2014-08-20T17:30:48Z</time>
</trkpt>
<trkpt lat="49.23134132" lon="19.84748496">
<ele>1261</ele>
<time>2014-08-20T17:30:55Z</time>
</trkpt>
<trkpt lat="49.23135978" lon="19.84764995">
<ele>1265</ele>
<time>2014-08-20T17:31:01Z</time>
</trkpt>
<trkpt lat="49.23131936" lon="19.84771031">
<ele>1265</ele>
<time>2014-08-20T17:31:07Z</time>
</trkpt>
<trkpt lat="49.23131936" lon="19.84771031">
<ele>1265</ele>
<time>2014-08-20T17:31:13Z</time>
</trkpt>
<trkpt lat="49.2313161" lon="19.8477544">
<ele>1264</ele>
<time>2014-08-20T17:31:19Z</time>
</trkpt>
<trkpt lat="49.23130213" lon="19.84780089">
<ele>1260</ele>
<time>2014-08-20T17:31:25Z</time>
</trkpt>
<trkpt lat="49.23133122" lon="19.84798586">
<ele>1254</ele>
<time>2014-08-20T17:31:31Z</time>
</trkpt>
<trkpt lat="49.23130282" lon="19.84818361">
<ele>1246</ele>
<time>2014-08-20T17:31:39Z</time>
</trkpt>
<trkpt lat="49.23130282" lon="19.84818361">
<ele>1246</ele>
<time>2014-08-20T17:31:45Z</time>
</trkpt>
<trkpt lat="49.23130357" lon="19.84824764">
<ele>1246</ele>
<time>2014-08-20T17:31:50Z</time>
</trkpt>
<trkpt lat="49.23127644" lon="19.84834797">
<ele>1244</ele>
<time>2014-08-20T17:31:56Z</time>
</trkpt>
<trkpt lat="49.23127644" lon="19.84834797">
<ele>1244</ele>
<time>2014-08-20T17:32:02Z</time>
</trkpt>
<trkpt lat="49.23123962" lon="19.84845233">
<ele>1246</ele>
<time>2014-08-20T17:32:08Z</time>
</trkpt>
<trkpt lat="49.23123962" lon="19.84845233">
<ele>1246</ele>
<time>2014-08-20T17:32:14Z</time>
</trkpt>
<trkpt lat="49.23125736" lon="19.84857805">
<ele>1246</ele>
<time>2014-08-20T17:32:20Z</time>
</trkpt>
<trkpt lat="49.23125736" lon="19.84857805">
<ele>1246</ele>
<time>2014-08-20T17:32:26Z</time>
</trkpt>
<trkpt lat="49.23122156" lon="19.84871961">
<ele>1248</ele>
<time>2014-08-20T17:32:34Z</time>
</trkpt>
<trkpt lat="49.23116205" lon="19.84884568">
<ele>1253</ele>
<time>2014-08-20T17:32:41Z</time>
</trkpt>
<trkpt lat="49.23116205" lon="19.84884568">
<ele>1253</ele>
<time>2014-08-20T17:32:47Z</time>
</trkpt>
<trkpt lat="49.23116053" lon="19.84887793">
<ele>1255</ele>
<time>2014-08-20T17:32:53Z</time>
</trkpt>
<trkpt lat="49.23115528" lon="19.84896734">
<ele>1251</ele>
<time>2014-08-20T17:32:59Z</time>
</trkpt>
<trkpt lat="49.23111716" lon="19.84915266">
<ele>1252</ele>
<time>2014-08-20T17:33:05Z</time>
</trkpt>
<trkpt lat="49.23112639" lon="19.84928095">
<ele>1253</ele>
<time>2014-08-20T17:33:11Z</time>
</trkpt>
<trkpt lat="49.23112314" lon="19.8493776">
<ele>1253</ele>
<time>2014-08-20T17:33:17Z</time>
</trkpt>
<trkpt lat="49.23112448" lon="19.84953853">
<ele>1248</ele>
<time>2014-08-20T17:33:23Z</time>
</trkpt>
<trkpt lat="49.23112448" lon="19.84953853">
<ele>1248</ele>
<time>2014-08-20T17:33:29Z</time>
</trkpt>
<trkpt lat="49.23114329" lon="19.84965646">
<ele>1233</ele>
<time>2014-08-20T17:33:36Z</time>
</trkpt>
<trkpt lat="49.23114329" lon="19.84965646">
<ele>1233</ele>
<time>2014-08-20T17:33:43Z</time>
</trkpt>
<trkpt lat="49.23112513" lon="19.84969947">
<ele>1231</ele>
<time>2014-08-20T17:33:48Z</time>
</trkpt>
<trkpt lat="49.23110598" lon="19.84974356">
<ele>1232</ele>
<time>2014-08-20T17:33:54Z</time>
</trkpt>
<trkpt lat="49.23110941" lon="19.84976021">
<ele>1233</ele>
<time>2014-08-20T17:34:01Z</time>
</trkpt>
<trkpt lat="49.23111542" lon="19.84978158">
<ele>1233</ele>
<time>2014-08-20T17:34:07Z</time>
</trkpt>
<trkpt lat="49.23113669" lon="19.8497859">
<ele>1235</ele>
<time>2014-08-20T17:34:13Z</time>
</trkpt>
<trkpt lat="49.2311524" lon="19.84991556">
<ele>1233</ele>
<time>2014-08-20T17:34:19Z</time>
</trkpt>
<trkpt lat="49.23113091" lon="19.85002104">
<ele>1224</ele>
<time>2014-08-20T17:34:25Z</time>
</trkpt>
<trkpt lat="49.23113091" lon="19.85002104">
<ele>1224</ele>
<time>2014-08-20T17:34:31Z</time>
</trkpt>
<trkpt lat="49.23107193" lon="19.85015685">
<ele>1220</ele>
<time>2014-08-20T17:34:39Z</time>
</trkpt>
<trkpt lat="49.23107193" lon="19.85015685">
<ele>1220</ele>
<time>2014-08-20T17:34:44Z</time>
</trkpt>
<trkpt lat="49.23105957" lon="19.85019633">
<ele>1225</ele>
<time>2014-08-20T17:34:50Z</time>
</trkpt>
<trkpt lat="49.23099926" lon="19.8502514">
<ele>1223</ele>
<time>2014-08-20T17:34:56Z</time>
</trkpt>
<trkpt lat="49.23099926" lon="19.8502514">
<ele>1223</ele>
<time>2014-08-20T17:35:03Z</time>
</trkpt>
<trkpt lat="49.2309488" lon="19.85040822">
<ele>1232</ele>
<time>2014-08-20T17:35:09Z</time>
</trkpt>
<trkpt lat="49.23088368" lon="19.85051764">
<ele>1227</ele>
<time>2014-08-20T17:35:15Z</time>
</trkpt>
<trkpt lat="49.23080459" lon="19.8505273">
<ele>1219</ele>
<time>2014-08-20T17:35:21Z</time>
</trkpt>
<trkpt lat="49.23080459" lon="19.8505273">
<ele>1219</ele>
<time>2014-08-20T17:35:27Z</time>
</trkpt>
<trkpt lat="49.23077222" lon="19.85056229">
<ele>1216</ele>
<time>2014-08-20T17:35:34Z</time>
</trkpt>
<trkpt lat="49.23079121" lon="19.8506179">
<ele>1218</ele>
<time>2014-08-20T17:35:41Z</time>
</trkpt>
<trkpt lat="49.23078414" lon="19.85070504">
<ele>1216</ele>
<time>2014-08-20T17:35:47Z</time>
</trkpt>
<trkpt lat="49.23078414" lon="19.85070504">
<ele>1216</ele>
<time>2014-08-20T17:35:53Z</time>
</trkpt>
<trkpt lat="49.23070944" lon="19.85085541">
<ele>1214</ele>
<time>2014-08-20T17:35:59Z</time>
</trkpt>
<trkpt lat="49.23066806" lon="19.85094357">
<ele>1215</ele>
<time>2014-08-20T17:36:04Z</time>
</trkpt>
<trkpt lat="49.23066806" lon="19.85094357">
<ele>1215</ele>
<time>2014-08-20T17:36:10Z</time>
</trkpt>
<trkpt lat="49.23053182" lon="19.85101167">
<ele>1212</ele>
<time>2014-08-20T17:36:16Z</time>
</trkpt>
<trkpt lat="49.23047713" lon="19.85104379">
<ele>1212</ele>
<time>2014-08-20T17:36:23Z</time>
</trkpt>
<trkpt lat="49.23047713" lon="19.85104379">
<ele>1212</ele>
<time>2014-08-20T17:36:29Z</time>
</trkpt>
<trkpt lat="49.23038483" lon="19.85122767">
<ele>1208</ele>
<time>2014-08-20T17:36:37Z</time>
</trkpt>
<trkpt lat="49.23030771" lon="19.85137895">
<ele>1211</ele>
<time>2014-08-20T17:36:43Z</time>
</trkpt>
<trkpt lat="49.23027719" lon="19.85156394">
<ele>1205</ele>
<time>2014-08-20T17:36:49Z</time>
</trkpt>
<trkpt lat="49.23027719" lon="19.85156394">
<ele>1205</ele>
<time>2014-08-20T17:36:55Z</time>
</trkpt>
<trkpt lat="49.23025711" lon="19.85174912">
<ele>1217</ele>
<time>2014-08-20T17:37:01Z</time>
</trkpt>
<trkpt lat="49.23027557" lon="19.85183448">
<ele>1218</ele>
<time>2014-08-20T17:37:07Z</time>
</trkpt>
<trkpt lat="49.23027557" lon="19.85183448">
<ele>1218</ele>
<time>2014-08-20T17:37:13Z</time>
</trkpt>
<trkpt lat="49.23018955" lon="19.85200274">
<ele>1218</ele>
<time>2014-08-20T17:37:19Z</time>
</trkpt>
<trkpt lat="49.23018955" lon="19.85200274">
<ele>1218</ele>
<time>2014-08-20T17:37:25Z</time>
</trkpt>
<trkpt lat="49.23004797" lon="19.85223163">
<ele>1213</ele>
<time>2014-08-20T17:37:31Z</time>
</trkpt>
<trkpt lat="49.23004797" lon="19.85223163">
<ele>1213</ele>
<time>2014-08-20T17:37:39Z</time>
</trkpt>
<trkpt lat="49.23006686" lon="19.85247984">
<ele>1219</ele>
<time>2014-08-20T17:37:45Z</time>
</trkpt>
<trkpt lat="49.23008092" lon="19.85256106">
<ele>1225</ele>
<time>2014-08-20T17:37:50Z</time>
</trkpt>
<trkpt lat="49.2300919" lon="19.85263936">
<ele>1221</ele>
<time>2014-08-20T17:37:57Z</time>
</trkpt>
<trkpt lat="49.23006597" lon="19.85270243">
<ele>1217</ele>
<time>2014-08-20T17:38:03Z</time>
</trkpt>
<trkpt lat="49.23006597" lon="19.85270243">
<ele>1217</ele>
<time>2014-08-20T17:38:09Z</time>
</trkpt>
<trkpt lat="49.23003875" lon="19.85290191">
<ele>1214</ele>
<time>2014-08-20T17:38:15Z</time>
</trkpt>
<trkpt lat="49.23002799" lon="19.85298362">
<ele>1212</ele>
<time>2014-08-20T17:38:21Z</time>
</trkpt>
<trkpt lat="49.23002799" lon="19.85298362">
<ele>1212</ele>
<time>2014-08-20T17:38:27Z</time>
</trkpt>
<trkpt lat="49.22998035" lon="19.85321221">
<ele>1209</ele>
<time>2014-08-20T17:38:34Z</time>
</trkpt>
<trkpt lat="49.22996508" lon="19.85331269">
<ele>1208</ele>
<time>2014-08-20T17:38:42Z</time>
</trkpt>
<trkpt lat="49.22987864" lon="19.85330701">
<ele>1206</ele>
<time>2014-08-20T17:38:48Z</time>
</trkpt>
<trkpt lat="49.22980069" lon="19.85334159">
<ele>1202</ele>
<time>2014-08-20T17:38:54Z</time>
</trkpt>
<trkpt lat="49.2297744" lon="19.85348111">
<ele>1205</ele>
<time>2014-08-20T17:39:00Z</time>
</trkpt>
<trkpt lat="49.22978063" lon="19.85359683">
<ele>1205</ele>
<time>2014-08-20T17:39:06Z</time>
</trkpt>
<trkpt lat="49.22978063" lon="19.85359683">
<ele>1205</ele>
<time>2014-08-20T17:39:11Z</time>
</trkpt>
<trkpt lat="49.22975286" lon="19.85371149">
<ele>1196</ele>
<time>2014-08-20T17:39:18Z</time>
</trkpt>
<trkpt lat="49.22973307" lon="19.85381026">
<ele>1194</ele>
<time>2014-08-20T17:39:24Z</time>
</trkpt>
<trkpt lat="49.22970174" lon="19.85392471">
<ele>1193</ele>
<time>2014-08-20T17:39:30Z</time>
</trkpt>
<trkpt lat="49.22970276" lon="19.85405268">
<ele>1194</ele>
<time>2014-08-20T17:39:36Z</time>
</trkpt>
<trkpt lat="49.22970276" lon="19.85405268">
<ele>1194</ele>
<time>2014-08-20T17:39:42Z</time>
</trkpt>
<trkpt lat="49.22970475" lon="19.8540654">
<ele>1197</ele>
<time>2014-08-20T17:39:48Z</time>
</trkpt>
<trkpt lat="49.22965109" lon="19.85415302">
<ele>1198</ele>
<time>2014-08-20T17:39:54Z</time>
</trkpt>
<trkpt lat="49.22962827" lon="19.85421457">
<ele>1200</ele>
<time>2014-08-20T17:40:00Z</time>
</trkpt>
<trkpt lat="49.22962827" lon="19.85421457">
<ele>1200</ele>
<time>2014-08-20T17:40:06Z</time>
</trkpt>
<trkpt lat="49.22957742" lon="19.85432955">
<ele>1205</ele>
<time>2014-08-20T17:40:12Z</time>
</trkpt>
<trkpt lat="49.22957742" lon="19.85432955">
<ele>1205</ele>
<time>2014-08-20T17:40:18Z</time>
</trkpt>
<trkpt lat="49.22956654" lon="19.85437376">
<ele>1203</ele>
<time>2014-08-20T17:40:24Z</time>
</trkpt>
<trkpt lat="49.22949066" lon="19.8543628">
<ele>1205</ele>
<time>2014-08-20T17:40:30Z</time>
</trkpt>
<trkpt lat="49.22942537" lon="19.85439553">
<ele>1204</ele>
<time>2014-08-20T17:40:37Z</time>
</trkpt>
<trkpt lat="49.22937267" lon="19.85442671">
<ele>1203</ele>
<time>2014-08-20T17:40:43Z</time>
</trkpt>
<trkpt lat="49.22937267" lon="19.85442671">
<ele>1203</ele>
<time>2014-08-20T17:40:49Z</time>
</trkpt>
<trkpt lat="49.22926759" lon="19.85447166">
<ele>1197</ele>
<time>2014-08-20T17:40:55Z</time>
</trkpt>
<trkpt lat="49.22926759" lon="19.85447166">
<ele>1197</ele>
<time>2014-08-20T17:41:01Z</time>
</trkpt>
<trkpt lat="49.22915339" lon="19.85451634">
<ele>1193</ele>
<time>2014-08-20T17:41:07Z</time>
</trkpt>
<trkpt lat="49.22915339" lon="19.85451634">
<ele>1193</ele>
<time>2014-08-20T17:41:13Z</time>
</trkpt>
<trkpt lat="49.22911147" lon="19.85453248">
<ele>1192</ele>
<time>2014-08-20T17:41:18Z</time>
</trkpt>
<trkpt lat="49.22905654" lon="19.85455891">
<ele>1190</ele>
<time>2014-08-20T17:41:25Z</time>
</trkpt>
<trkpt lat="49.2289933" lon="19.85460531">
<ele>1192</ele>
<time>2014-08-20T17:41:31Z</time>
</trkpt>
<trkpt lat="49.2289933" lon="19.85460531">
<ele>1192</ele>
<time>2014-08-20T17:41:39Z</time>
</trkpt>
<trkpt lat="49.2289086" lon="19.85472179">
<ele>1192</ele>
<time>2014-08-20T17:41:45Z</time>
</trkpt>
<trkpt lat="49.22878985" lon="19.85473427">
<ele>1190</ele>
<time>2014-08-20T17:41:51Z</time>
</trkpt>
<trkpt lat="49.22871131" lon="19.85481459">
<ele>1192</ele>
<time>2014-08-20T17:41:57Z</time>
</trkpt>
<trkpt lat="49.22871131" lon="19.85481459">
<ele>1192</ele>
<time>2014-08-20T17:42:03Z</time>
</trkpt>
<trkpt lat="49.22871961" lon="19.854848">
<ele>1192</ele>
<time>2014-08-20T17:42:09Z</time>
</trkpt>
<trkpt lat="49.22864944" lon="19.85486005">
<ele>1192</ele>
<time>2014-08-20T17:42:15Z</time>
</trkpt>
<trkpt lat="49.22864944" lon="19.85486005">
<ele>1192</ele>
<time>2014-08-20T17:42:21Z</time>
</trkpt>
<trkpt lat="49.22856483" lon="19.85491768">
<ele>1193</ele>
<time>2014-08-20T17:42:27Z</time>
</trkpt>
<trkpt lat="49.22848478" lon="19.85493291">
<ele>1194</ele>
<time>2014-08-20T17:42:34Z</time>
</trkpt>
<trkpt lat="49.22848478" lon="19.85493291">
<ele>1194</ele>
<time>2014-08-20T17:42:41Z</time>
</trkpt>
<trkpt lat="49.22837642" lon="19.85491925">
<ele>1187</ele>
<time>2014-08-20T17:42:47Z</time>
</trkpt>
<trkpt lat="49.22827113" lon="19.85494997">
<ele>1188</ele>
<time>2014-08-20T17:42:53Z</time>
</trkpt>
<trkpt lat="49.22819525" lon="19.85499689">
<ele>1189</ele>
<time>2014-08-20T17:42:59Z</time>
</trkpt>
<trkpt lat="49.22819525" lon="19.85499689">
<ele>1189</ele>
<time>2014-08-20T17:43:05Z</time>
</trkpt>
<trkpt lat="49.22813362" lon="19.85510147">
<ele>1178</ele>
<time>2014-08-20T17:43:11Z</time>
</trkpt>
<trkpt lat="49.22813362" lon="19.85510147">
<ele>1178</ele>
<time>2014-08-20T17:43:17Z</time>
</trkpt>
<trkpt lat="49.22805709" lon="19.85515215">
<ele>1174</ele>
<time>2014-08-20T17:43:23Z</time>
</trkpt>
<trkpt lat="49.22805709" lon="19.85515215">
<ele>1174</ele>
<time>2014-08-20T17:43:29Z</time>
</trkpt>
<trkpt lat="49.2279709" lon="19.85530781">
<ele>1165</ele>
<time>2014-08-20T17:43:37Z</time>
</trkpt>
<trkpt lat="49.22790424" lon="19.85538195">
<ele>1167</ele>
<time>2014-08-20T17:43:43Z</time>
</trkpt>
<trkpt lat="49.22790424" lon="19.85538195">
<ele>1167</ele>
<time>2014-08-20T17:43:49Z</time>
</trkpt>
<trkpt lat="49.22788929" lon="19.85540496">
<ele>1166</ele>
<time>2014-08-20T17:43:55Z</time>
</trkpt>
<trkpt lat="49.22785351" lon="19.85544387">
<ele>1165</ele>
<time>2014-08-20T17:44:01Z</time>
</trkpt>
<trkpt lat="49.22781899" lon="19.85546915">
<ele>1165</ele>
<time>2014-08-20T17:44:07Z</time>
</trkpt>
<trkpt lat="49.22774084" lon="19.85556389">
<ele>1165</ele>
<time>2014-08-20T17:44:13Z</time>
</trkpt>
<trkpt lat="49.22774084" lon="19.85556389">
<ele>1165</ele>
<time>2014-08-20T17:44:19Z</time>
</trkpt>
<trkpt lat="49.22772207" lon="19.85559119">
<ele>1167</ele>
<time>2014-08-20T17:44:25Z</time>
</trkpt>
<trkpt lat="49.22764679" lon="19.85559523">
<ele>1154</ele>
<time>2014-08-20T17:44:31Z</time>
</trkpt>
<trkpt lat="49.22764679" lon="19.85559523">
<ele>1154</ele>
<time>2014-08-20T17:44:39Z</time>
</trkpt>
<trkpt lat="49.22757101" lon="19.85571699">
<ele>1153</ele>
<time>2014-08-20T17:44:45Z</time>
</trkpt>
<trkpt lat="49.22746676" lon="19.85576457">
<ele>1151</ele>
<time>2014-08-20T17:44:51Z</time>
</trkpt>
<trkpt lat="49.22746676" lon="19.85576457">
<ele>1151</ele>
<time>2014-08-20T17:44:57Z</time>
</trkpt>
<trkpt lat="49.22744259" lon="19.85579381">
<ele>1151</ele>
<time>2014-08-20T17:45:03Z</time>
</trkpt>
<trkpt lat="49.22743806" lon="19.85579499">
<ele>1151</ele>
<time>2014-08-20T17:45:09Z</time>
</trkpt>
<trkpt lat="49.2274266" lon="19.85580711">
<ele>1148</ele>
<time>2014-08-20T17:45:15Z</time>
</trkpt>
<trkpt lat="49.22742406" lon="19.85581183">
<ele>1148</ele>
<time>2014-08-20T17:45:21Z</time>
</trkpt>
<trkpt lat="49.22742492" lon="19.85581102">
<ele>1148</ele>
<time>2014-08-20T17:45:27Z</time>
</trkpt>
<trkpt lat="49.22735326" lon="19.8557792">
<ele>1144</ele>
<time>2014-08-20T17:45:35Z</time>
</trkpt>
<trkpt lat="49.22732522" lon="19.85586842">
<ele>1143</ele>
<time>2014-08-20T17:45:42Z</time>
</trkpt>
<trkpt lat="49.22732522" lon="19.85586842">
<ele>1143</ele>
<time>2014-08-20T17:45:48Z</time>
</trkpt>
<trkpt lat="49.22729597" lon="19.85596802">
<ele>1138</ele>
<time>2014-08-20T17:45:54Z</time>
</trkpt>
<trkpt lat="49.22730144" lon="19.85604411">
<ele>1136</ele>
<time>2014-08-20T17:46:00Z</time>
</trkpt>
<trkpt lat="49.22730568" lon="19.85613749">
<ele>1137</ele>
<time>2014-08-20T17:46:06Z</time>
</trkpt>
<trkpt lat="49.22727945" lon="19.8563298">
<ele>1136</ele>
<time>2014-08-20T17:46:12Z</time>
</trkpt>
<trkpt lat="49.22734261" lon="19.85652401">
<ele>1126</ele>
<time>2014-08-20T17:46:18Z</time>
</trkpt>
<trkpt lat="49.2273833" lon="19.85657696">
<ele>1126</ele>
<time>2014-08-20T17:46:24Z</time>
</trkpt>
<trkpt lat="49.2273833" lon="19.85657696">
<ele>1126</ele>
<time>2014-08-20T17:46:30Z</time>
</trkpt>
<trkpt lat="49.22741674" lon="19.85668215">
<ele>1128</ele>
<time>2014-08-20T17:46:37Z</time>
</trkpt>
<trkpt lat="49.22735581" lon="19.85686971">
<ele>1129</ele>
<time>2014-08-20T17:46:43Z</time>
</trkpt>
<trkpt lat="49.22735581" lon="19.85686971">
<ele>1129</ele>
<time>2014-08-20T17:46:49Z</time>
</trkpt>
<trkpt lat="49.22734357" lon="19.85699289">
<ele>1134</ele>
<time>2014-08-20T17:46:55Z</time>
</trkpt>
<trkpt lat="49.22734357" lon="19.85699289">
<ele>1134</ele>
<time>2014-08-20T17:47:01Z</time>
</trkpt>
<trkpt lat="49.22735686" lon="19.85705119">
<ele>1137</ele>
<time>2014-08-20T17:47:07Z</time>
</trkpt>
<trkpt lat="49.22738148" lon="19.85706826">
<ele>1141</ele>
<time>2014-08-20T17:47:13Z</time>
</trkpt>
<trkpt lat="49.22738548" lon="19.8570687">
<ele>1139</ele>
<time>2014-08-20T17:47:19Z</time>
</trkpt>
<trkpt lat="49.22741517" lon="19.8570731">
<ele>1140</ele>
<time>2014-08-20T17:47:25Z</time>
</trkpt>
<trkpt lat="49.22742676" lon="19.85706649">
<ele>1140</ele>
<time>2014-08-20T17:47:31Z</time>
</trkpt>
<trkpt lat="49.22742815" lon="19.85706599">
<ele>1141</ele>
<time>2014-08-20T17:47:39Z</time>
</trkpt>
<trkpt lat="49.22744517" lon="19.85705105">
<ele>1139</ele>
<time>2014-08-20T17:47:44Z</time>
</trkpt>
<trkpt lat="49.22745799" lon="19.85705683">
<ele>1140</ele>
<time>2014-08-20T17:47:51Z</time>
</trkpt>
<trkpt lat="49.22748783" lon="19.85713912">
<ele>1141</ele>
<time>2014-08-20T17:47:57Z</time>
</trkpt>
<trkpt lat="49.22748783" lon="19.85713912">
<ele>1141</ele>
<time>2014-08-20T17:48:03Z</time>
</trkpt>
<trkpt lat="49.22748474" lon="19.85717141">
<ele>1144</ele>
<time>2014-08-20T17:48:09Z</time>
</trkpt>
<trkpt lat="49.22748833" lon="19.85720273">
<ele>1140</ele>
<time>2014-08-20T17:48:15Z</time>
</trkpt>
<trkpt lat="49.2274904" lon="19.85719648">
<ele>1136</ele>
<time>2014-08-20T17:48:21Z</time>
</trkpt>
<trkpt lat="49.22749419" lon="19.85719182">
<ele>1135</ele>
<time>2014-08-20T17:48:27Z</time>
</trkpt>
<trkpt lat="49.22750076" lon="19.85723188">
<ele>1138</ele>
<time>2014-08-20T17:48:33Z</time>
</trkpt>
<trkpt lat="49.22749369" lon="19.85723417">
<ele>1139</ele>
<time>2014-08-20T17:48:39Z</time>
</trkpt>
<trkpt lat="49.22745243" lon="19.85725915">
<ele>1143</ele>
<time>2014-08-20T17:48:45Z</time>
</trkpt>
<trkpt lat="49.2273858" lon="19.85721761">
<ele>1153</ele>
<time>2014-08-20T17:48:51Z</time>
</trkpt>
<trkpt lat="49.2273858" lon="19.85721761">
<ele>1153</ele>
<time>2014-08-20T17:48:57Z</time>
</trkpt>
<trkpt lat="49.22739267" lon="19.85721973">
<ele>1155</ele>
<time>2014-08-20T17:49:03Z</time>
</trkpt>
<trkpt lat="49.22738975" lon="19.85720482">
<ele>1160</ele>
<time>2014-08-20T17:49:09Z</time>
</trkpt>
<trkpt lat="49.22747155" lon="19.85729303">
<ele>1157</ele>
<time>2014-08-20T17:49:15Z</time>
</trkpt>
<trkpt lat="49.22747155" lon="19.85729303">
<ele>1157</ele>
<time>2014-08-20T17:49:21Z</time>
</trkpt>
<trkpt lat="49.22761522" lon="19.85753554">
<ele>1146</ele>
<time>2014-08-20T17:49:27Z</time>
</trkpt>
<trkpt lat="49.22761522" lon="19.85753554">
<ele>1146</ele>
<time>2014-08-20T17:49:34Z</time>
</trkpt>
<trkpt lat="49.22769302" lon="19.8577047">
<ele>1140</ele>
<time>2014-08-20T17:49:41Z</time>
</trkpt>
<trkpt lat="49.22776911" lon="19.85784169">
<ele>1145</ele>
<time>2014-08-20T17:49:47Z</time>
</trkpt>
<trkpt lat="49.22776911" lon="19.85784169">
<ele>1145</ele>
<time>2014-08-20T17:49:53Z</time>
</trkpt>
<trkpt lat="49.22785046" lon="19.8579847">
<ele>1141</ele>
<time>2014-08-20T17:49:59Z</time>
</trkpt>
<trkpt lat="49.22792764" lon="19.85806057">
<ele>1139</ele>
<time>2014-08-20T17:50:05Z</time>
</trkpt>
<trkpt lat="49.22800317" lon="19.8581413">
<ele>1139</ele>
<time>2014-08-20T17:50:11Z</time>
</trkpt>
<trkpt lat="49.22800317" lon="19.8581413">
<ele>1139</ele>
<time>2014-08-20T17:50:17Z</time>
</trkpt>
<trkpt lat="49.22803352" lon="19.85816601">
<ele>1136</ele>
<time>2014-08-20T17:50:23Z</time>
</trkpt>
<trkpt lat="49.22801397" lon="19.85818089">
<ele>1131</ele>
<time>2014-08-20T17:50:29Z</time>
</trkpt>
<trkpt lat="49.22800253" lon="19.85819374">
<ele>1132</ele>
<time>2014-08-20T17:50:37Z</time>
</trkpt>
<trkpt lat="49.22808823" lon="19.85831309">
<ele>1133</ele>
<time>2014-08-20T17:50:43Z</time>
</trkpt>
<trkpt lat="49.2281348" lon="19.85841004">
<ele>1133</ele>
<time>2014-08-20T17:50:49Z</time>
</trkpt>
<trkpt lat="49.22819411" lon="19.85847028">
<ele>1135</ele>
<time>2014-08-20T17:50:55Z</time>
</trkpt>
<trkpt lat="49.22825459" lon="19.85846963">
<ele>1138</ele>
<time>2014-08-20T17:51:01Z</time>
</trkpt>
<trkpt lat="49.22831822" lon="19.85844428">
<ele>1140</ele>
<time>2014-08-20T17:51:07Z</time>
</trkpt>
<trkpt lat="49.2283814" lon="19.85847199">
<ele>1144</ele>
<time>2014-08-20T17:51:13Z</time>
</trkpt>
<trkpt lat="49.22846281" lon="19.85855675">
<ele>1141</ele>
<time>2014-08-20T17:51:19Z</time>
</trkpt>
<trkpt lat="49.22853143" lon="19.85862143">
<ele>1140</ele>
<time>2014-08-20T17:51:25Z</time>
</trkpt>
<trkpt lat="49.22860463" lon="19.85866592">
<ele>1140</ele>
<time>2014-08-20T17:51:31Z</time>
</trkpt>
<trkpt lat="49.22860463" lon="19.85866592">
<ele>1140</ele>
<time>2014-08-20T17:51:39Z</time>
</trkpt>
<trkpt lat="49.22869761" lon="19.85868816">
<ele>1145</ele>
<time>2014-08-20T17:51:45Z</time>
</trkpt>
<trkpt lat="49.22875543" lon="19.85870008">
<ele>1146</ele>
<time>2014-08-20T17:51:51Z</time>
</trkpt>
<trkpt lat="49.2288324" lon="19.85874053">
<ele>1145</ele>
<time>2014-08-20T17:51:57Z</time>
</trkpt>
<trkpt lat="49.22887007" lon="19.8587894">
<ele>1144</ele>
<time>2014-08-20T17:52:03Z</time>
</trkpt>
<trkpt lat="49.22887007" lon="19.8587894">
<ele>1144</ele>
<time>2014-08-20T17:52:09Z</time>
</trkpt>
<trkpt lat="49.22896802" lon="19.8588217">
<ele>1145</ele>
<time>2014-08-20T17:52:15Z</time>
</trkpt>
<trkpt lat="49.22902099" lon="19.8588581">
<ele>1145</ele>
<time>2014-08-20T17:52:21Z</time>
</trkpt>
<trkpt lat="49.22902099" lon="19.8588581">
<ele>1145</ele>
<time>2014-08-20T17:52:27Z</time>
</trkpt>
<trkpt lat="49.22904174" lon="19.85886269">
<ele>1146</ele>
<time>2014-08-20T17:52:34Z</time>
</trkpt>
<trkpt lat="49.2290457" lon="19.85885204">
<ele>1146</ele>
<time>2014-08-20T17:52:41Z</time>
</trkpt>
<trkpt lat="49.22903238" lon="19.85885185">
<ele>1146</ele>
<time>2014-08-20T17:52:47Z</time>
</trkpt>
<trkpt lat="49.22902788" lon="19.8588707">
<ele>1146</ele>
<time>2014-08-20T17:52:53Z</time>
</trkpt>
<trkpt lat="49.22902692" lon="19.85887196">
<ele>1146</ele>
<time>2014-08-20T17:52:59Z</time>
</trkpt>
<trkpt lat="49.22902707" lon="19.85887216">
<ele>1146</ele>
<time>2014-08-20T17:53:06Z</time>
</trkpt>
<trkpt lat="49.2290271" lon="19.85887209">
<ele>1146</ele>
<time>2014-08-20T17:53:13Z</time>
</trkpt>
<trkpt lat="49.22902714" lon="19.858872">
<ele>1146</ele>
<time>2014-08-20T17:53:19Z</time>
</trkpt>
<trkpt lat="49.22902717" lon="19.85887193">
<ele>1146</ele>
<time>2014-08-20T17:55:37Z</time>
</trkpt>
<trkpt lat="49.22902732" lon="19.85887066">
<ele>1146</ele>
<time>2014-08-20T17:55:44Z</time>
</trkpt>
<trkpt lat="49.22893266" lon="19.85875975">
<ele>1144</ele>
<time>2014-08-20T17:55:50Z</time>
</trkpt>
<trkpt lat="49.22891082" lon="19.85865175">
<ele>1141</ele>
<time>2014-08-20T17:55:56Z</time>
</trkpt>
<trkpt lat="49.22884578" lon="19.85858058">
<ele>1138</ele>
<time>2014-08-20T17:56:02Z</time>
</trkpt>
<trkpt lat="49.22884578" lon="19.85858058">
<ele>1138</ele>
<time>2014-08-20T17:56:08Z</time>
</trkpt>
<trkpt lat="49.22885857" lon="19.85854467">
<ele>1144</ele>
<time>2014-08-20T17:56:14Z</time>
</trkpt>
<trkpt lat="49.22886398" lon="19.85852541">
<ele>1144</ele>
<time>2014-08-20T17:56:20Z</time>
</trkpt>
<trkpt lat="49.22887488" lon="19.85847345">
<ele>1142</ele>
<time>2014-08-20T17:56:26Z</time>
</trkpt>
<trkpt lat="49.22897165" lon="19.85869801">
<ele>1145</ele>
<time>2014-08-20T17:56:32Z</time>
</trkpt>
<trkpt lat="49.2289837" lon="19.85877729">
<ele>1146</ele>
<time>2014-08-20T17:56:39Z</time>
</trkpt>
<trkpt lat="49.2289837" lon="19.85877729">
<ele>1146</ele>
<time>2014-08-20T17:56:45Z</time>
</trkpt>
<trkpt lat="49.22891615" lon="19.85884808">
<ele>1151</ele>
<time>2014-08-20T17:56:51Z</time>
</trkpt>
<trkpt lat="49.22887292" lon="19.85888158">
<ele>1151</ele>
<time>2014-08-20T17:56:57Z</time>
</trkpt>
<trkpt lat="49.22887292" lon="19.85888158">
<ele>1151</ele>
<time>2014-08-20T17:57:03Z</time>
</trkpt>
<trkpt lat="49.22885381" lon="19.85887645">
<ele>1151</ele>
<time>2014-08-20T17:57:09Z</time>
</trkpt>
<trkpt lat="49.22887257" lon="19.85892628">
<ele>1148</ele>
<time>2014-08-20T17:57:15Z</time>
</trkpt>
<trkpt lat="49.22893751" lon="19.85892428">
<ele>1149</ele>
<time>2014-08-20T17:57:21Z</time>
</trkpt>
<trkpt lat="49.22893751" lon="19.85892428">
<ele>1149</ele>
<time>2014-08-20T17:57:27Z</time>
</trkpt>
<trkpt lat="49.22896287" lon="19.85892767">
<ele>1148</ele>
<time>2014-08-20T17:57:34Z</time>
</trkpt>
<trkpt lat="49.22899559" lon="19.8589284">
<ele>1149</ele>
<time>2014-08-20T17:57:41Z</time>
</trkpt>
<trkpt lat="49.22901451" lon="19.85895179">
<ele>1149</ele>
<time>2014-08-20T17:57:47Z</time>
</trkpt>
<trkpt lat="49.22896214" lon="19.858933">
<ele>1146</ele>
<time>2014-08-20T17:57:53Z</time>
</trkpt>
<trkpt lat="49.22896214" lon="19.858933">
<ele>1146</ele>
<time>2014-08-20T17:57:59Z</time>
</trkpt>
<trkpt lat="49.2290164" lon="19.85900957">
<ele>1140</ele>
<time>2014-08-20T17:58:05Z</time>
</trkpt>
<trkpt lat="49.2290164" lon="19.85900957">
<ele>1140</ele>
<time>2014-08-20T17:58:11Z</time>
</trkpt>
<trkpt lat="49.22904764" lon="19.85905044">
<ele>1138</ele>
<time>2014-08-20T17:58:17Z</time>
</trkpt>
<trkpt lat="49.22901824" lon="19.85895862">
<ele>1143</ele>
<time>2014-08-20T17:58:23Z</time>
</trkpt>
<trkpt lat="49.22888444" lon="19.85876029">
<ele>1146</ele>
<time>2014-08-20T17:58:29Z</time>
</trkpt>
<trkpt lat="49.22888444" lon="19.85876029">
<ele>1146</ele>
<time>2014-08-20T17:58:37Z</time>
</trkpt>
<trkpt lat="49.22884782" lon="19.85872247">
<ele>1147</ele>
<time>2014-08-20T17:58:43Z</time>
</trkpt>
<trkpt lat="49.2288347" lon="19.85881242">
<ele>1147</ele>
<time>2014-08-20T17:58:49Z</time>
</trkpt>
<trkpt lat="49.2288347" lon="19.85881242">
<ele>1147</ele>
<time>2014-08-20T17:58:55Z</time>
</trkpt>
<trkpt lat="49.22875383" lon="19.8587549">
<ele>1146</ele>
<time>2014-08-20T17:59:01Z</time>
</trkpt>
<trkpt lat="49.22880899" lon="19.85866711">
<ele>1146</ele>
<time>2014-08-20T17:59:07Z</time>
</trkpt>
<trkpt lat="49.22887755" lon="19.85864207">
<ele>1147</ele>
<time>2014-08-20T17:59:13Z</time>
</trkpt>
<trkpt lat="49.22887755" lon="19.85864207">
<ele>1147</ele>
<time>2014-08-20T17:59:19Z</time>
</trkpt>
<trkpt lat="49.22889211" lon="19.85861375">
<ele>1147</ele>
<time>2014-08-20T17:59:25Z</time>
</trkpt>
<trkpt lat="49.22895021" lon="19.85863878">
<ele>1147</ele>
<time>2014-08-20T17:59:31Z</time>
</trkpt>
<trkpt lat="49.22895021" lon="19.85863878">
<ele>1147</ele>
<time>2014-08-20T17:59:39Z</time>
</trkpt>
<trkpt lat="49.22884072" lon="19.85874273">
<ele>1148</ele>
<time>2014-08-20T17:59:45Z</time>
</trkpt>
<trkpt lat="49.22884072" lon="19.85874273">
<ele>1148</ele>
<time>2014-08-20T17:59:51Z</time>
</trkpt>
<trkpt lat="49.22880394" lon="19.85873706">
<ele>1155</ele>
<time>2014-08-20T17:59:57Z</time>
</trkpt>
<trkpt lat="49.22882185" lon="19.85873034">
<ele>1158</ele>
<time>2014-08-20T18:00:03Z</time>
</trkpt>
<trkpt lat="49.22890769" lon="19.85865677">
<ele>1161</ele>
<time>2014-08-20T18:00:09Z</time>
</trkpt>
<trkpt lat="49.22890769" lon="19.85865677">
<ele>1161</ele>
<time>2014-08-20T18:00:15Z</time>
</trkpt>
<trkpt lat="49.22893319" lon="19.85861604">
<ele>1162</ele>
<time>2014-08-20T18:00:21Z</time>
</trkpt>
<trkpt lat="49.22895948" lon="19.85859101">
<ele>1163</ele>
<time>2014-08-20T18:00:27Z</time>
</trkpt>
<trkpt lat="49.22891155" lon="19.85867523">
<ele>1166</ele>
<time>2014-08-20T18:00:35Z</time>
</trkpt>
<trkpt lat="49.228825" lon="19.85880799">
<ele>1163</ele>
<time>2014-08-20T18:00:42Z</time>
</trkpt>
<trkpt lat="49.228825" lon="19.85880799">
<ele>1163</ele>
<time>2014-08-20T18:00:48Z</time>
</trkpt>
<trkpt lat="49.22885333" lon="19.85880917">
<ele>1169</ele>
<time>2014-08-20T18:00:54Z</time>
</trkpt>
<trkpt lat="49.22885588" lon="19.85885253">
<ele>1169</ele>
<time>2014-08-20T18:01:00Z</time>
</trkpt>
<trkpt lat="49.22883157" lon="19.85889248">
<ele>1169</ele>
<time>2014-08-20T18:01:06Z</time>
</trkpt>
<trkpt lat="49.22882379" lon="19.85890176">
<ele>1170</ele>
<time>2014-08-20T18:01:12Z</time>
</trkpt>
<trkpt lat="49.22881922" lon="19.85883427">
<ele>1173</ele>
<time>2014-08-20T18:01:18Z</time>
</trkpt>
<trkpt lat="49.22878259" lon="19.85867049">
<ele>1171</ele>
<time>2014-08-20T18:01:24Z</time>
</trkpt>
<trkpt lat="49.22878259" lon="19.85867049">
<ele>1171</ele>
<time>2014-08-20T18:01:30Z</time>
</trkpt>
<trkpt lat="49.22877956" lon="19.85865846">
<ele>1170</ele>
<time>2014-08-20T18:01:37Z</time>
</trkpt>
<trkpt lat="49.22878325" lon="19.85864246">
<ele>1169</ele>
<time>2014-08-20T18:01:43Z</time>
</trkpt>
<trkpt lat="49.22879176" lon="19.85848328">
<ele>1167</ele>
<time>2014-08-20T18:01:49Z</time>
</trkpt>
<trkpt lat="49.22876155" lon="19.85841219">
<ele>1165</ele>
<time>2014-08-20T18:01:55Z</time>
</trkpt>
<trkpt lat="49.22876155" lon="19.85841219">
<ele>1165</ele>
<time>2014-08-20T18:02:01Z</time>
</trkpt>
<trkpt lat="49.22877503" lon="19.85842528">
<ele>1165</ele>
<time>2014-08-20T18:02:07Z</time>
</trkpt>
<trkpt lat="49.22880102" lon="19.85846873">
<ele>1166</ele>
<time>2014-08-20T18:02:13Z</time>
</trkpt>
<trkpt lat="49.22881261" lon="19.85831122">
<ele>1172</ele>
<time>2014-08-20T18:02:19Z</time>
</trkpt>
<trkpt lat="49.22881261" lon="19.85831122">
<ele>1172</ele>
<time>2014-08-20T18:02:25Z</time>
</trkpt>
<trkpt lat="49.22880142" lon="19.85829413">
<ele>1172</ele>
<time>2014-08-20T18:02:31Z</time>
</trkpt>
<trkpt lat="49.2286785" lon="19.85838223">
<ele>1172</ele>
<time>2014-08-20T18:02:43Z</time>
</trkpt>
<trkpt lat="49.2286785" lon="19.85838223">
<ele>1172</ele>
<time>2014-08-20T18:02:49Z</time>
</trkpt>
<trkpt lat="49.22872769" lon="19.85851389">
<ele>1173</ele>
<time>2014-08-20T18:02:55Z</time>
</trkpt>
<trkpt lat="49.22874968" lon="19.85860734">
<ele>1173</ele>
<time>2014-08-20T18:03:01Z</time>
</trkpt>
<trkpt lat="49.22874968" lon="19.85860734">
<ele>1173</ele>
<time>2014-08-20T18:03:07Z</time>
</trkpt>
<trkpt lat="49.22874883" lon="19.85856197">
<ele>1173</ele>
<time>2014-08-20T18:03:13Z</time>
</trkpt>
<trkpt lat="49.22868874" lon="19.85860804">
<ele>1172</ele>
<time>2014-08-20T18:03:19Z</time>
</trkpt>
<trkpt lat="49.22868874" lon="19.85860804">
<ele>1172</ele>
<time>2014-08-20T18:03:25Z</time>
</trkpt>
<trkpt lat="49.22873625" lon="19.85880671">
<ele>1175</ele>
<time>2014-08-20T18:03:31Z</time>
</trkpt>
<trkpt lat="49.22879082" lon="19.85886095">
<ele>1176</ele>
<time>2014-08-20T18:03:42Z</time>
</trkpt>
<trkpt lat="49.22875175" lon="19.85880227">
<ele>1175</ele>
<time>2014-08-20T18:03:48Z</time>
</trkpt>
<trkpt lat="49.22875175" lon="19.85880227">
<ele>1175</ele>
<time>2014-08-20T18:03:54Z</time>
</trkpt>
<trkpt lat="49.22872657" lon="19.85865885">
<ele>1172</ele>
<time>2014-08-20T18:04:00Z</time>
</trkpt>
<trkpt lat="49.22866548" lon="19.85861718">
<ele>1173</ele>
<time>2014-08-20T18:04:06Z</time>
</trkpt>
<trkpt lat="49.22866548" lon="19.85861718">
<ele>1173</ele>
<time>2014-08-20T18:04:12Z</time>
</trkpt>
<trkpt lat="49.22865331" lon="19.85865088">
<ele>1176</ele>
<time>2014-08-20T18:04:18Z</time>
</trkpt>
<trkpt lat="49.22864612" lon="19.85869816">
<ele>1177</ele>
<time>2014-08-20T18:04:24Z</time>
</trkpt>
<trkpt lat="49.22864855" lon="19.85873493">
<ele>1176</ele>
<time>2014-08-20T18:04:30Z</time>
</trkpt>
<trkpt lat="49.22863789" lon="19.85875285">
<ele>1176</ele>
<time>2014-08-20T18:04:37Z</time>
</trkpt>
<trkpt lat="49.22859117" lon="19.85886898">
<ele>1175</ele>
<time>2014-08-20T18:04:43Z</time>
</trkpt>
<trkpt lat="49.22859117" lon="19.85886898">
<ele>1175</ele>
<time>2014-08-20T18:04:49Z</time>
</trkpt>
<trkpt lat="49.22854519" lon="19.85892159">
<ele>1177</ele>
<time>2014-08-20T18:04:55Z</time>
</trkpt>
<trkpt lat="49.22849166" lon="19.85877027">
<ele>1176</ele>
<time>2014-08-20T18:05:01Z</time>
</trkpt>
<trkpt lat="49.22849166" lon="19.85877027">
<ele>1176</ele>
<time>2014-08-20T18:05:07Z</time>
</trkpt>
<trkpt lat="49.22851634" lon="19.85870016">
<ele>1175</ele>
<time>2014-08-20T18:05:13Z</time>
</trkpt>
<trkpt lat="49.22855096" lon="19.85861791">
<ele>1174</ele>
<time>2014-08-20T18:05:19Z</time>
</trkpt>
<trkpt lat="49.22855096" lon="19.85861791">
<ele>1174</ele>
<time>2014-08-20T18:05:25Z</time>
</trkpt>
<trkpt lat="49.22852593" lon="19.85844536">
<ele>1174</ele>
<time>2014-08-20T18:05:31Z</time>
</trkpt>
<trkpt lat="49.22857793" lon="19.85823851">
<ele>1174</ele>
<time>2014-08-20T18:05:47Z</time>
</trkpt>
<trkpt lat="49.22857793" lon="19.85823851">
<ele>1174</ele>
<time>2014-08-20T18:05:53Z</time>
</trkpt>
<trkpt lat="49.22875868" lon="19.85842384">
<ele>1174</ele>
<time>2014-08-20T18:05:59Z</time>
</trkpt>
<trkpt lat="49.22871706" lon="19.85852172">
<ele>1172</ele>
<time>2014-08-20T18:06:05Z</time>
</trkpt>
<trkpt lat="49.22864385" lon="19.85849045">
<ele>1173</ele>
<time>2014-08-20T18:06:11Z</time>
</trkpt>
<trkpt lat="49.22864385" lon="19.85849045">
<ele>1173</ele>
<time>2014-08-20T18:06:17Z</time>
</trkpt>
<trkpt lat="49.22863889" lon="19.85848017">
<ele>1174</ele>
<time>2014-08-20T18:06:23Z</time>
</trkpt>
<trkpt lat="49.22861827" lon="19.85842671">
<ele>1172</ele>
<time>2014-08-20T18:06:29Z</time>
</trkpt>
<trkpt lat="49.22868857" lon="19.8586026">
<ele>1168</ele>
<time>2014-08-20T18:06:45Z</time>
</trkpt>
<trkpt lat="49.22876627" lon="19.85874006">
<ele>1161</ele>
<time>2014-08-20T18:06:51Z</time>
</trkpt>
<trkpt lat="49.22876627" lon="19.85874006">
<ele>1161</ele>
<time>2014-08-20T18:06:57Z</time>
</trkpt>
<trkpt lat="49.22859091" lon="19.85902217">
<ele>1155</ele>
<time>2014-08-20T18:07:03Z</time>
</trkpt>
<trkpt lat="49.22854874" lon="19.85907826">
<ele>1155</ele>
<time>2014-08-20T18:07:09Z</time>
</trkpt>
<trkpt lat="49.22850659" lon="19.85914924">
<ele>1160</ele>
<time>2014-08-20T18:07:15Z</time>
</trkpt>
<trkpt lat="49.22850659" lon="19.85914924">
<ele>1160</ele>
<time>2014-08-20T18:07:21Z</time>
</trkpt>
<trkpt lat="49.22858919" lon="19.85902032">
<ele>1159</ele>
<time>2014-08-20T18:07:27Z</time>
</trkpt>
<trkpt lat="49.22862052" lon="19.85884842">
<ele>1160</ele>
<time>2014-08-20T18:07:36Z</time>
</trkpt>
<trkpt lat="49.22862052" lon="19.85884842">
<ele>1160</ele>
<time>2014-08-20T18:07:43Z</time>
</trkpt>
<trkpt lat="49.22873872" lon="19.85892796">
<ele>1162</ele>
<time>2014-08-20T18:07:49Z</time>
</trkpt>
<trkpt lat="49.22879633" lon="19.8590291">
<ele>1162</ele>
<time>2014-08-20T18:07:55Z</time>
</trkpt>
<trkpt lat="49.22876767" lon="19.85893613">
<ele>1161</ele>
<time>2014-08-20T18:08:01Z</time>
</trkpt>
<trkpt lat="49.22876767" lon="19.85893613">
<ele>1161</ele>
<time>2014-08-20T18:08:07Z</time>
</trkpt>
<trkpt lat="49.22873969" lon="19.85898187">
<ele>1161</ele>
<time>2014-08-20T18:08:13Z</time>
</trkpt>
<trkpt lat="49.22866098" lon="19.85889094">
<ele>1166</ele>
<time>2014-08-20T18:08:19Z</time>
</trkpt>
<trkpt lat="49.22866098" lon="19.85889094">
<ele>1166</ele>
<time>2014-08-20T18:08:25Z</time>
</trkpt>
<trkpt lat="49.22865139" lon="19.85884138">
<ele>1166</ele>
<time>2014-08-20T18:08:31Z</time>
</trkpt>
<trkpt lat="49.22864377" lon="19.85882302">
<ele>1170</ele>
<time>2014-08-20T18:08:39Z</time>
</trkpt>
<trkpt lat="49.22869408" lon="19.85871466">
<ele>1168</ele>
<time>2014-08-20T18:08:45Z</time>
</trkpt>
<trkpt lat="49.22869408" lon="19.85871466">
<ele>1168</ele>
<time>2014-08-20T18:08:51Z</time>
</trkpt>
<trkpt lat="49.22871" lon="19.85869932">
<ele>1168</ele>
<time>2014-08-20T18:08:57Z</time>
</trkpt>
<trkpt lat="49.22865655" lon="19.85874775">
<ele>1169</ele>
<time>2014-08-20T18:09:03Z</time>
</trkpt>
<trkpt lat="49.22865655" lon="19.85874775">
<ele>1169</ele>
<time>2014-08-20T18:09:09Z</time>
</trkpt>
<trkpt lat="49.22862923" lon="19.85878211">
<ele>1167</ele>
<time>2014-08-20T18:09:15Z</time>
</trkpt>
<trkpt lat="49.22860386" lon="19.8586996">
<ele>1167</ele>
<time>2014-08-20T18:09:21Z</time>
</trkpt>
<trkpt lat="49.22860386" lon="19.8586996">
<ele>1167</ele>
<time>2014-08-20T18:09:27Z</time>
</trkpt>
<trkpt lat="49.22863507" lon="19.85860675">
<ele>1164</ele>
<time>2014-08-20T18:09:36Z</time>
</trkpt>
<trkpt lat="49.22870273" lon="19.85869076">
<ele>1162</ele>
<time>2014-08-20T18:09:43Z</time>
</trkpt>
<trkpt lat="49.22870273" lon="19.85869076">
<ele>1162</ele>
<time>2014-08-20T18:09:49Z</time>
</trkpt>
<trkpt lat="49.22870953" lon="19.8587056">
<ele>1162</ele>
<time>2014-08-20T18:09:55Z</time>
</trkpt>
<trkpt lat="49.22867349" lon="19.85864881">
<ele>1160</ele>
<time>2014-08-20T18:10:01Z</time>
</trkpt>
<trkpt lat="49.22867349" lon="19.85864881">
<ele>1160</ele>
<time>2014-08-20T18:10:07Z</time>
</trkpt>
<trkpt lat="49.2286179" lon="19.8585408">
<ele>1157</ele>
<time>2014-08-20T18:10:13Z</time>
</trkpt>
<trkpt lat="49.22857794" lon="19.85847172">
<ele>1153</ele>
<time>2014-08-20T18:10:19Z</time>
</trkpt>
<trkpt lat="49.22858076" lon="19.85856965">
<ele>1150</ele>
<time>2014-08-20T18:10:25Z</time>
</trkpt>
<trkpt lat="49.22858159" lon="19.85864555">
<ele>1148</ele>
<time>2014-08-20T18:10:31Z</time>
</trkpt>
<trkpt lat="49.22858159" lon="19.85864555">
<ele>1148</ele>
<time>2014-08-20T18:10:40Z</time>
</trkpt>
<trkpt lat="49.22864065" lon="19.85866272">
<ele>1144</ele>
<time>2014-08-20T18:10:46Z</time>
</trkpt>
<trkpt lat="49.22864065" lon="19.85866272">
<ele>1144</ele>
<time>2014-08-20T18:10:52Z</time>
</trkpt>
<trkpt lat="49.22863252" lon="19.8586357">
<ele>1144</ele>
<time>2014-08-20T18:10:58Z</time>
</trkpt>
<trkpt lat="49.22860461" lon="19.85855881">
<ele>1141</ele>
<time>2014-08-20T18:11:04Z</time>
</trkpt>
<trkpt lat="49.22860461" lon="19.85855881">
<ele>1141</ele>
<time>2014-08-20T18:11:10Z</time>
</trkpt>
<trkpt lat="49.22860617" lon="19.85845832">
<ele>1143</ele>
<time>2014-08-20T18:11:16Z</time>
</trkpt>
<trkpt lat="49.22860617" lon="19.85845832">
<ele>1143</ele>
<time>2014-08-20T18:11:22Z</time>
</trkpt>
<trkpt lat="49.22872621" lon="19.8585629">
<ele>1144</ele>
<time>2014-08-20T18:11:28Z</time>
</trkpt>
<trkpt lat="49.22872621" lon="19.8585629">
<ele>1144</ele>
<time>2014-08-20T18:11:35Z</time>
</trkpt>
<trkpt lat="49.22879561" lon="19.85851221">
<ele>1144</ele>
<time>2014-08-20T18:11:41Z</time>
</trkpt>
<trkpt lat="49.22879561" lon="19.85851221">
<ele>1144</ele>
<time>2014-08-20T18:11:47Z</time>
</trkpt>
<trkpt lat="49.22875957" lon="19.85861231">
<ele>1141</ele>
<time>2014-08-20T18:11:53Z</time>
</trkpt>
<trkpt lat="49.22875957" lon="19.85861231">
<ele>1141</ele>
<time>2014-08-20T18:11:59Z</time>
</trkpt>
<trkpt lat="49.22875805" lon="19.8586245">
<ele>1139</ele>
<time>2014-08-20T18:12:05Z</time>
</trkpt>
<trkpt lat="49.22873502" lon="19.85872343">
<ele>1137</ele>
<time>2014-08-20T18:12:11Z</time>
</trkpt>
<trkpt lat="49.22873502" lon="19.85872343">
<ele>1137</ele>
<time>2014-08-20T18:12:17Z</time>
</trkpt>
<trkpt lat="49.22873918" lon="19.85872581">
<ele>1138</ele>
<time>2014-08-20T18:12:23Z</time>
</trkpt>
<trkpt lat="49.22873218" lon="19.85871401">
<ele>1139</ele>
<time>2014-08-20T18:12:29Z</time>
</trkpt>
<trkpt lat="49.22873102" lon="19.85871497">
<ele>1139</ele>
<time>2014-08-20T18:12:37Z</time>
</trkpt>
<trkpt lat="49.2287317" lon="19.85871599">
<ele>1139</ele>
<time>2014-08-20T18:12:43Z</time>
</trkpt>
<trkpt lat="49.228918" lon="19.85861899">
<ele>1139</ele>
<time>2014-08-20T18:12:49Z</time>
</trkpt>
<trkpt lat="49.22896947" lon="19.85864939">
<ele>1147</ele>
<time>2014-08-20T18:12:55Z</time>
</trkpt>
<trkpt lat="49.22899329" lon="19.85873636">
<ele>1149</ele>
<time>2014-08-20T18:13:01Z</time>
</trkpt>
<trkpt lat="49.22899329" lon="19.85873636">
<ele>1149</ele>
<time>2014-08-20T18:13:07Z</time>
</trkpt>
<trkpt lat="49.22902305" lon="19.85885888">
<ele>1148</ele>
<time>2014-08-20T18:13:13Z</time>
</trkpt>
<trkpt lat="49.22906219" lon="19.85895867">
<ele>1147</ele>
<time>2014-08-20T18:13:19Z</time>
</trkpt>
<trkpt lat="49.22910706" lon="19.8590556">
<ele>1144</ele>
<time>2014-08-20T18:13:25Z</time>
</trkpt>
<trkpt lat="49.22913304" lon="19.85913338">
<ele>1147</ele>
<time>2014-08-20T18:13:31Z</time>
</trkpt>
<trkpt lat="49.22913304" lon="19.85913338">
<ele>1147</ele>
<time>2014-08-20T18:13:39Z</time>
</trkpt>
<trkpt lat="49.22918829" lon="19.85914099">
<ele>1162</ele>
<time>2014-08-20T18:13:45Z</time>
</trkpt>
<trkpt lat="49.22918829" lon="19.85914099">
<ele>1162</ele>
<time>2014-08-20T18:13:51Z</time>
</trkpt>
<trkpt lat="49.22922906" lon="19.85914275">
<ele>1167</ele>
<time>2014-08-20T18:13:57Z</time>
</trkpt>
<trkpt lat="49.22924032" lon="19.85917258">
<ele>1170</ele>
<time>2014-08-20T18:14:03Z</time>
</trkpt>
<trkpt lat="49.22924329" lon="19.85924021">
<ele>1172</ele>
<time>2014-08-20T18:14:09Z</time>
</trkpt>
<trkpt lat="49.22926949" lon="19.85928888">
<ele>1171</ele>
<time>2014-08-20T18:14:15Z</time>
</trkpt>
<trkpt lat="49.22931532" lon="19.85936722">
<ele>1172</ele>
<time>2014-08-20T18:14:21Z</time>
</trkpt>
<trkpt lat="49.22931532" lon="19.85936722">
<ele>1172</ele>
<time>2014-08-20T18:14:27Z</time>
</trkpt>
<trkpt lat="49.22931173" lon="19.85941101">
<ele>1172</ele>
<time>2014-08-20T18:14:34Z</time>
</trkpt>
<trkpt lat="49.22930177" lon="19.85945955">
<ele>1172</ele>
<time>2014-08-20T18:14:41Z</time>
</trkpt>
<trkpt lat="49.22931085" lon="19.85950566">
<ele>1171</ele>
<time>2014-08-20T18:14:47Z</time>
</trkpt>
<trkpt lat="49.22933369" lon="19.85951834">
<ele>1171</ele>
<time>2014-08-20T18:14:53Z</time>
</trkpt>
<trkpt lat="49.22937122" lon="19.85952006">
<ele>1171</ele>
<time>2014-08-20T18:14:59Z</time>
</trkpt>
<trkpt lat="49.22946056" lon="19.85956684">
<ele>1176</ele>
<time>2014-08-20T18:15:05Z</time>
</trkpt>
<trkpt lat="49.2295105" lon="19.85960133">
<ele>1178</ele>
<time>2014-08-20T18:15:11Z</time>
</trkpt>
<trkpt lat="49.2295105" lon="19.85960133">
<ele>1178</ele>
<time>2014-08-20T18:15:17Z</time>
</trkpt>
<trkpt lat="49.22960959" lon="19.85960579">
<ele>1179</ele>
<time>2014-08-20T18:15:23Z</time>
</trkpt>
<trkpt lat="49.22967529" lon="19.85959329">
<ele>1183</ele>
<time>2014-08-20T18:15:29Z</time>
</trkpt>
<trkpt lat="49.22973195" lon="19.85957784">
<ele>1184</ele>
<time>2014-08-20T18:15:37Z</time>
</trkpt>
<trkpt lat="49.22983829" lon="19.85960082">
<ele>1177</ele>
<time>2014-08-20T18:15:43Z</time>
</trkpt>
<trkpt lat="49.22992047" lon="19.85963406">
<ele>1177</ele>
<time>2014-08-20T18:15:49Z</time>
</trkpt>
<trkpt lat="49.23001279" lon="19.85963745">
<ele>1177</ele>
<time>2014-08-20T18:15:55Z</time>
</trkpt>
<trkpt lat="49.23007777" lon="19.85960534">
<ele>1179</ele>
<time>2014-08-20T18:16:01Z</time>
</trkpt>
<trkpt lat="49.2301681" lon="19.85958744">
<ele>1180</ele>
<time>2014-08-20T18:16:07Z</time>
</trkpt>
<trkpt lat="49.23027087" lon="19.85955451">
<ele>1185</ele>
<time>2014-08-20T18:16:13Z</time>
</trkpt>
<trkpt lat="49.23035472" lon="19.85952216">
<ele>1190</ele>
<time>2014-08-20T18:16:19Z</time>
</trkpt>
<trkpt lat="49.23043871" lon="19.85948672">
<ele>1194</ele>
<time>2014-08-20T18:16:25Z</time>
</trkpt>
<trkpt lat="49.23051902" lon="19.85947716">
<ele>1191</ele>
<time>2014-08-20T18:16:31Z</time>
</trkpt>
<trkpt lat="49.23051902" lon="19.85947716">
<ele>1191</ele>
<time>2014-08-20T18:16:39Z</time>
</trkpt>
<trkpt lat="49.23069936" lon="19.8594359">
<ele>1187</ele>
<time>2014-08-20T18:16:45Z</time>
</trkpt>
<trkpt lat="49.2307683" lon="19.85940477">
<ele>1185</ele>
<time>2014-08-20T18:16:51Z</time>
</trkpt>
<trkpt lat="49.230834" lon="19.85936718">
<ele>1183</ele>
<time>2014-08-20T18:16:57Z</time>
</trkpt>
<trkpt lat="49.23091895" lon="19.85933193">
<ele>1185</ele>
<time>2014-08-20T18:17:03Z</time>
</trkpt>
<trkpt lat="49.23098028" lon="19.85928453">
<ele>1179</ele>
<time>2014-08-20T18:17:09Z</time>
</trkpt>
<trkpt lat="49.23106152" lon="19.85923171">
<ele>1177</ele>
<time>2014-08-20T18:17:15Z</time>
</trkpt>
<trkpt lat="49.23113124" lon="19.85915774">
<ele>1178</ele>
<time>2014-08-20T18:17:21Z</time>
</trkpt>
<trkpt lat="49.23119445" lon="19.8590866">
<ele>1175</ele>
<time>2014-08-20T18:17:27Z</time>
</trkpt>
<trkpt lat="49.23125711" lon="19.85899066">
<ele>1171</ele>
<time>2014-08-20T18:17:34Z</time>
</trkpt>
<trkpt lat="49.23132376" lon="19.85888503">
<ele>1170</ele>
<time>2014-08-20T18:17:41Z</time>
</trkpt>
<trkpt lat="49.23132376" lon="19.85888503">
<ele>1170</ele>
<time>2014-08-20T18:17:47Z</time>
</trkpt>
<trkpt lat="49.23147271" lon="19.85875448">
<ele>1170</ele>
<time>2014-08-20T18:17:53Z</time>
</trkpt>
<trkpt lat="49.23155478" lon="19.8587165">
<ele>1168</ele>
<time>2014-08-20T18:17:59Z</time>
</trkpt>
<trkpt lat="49.23161777" lon="19.8586768">
<ele>1168</ele>
<time>2014-08-20T18:18:05Z</time>
</trkpt>
<trkpt lat="49.23169989" lon="19.85865633">
<ele>1168</ele>
<time>2014-08-20T18:18:11Z</time>
</trkpt>
<trkpt lat="49.23178173" lon="19.85863304">
<ele>1164</ele>
<time>2014-08-20T18:18:17Z</time>
</trkpt>
<trkpt lat="49.23184581" lon="19.85857024">
<ele>1165</ele>
<time>2014-08-20T18:18:23Z</time>
</trkpt>
<trkpt lat="49.23191539" lon="19.85855186">
<ele>1165</ele>
<time>2014-08-20T18:18:29Z</time>
</trkpt>
<trkpt lat="49.23196203" lon="19.85854663">
<ele>1167</ele>
<time>2014-08-20T18:18:37Z</time>
</trkpt>
<trkpt lat="49.2320532" lon="19.8585474">
<ele>1167</ele>
<time>2014-08-20T18:18:43Z</time>
</trkpt>
<trkpt lat="49.23214718" lon="19.85854974">
<ele>1164</ele>
<time>2014-08-20T18:18:49Z</time>
</trkpt>
<trkpt lat="49.23222725" lon="19.85857041">
<ele>1163</ele>
<time>2014-08-20T18:18:55Z</time>
</trkpt>
<trkpt lat="49.2323098" lon="19.85859892">
<ele>1162</ele>
<time>2014-08-20T18:19:01Z</time>
</trkpt>
<trkpt lat="49.23237351" lon="19.85862284">
<ele>1162</ele>
<time>2014-08-20T18:19:07Z</time>
</trkpt>
<trkpt lat="49.23237351" lon="19.85862284">
<ele>1162</ele>
<time>2014-08-20T18:19:13Z</time>
</trkpt>
<trkpt lat="49.23238209" lon="19.85862373">
<ele>1161</ele>
<time>2014-08-20T18:19:19Z</time>
</trkpt>
<trkpt lat="49.23239187" lon="19.85863811">
<ele>1162</ele>
<time>2014-08-20T18:19:25Z</time>
</trkpt>
<trkpt lat="49.23239126" lon="19.85864143">
<ele>1163</ele>
<time>2014-08-20T18:19:31Z</time>
</trkpt>
<trkpt lat="49.23240264" lon="19.85864063">
<ele>1164</ele>
<time>2014-08-20T18:19:39Z</time>
</trkpt>
<trkpt lat="49.23240771" lon="19.85864847">
<ele>1163</ele>
<time>2014-08-20T18:19:45Z</time>
</trkpt>
<trkpt lat="49.23250235" lon="19.85867727">
<ele>1159</ele>
<time>2014-08-20T18:19:51Z</time>
</trkpt>
<trkpt lat="49.23258357" lon="19.85866621">
<ele>1160</ele>
<time>2014-08-20T18:19:57Z</time>
</trkpt>
<trkpt lat="49.23267476" lon="19.85865557">
<ele>1163</ele>
<time>2014-08-20T18:20:03Z</time>
</trkpt>
<trkpt lat="49.23273637" lon="19.85868255">
<ele>1163</ele>
<time>2014-08-20T18:20:09Z</time>
</trkpt>
<trkpt lat="49.2328104" lon="19.85867566">
<ele>1162</ele>
<time>2014-08-20T18:20:15Z</time>
</trkpt>
<trkpt lat="49.23287847" lon="19.85869835">
<ele>1163</ele>
<time>2014-08-20T18:20:21Z</time>
</trkpt>
<trkpt lat="49.2329401" lon="19.85872776">
<ele>1164</ele>
<time>2014-08-20T18:20:27Z</time>
</trkpt>
<trkpt lat="49.2330175" lon="19.85873166">
<ele>1165</ele>
<time>2014-08-20T18:20:34Z</time>
</trkpt>
<trkpt lat="49.23309126" lon="19.85872456">
<ele>1164</ele>
<time>2014-08-20T18:20:41Z</time>
</trkpt>
<trkpt lat="49.23314423" lon="19.85872007">
<ele>1167</ele>
<time>2014-08-20T18:20:47Z</time>
</trkpt>
<trkpt lat="49.23322326" lon="19.85872168">
<ele>1169</ele>
<time>2014-08-20T18:20:53Z</time>
</trkpt>
<trkpt lat="49.2333118" lon="19.85873141">
<ele>1168</ele>
<time>2014-08-20T18:20:59Z</time>
</trkpt>
<trkpt lat="49.2333118" lon="19.85873141">
<ele>1168</ele>
<time>2014-08-20T18:21:05Z</time>
</trkpt>
<trkpt lat="49.23345086" lon="19.8588278">
<ele>1154</ele>
<time>2014-08-20T18:21:11Z</time>
</trkpt>
<trkpt lat="49.23351466" lon="19.85884323">
<ele>1154</ele>
<time>2014-08-20T18:21:17Z</time>
</trkpt>
<trkpt lat="49.233572" lon="19.85885446">
<ele>1152</ele>
<time>2014-08-20T18:21:23Z</time>
</trkpt>
<trkpt lat="49.23361739" lon="19.85883341">
<ele>1156</ele>
<time>2014-08-20T18:21:29Z</time>
</trkpt>
<trkpt lat="49.23361739" lon="19.85883341">
<ele>1156</ele>
<time>2014-08-20T18:21:37Z</time>
</trkpt>
<trkpt lat="49.23371689" lon="19.85885807">
<ele>1159</ele>
<time>2014-08-20T18:21:43Z</time>
</trkpt>
<trkpt lat="49.23371689" lon="19.85885807">
<ele>1159</ele>
<time>2014-08-20T18:21:49Z</time>
</trkpt>
<trkpt lat="49.23378601" lon="19.85897084">
<ele>1155</ele>
<time>2014-08-20T18:21:55Z</time>
</trkpt>
<trkpt lat="49.23384114" lon="19.8590335">
<ele>1153</ele>
<time>2014-08-20T18:22:01Z</time>
</trkpt>
<trkpt lat="49.23388864" lon="19.85912113">
<ele>1149</ele>
<time>2014-08-20T18:22:07Z</time>
</trkpt>
<trkpt lat="49.23388864" lon="19.85912113">
<ele>1149</ele>
<time>2014-08-20T18:22:13Z</time>
</trkpt>
<trkpt lat="49.23402146" lon="19.85931176">
<ele>1143</ele>
<time>2014-08-20T18:22:19Z</time>
</trkpt>
<trkpt lat="49.23408472" lon="19.85937467">
<ele>1143</ele>
<time>2014-08-20T18:22:25Z</time>
</trkpt>
<trkpt lat="49.23414424" lon="19.85939415">
<ele>1148</ele>
<time>2014-08-20T18:22:31Z</time>
</trkpt>
<trkpt lat="49.23414424" lon="19.85939415">
<ele>1148</ele>
<time>2014-08-20T18:22:39Z</time>
</trkpt>
<trkpt lat="49.23427006" lon="19.85954835">
<ele>1150</ele>
<time>2014-08-20T18:22:45Z</time>
</trkpt>
<trkpt lat="49.2343254" lon="19.85959243">
<ele>1154</ele>
<time>2014-08-20T18:22:51Z</time>
</trkpt>
<trkpt lat="49.23438108" lon="19.85962288">
<ele>1151</ele>
<time>2014-08-20T18:22:57Z</time>
</trkpt>
<trkpt lat="49.2344557" lon="19.85965666">
<ele>1152</ele>
<time>2014-08-20T18:23:03Z</time>
</trkpt>
<trkpt lat="49.2344557" lon="19.85965666">
<ele>1152</ele>
<time>2014-08-20T18:23:09Z</time>
</trkpt>
<trkpt lat="49.23453475" lon="19.8597164">
<ele>1152</ele>
<time>2014-08-20T18:23:15Z</time>
</trkpt>
<trkpt lat="49.23467663" lon="19.85982449">
<ele>1153</ele>
<time>2014-08-20T18:23:21Z</time>
</trkpt>
<trkpt lat="49.23474361" lon="19.85986778">
<ele>1156</ele>
<time>2014-08-20T18:23:27Z</time>
</trkpt>
<trkpt lat="49.234824" lon="19.85991544">
<ele>1158</ele>
<time>2014-08-20T18:23:34Z</time>
</trkpt>
<trkpt lat="49.23490201" lon="19.86001695">
<ele>1157</ele>
<time>2014-08-20T18:23:41Z</time>
</trkpt>
<trkpt lat="49.23498877" lon="19.86007961">
<ele>1156</ele>
<time>2014-08-20T18:23:47Z</time>
</trkpt>
<trkpt lat="49.23506956" lon="19.8601082">
<ele>1154</ele>
<time>2014-08-20T18:23:53Z</time>
</trkpt>
<trkpt lat="49.23517632" lon="19.86015084">
<ele>1158</ele>
<time>2014-08-20T18:23:59Z</time>
</trkpt>
<trkpt lat="49.23526093" lon="19.86020305">
<ele>1158</ele>
<time>2014-08-20T18:24:05Z</time>
</trkpt>
<trkpt lat="49.23533599" lon="19.86024061">
<ele>1158</ele>
<time>2014-08-20T18:24:11Z</time>
</trkpt>
<trkpt lat="49.23533599" lon="19.86024061">
<ele>1158</ele>
<time>2014-08-20T18:24:17Z</time>
</trkpt>
<trkpt lat="49.23550879" lon="19.86028918">
<ele>1156</ele>
<time>2014-08-20T18:24:23Z</time>
</trkpt>
<trkpt lat="49.23559105" lon="19.86030785">
<ele>1156</ele>
<time>2014-08-20T18:24:29Z</time>
</trkpt>
<trkpt lat="49.23563699" lon="19.86034766">
<ele>1157</ele>
<time>2014-08-20T18:24:37Z</time>
</trkpt>
<trkpt lat="49.23572193" lon="19.86043084">
<ele>1157</ele>
<time>2014-08-20T18:24:43Z</time>
</trkpt>
<trkpt lat="49.23582831" lon="19.8605042">
<ele>1157</ele>
<time>2014-08-20T18:24:49Z</time>
</trkpt>
<trkpt lat="49.23590682" lon="19.86055824">
<ele>1152</ele>
<time>2014-08-20T18:24:55Z</time>
</trkpt>
<trkpt lat="49.23598599" lon="19.86060016">
<ele>1155</ele>
<time>2014-08-20T18:25:01Z</time>
</trkpt>
<trkpt lat="49.23606076" lon="19.86067497">
<ele>1146</ele>
<time>2014-08-20T18:25:09Z</time>
</trkpt>
<trkpt lat="49.23613309" lon="19.86071675">
<ele>1139</ele>
<time>2014-08-20T18:25:15Z</time>
</trkpt>
<trkpt lat="49.23618989" lon="19.86076063">
<ele>1126</ele>
<time>2014-08-20T18:25:21Z</time>
</trkpt>
<trkpt lat="49.23624666" lon="19.86083764">
<ele>1120</ele>
<time>2014-08-20T18:25:27Z</time>
</trkpt>
<trkpt lat="49.2363189" lon="19.86091743">
<ele>1118</ele>
<time>2014-08-20T18:25:34Z</time>
</trkpt>
<trkpt lat="49.23638289" lon="19.86098504">
<ele>1120</ele>
<time>2014-08-20T18:25:40Z</time>
</trkpt>
<trkpt lat="49.23647699" lon="19.86107735">
<ele>1118</ele>
<time>2014-08-20T18:25:46Z</time>
</trkpt>
<trkpt lat="49.23657161" lon="19.86114859">
<ele>1122</ele>
<time>2014-08-20T18:25:52Z</time>
</trkpt>
<trkpt lat="49.23664941" lon="19.86120109">
<ele>1125</ele>
<time>2014-08-20T18:25:58Z</time>
</trkpt>
<trkpt lat="49.23671122" lon="19.86122985">
<ele>1131</ele>
<time>2014-08-20T18:26:04Z</time>
</trkpt>
<trkpt lat="49.23678572" lon="19.86127194">
<ele>1129</ele>
<time>2014-08-20T18:26:10Z</time>
</trkpt>
<trkpt lat="49.23687393" lon="19.86132454">
<ele>1126</ele>
<time>2014-08-20T18:26:16Z</time>
</trkpt>
<trkpt lat="49.23693128" lon="19.861374">
<ele>1129</ele>
<time>2014-08-20T18:26:22Z</time>
</trkpt>
<trkpt lat="49.23700031" lon="19.86142865">
<ele>1129</ele>
<time>2014-08-20T18:26:28Z</time>
</trkpt>
<trkpt lat="49.23707268" lon="19.86150405">
<ele>1126</ele>
<time>2014-08-20T18:26:35Z</time>
</trkpt>
<trkpt lat="49.23714714" lon="19.86157427">
<ele>1125</ele>
<time>2014-08-20T18:26:41Z</time>
</trkpt>
<trkpt lat="49.23720048" lon="19.86164202">
<ele>1122</ele>
<time>2014-08-20T18:26:47Z</time>
</trkpt>
<trkpt lat="49.23720048" lon="19.86164202">
<ele>1122</ele>
<time>2014-08-20T18:26:53Z</time>
</trkpt>
<trkpt lat="49.23735854" lon="19.86176939">
<ele>1124</ele>
<time>2014-08-20T18:26:59Z</time>
</trkpt>
<trkpt lat="49.2373987" lon="19.86181046">
<ele>1127</ele>
<time>2014-08-20T18:27:05Z</time>
</trkpt>
<trkpt lat="49.2374429" lon="19.86184684">
<ele>1128</ele>
<time>2014-08-20T18:27:11Z</time>
</trkpt>
<trkpt lat="49.23757342" lon="19.86190454">
<ele>1126</ele>
<time>2014-08-20T18:27:17Z</time>
</trkpt>
<trkpt lat="49.23762352" lon="19.86192355">
<ele>1124</ele>
<time>2014-08-20T18:27:23Z</time>
</trkpt>
<trkpt lat="49.23768333" lon="19.86194883">
<ele>1124</ele>
<time>2014-08-20T18:27:29Z</time>
</trkpt>
<trkpt lat="49.23778848" lon="19.86196658">
<ele>1127</ele>
<time>2014-08-20T18:27:37Z</time>
</trkpt>
<trkpt lat="49.23790448" lon="19.86201548">
<ele>1125</ele>
<time>2014-08-20T18:27:43Z</time>
</trkpt>
<trkpt lat="49.23790448" lon="19.86201548">
<ele>1125</ele>
<time>2014-08-20T18:27:49Z</time>
</trkpt>
<trkpt lat="49.23807608" lon="19.86208091">
<ele>1122</ele>
<time>2014-08-20T18:27:55Z</time>
</trkpt>
<trkpt lat="49.23807608" lon="19.86208091">
<ele>1122</ele>
<time>2014-08-20T18:28:01Z</time>
</trkpt>
<trkpt lat="49.23824892" lon="19.86219527">
<ele>1115</ele>
<time>2014-08-20T18:28:07Z</time>
</trkpt>
<trkpt lat="49.23831179" lon="19.86222209">
<ele>1120</ele>
<time>2014-08-20T18:28:13Z</time>
</trkpt>
<trkpt lat="49.23837214" lon="19.86228038">
<ele>1119</ele>
<time>2014-08-20T18:28:19Z</time>
</trkpt>
<trkpt lat="49.23837214" lon="19.86228038">
<ele>1119</ele>
<time>2014-08-20T18:28:25Z</time>
</trkpt>
<trkpt lat="49.2385087" lon="19.862402">
<ele>1109</ele>
<time>2014-08-20T18:28:31Z</time>
</trkpt>
<trkpt lat="49.23861173" lon="19.86246448">
<ele>1098</ele>
<time>2014-08-20T18:28:39Z</time>
</trkpt>
<trkpt lat="49.23877729" lon="19.8627146">
<ele>1081</ele>
<time>2014-08-20T18:28:45Z</time>
</trkpt>
<trkpt lat="49.2388851" lon="19.86280986">
<ele>1075</ele>
<time>2014-08-20T18:28:51Z</time>
</trkpt>
<trkpt lat="49.2388851" lon="19.86280986">
<ele>1075</ele>
<time>2014-08-20T18:28:57Z</time>
</trkpt>
<trkpt lat="49.23903148" lon="19.86292333">
<ele>1064</ele>
<time>2014-08-20T18:29:03Z</time>
</trkpt>
<trkpt lat="49.23903148" lon="19.86292333">
<ele>1064</ele>
<time>2014-08-20T18:29:09Z</time>
</trkpt>
<trkpt lat="49.23915761" lon="19.86305609">
<ele>1052</ele>
<time>2014-08-20T18:29:15Z</time>
</trkpt>
<trkpt lat="49.23920464" lon="19.86307269">
<ele>1051</ele>
<time>2014-08-20T18:29:21Z</time>
</trkpt>
<trkpt lat="49.23925815" lon="19.86307202">
<ele>1051</ele>
<time>2014-08-20T18:29:27Z</time>
</trkpt>
<trkpt lat="49.23933846" lon="19.86309338">
<ele>1048</ele>
<time>2014-08-20T18:29:34Z</time>
</trkpt>
<trkpt lat="49.23939003" lon="19.86319783">
<ele>1055</ele>
<time>2014-08-20T18:29:41Z</time>
</trkpt>
<trkpt lat="49.23942303" lon="19.86331142">
<ele>1058</ele>
<time>2014-08-20T18:29:47Z</time>
</trkpt>
<trkpt lat="49.23942303" lon="19.86331142">
<ele>1058</ele>
<time>2014-08-20T18:29:53Z</time>
</trkpt>
<trkpt lat="49.23952163" lon="19.86355481">
<ele>1065</ele>
<time>2014-08-20T18:29:59Z</time>
</trkpt>
<trkpt lat="49.23958058" lon="19.86364628">
<ele>1069</ele>
<time>2014-08-20T18:30:05Z</time>
</trkpt>
<trkpt lat="49.23965918" lon="19.86371082">
<ele>1072</ele>
<time>2014-08-20T18:30:11Z</time>
</trkpt>
<trkpt lat="49.2397262" lon="19.86377906">
<ele>1075</ele>
<time>2014-08-20T18:30:17Z</time>
</trkpt>
<trkpt lat="49.23981274" lon="19.8637992">
<ele>1079</ele>
<time>2014-08-20T18:30:23Z</time>
</trkpt>
<trkpt lat="49.23987593" lon="19.86384153">
<ele>1086</ele>
<time>2014-08-20T18:30:29Z</time>
</trkpt>
<trkpt lat="49.23987593" lon="19.86384153">
<ele>1086</ele>
<time>2014-08-20T18:30:37Z</time>
</trkpt>
<trkpt lat="49.23998604" lon="19.86391992">
<ele>1096</ele>
<time>2014-08-20T18:30:43Z</time>
</trkpt>
<trkpt lat="49.23998604" lon="19.86391992">
<ele>1096</ele>
<time>2014-08-20T18:30:49Z</time>
</trkpt>
<trkpt lat="49.24008464" lon="19.86395457">
<ele>1099</ele>
<time>2014-08-20T18:30:55Z</time>
</trkpt>
<trkpt lat="49.24016159" lon="19.86399033">
<ele>1102</ele>
<time>2014-08-20T18:31:01Z</time>
</trkpt>
<trkpt lat="49.24023459" lon="19.86402363">
<ele>1103</ele>
<time>2014-08-20T18:31:07Z</time>
</trkpt>
<trkpt lat="49.24030882" lon="19.86407045">
<ele>1104</ele>
<time>2014-08-20T18:31:13Z</time>
</trkpt>
<trkpt lat="49.24038669" lon="19.8641028">
<ele>1107</ele>
<time>2014-08-20T18:31:19Z</time>
</trkpt>
<trkpt lat="49.24046331" lon="19.86413399">
<ele>1108</ele>
<time>2014-08-20T18:31:25Z</time>
</trkpt>
<trkpt lat="49.24052839" lon="19.86411306">
<ele>1113</ele>
<time>2014-08-20T18:31:31Z</time>
</trkpt>
<trkpt lat="49.24052839" lon="19.86411306">
<ele>1113</ele>
<time>2014-08-20T18:31:39Z</time>
</trkpt>
<trkpt lat="49.2406828" lon="19.86415261">
<ele>1114</ele>
<time>2014-08-20T18:31:45Z</time>
</trkpt>
<trkpt lat="49.24077406" lon="19.8641892">
<ele>1113</ele>
<time>2014-08-20T18:31:51Z</time>
</trkpt>
<trkpt lat="49.24086978" lon="19.86422016">
<ele>1114</ele>
<time>2014-08-20T18:31:57Z</time>
</trkpt>
<trkpt lat="49.24094761" lon="19.86421728">
<ele>1114</ele>
<time>2014-08-20T18:32:03Z</time>
</trkpt>
<trkpt lat="49.2410012" lon="19.86418172">
<ele>1115</ele>
<time>2014-08-20T18:32:09Z</time>
</trkpt>
<trkpt lat="49.24106351" lon="19.86415419">
<ele>1116</ele>
<time>2014-08-20T18:32:15Z</time>
</trkpt>
<trkpt lat="49.24110956" lon="19.86412104">
<ele>1115</ele>
<time>2014-08-20T18:32:21Z</time>
</trkpt>
<trkpt lat="49.24118251" lon="19.86410802">
<ele>1114</ele>
<time>2014-08-20T18:32:27Z</time>
</trkpt>
<trkpt lat="49.24124953" lon="19.8640253">
<ele>1114</ele>
<time>2014-08-20T18:32:34Z</time>
</trkpt>
<trkpt lat="49.2413147" lon="19.86394097">
<ele>1115</ele>
<time>2014-08-20T18:32:41Z</time>
</trkpt>
<trkpt lat="49.24139036" lon="19.86386764">
<ele>1115</ele>
<time>2014-08-20T18:32:47Z</time>
</trkpt>
<trkpt lat="49.24144651" lon="19.86382549">
<ele>1118</ele>
<time>2014-08-20T18:32:53Z</time>
</trkpt>
<trkpt lat="49.24155177" lon="19.86377147">
<ele>1113</ele>
<time>2014-08-20T18:32:59Z</time>
</trkpt>
<trkpt lat="49.24160179" lon="19.86375521">
<ele>1113</ele>
<time>2014-08-20T18:33:05Z</time>
</trkpt>
<trkpt lat="49.24171464" lon="19.86371119">
<ele>1108</ele>
<time>2014-08-20T18:33:11Z</time>
</trkpt>
<trkpt lat="49.24171464" lon="19.86371119">
<ele>1108</ele>
<time>2014-08-20T18:33:17Z</time>
</trkpt>
<trkpt lat="49.2418575" lon="19.86363035">
<ele>1108</ele>
<time>2014-08-20T18:33:23Z</time>
</trkpt>
<trkpt lat="49.24191657" lon="19.86359914">
<ele>1108</ele>
<time>2014-08-20T18:33:29Z</time>
</trkpt>
<trkpt lat="49.24200051" lon="19.86354251">
<ele>1101</ele>
<time>2014-08-20T18:33:37Z</time>
</trkpt>
<trkpt lat="49.24211758" lon="19.86352511">
<ele>1100</ele>
<time>2014-08-20T18:33:43Z</time>
</trkpt>
<trkpt lat="49.24219625" lon="19.86349091">
<ele>1097</ele>
<time>2014-08-20T18:33:49Z</time>
</trkpt>
<trkpt lat="49.24228001" lon="19.86345924">
<ele>1095</ele>
<time>2014-08-20T18:33:55Z</time>
</trkpt>
<trkpt lat="49.24235998" lon="19.86346501">
<ele>1093</ele>
<time>2014-08-20T18:34:01Z</time>
</trkpt>
<trkpt lat="49.24243201" lon="19.86345277">
<ele>1095</ele>
<time>2014-08-20T18:34:07Z</time>
</trkpt>
<trkpt lat="49.24250726" lon="19.86344839">
<ele>1096</ele>
<time>2014-08-20T18:34:13Z</time>
</trkpt>
<trkpt lat="49.24258571" lon="19.86346022">
<ele>1098</ele>
<time>2014-08-20T18:34:19Z</time>
</trkpt>
<trkpt lat="49.24266191" lon="19.86348267">
<ele>1097</ele>
<time>2014-08-20T18:34:25Z</time>
</trkpt>
<trkpt lat="49.24272503" lon="19.86353199">
<ele>1096</ele>
<time>2014-08-20T18:34:31Z</time>
</trkpt>
<trkpt lat="49.24272503" lon="19.86353199">
<ele>1096</ele>
<time>2014-08-20T18:34:39Z</time>
</trkpt>
<trkpt lat="49.24284883" lon="19.86363185">
<ele>1091</ele>
<time>2014-08-20T18:34:45Z</time>
</trkpt>
<trkpt lat="49.24299354" lon="19.86374582">
<ele>1086</ele>
<time>2014-08-20T18:34:51Z</time>
</trkpt>
<trkpt lat="49.24308071" lon="19.86380639">
<ele>1085</ele>
<time>2014-08-20T18:34:57Z</time>
</trkpt>
<trkpt lat="49.24316874" lon="19.86387511">
<ele>1086</ele>
<time>2014-08-20T18:35:03Z</time>
</trkpt>
<trkpt lat="49.24324048" lon="19.86392989">
<ele>1086</ele>
<time>2014-08-20T18:35:09Z</time>
</trkpt>
<trkpt lat="49.24332772" lon="19.86397846">
<ele>1087</ele>
<time>2014-08-20T18:35:15Z</time>
</trkpt>
<trkpt lat="49.2434013" lon="19.86402657">
<ele>1086</ele>
<time>2014-08-20T18:35:21Z</time>
</trkpt>
<trkpt lat="49.24345705" lon="19.86404453">
<ele>1089</ele>
<time>2014-08-20T18:35:27Z</time>
</trkpt>
<trkpt lat="49.2435656" lon="19.86407648">
<ele>1096</ele>
<time>2014-08-20T18:35:34Z</time>
</trkpt>
<trkpt lat="49.24362542" lon="19.86413592">
<ele>1099</ele>
<time>2014-08-20T18:35:41Z</time>
</trkpt>
<trkpt lat="49.24364638" lon="19.86421438">
<ele>1099</ele>
<time>2014-08-20T18:35:47Z</time>
</trkpt>
<trkpt lat="49.24369077" lon="19.86430632">
<ele>1101</ele>
<time>2014-08-20T18:35:53Z</time>
</trkpt>
<trkpt lat="49.24369077" lon="19.86430632">
<ele>1101</ele>
<time>2014-08-20T18:35:59Z</time>
</trkpt>
<trkpt lat="49.24370013" lon="19.8643253">
<ele>1101</ele>
<time>2014-08-20T18:36:05Z</time>
</trkpt>
<trkpt lat="49.2437198" lon="19.86438403">
<ele>1100</ele>
<time>2014-08-20T18:36:11Z</time>
</trkpt>
<trkpt lat="49.24372112" lon="19.86439991">
<ele>1101</ele>
<time>2014-08-20T18:36:17Z</time>
</trkpt>
<trkpt lat="49.24372429" lon="19.86439909">
<ele>1102</ele>
<time>2014-08-20T18:36:23Z</time>
</trkpt>
<trkpt lat="49.24372012" lon="19.86439511">
<ele>1102</ele>
<time>2014-08-20T18:36:29Z</time>
</trkpt>
<trkpt lat="49.24372013" lon="19.86439327">
<ele>1102</ele>
<time>2014-08-20T18:36:38Z</time>
</trkpt>
<trkpt lat="49.24372181" lon="19.86438591">
<ele>1101</ele>
<time>2014-08-20T18:36:44Z</time>
</trkpt>
<trkpt lat="49.24375521" lon="19.86440341">
<ele>1101</ele>
<time>2014-08-20T18:36:50Z</time>
</trkpt>
<trkpt lat="49.24377739" lon="19.86441873">
<ele>1102</ele>
<time>2014-08-20T18:36:56Z</time>
</trkpt>
<trkpt lat="49.24384407" lon="19.8643553">
<ele>1097</ele>
<time>2014-08-20T18:37:02Z</time>
</trkpt>
<trkpt lat="49.24390263" lon="19.86434752">
<ele>1095</ele>
<time>2014-08-20T18:37:08Z</time>
</trkpt>
<trkpt lat="49.24395962" lon="19.86432452">
<ele>1092</ele>
<time>2014-08-20T18:37:14Z</time>
</trkpt>
<trkpt lat="49.24395962" lon="19.86432452">
<ele>1092</ele>
<time>2014-08-20T18:37:20Z</time>
</trkpt>
<trkpt lat="49.24410952" lon="19.8642645">
<ele>1092</ele>
<time>2014-08-20T18:37:26Z</time>
</trkpt>
<trkpt lat="49.24416501" lon="19.86424664">
<ele>1095</ele>
<time>2014-08-20T18:37:32Z</time>
</trkpt>
<trkpt lat="49.24423162" lon="19.86421394">
<ele>1091</ele>
<time>2014-08-20T18:37:39Z</time>
</trkpt>
<trkpt lat="49.24429867" lon="19.86416724">
<ele>1092</ele>
<time>2014-08-20T18:37:45Z</time>
</trkpt>
<trkpt lat="49.24436039" lon="19.864147">
<ele>1089</ele>
<time>2014-08-20T18:37:51Z</time>
</trkpt>
<trkpt lat="49.24443318" lon="19.86413769">
<ele>1088</ele>
<time>2014-08-20T18:37:57Z</time>
</trkpt>
<trkpt lat="49.2444937" lon="19.86409142">
<ele>1089</ele>
<time>2014-08-20T18:38:03Z</time>
</trkpt>
<trkpt lat="49.2444937" lon="19.86409142">
<ele>1089</ele>
<time>2014-08-20T18:38:09Z</time>
</trkpt>
<trkpt lat="49.24462227" lon="19.86404507">
<ele>1087</ele>
<time>2014-08-20T18:38:15Z</time>
</trkpt>
<trkpt lat="49.24466727" lon="19.86406431">
<ele>1083</ele>
<time>2014-08-20T18:38:21Z</time>
</trkpt>
<trkpt lat="49.24474135" lon="19.86408458">
<ele>1081</ele>
<time>2014-08-20T18:38:27Z</time>
</trkpt>
<trkpt lat="49.24482154" lon="19.86411454">
<ele>1079</ele>
<time>2014-08-20T18:38:34Z</time>
</trkpt>
<trkpt lat="49.24493098" lon="19.86414189">
<ele>1078</ele>
<time>2014-08-20T18:38:41Z</time>
</trkpt>
<trkpt lat="49.24501756" lon="19.86419899">
<ele>1079</ele>
<time>2014-08-20T18:38:47Z</time>
</trkpt>
<trkpt lat="49.24501756" lon="19.86419899">
<ele>1079</ele>
<time>2014-08-20T18:38:53Z</time>
</trkpt>
<trkpt lat="49.2451566" lon="19.86429856">
<ele>1080</ele>
<time>2014-08-20T18:38:59Z</time>
</trkpt>
<trkpt lat="49.24524359" lon="19.8643668">
<ele>1079</ele>
<time>2014-08-20T18:39:05Z</time>
</trkpt>
<trkpt lat="49.24530105" lon="19.86436868">
<ele>1085</ele>
<time>2014-08-20T18:39:11Z</time>
</trkpt>
<trkpt lat="49.24530105" lon="19.86436868">
<ele>1085</ele>
<time>2014-08-20T18:39:17Z</time>
</trkpt>
<trkpt lat="49.24540541" lon="19.86440438">
<ele>1086</ele>
<time>2014-08-20T18:39:23Z</time>
</trkpt>
<trkpt lat="49.24547728" lon="19.86445447">
<ele>1087</ele>
<time>2014-08-20T18:39:29Z</time>
</trkpt>
<trkpt lat="49.24547728" lon="19.86445447">
<ele>1087</ele>
<time>2014-08-20T18:39:37Z</time>
</trkpt>
<trkpt lat="49.2456808" lon="19.86458905">
<ele>1085</ele>
<time>2014-08-20T18:39:43Z</time>
</trkpt>
<trkpt lat="49.2457489" lon="19.86463446">
<ele>1089</ele>
<time>2014-08-20T18:39:49Z</time>
</trkpt>
<trkpt lat="49.2458292" lon="19.86469802">
<ele>1088</ele>
<time>2014-08-20T18:39:55Z</time>
</trkpt>
<trkpt lat="49.24590521" lon="19.86477364">
<ele>1091</ele>
<time>2014-08-20T18:40:01Z</time>
</trkpt>
<trkpt lat="49.24597674" lon="19.8648252">
<ele>1095</ele>
<time>2014-08-20T18:40:07Z</time>
</trkpt>
<trkpt lat="49.24604272" lon="19.8648887">
<ele>1099</ele>
<time>2014-08-20T18:40:13Z</time>
</trkpt>
<trkpt lat="49.24610232" lon="19.86495495">
<ele>1101</ele>
<time>2014-08-20T18:40:19Z</time>
</trkpt>
<trkpt lat="49.24614295" lon="19.86502225">
<ele>1106</ele>
<time>2014-08-20T18:40:25Z</time>
</trkpt>
<trkpt lat="49.24620107" lon="19.86508724">
<ele>1107</ele>
<time>2014-08-20T18:40:31Z</time>
</trkpt>
<trkpt lat="49.24620107" lon="19.86508724">
<ele>1107</ele>
<time>2014-08-20T18:40:39Z</time>
</trkpt>
<trkpt lat="49.24637977" lon="19.86510946">
<ele>1105</ele>
<time>2014-08-20T18:40:45Z</time>
</trkpt>
<trkpt lat="49.24637977" lon="19.86510946">
<ele>1105</ele>
<time>2014-08-20T18:40:51Z</time>
</trkpt>
<trkpt lat="49.24650029" lon="19.86510351">
<ele>1100</ele>
<time>2014-08-20T18:40:57Z</time>
</trkpt>
<trkpt lat="49.24668966" lon="19.86512241">
<ele>1086</ele>
<time>2014-08-20T18:41:03Z</time>
</trkpt>
<trkpt lat="49.24675389" lon="19.86509522">
<ele>1088</ele>
<time>2014-08-20T18:41:09Z</time>
</trkpt>
<trkpt lat="49.24684094" lon="19.86511324">
<ele>1088</ele>
<time>2014-08-20T18:41:15Z</time>
</trkpt>
<trkpt lat="49.24693772" lon="19.86515675">
<ele>1088</ele>
<time>2014-08-20T18:41:21Z</time>
</trkpt>
<trkpt lat="49.24700741" lon="19.86520451">
<ele>1087</ele>
<time>2014-08-20T18:41:27Z</time>
</trkpt>
<trkpt lat="49.24707965" lon="19.86525518">
<ele>1084</ele>
<time>2014-08-20T18:41:34Z</time>
</trkpt>
<trkpt lat="49.2471517" lon="19.86522046">
<ele>1085</ele>
<time>2014-08-20T18:41:41Z</time>
</trkpt>
<trkpt lat="49.24723115" lon="19.8651725">
<ele>1083</ele>
<time>2014-08-20T18:41:47Z</time>
</trkpt>
<trkpt lat="49.24732953" lon="19.86514754">
<ele>1082</ele>
<time>2014-08-20T18:41:53Z</time>
</trkpt>
<trkpt lat="49.24740821" lon="19.8651195">
<ele>1082</ele>
<time>2014-08-20T18:41:59Z</time>
</trkpt>
<trkpt lat="49.2474816" lon="19.86509656">
<ele>1082</ele>
<time>2014-08-20T18:42:05Z</time>
</trkpt>
<trkpt lat="49.24756757" lon="19.86508624">
<ele>1080</ele>
<time>2014-08-20T18:42:11Z</time>
</trkpt>
<trkpt lat="49.24764235" lon="19.86508055">
<ele>1077</ele>
<time>2014-08-20T18:42:17Z</time>
</trkpt>
<trkpt lat="49.24770719" lon="19.86507616">
<ele>1078</ele>
<time>2014-08-20T18:42:23Z</time>
</trkpt>
<trkpt lat="49.24778295" lon="19.86506669">
<ele>1077</ele>
<time>2014-08-20T18:42:29Z</time>
</trkpt>
<trkpt lat="49.24787941" lon="19.86502318">
<ele>1076</ele>
<time>2014-08-20T18:42:37Z</time>
</trkpt>
<trkpt lat="49.24796655" lon="19.86501479">
<ele>1073</ele>
<time>2014-08-20T18:42:43Z</time>
</trkpt>
<trkpt lat="49.24796655" lon="19.86501479">
<ele>1073</ele>
<time>2014-08-20T18:42:49Z</time>
</trkpt>
<trkpt lat="49.24813422" lon="19.86495463">
<ele>1073</ele>
<time>2014-08-20T18:42:55Z</time>
</trkpt>
<trkpt lat="49.24822155" lon="19.86493189">
<ele>1072</ele>
<time>2014-08-20T18:43:01Z</time>
</trkpt>
<trkpt lat="49.24830906" lon="19.86488899">
<ele>1069</ele>
<time>2014-08-20T18:43:07Z</time>
</trkpt>
<trkpt lat="49.24839332" lon="19.86485822">
<ele>1066</ele>
<time>2014-08-20T18:43:13Z</time>
</trkpt>
<trkpt lat="49.24848006" lon="19.86483202">
<ele>1064</ele>
<time>2014-08-20T18:43:19Z</time>
</trkpt>
<trkpt lat="49.24855563" lon="19.86479607">
<ele>1062</ele>
<time>2014-08-20T18:43:25Z</time>
</trkpt>
<trkpt lat="49.24863569" lon="19.86475637">
<ele>1063</ele>
<time>2014-08-20T18:43:31Z</time>
</trkpt>
<trkpt lat="49.24863569" lon="19.86475637">
<ele>1063</ele>
<time>2014-08-20T18:43:39Z</time>
</trkpt>
<trkpt lat="49.24881219" lon="19.86467652">
<ele>1062</ele>
<time>2014-08-20T18:43:45Z</time>
</trkpt>
<trkpt lat="49.24892205" lon="19.86467835">
<ele>1062</ele>
<time>2014-08-20T18:43:51Z</time>
</trkpt>
<trkpt lat="49.24901658" lon="19.86466386">
<ele>1062</ele>
<time>2014-08-20T18:43:57Z</time>
</trkpt>
<trkpt lat="49.24910977" lon="19.86467943">
<ele>1060</ele>
<time>2014-08-20T18:44:03Z</time>
</trkpt>
<trkpt lat="49.24917705" lon="19.86471326">
<ele>1060</ele>
<time>2014-08-20T18:44:09Z</time>
</trkpt>
<trkpt lat="49.24922614" lon="19.86471409">
<ele>1057</ele>
<time>2014-08-20T18:44:15Z</time>
</trkpt>
<trkpt lat="49.24929766" lon="19.86469563">
<ele>1058</ele>
<time>2014-08-20T18:44:21Z</time>
</trkpt>
<trkpt lat="49.24936629" lon="19.86468873">
<ele>1055</ele>
<time>2014-08-20T18:44:27Z</time>
</trkpt>
<trkpt lat="49.24943515" lon="19.86471337">
<ele>1049</ele>
<time>2014-08-20T18:44:34Z</time>
</trkpt>
<trkpt lat="49.24953599" lon="19.86474019">
<ele>1050</ele>
<time>2014-08-20T18:44:41Z</time>
</trkpt>
<trkpt lat="49.24963556" lon="19.86473288">
<ele>1046</ele>
<time>2014-08-20T18:44:47Z</time>
</trkpt>
<trkpt lat="49.24969715" lon="19.86475182">
<ele>1049</ele>
<time>2014-08-20T18:44:53Z</time>
</trkpt>
<trkpt lat="49.24976527" lon="19.86477633">
<ele>1050</ele>
<time>2014-08-20T18:44:59Z</time>
</trkpt>
<trkpt lat="49.24990294" lon="19.86477429">
<ele>1056</ele>
<time>2014-08-20T18:45:05Z</time>
</trkpt>
<trkpt lat="49.24997576" lon="19.86478358">
<ele>1054</ele>
<time>2014-08-20T18:45:11Z</time>
</trkpt>
<trkpt lat="49.25007172" lon="19.86480598">
<ele>1056</ele>
<time>2014-08-20T18:45:17Z</time>
</trkpt>
<trkpt lat="49.25015653" lon="19.86479958">
<ele>1058</ele>
<time>2014-08-20T18:45:23Z</time>
</trkpt>
<trkpt lat="49.25023244" lon="19.86479406">
<ele>1062</ele>
<time>2014-08-20T18:45:29Z</time>
</trkpt>
<trkpt lat="49.25023244" lon="19.86479406">
<ele>1062</ele>
<time>2014-08-20T18:45:37Z</time>
</trkpt>
<trkpt lat="49.25042513" lon="19.86482846">
<ele>1063</ele>
<time>2014-08-20T18:45:43Z</time>
</trkpt>
<trkpt lat="49.25051813" lon="19.86483751">
<ele>1065</ele>
<time>2014-08-20T18:45:49Z</time>
</trkpt>
<trkpt lat="49.25051813" lon="19.86483751">
<ele>1065</ele>
<time>2014-08-20T18:45:55Z</time>
</trkpt>
<trkpt lat="49.25069821" lon="19.86479658">
<ele>1062</ele>
<time>2014-08-20T18:46:01Z</time>
</trkpt>
<trkpt lat="49.25077194" lon="19.86476872">
<ele>1059</ele>
<time>2014-08-20T18:46:07Z</time>
</trkpt>
<trkpt lat="49.25085456" lon="19.86474729">
<ele>1055</ele>
<time>2014-08-20T18:46:13Z</time>
</trkpt>
<trkpt lat="49.2509373" lon="19.86474754">
<ele>1056</ele>
<time>2014-08-20T18:46:19Z</time>
</trkpt>
<trkpt lat="49.25100922" lon="19.86475937">
<ele>1063</ele>
<time>2014-08-20T18:46:25Z</time>
</trkpt>
<trkpt lat="49.25107889" lon="19.8648005">
<ele>1068</ele>
<time>2014-08-20T18:46:31Z</time>
</trkpt>
<trkpt lat="49.25107889" lon="19.8648005">
<ele>1068</ele>
<time>2014-08-20T18:46:39Z</time>
</trkpt>
<trkpt lat="49.25128133" lon="19.86491901">
<ele>1075</ele>
<time>2014-08-20T18:46:45Z</time>
</trkpt>
<trkpt lat="49.2513664" lon="19.86495261">
<ele>1076</ele>
<time>2014-08-20T18:46:51Z</time>
</trkpt>
<trkpt lat="49.2513664" lon="19.86495261">
<ele>1076</ele>
<time>2014-08-20T18:46:57Z</time>
</trkpt>
<trkpt lat="49.25148094" lon="19.86508455">
<ele>1074</ele>
<time>2014-08-20T18:47:03Z</time>
</trkpt>
<trkpt lat="49.25155704" lon="19.86520328">
<ele>1070</ele>
<time>2014-08-20T18:47:09Z</time>
</trkpt>
<trkpt lat="49.25161658" lon="19.86531995">
<ele>1070</ele>
<time>2014-08-20T18:47:15Z</time>
</trkpt>
<trkpt lat="49.25168454" lon="19.8654436">
<ele>1073</ele>
<time>2014-08-20T18:47:21Z</time>
</trkpt>
<trkpt lat="49.25173693" lon="19.86556475">
<ele>1076</ele>
<time>2014-08-20T18:47:27Z</time>
</trkpt>
<trkpt lat="49.25180585" lon="19.86566453">
<ele>1078</ele>
<time>2014-08-20T18:47:34Z</time>
</trkpt>
<trkpt lat="49.25191168" lon="19.86573744">
<ele>1078</ele>
<time>2014-08-20T18:47:41Z</time>
</trkpt>
<trkpt lat="49.25198826" lon="19.86577839">
<ele>1082</ele>
<time>2014-08-20T18:47:47Z</time>
</trkpt>
<trkpt lat="49.25206003" lon="19.86579735">
<ele>1085</ele>
<time>2014-08-20T18:47:53Z</time>
</trkpt>
<trkpt lat="49.25213154" lon="19.86584874">
<ele>1088</ele>
<time>2014-08-20T18:47:59Z</time>
</trkpt>
<trkpt lat="49.25217825" lon="19.86590012">
<ele>1090</ele>
<time>2014-08-20T18:48:05Z</time>
</trkpt>
<trkpt lat="49.25223721" lon="19.86595444">
<ele>1090</ele>
<time>2014-08-20T18:48:11Z</time>
</trkpt>
<trkpt lat="49.25232729" lon="19.86599074">
<ele>1090</ele>
<time>2014-08-20T18:48:17Z</time>
</trkpt>
<trkpt lat="49.25242433" lon="19.86603831">
<ele>1088</ele>
<time>2014-08-20T18:48:23Z</time>
</trkpt>
<trkpt lat="49.25249522" lon="19.8660736">
<ele>1087</ele>
<time>2014-08-20T18:48:29Z</time>
</trkpt>
<trkpt lat="49.25254926" lon="19.8660806">
<ele>1090</ele>
<time>2014-08-20T18:48:37Z</time>
</trkpt>
<trkpt lat="49.25269498" lon="19.86615281">
<ele>1090</ele>
<time>2014-08-20T18:48:43Z</time>
</trkpt>
<trkpt lat="49.25277317" lon="19.86620964">
<ele>1091</ele>
<time>2014-08-20T18:48:49Z</time>
</trkpt>
<trkpt lat="49.25285454" lon="19.86629173">
<ele>1093</ele>
<time>2014-08-20T18:48:55Z</time>
</trkpt>
<trkpt lat="49.2529412" lon="19.86639004">
<ele>1092</ele>
<time>2014-08-20T18:49:01Z</time>
</trkpt>
<trkpt lat="49.25302493" lon="19.86646566">
<ele>1094</ele>
<time>2014-08-20T18:49:07Z</time>
</trkpt>
<trkpt lat="49.2530992" lon="19.86653713">
<ele>1096</ele>
<time>2014-08-20T18:49:13Z</time>
</trkpt>
<trkpt lat="49.25316653" lon="19.86661963">
<ele>1099</ele>
<time>2014-08-20T18:49:19Z</time>
</trkpt>
<trkpt lat="49.25322259" lon="19.86669543">
<ele>1101</ele>
<time>2014-08-20T18:49:25Z</time>
</trkpt>
<trkpt lat="49.25326735" lon="19.86674569">
<ele>1108</ele>
<time>2014-08-20T18:49:31Z</time>
</trkpt>
<trkpt lat="49.25326735" lon="19.86674569">
<ele>1108</ele>
<time>2014-08-20T18:49:39Z</time>
</trkpt>
<trkpt lat="49.25340669" lon="19.86684616">
<ele>1112</ele>
<time>2014-08-20T18:49:45Z</time>
</trkpt>
<trkpt lat="49.25343926" lon="19.86690222">
<ele>1115</ele>
<time>2014-08-20T18:49:51Z</time>
</trkpt>
<trkpt lat="49.25347608" lon="19.86696384">
<ele>1117</ele>
<time>2014-08-20T18:49:57Z</time>
</trkpt>
<trkpt lat="49.25347608" lon="19.86696384">
<ele>1117</ele>
<time>2014-08-20T18:50:03Z</time>
</trkpt>
<trkpt lat="49.25357647" lon="19.86704412">
<ele>1124</ele>
<time>2014-08-20T18:50:09Z</time>
</trkpt>
<trkpt lat="49.25364142" lon="19.86710921">
<ele>1122</ele>
<time>2014-08-20T18:50:15Z</time>
</trkpt>
<trkpt lat="49.25371781" lon="19.867151">
<ele>1116</ele>
<time>2014-08-20T18:50:21Z</time>
</trkpt>
<trkpt lat="49.25377517" lon="19.86715348">
<ele>1118</ele>
<time>2014-08-20T18:50:27Z</time>
</trkpt>
<trkpt lat="49.25383696" lon="19.86716142">
<ele>1119</ele>
<time>2014-08-20T18:50:34Z</time>
</trkpt>
<trkpt lat="49.25396071" lon="19.86720243">
<ele>1116</ele>
<time>2014-08-20T18:50:41Z</time>
</trkpt>
<trkpt lat="49.25406258" lon="19.86724484">
<ele>1115</ele>
<time>2014-08-20T18:50:47Z</time>
</trkpt>
<trkpt lat="49.25414708" lon="19.86727935">
<ele>1114</ele>
<time>2014-08-20T18:50:53Z</time>
</trkpt>
<trkpt lat="49.25421955" lon="19.86732438">
<ele>1113</ele>
<time>2014-08-20T18:50:59Z</time>
</trkpt>
<trkpt lat="49.25428572" lon="19.8673817">
<ele>1108</ele>
<time>2014-08-20T18:51:05Z</time>
</trkpt>
<trkpt lat="49.25439418" lon="19.86745072">
<ele>1094</ele>
<time>2014-08-20T18:51:11Z</time>
</trkpt>
<trkpt lat="49.25453081" lon="19.86749407">
<ele>1080</ele>
<time>2014-08-20T18:51:17Z</time>
</trkpt>
<trkpt lat="49.25453081" lon="19.86749407">
<ele>1080</ele>
<time>2014-08-20T18:51:23Z</time>
</trkpt>
<trkpt lat="49.25480208" lon="19.86759548">
<ele>1059</ele>
<time>2014-08-20T18:51:29Z</time>
</trkpt>
<trkpt lat="49.25480208" lon="19.86759548">
<ele>1059</ele>
<time>2014-08-20T18:51:37Z</time>
</trkpt>
<trkpt lat="49.25504271" lon="19.86740867">
<ele>1052</ele>
<time>2014-08-20T18:51:43Z</time>
</trkpt>
<trkpt lat="49.2551346" lon="19.86737465">
<ele>1050</ele>
<time>2014-08-20T18:51:49Z</time>
</trkpt>
<trkpt lat="49.25520122" lon="19.86738431">
<ele>1050</ele>
<time>2014-08-20T18:51:55Z</time>
</trkpt>
<trkpt lat="49.25526908" lon="19.86738654">
<ele>1049</ele>
<time>2014-08-20T18:52:01Z</time>
</trkpt>
<trkpt lat="49.25526908" lon="19.86738654">
<ele>1049</ele>
<time>2014-08-20T18:52:07Z</time>
</trkpt>
<trkpt lat="49.25541866" lon="19.86741432">
<ele>1049</ele>
<time>2014-08-20T18:52:13Z</time>
</trkpt>
<trkpt lat="49.25551499" lon="19.86739687">
<ele>1043</ele>
<time>2014-08-20T18:52:19Z</time>
</trkpt>
<trkpt lat="49.25561664" lon="19.86742475">
<ele>1036</ele>
<time>2014-08-20T18:52:25Z</time>
</trkpt>
<trkpt lat="49.25571152" lon="19.86747417">
<ele>1033</ele>
<time>2014-08-20T18:52:31Z</time>
</trkpt>
<trkpt lat="49.25583068" lon="19.86755659">
<ele>1032</ele>
<time>2014-08-20T18:52:39Z</time>
</trkpt>
<trkpt lat="49.25594449" lon="19.8676487">
<ele>1028</ele>
<time>2014-08-20T18:52:45Z</time>
</trkpt>
<trkpt lat="49.25603223" lon="19.86775239">
<ele>1027</ele>
<time>2014-08-20T18:52:51Z</time>
</trkpt>
<trkpt lat="49.25608816" lon="19.86779381">
<ele>1026</ele>
<time>2014-08-20T18:52:57Z</time>
</trkpt>
<trkpt lat="49.2561506" lon="19.86783329">
<ele>1026</ele>
<time>2014-08-20T18:53:03Z</time>
</trkpt>
<trkpt lat="49.256212" lon="19.86787049">
<ele>1026</ele>
<time>2014-08-20T18:53:09Z</time>
</trkpt>
<trkpt lat="49.25628061" lon="19.8678915">
<ele>1025</ele>
<time>2014-08-20T18:53:15Z</time>
</trkpt>
<trkpt lat="49.25634715" lon="19.86792151">
<ele>1023</ele>
<time>2014-08-20T18:53:21Z</time>
</trkpt>
<trkpt lat="49.25642429" lon="19.86794092">
<ele>1023</ele>
<time>2014-08-20T18:53:27Z</time>
</trkpt>
<trkpt lat="49.25651963" lon="19.86796961">
<ele>1021</ele>
<time>2014-08-20T18:53:34Z</time>
</trkpt>
<trkpt lat="49.25659886" lon="19.86796904">
<ele>1023</ele>
<time>2014-08-20T18:53:41Z</time>
</trkpt>
<trkpt lat="49.25669101" lon="19.86798025">
<ele>1022</ele>
<time>2014-08-20T18:53:47Z</time>
</trkpt>
<trkpt lat="49.25676043" lon="19.86797977">
<ele>1024</ele>
<time>2014-08-20T18:53:53Z</time>
</trkpt>
<trkpt lat="49.25683245" lon="19.86799548">
<ele>1022</ele>
<time>2014-08-20T18:53:59Z</time>
</trkpt>
<trkpt lat="49.25690245" lon="19.8679996">
<ele>1026</ele>
<time>2014-08-20T18:54:05Z</time>
</trkpt>
<trkpt lat="49.25697341" lon="19.86799005">
<ele>1025</ele>
<time>2014-08-20T18:54:11Z</time>
</trkpt>
<trkpt lat="49.25705768" lon="19.86802044">
<ele>1024</ele>
<time>2014-08-20T18:54:17Z</time>
</trkpt>
<trkpt lat="49.25713349" lon="19.86806033">
<ele>1021</ele>
<time>2014-08-20T18:54:23Z</time>
</trkpt>
<trkpt lat="49.25721884" lon="19.86809808">
<ele>1021</ele>
<time>2014-08-20T18:54:29Z</time>
</trkpt>
<trkpt lat="49.25729236" lon="19.86813234">
<ele>1019</ele>
<time>2014-08-20T18:54:37Z</time>
</trkpt>
<trkpt lat="49.25741802" lon="19.86816846">
<ele>1017</ele>
<time>2014-08-20T18:54:43Z</time>
</trkpt>
<trkpt lat="49.25750578" lon="19.86821257">
<ele>1014</ele>
<time>2014-08-20T18:54:49Z</time>
</trkpt>
<trkpt lat="49.25755088" lon="19.8682605">
<ele>1013</ele>
<time>2014-08-20T18:54:55Z</time>
</trkpt>
<trkpt lat="49.25755088" lon="19.8682605">
<ele>1013</ele>
<time>2014-08-20T18:55:01Z</time>
</trkpt>
<trkpt lat="49.25764212" lon="19.86828018">
<ele>1013</ele>
<time>2014-08-20T18:55:07Z</time>
</trkpt>
<trkpt lat="49.25771749" lon="19.8682921">
<ele>1013</ele>
<time>2014-08-20T18:55:13Z</time>
</trkpt>
<trkpt lat="49.2577983" lon="19.86830968">
<ele>1013</ele>
<time>2014-08-20T18:55:19Z</time>
</trkpt>
<trkpt lat="49.25787843" lon="19.86832159">
<ele>1014</ele>
<time>2014-08-20T18:55:25Z</time>
</trkpt>
<trkpt lat="49.25795651" lon="19.86833392">
<ele>1014</ele>
<time>2014-08-20T18:55:31Z</time>
</trkpt>
<trkpt lat="49.25795651" lon="19.86833392">
<ele>1014</ele>
<time>2014-08-20T18:55:39Z</time>
</trkpt>
<trkpt lat="49.25814712" lon="19.86842307">
<ele>1012</ele>
<time>2014-08-20T18:55:45Z</time>
</trkpt>
<trkpt lat="49.25822678" lon="19.86845891">
<ele>1011</ele>
<time>2014-08-20T18:55:51Z</time>
</trkpt>
<trkpt lat="49.2582947" lon="19.86850764">
<ele>1009</ele>
<time>2014-08-20T18:55:57Z</time>
</trkpt>
<trkpt lat="49.25835835" lon="19.86855774">
<ele>1007</ele>
<time>2014-08-20T18:56:03Z</time>
</trkpt>
<trkpt lat="49.25840442" lon="19.86859138">
<ele>1006</ele>
<time>2014-08-20T18:56:09Z</time>
</trkpt>
<trkpt lat="49.25844764" lon="19.86864521">
<ele>1009</ele>
<time>2014-08-20T18:56:15Z</time>
</trkpt>
<trkpt lat="49.25850051" lon="19.86870188">
<ele>1006</ele>
<time>2014-08-20T18:56:21Z</time>
</trkpt>
<trkpt lat="49.25856448" lon="19.86878597">
<ele>1008</ele>
<time>2014-08-20T18:56:27Z</time>
</trkpt>
<trkpt lat="49.2586469" lon="19.86889956">
<ele>1008</ele>
<time>2014-08-20T18:56:34Z</time>
</trkpt>
<trkpt lat="49.25872913" lon="19.86900791">
<ele>1011</ele>
<time>2014-08-20T18:56:41Z</time>
</trkpt>
<trkpt lat="49.2588034" lon="19.86908777">
<ele>1007</ele>
<time>2014-08-20T18:56:47Z</time>
</trkpt>
<trkpt lat="49.25886793" lon="19.86915152">
<ele>1007</ele>
<time>2014-08-20T18:56:53Z</time>
</trkpt>
<trkpt lat="49.25893282" lon="19.86919823">
<ele>1006</ele>
<time>2014-08-20T18:56:59Z</time>
</trkpt>
<trkpt lat="49.25898906" lon="19.86921617">
<ele>1010</ele>
<time>2014-08-20T18:57:05Z</time>
</trkpt>
<trkpt lat="49.25905136" lon="19.86924171">
<ele>1012</ele>
<time>2014-08-20T18:57:11Z</time>
</trkpt>
<trkpt lat="49.25911964" lon="19.86927673">
<ele>1013</ele>
<time>2014-08-20T18:57:17Z</time>
</trkpt>
<trkpt lat="49.25917946" lon="19.86928257">
<ele>1012</ele>
<time>2014-08-20T18:57:23Z</time>
</trkpt>
<trkpt lat="49.25926615" lon="19.86929042">
<ele>1012</ele>
<time>2014-08-20T18:57:29Z</time>
</trkpt>
<trkpt lat="49.25939649" lon="19.86936001">
<ele>1009</ele>
<time>2014-08-20T18:57:37Z</time>
</trkpt>
<trkpt lat="49.25948758" lon="19.86939847">
<ele>1007</ele>
<time>2014-08-20T18:57:43Z</time>
</trkpt>
<trkpt lat="49.25957604" lon="19.86940483">
<ele>999</ele>
<time>2014-08-20T18:57:49Z</time>
</trkpt>
<trkpt lat="49.25967524" lon="19.86935852">
<ele>998</ele>
<time>2014-08-20T18:57:55Z</time>
</trkpt>
<trkpt lat="49.2597649" lon="19.86931895">
<ele>999</ele>
<time>2014-08-20T18:58:01Z</time>
</trkpt>
<trkpt lat="49.25985614" lon="19.86928924">
<ele>997</ele>
<time>2014-08-20T18:58:07Z</time>
</trkpt>
<trkpt lat="49.25993061" lon="19.86929087">
<ele>997</ele>
<time>2014-08-20T18:58:13Z</time>
</trkpt>
<trkpt lat="49.2600132" lon="19.86930868">
<ele>998</ele>
<time>2014-08-20T18:58:19Z</time>
</trkpt>
<trkpt lat="49.26010231" lon="19.86931193">
<ele>995</ele>
<time>2014-08-20T18:58:25Z</time>
</trkpt>
<trkpt lat="49.26018869" lon="19.86930055">
<ele>998</ele>
<time>2014-08-20T18:58:31Z</time>
</trkpt>
<trkpt lat="49.26023493" lon="19.86931226">
<ele>998</ele>
<time>2014-08-20T18:58:39Z</time>
</trkpt>
<trkpt lat="49.26039814" lon="19.86936463">
<ele>996</ele>
<time>2014-08-20T18:58:45Z</time>
</trkpt>
<trkpt lat="49.26049661" lon="19.86938346">
<ele>996</ele>
<time>2014-08-20T18:58:51Z</time>
</trkpt>
<trkpt lat="49.26058404" lon="19.86940123">
<ele>996</ele>
<time>2014-08-20T18:58:57Z</time>
</trkpt>
<trkpt lat="49.2606627" lon="19.86942608">
<ele>996</ele>
<time>2014-08-20T18:59:03Z</time>
</trkpt>
<trkpt lat="49.26074266" lon="19.8694346">
<ele>997</ele>
<time>2014-08-20T18:59:09Z</time>
</trkpt>
<trkpt lat="49.2608245" lon="19.86944719">
<ele>997</ele>
<time>2014-08-20T18:59:15Z</time>
</trkpt>
<trkpt lat="49.26090323" lon="19.86947289">
<ele>998</ele>
<time>2014-08-20T18:59:21Z</time>
</trkpt>
<trkpt lat="49.26099046" lon="19.86948176">
<ele>998</ele>
<time>2014-08-20T18:59:27Z</time>
</trkpt>
<trkpt lat="49.2610866" lon="19.86945951">
<ele>997</ele>
<time>2014-08-20T18:59:34Z</time>
</trkpt>
<trkpt lat="49.26118562" lon="19.86942664">
<ele>1000</ele>
<time>2014-08-20T18:59:41Z</time>
</trkpt>
<trkpt lat="49.2612841" lon="19.86941208">
<ele>1000</ele>
<time>2014-08-20T18:59:47Z</time>
</trkpt>
<trkpt lat="49.26136976" lon="19.86936934">
<ele>1002</ele>
<time>2014-08-20T18:59:53Z</time>
</trkpt>
<trkpt lat="49.26145473" lon="19.86932887">
<ele>1001</ele>
<time>2014-08-20T18:59:59Z</time>
</trkpt>
<trkpt lat="49.26153857" lon="19.86930796">
<ele>1000</ele>
<time>2014-08-20T19:00:05Z</time>
</trkpt>
<trkpt lat="49.2616205" lon="19.86927519">
<ele>999</ele>
<time>2014-08-20T19:00:11Z</time>
</trkpt>
<trkpt lat="49.26170794" lon="19.86926077">
<ele>997</ele>
<time>2014-08-20T19:00:17Z</time>
</trkpt>
<trkpt lat="49.26180879" lon="19.86924331">
<ele>997</ele>
<time>2014-08-20T19:00:23Z</time>
</trkpt>
<trkpt lat="49.26190892" lon="19.86922832">
<ele>994</ele>
<time>2014-08-20T19:00:29Z</time>
</trkpt>
<trkpt lat="49.26190892" lon="19.86922832">
<ele>994</ele>
<time>2014-08-20T19:00:37Z</time>
</trkpt>
<trkpt lat="49.26207638" lon="19.86922209">
<ele>994</ele>
<time>2014-08-20T19:00:43Z</time>
</trkpt>
<trkpt lat="49.26217596" lon="19.8692196">
<ele>993</ele>
<time>2014-08-20T19:00:49Z</time>
</trkpt>
<trkpt lat="49.26227912" lon="19.86923155">
<ele>991</ele>
<time>2014-08-20T19:00:55Z</time>
</trkpt>
<trkpt lat="49.26237225" lon="19.86924297">
<ele>991</ele>
<time>2014-08-20T19:01:01Z</time>
</trkpt>
<trkpt lat="49.26245769" lon="19.86922795">
<ele>990</ele>
<time>2014-08-20T19:01:07Z</time>
</trkpt>
<trkpt lat="49.26254008" lon="19.86924273">
<ele>987</ele>
<time>2014-08-20T19:01:13Z</time>
</trkpt>
<trkpt lat="49.26262298" lon="19.86924339">
<ele>988</ele>
<time>2014-08-20T19:01:19Z</time>
</trkpt>
<trkpt lat="49.2627054" lon="19.86925222">
<ele>987</ele>
<time>2014-08-20T19:01:25Z</time>
</trkpt>
<trkpt lat="49.26278574" lon="19.86922021">
<ele>987</ele>
<time>2014-08-20T19:01:31Z</time>
</trkpt>
<trkpt lat="49.26290283" lon="19.8691841">
<ele>991</ele>
<time>2014-08-20T19:01:39Z</time>
</trkpt>
<trkpt lat="49.26299543" lon="19.86919393">
<ele>991</ele>
<time>2014-08-20T19:01:45Z</time>
</trkpt>
<trkpt lat="49.26308361" lon="19.86928382">
<ele>992</ele>
<time>2014-08-20T19:01:51Z</time>
</trkpt>
<trkpt lat="49.26318551" lon="19.86933771">
<ele>990</ele>
<time>2014-08-20T19:01:57Z</time>
</trkpt>
<trkpt lat="49.26326603" lon="19.86936825">
<ele>989</ele>
<time>2014-08-20T19:02:03Z</time>
</trkpt>
<trkpt lat="49.26336052" lon="19.86939212">
<ele>988</ele>
<time>2014-08-20T19:02:09Z</time>
</trkpt>
<trkpt lat="49.26345729" lon="19.86940613">
<ele>988</ele>
<time>2014-08-20T19:02:15Z</time>
</trkpt>
<trkpt lat="49.2635521" lon="19.86944675">
<ele>988</ele>
<time>2014-08-20T19:02:21Z</time>
</trkpt>
<trkpt lat="49.26364237" lon="19.86949034">
<ele>989</ele>
<time>2014-08-20T19:02:27Z</time>
</trkpt>
<trkpt lat="49.26373845" lon="19.86953226">
<ele>989</ele>
<time>2014-08-20T19:02:35Z</time>
</trkpt>
<trkpt lat="49.2638229" lon="19.86957255">
<ele>992</ele>
<time>2014-08-20T19:02:41Z</time>
</trkpt>
<trkpt lat="49.26389394" lon="19.86968738">
<ele>991</ele>
<time>2014-08-20T19:02:47Z</time>
</trkpt>
<trkpt lat="49.2639578" lon="19.86974611">
<ele>994</ele>
<time>2014-08-20T19:02:53Z</time>
</trkpt>
<trkpt lat="49.2639578" lon="19.86974611">
<ele>994</ele>
<time>2014-08-20T19:02:59Z</time>
</trkpt>
<trkpt lat="49.26398724" lon="19.86978199">
<ele>996</ele>
<time>2014-08-20T19:03:05Z</time>
</trkpt>
<trkpt lat="49.26405131" lon="19.86982289">
<ele>998</ele>
<time>2014-08-20T19:03:11Z</time>
</trkpt>
<trkpt lat="49.26413665" lon="19.86983495">
<ele>998</ele>
<time>2014-08-20T19:03:17Z</time>
</trkpt>
<trkpt lat="49.26413665" lon="19.86983495">
<ele>998</ele>
<time>2014-08-20T19:03:23Z</time>
</trkpt>
<trkpt lat="49.26431501" lon="19.86981753">
<ele>995</ele>
<time>2014-08-20T19:03:29Z</time>
</trkpt>
<trkpt lat="49.26445733" lon="19.86978492">
<ele>996</ele>
<time>2014-08-20T19:03:37Z</time>
</trkpt>
<trkpt lat="49.2645512" lon="19.86973556">
<ele>996</ele>
<time>2014-08-20T19:03:43Z</time>
</trkpt>
<trkpt lat="49.26464741" lon="19.86971252">
<ele>994</ele>
<time>2014-08-20T19:03:49Z</time>
</trkpt>
<trkpt lat="49.26473763" lon="19.86972532">
<ele>992</ele>
<time>2014-08-20T19:03:55Z</time>
</trkpt>
<trkpt lat="49.26482376" lon="19.86972312">
<ele>991</ele>
<time>2014-08-20T19:04:01Z</time>
</trkpt>
<trkpt lat="49.26490716" lon="19.8697286">
<ele>989</ele>
<time>2014-08-20T19:04:07Z</time>
</trkpt>
<trkpt lat="49.26499548" lon="19.86971732">
<ele>990</ele>
<time>2014-08-20T19:04:13Z</time>
</trkpt>
<trkpt lat="49.26508562" lon="19.86971266">
<ele>987</ele>
<time>2014-08-20T19:04:19Z</time>
</trkpt>
<trkpt lat="49.26517251" lon="19.86971413">
<ele>988</ele>
<time>2014-08-20T19:04:25Z</time>
</trkpt>
<trkpt lat="49.26525346" lon="19.86971108">
<ele>989</ele>
<time>2014-08-20T19:04:31Z</time>
</trkpt>
<trkpt lat="49.26525346" lon="19.86971108">
<ele>989</ele>
<time>2014-08-20T19:04:39Z</time>
</trkpt>
<trkpt lat="49.26544775" lon="19.86971701">
<ele>987</ele>
<time>2014-08-20T19:04:45Z</time>
</trkpt>
<trkpt lat="49.26551777" lon="19.86972193">
<ele>988</ele>
<time>2014-08-20T19:04:51Z</time>
</trkpt>
<trkpt lat="49.26551777" lon="19.86972193">
<ele>988</ele>
<time>2014-08-20T19:04:57Z</time>
</trkpt>
<trkpt lat="49.2656976" lon="19.86965904">
<ele>988</ele>
<time>2014-08-20T19:05:03Z</time>
</trkpt>
<trkpt lat="49.26578052" lon="19.86963614">
<ele>988</ele>
<time>2014-08-20T19:05:09Z</time>
</trkpt>
<trkpt lat="49.2658714" lon="19.86961348">
<ele>989</ele>
<time>2014-08-20T19:05:15Z</time>
</trkpt>
<trkpt lat="49.26592773" lon="19.86959912">
<ele>987</ele>
<time>2014-08-20T19:05:21Z</time>
</trkpt>
<trkpt lat="49.26601875" lon="19.86955856">
<ele>986</ele>
<time>2014-08-20T19:05:27Z</time>
</trkpt>
<trkpt lat="49.26610276" lon="19.86952004">
<ele>986</ele>
<time>2014-08-20T19:05:34Z</time>
</trkpt>
<trkpt lat="49.26621412" lon="19.86949712">
<ele>987</ele>
<time>2014-08-20T19:05:41Z</time>
</trkpt>
<trkpt lat="49.26621412" lon="19.86949712">
<ele>987</ele>
<time>2014-08-20T19:05:47Z</time>
</trkpt>
<trkpt lat="49.26640479" lon="19.86948737">
<ele>985</ele>
<time>2014-08-20T19:05:53Z</time>
</trkpt>
<trkpt lat="49.26649193" lon="19.86947431">
<ele>985</ele>
<time>2014-08-20T19:05:59Z</time>
</trkpt>
<trkpt lat="49.26656992" lon="19.8694674">
<ele>983</ele>
<time>2014-08-20T19:06:05Z</time>
</trkpt>
<trkpt lat="49.26664815" lon="19.86947539">
<ele>985</ele>
<time>2014-08-20T19:06:11Z</time>
</trkpt>
<trkpt lat="49.26673984" lon="19.86946314">
<ele>986</ele>
<time>2014-08-20T19:06:17Z</time>
</trkpt>
<trkpt lat="49.26682873" lon="19.86942283">
<ele>984</ele>
<time>2014-08-20T19:06:23Z</time>
</trkpt>
<trkpt lat="49.26690999" lon="19.86940066">
<ele>986</ele>
<time>2014-08-20T19:06:29Z</time>
</trkpt>
<trkpt lat="49.26701034" lon="19.86937694">
<ele>985</ele>
<time>2014-08-20T19:06:37Z</time>
</trkpt>
<trkpt lat="49.26708806" lon="19.86936357">
<ele>983</ele>
<time>2014-08-20T19:06:43Z</time>
</trkpt>
<trkpt lat="49.26717907" lon="19.8693657">
<ele>980</ele>
<time>2014-08-20T19:06:49Z</time>
</trkpt>
<trkpt lat="49.26727251" lon="19.86937199">
<ele>976</ele>
<time>2014-08-20T19:06:55Z</time>
</trkpt>
<trkpt lat="49.2673514" lon="19.86935298">
<ele>978</ele>
<time>2014-08-20T19:07:01Z</time>
</trkpt>
<trkpt lat="49.26742824" lon="19.86933618">
<ele>978</ele>
<time>2014-08-20T19:07:07Z</time>
</trkpt>
<trkpt lat="49.26748415" lon="19.86932292">
<ele>978</ele>
<time>2014-08-20T19:07:13Z</time>
</trkpt>
<trkpt lat="49.26754362" lon="19.86931561">
<ele>979</ele>
<time>2014-08-20T19:07:19Z</time>
</trkpt>
<trkpt lat="49.2676873" lon="19.8692867">
<ele>981</ele>
<time>2014-08-20T19:07:25Z</time>
</trkpt>
<trkpt lat="49.2676873" lon="19.8692867">
<ele>981</ele>
<time>2014-08-20T19:07:31Z</time>
</trkpt>
<trkpt lat="49.26783346" lon="19.86926384">
<ele>981</ele>
<time>2014-08-20T19:07:39Z</time>
</trkpt>
<trkpt lat="49.26801317" lon="19.8692579">
<ele>976</ele>
<time>2014-08-20T19:07:45Z</time>
</trkpt>
<trkpt lat="49.26812148" lon="19.86927814">
<ele>975</ele>
<time>2014-08-20T19:07:51Z</time>
</trkpt>
<trkpt lat="49.26821101" lon="19.86928985">
<ele>975</ele>
<time>2014-08-20T19:07:57Z</time>
</trkpt>
<trkpt lat="49.26830357" lon="19.869273">
<ele>975</ele>
<time>2014-08-20T19:08:03Z</time>
</trkpt>
<trkpt lat="49.26838393" lon="19.8692728">
<ele>973</ele>
<time>2014-08-20T19:08:09Z</time>
</trkpt>
<trkpt lat="49.26844947" lon="19.86927526">
<ele>975</ele>
<time>2014-08-20T19:08:15Z</time>
</trkpt>
<trkpt lat="49.26854909" lon="19.86923912">
<ele>975</ele>
<time>2014-08-20T19:08:21Z</time>
</trkpt>
<trkpt lat="49.26854909" lon="19.86923912">
<ele>975</ele>
<time>2014-08-20T19:08:27Z</time>
</trkpt>
<trkpt lat="49.26872774" lon="19.86917254">
<ele>972</ele>
<time>2014-08-20T19:08:34Z</time>
</trkpt>
<trkpt lat="49.26882625" lon="19.86913841">
<ele>972</ele>
<time>2014-08-20T19:08:41Z</time>
</trkpt>
<trkpt lat="49.26891454" lon="19.86913075">
<ele>971</ele>
<time>2014-08-20T19:08:47Z</time>
</trkpt>
<trkpt lat="49.26900723" lon="19.869126">
<ele>972</ele>
<time>2014-08-20T19:08:53Z</time>
</trkpt>
<trkpt lat="49.26908822" lon="19.86912608">
<ele>973</ele>
<time>2014-08-20T19:08:59Z</time>
</trkpt>
<trkpt lat="49.26919065" lon="19.86912982">
<ele>971</ele>
<time>2014-08-20T19:09:05Z</time>
</trkpt>
<trkpt lat="49.26926941" lon="19.86911517">
<ele>972</ele>
<time>2014-08-20T19:09:11Z</time>
</trkpt>
<trkpt lat="49.26934561" lon="19.86911946">
<ele>972</ele>
<time>2014-08-20T19:09:17Z</time>
</trkpt>
<trkpt lat="49.26943498" lon="19.86911312">
<ele>972</ele>
<time>2014-08-20T19:09:23Z</time>
</trkpt>
<trkpt lat="49.26952738" lon="19.86911149">
<ele>970</ele>
<time>2014-08-20T19:09:29Z</time>
</trkpt>
<trkpt lat="49.26959245" lon="19.86910737">
<ele>970</ele>
<time>2014-08-20T19:09:37Z</time>
</trkpt>
<trkpt lat="49.26971871" lon="19.86908624">
<ele>970</ele>
<time>2014-08-20T19:09:43Z</time>
</trkpt>
<trkpt lat="49.26979463" lon="19.86907084">
<ele>971</ele>
<time>2014-08-20T19:09:49Z</time>
</trkpt>
<trkpt lat="49.26987949" lon="19.86906171">
<ele>970</ele>
<time>2014-08-20T19:09:55Z</time>
</trkpt>
<trkpt lat="49.26996371" lon="19.86905857">
<ele>969</ele>
<time>2014-08-20T19:10:01Z</time>
</trkpt>
<trkpt lat="49.27004723" lon="19.86903486">
<ele>969</ele>
<time>2014-08-20T19:10:07Z</time>
</trkpt>
<trkpt lat="49.27013197" lon="19.86901594">
<ele>968</ele>
<time>2014-08-20T19:10:13Z</time>
</trkpt>
<trkpt lat="49.27021541" lon="19.86899559">
<ele>968</ele>
<time>2014-08-20T19:10:19Z</time>
</trkpt>
<trkpt lat="49.27029169" lon="19.86897207">
<ele>967</ele>
<time>2014-08-20T19:10:25Z</time>
</trkpt>
<trkpt lat="49.27037546" lon="19.86895609">
<ele>966</ele>
<time>2014-08-20T19:10:31Z</time>
</trkpt>
<trkpt lat="49.27037546" lon="19.86895609">
<ele>966</ele>
<time>2014-08-20T19:10:39Z</time>
</trkpt>
<trkpt lat="49.2705686" lon="19.86892626">
<ele>967</ele>
<time>2014-08-20T19:10:45Z</time>
</trkpt>
<trkpt lat="49.27065125" lon="19.86892535">
<ele>967</ele>
<time>2014-08-20T19:10:51Z</time>
</trkpt>
<trkpt lat="49.27072304" lon="19.86890368">
<ele>971</ele>
<time>2014-08-20T19:10:57Z</time>
</trkpt>
<trkpt lat="49.27079775" lon="19.8688658">
<ele>973</ele>
<time>2014-08-20T19:11:03Z</time>
</trkpt>
<trkpt lat="49.27086671" lon="19.86887754">
<ele>975</ele>
<time>2014-08-20T19:11:09Z</time>
</trkpt>
<trkpt lat="49.27092194" lon="19.86887775">
<ele>978</ele>
<time>2014-08-20T19:11:15Z</time>
</trkpt>
<trkpt lat="49.27105336" lon="19.8688556">
<ele>979</ele>
<time>2014-08-20T19:11:21Z</time>
</trkpt>
<trkpt lat="49.27105336" lon="19.8688556">
<ele>979</ele>
<time>2014-08-20T19:11:27Z</time>
</trkpt>
<trkpt lat="49.27119194" lon="19.86885161">
<ele>985</ele>
<time>2014-08-20T19:11:35Z</time>
</trkpt>
<trkpt lat="49.2712441" lon="19.86884891">
<ele>987</ele>
<time>2014-08-20T19:11:42Z</time>
</trkpt>
<trkpt lat="49.27134705" lon="19.86883514">
<ele>985</ele>
<time>2014-08-20T19:11:48Z</time>
</trkpt>
<trkpt lat="49.27150643" lon="19.86889384">
<ele>986</ele>
<time>2014-08-20T19:11:54Z</time>
</trkpt>
<trkpt lat="49.27156185" lon="19.8689044">
<ele>987</ele>
<time>2014-08-20T19:12:00Z</time>
</trkpt>
<trkpt lat="49.27165933" lon="19.86884782">
<ele>982</ele>
<time>2014-08-20T19:12:06Z</time>
</trkpt>
<trkpt lat="49.27175625" lon="19.86883491">
<ele>977</ele>
<time>2014-08-20T19:12:12Z</time>
</trkpt>
<trkpt lat="49.27184051" lon="19.86886842">
<ele>971</ele>
<time>2014-08-20T19:12:18Z</time>
</trkpt>
<trkpt lat="49.27194613" lon="19.86885436">
<ele>972</ele>
<time>2014-08-20T19:12:24Z</time>
</trkpt>
<trkpt lat="49.27205129" lon="19.86885421">
<ele>972</ele>
<time>2014-08-20T19:12:30Z</time>
</trkpt>
<trkpt lat="49.27205129" lon="19.86885421">
<ele>972</ele>
<time>2014-08-20T19:12:36Z</time>
</trkpt>
<trkpt lat="49.27222873" lon="19.86885706">
<ele>972</ele>
<time>2014-08-20T19:12:42Z</time>
</trkpt>
<trkpt lat="49.27230219" lon="19.86887325">
<ele>969</ele>
<time>2014-08-20T19:12:48Z</time>
</trkpt>
<trkpt lat="49.27235119" lon="19.86887791">
<ele>970</ele>
<time>2014-08-20T19:12:54Z</time>
</trkpt>
<trkpt lat="49.27240153" lon="19.86888773">
<ele>971</ele>
<time>2014-08-20T19:13:00Z</time>
</trkpt>
<trkpt lat="49.27251962" lon="19.86887186">
<ele>965</ele>
<time>2014-08-20T19:13:06Z</time>
</trkpt>
<trkpt lat="49.27257914" lon="19.86885707">
<ele>968</ele>
<time>2014-08-20T19:13:12Z</time>
</trkpt>
<trkpt lat="49.27266047" lon="19.86878766">
<ele>962</ele>
<time>2014-08-20T19:13:18Z</time>
</trkpt>
<trkpt lat="49.27266047" lon="19.86878766">
<ele>962</ele>
<time>2014-08-20T19:13:24Z</time>
</trkpt>
<trkpt lat="49.27286592" lon="19.86880715">
<ele>962</ele>
<time>2014-08-20T19:13:30Z</time>
</trkpt>
<trkpt lat="49.27296822" lon="19.86880638">
<ele>961</ele>
<time>2014-08-20T19:13:37Z</time>
</trkpt>
<trkpt lat="49.27307506" lon="19.86876585">
<ele>962</ele>
<time>2014-08-20T19:13:43Z</time>
</trkpt>
<trkpt lat="49.27307506" lon="19.86876585">
<ele>962</ele>
<time>2014-08-20T19:13:49Z</time>
</trkpt>
<trkpt lat="49.27324884" lon="19.8687445">
<ele>966</ele>
<time>2014-08-20T19:13:55Z</time>
</trkpt>
<trkpt lat="49.27333504" lon="19.86875226">
<ele>964</ele>
<time>2014-08-20T19:14:01Z</time>
</trkpt>
<trkpt lat="49.27333504" lon="19.86875226">
<ele>964</ele>
<time>2014-08-20T19:14:07Z</time>
</trkpt>
<trkpt lat="49.27351531" lon="19.86872927">
<ele>970</ele>
<time>2014-08-20T19:14:13Z</time>
</trkpt>
<trkpt lat="49.27358161" lon="19.86871607">
<ele>964</ele>
<time>2014-08-20T19:14:19Z</time>
</trkpt>
<trkpt lat="49.27366321" lon="19.86871375">
<ele>962</ele>
<time>2014-08-20T19:14:25Z</time>
</trkpt>
<trkpt lat="49.27374659" lon="19.86870225">
<ele>963</ele>
<time>2014-08-20T19:14:31Z</time>
</trkpt>
<trkpt lat="49.27388972" lon="19.86870904">
<ele>965</ele>
<time>2014-08-20T19:14:40Z</time>
</trkpt>
<trkpt lat="49.2739805" lon="19.86871578">
<ele>963</ele>
<time>2014-08-20T19:14:46Z</time>
</trkpt>
<trkpt lat="49.27407668" lon="19.86870499">
<ele>965</ele>
<time>2014-08-20T19:14:52Z</time>
</trkpt>
<trkpt lat="49.2741581" lon="19.86867891">
<ele>966</ele>
<time>2014-08-20T19:14:58Z</time>
</trkpt>
<trkpt lat="49.27423943" lon="19.86866151">
<ele>967</ele>
<time>2014-08-20T19:15:04Z</time>
</trkpt>
<trkpt lat="49.27432518" lon="19.86864064">
<ele>971</ele>
<time>2014-08-20T19:15:10Z</time>
</trkpt>
<trkpt lat="49.27440383" lon="19.86862466">
<ele>968</ele>
<time>2014-08-20T19:15:16Z</time>
</trkpt>
<trkpt lat="49.27447786" lon="19.86860136">
<ele>966</ele>
<time>2014-08-20T19:15:22Z</time>
</trkpt>
<trkpt lat="49.27456164" lon="19.86853797">
<ele>966</ele>
<time>2014-08-20T19:15:28Z</time>
</trkpt>
<trkpt lat="49.27463831" lon="19.8685174">
<ele>964</ele>
<time>2014-08-20T19:15:34Z</time>
</trkpt>
<trkpt lat="49.27472054" lon="19.86849599">
<ele>964</ele>
<time>2014-08-20T19:15:40Z</time>
</trkpt>
<trkpt lat="49.274791" lon="19.86844522">
<ele>964</ele>
<time>2014-08-20T19:15:46Z</time>
</trkpt>
<trkpt lat="49.274791" lon="19.86844522">
<ele>964</ele>
<time>2014-08-20T19:15:52Z</time>
</trkpt>
<trkpt lat="49.27497017" lon="19.86850549">
<ele>968</ele>
<time>2014-08-20T19:15:58Z</time>
</trkpt>
<trkpt lat="49.2750529" lon="19.86844681">
<ele>972</ele>
<time>2014-08-20T19:16:04Z</time>
</trkpt>
<trkpt lat="49.27512194" lon="19.86838569">
<ele>974</ele>
<time>2014-08-20T19:16:10Z</time>
</trkpt>
<trkpt lat="49.27521413" lon="19.86846983">
<ele>970</ele>
<time>2014-08-20T19:16:16Z</time>
</trkpt>
<trkpt lat="49.27530635" lon="19.86852414">
<ele>967</ele>
<time>2014-08-20T19:16:22Z</time>
</trkpt>
<trkpt lat="49.27538017" lon="19.86853348">
<ele>968</ele>
<time>2014-08-20T19:16:28Z</time>
</trkpt>
<trkpt lat="49.27538017" lon="19.86853348">
<ele>968</ele>
<time>2014-08-20T19:16:35Z</time>
</trkpt>
<trkpt lat="49.2754192" lon="19.86852172">
<ele>968</ele>
<time>2014-08-20T19:16:41Z</time>
</trkpt>
<trkpt lat="49.27542727" lon="19.86852323">
<ele>968</ele>
<time>2014-08-20T19:16:47Z</time>
</trkpt>
<trkpt lat="49.27543344" lon="19.86853006">
<ele>967</ele>
<time>2014-08-20T19:16:53Z</time>
</trkpt>
<trkpt lat="49.27543945" lon="19.86852942">
<ele>968</ele>
<time>2014-08-20T19:16:59Z</time>
</trkpt>
<trkpt lat="49.27545111" lon="19.86854755">
<ele>968</ele>
<time>2014-08-20T19:17:05Z</time>
</trkpt>
<trkpt lat="49.27545285" lon="19.86856225">
<ele>968</ele>
<time>2014-08-20T19:17:11Z</time>
</trkpt>
<trkpt lat="49.2754535" lon="19.86857241">
<ele>969</ele>
<time>2014-08-20T19:17:17Z</time>
</trkpt>
<trkpt lat="49.27545438" lon="19.86857441">
<ele>969</ele>
<time>2014-08-20T19:17:23Z</time>
</trkpt>
<trkpt lat="49.2754546" lon="19.86857372">
<ele>969</ele>
<time>2014-08-20T19:17:29Z</time>
</trkpt>
<trkpt lat="49.27545472" lon="19.86857369">
<ele>969</ele>
<time>2014-08-20T19:17:37Z</time>
</trkpt>
<trkpt lat="49.27545468" lon="19.86857382">
<ele>969</ele>
<time>2014-08-20T19:17:43Z</time>
</trkpt>
<trkpt lat="49.27545464" lon="19.86857383">
<ele>969</ele>
<time>2014-08-20T19:17:49Z</time>
</trkpt>
<trkpt lat="49.27545461" lon="19.86857388">
<ele>969</ele>
<time>2014-08-20T19:17:55Z</time>
</trkpt>
<trkpt lat="49.27545468" lon="19.86857392">
<ele>969</ele>
<time>2014-08-20T19:18:01Z</time>
</trkpt>
<trkpt lat="49.27545474" lon="19.86857397">
<ele>969</ele>
<time>2014-08-20T19:18:07Z</time>
</trkpt>
<trkpt lat="49.27545474" lon="19.86857393">
<ele>969</ele>
<time>2014-08-20T19:18:13Z</time>
</trkpt>
<trkpt lat="49.27545476" lon="19.86857391">
<ele>969</ele>
<time>2014-08-20T19:18:19Z</time>
</trkpt>
<trkpt lat="49.27545369" lon="19.86857396">
<ele>969</ele>
<time>2014-08-20T19:18:25Z</time>
</trkpt>
<trkpt lat="49.27545536" lon="19.86857218">
<ele>969</ele>
<time>2014-08-20T19:18:31Z</time>
</trkpt>
<trkpt lat="49.27545696" lon="19.86857208">
<ele>969</ele>
<time>2014-08-20T19:18:39Z</time>
</trkpt>
<trkpt lat="49.27545933" lon="19.86868549">
<ele>970</ele>
<time>2014-08-20T19:18:45Z</time>
</trkpt>
<trkpt lat="49.27544229" lon="19.8692171">
<ele>971</ele>
<time>2014-08-20T19:18:51Z</time>
</trkpt>
<trkpt lat="49.2753625" lon="19.86985122">
<ele>972</ele>
<time>2014-08-20T19:18:57Z</time>
</trkpt>
<trkpt lat="49.27531695" lon="19.87050273">
<ele>971</ele>
<time>2014-08-20T19:19:03Z</time>
</trkpt>
<trkpt lat="49.2753059" lon="19.87070446">
<ele>970</ele>
<time>2014-08-20T19:19:09Z</time>
</trkpt>
<trkpt lat="49.27533654" lon="19.87140401">
<ele>972</ele>
<time>2014-08-20T19:19:15Z</time>
</trkpt>
<trkpt lat="49.27555868" lon="19.87282155">
<ele>975</ele>
<time>2014-08-20T19:19:21Z</time>
</trkpt>
<trkpt lat="49.27570485" lon="19.87374396">
<ele>976</ele>
<time>2014-08-20T19:19:27Z</time>
</trkpt>
<trkpt lat="49.27582521" lon="19.87485897">
<ele>978</ele>
<time>2014-08-20T19:19:34Z</time>
</trkpt>
<trkpt lat="49.27608877" lon="19.87594649">
<ele>978</ele>
<time>2014-08-20T19:19:41Z</time>
</trkpt>
<trkpt lat="49.27615556" lon="19.87629938">
<ele>977</ele>
<time>2014-08-20T19:19:47Z</time>
</trkpt>
<trkpt lat="49.2764191" lon="19.87799044">
<ele>980</ele>
<time>2014-08-20T19:19:53Z</time>
</trkpt>
<trkpt lat="49.2766789" lon="19.87911801">
<ele>979</ele>
<time>2014-08-20T19:19:59Z</time>
</trkpt>
<trkpt lat="49.27690971" lon="19.88027246">
<ele>981</ele>
<time>2014-08-20T19:20:05Z</time>
</trkpt>
<trkpt lat="49.27710056" lon="19.88149843">
<ele>984</ele>
<time>2014-08-20T19:20:11Z</time>
</trkpt>
<trkpt lat="49.277058" lon="19.88270066">
<ele>986</ele>
<time>2014-08-20T19:20:17Z</time>
</trkpt>
<trkpt lat="49.27694043" lon="19.88374397">
<ele>987</ele>
<time>2014-08-20T19:20:23Z</time>
</trkpt>
<trkpt lat="49.2769152" lon="19.88405831">
<ele>988</ele>
<time>2014-08-20T19:20:29Z</time>
</trkpt>
<trkpt lat="49.27669889" lon="19.8853922">
<ele>989</ele>
<time>2014-08-20T19:20:37Z</time>
</trkpt>
<trkpt lat="49.27643089" lon="19.8870761">
<ele>990</ele>
<time>2014-08-20T19:20:43Z</time>
</trkpt>
<trkpt lat="49.27590134" lon="19.88802239">
<ele>990</ele>
<time>2014-08-20T19:20:49Z</time>
</trkpt>
<trkpt lat="49.27568898" lon="19.88827148">
<ele>990</ele>
<time>2014-08-20T19:20:55Z</time>
</trkpt>
<trkpt lat="49.27462543" lon="19.88946986">
<ele>986</ele>
<time>2014-08-20T19:21:01Z</time>
</trkpt>
<trkpt lat="49.27440394" lon="19.89055801">
<ele>986</ele>
<time>2014-08-20T19:21:07Z</time>
</trkpt>
<trkpt lat="49.27453408" lon="19.89168868">
<ele>986</ele>
<time>2014-08-20T19:21:13Z</time>
</trkpt>
<trkpt lat="49.27470889" lon="19.89283009">
<ele>987</ele>
<time>2014-08-20T19:21:19Z</time>
</trkpt>
<trkpt lat="49.27474046" lon="19.89399048">
<ele>986</ele>
<time>2014-08-20T19:21:25Z</time>
</trkpt>
<trkpt lat="49.27447211" lon="19.89506904">
<ele>984</ele>
<time>2014-08-20T19:21:31Z</time>
</trkpt>
<trkpt lat="49.27435877" lon="19.89554243">
<ele>984</ele>
<time>2014-08-20T19:21:39Z</time>
</trkpt>
<trkpt lat="49.27458986" lon="19.89778916">
<ele>983</ele>
<time>2014-08-20T19:21:45Z</time>
</trkpt>
<trkpt lat="49.27519715" lon="19.89876835">
<ele>982</ele>
<time>2014-08-20T19:21:51Z</time>
</trkpt>
<trkpt lat="49.27596932" lon="19.8993722">
<ele>986</ele>
<time>2014-08-20T19:21:57Z</time>
</trkpt>
<trkpt lat="49.27677122" lon="19.89983747">
<ele>989</ele>
<time>2014-08-20T19:22:03Z</time>
</trkpt>
<trkpt lat="49.27700415" lon="19.89999038">
<ele>989</ele>
<time>2014-08-20T19:22:09Z</time>
</trkpt>
<trkpt lat="49.27796436" lon="19.90143591">
<ele>988</ele>
<time>2014-08-20T19:22:15Z</time>
</trkpt>
<trkpt lat="49.2780948" lon="19.90182158">
<ele>988</ele>
<time>2014-08-20T19:22:21Z</time>
</trkpt>
<trkpt lat="49.27809687" lon="19.90367524">
<ele>983</ele>
<time>2014-08-20T19:22:27Z</time>
</trkpt>
<trkpt lat="49.27813637" lon="19.90441732">
<ele>979</ele>
<time>2014-08-20T19:22:34Z</time>
</trkpt>
<trkpt lat="49.27821519" lon="19.90525544">
<ele>975</ele>
<time>2014-08-20T19:22:41Z</time>
</trkpt>
<trkpt lat="49.27840766" lon="19.90612442">
<ele>975</ele>
<time>2014-08-20T19:22:47Z</time>
</trkpt>
<trkpt lat="49.27869966" lon="19.9072291">
<ele>973</ele>
<time>2014-08-20T19:22:53Z</time>
</trkpt>
<trkpt lat="49.27901045" lon="19.90836624">
<ele>973</ele>
<time>2014-08-20T19:22:59Z</time>
</trkpt>
<trkpt lat="49.27910689" lon="19.90874872">
<ele>973</ele>
<time>2014-08-20T19:23:05Z</time>
</trkpt>
<trkpt lat="49.27966054" lon="19.91065243">
<ele>973</ele>
<time>2014-08-20T19:23:11Z</time>
</trkpt>
<trkpt lat="49.27993017" lon="19.91178231">
<ele>972</ele>
<time>2014-08-20T19:23:17Z</time>
</trkpt>
<trkpt lat="49.2804044" lon="19.91277461">
<ele>971</ele>
<time>2014-08-20T19:23:23Z</time>
</trkpt>
<trkpt lat="49.28087156" lon="19.9137449">
<ele>971</ele>
<time>2014-08-20T19:23:29Z</time>
</trkpt>
<trkpt lat="49.28098465" lon="19.91406055">
<ele>970</ele>
<time>2014-08-20T19:23:36Z</time>
</trkpt>
<trkpt lat="49.28136695" lon="19.91527217">
<ele>968</ele>
<time>2014-08-20T19:23:43Z</time>
</trkpt>
<trkpt lat="49.28140356" lon="19.91556292">
<ele>966</ele>
<time>2014-08-20T19:23:49Z</time>
</trkpt>
<trkpt lat="49.28140356" lon="19.91556292">
<ele>966</ele>
<time>2014-08-20T19:23:55Z</time>
</trkpt>
<trkpt lat="49.28140639" lon="19.91552412">
<ele>965</ele>
<time>2014-08-20T19:24:01Z</time>
</trkpt>
<trkpt lat="49.28140212" lon="19.91552019">
<ele>965</ele>
<time>2014-08-20T19:24:07Z</time>
</trkpt>
<trkpt lat="49.2814542" lon="19.91552584">
<ele>960</ele>
<time>2014-08-20T19:24:13Z</time>
</trkpt>
<trkpt lat="49.28168529" lon="19.91600748">
<ele>955</ele>
<time>2014-08-20T19:24:19Z</time>
</trkpt>
<trkpt lat="49.28188827" lon="19.91656086">
<ele>954</ele>
<time>2014-08-20T19:24:25Z</time>
</trkpt>
<trkpt lat="49.28212002" lon="19.9172723">
<ele>950</ele>
<time>2014-08-20T19:24:31Z</time>
</trkpt>
<trkpt lat="49.2822433" lon="19.91755224">
<ele>948</ele>
<time>2014-08-20T19:24:39Z</time>
</trkpt>
<trkpt lat="49.28271855" lon="19.91875537">
<ele>940</ele>
<time>2014-08-20T19:24:45Z</time>
</trkpt>
<trkpt lat="49.28290897" lon="19.91922723">
<ele>939</ele>
<time>2014-08-20T19:24:51Z</time>
</trkpt>
<trkpt lat="49.28314916" lon="19.91992631">
<ele>937</ele>
<time>2014-08-20T19:24:57Z</time>
</trkpt>
<trkpt lat="49.28340969" lon="19.92073518">
<ele>936</ele>
<time>2014-08-20T19:25:03Z</time>
</trkpt>
<trkpt lat="49.28372805" lon="19.92162888">
<ele>933</ele>
<time>2014-08-20T19:25:09Z</time>
</trkpt>
<trkpt lat="49.28389122" lon="19.92198014">
<ele>931</ele>
<time>2014-08-20T19:25:15Z</time>
</trkpt>
<trkpt lat="49.28463606" lon="19.92349562">
<ele>929</ele>
<time>2014-08-20T19:25:21Z</time>
</trkpt>
<trkpt lat="49.28492661" lon="19.9245853">
<ele>926</ele>
<time>2014-08-20T19:25:27Z</time>
</trkpt>
<trkpt lat="49.28525196" lon="19.92561912">
<ele>924</ele>
<time>2014-08-20T19:25:34Z</time>
</trkpt>
<trkpt lat="49.28568967" lon="19.92651377">
<ele>920</ele>
<time>2014-08-20T19:25:41Z</time>
</trkpt>
<trkpt lat="49.28597076" lon="19.92731879">
<ele>916</ele>
<time>2014-08-20T19:25:47Z</time>
</trkpt>
<trkpt lat="49.28623581" lon="19.92819191">
<ele>915</ele>
<time>2014-08-20T19:25:53Z</time>
</trkpt>
<trkpt lat="49.28648433" lon="19.9289703">
<ele>914</ele>
<time>2014-08-20T19:25:59Z</time>
</trkpt>
<trkpt lat="49.28678908" lon="19.92947519">
<ele>910</ele>
<time>2014-08-20T19:26:05Z</time>
</trkpt>
<trkpt lat="49.28710728" lon="19.92989821">
<ele>907</ele>
<time>2014-08-20T19:26:11Z</time>
</trkpt>
<trkpt lat="49.28739961" lon="19.93031181">
<ele>906</ele>
<time>2014-08-20T19:26:17Z</time>
</trkpt>
<trkpt lat="49.28751635" lon="19.93046482">
<ele>906</ele>
<time>2014-08-20T19:26:23Z</time>
</trkpt>
<trkpt lat="49.28818146" lon="19.93133136">
<ele>903</ele>
<time>2014-08-20T19:26:29Z</time>
</trkpt>
<trkpt lat="49.28845214" lon="19.93166012">
<ele>902</ele>
<time>2014-08-20T19:26:37Z</time>
</trkpt>
<trkpt lat="49.2890135" lon="19.93247045">
<ele>901</ele>
<time>2014-08-20T19:26:43Z</time>
</trkpt>
<trkpt lat="49.28940631" lon="19.93279116">
<ele>897</ele>
<time>2014-08-20T19:26:49Z</time>
</trkpt>
<trkpt lat="49.2896873" lon="19.93300567">
<ele>895</ele>
<time>2014-08-20T19:26:55Z</time>
</trkpt>
<trkpt lat="49.29008199" lon="19.93363118">
<ele>893</ele>
<time>2014-08-20T19:27:01Z</time>
</trkpt>
<trkpt lat="49.29021279" lon="19.93415322">
<ele>893</ele>
<time>2014-08-20T19:27:07Z</time>
</trkpt>
<trkpt lat="49.29041629" lon="19.93471682">
<ele>893</ele>
<time>2014-08-20T19:27:13Z</time>
</trkpt>
<trkpt lat="49.29066537" lon="19.93527769">
<ele>891</ele>
<time>2014-08-20T19:27:19Z</time>
</trkpt>
<trkpt lat="49.29089608" lon="19.93584037">
<ele>890</ele>
<time>2014-08-20T19:27:25Z</time>
</trkpt>
<trkpt lat="49.29118702" lon="19.93645978">
<ele>889</ele>
<time>2014-08-20T19:27:31Z</time>
</trkpt>
<trkpt lat="49.29158505" lon="19.93715959">
<ele>886</ele>
<time>2014-08-20T19:27:39Z</time>
</trkpt>
<trkpt lat="49.29193565" lon="19.93760095">
<ele>884</ele>
<time>2014-08-20T19:27:45Z</time>
</trkpt>
<trkpt lat="49.29222476" lon="19.93822898">
<ele>882</ele>
<time>2014-08-20T19:27:51Z</time>
</trkpt>
<trkpt lat="49.29239506" lon="19.93896728">
<ele>881</ele>
<time>2014-08-20T19:27:57Z</time>
</trkpt>
<trkpt lat="49.29250321" lon="19.9396762">
<ele>878</ele>
<time>2014-08-20T19:28:03Z</time>
</trkpt>
<trkpt lat="49.29261477" lon="19.94035739">
<ele>875</ele>
<time>2014-08-20T19:28:09Z</time>
</trkpt>
<trkpt lat="49.2927313" lon="19.94100875">
<ele>874</ele>
<time>2014-08-20T19:28:15Z</time>
</trkpt>
<trkpt lat="49.29291301" lon="19.94170163">
<ele>875</ele>
<time>2014-08-20T19:28:21Z</time>
</trkpt>
<trkpt lat="49.29306598" lon="19.94229817">
<ele>872</ele>
<time>2014-08-20T19:28:27Z</time>
</trkpt>
<trkpt lat="49.29328605" lon="19.94280797">
<ele>870</ele>
<time>2014-08-20T19:28:34Z</time>
</trkpt>
<trkpt lat="49.29368624" lon="19.94325706">
<ele>869</ele>
<time>2014-08-20T19:28:41Z</time>
</trkpt>
<trkpt lat="49.29408237" lon="19.94367772">
<ele>869</ele>
<time>2014-08-20T19:28:47Z</time>
</trkpt>
<trkpt lat="49.29440723" lon="19.94416805">
<ele>870</ele>
<time>2014-08-20T19:28:53Z</time>
</trkpt>
<trkpt lat="49.29452816" lon="19.94433713">
<ele>870</ele>
<time>2014-08-20T19:28:59Z</time>
</trkpt>
<trkpt lat="49.29497225" lon="19.94518931">
<ele>870</ele>
<time>2014-08-20T19:29:05Z</time>
</trkpt>
<trkpt lat="49.29529177" lon="19.94563151">
<ele>868</ele>
<time>2014-08-20T19:29:11Z</time>
</trkpt>
<trkpt lat="49.29552101" lon="19.94595637">
<ele>867</ele>
<time>2014-08-20T19:29:17Z</time>
</trkpt>
<trkpt lat="49.29563517" lon="19.94614219">
<ele>869</ele>
<time>2014-08-20T19:29:23Z</time>
</trkpt>
<trkpt lat="49.29563517" lon="19.94614219">
<ele>869</ele>
<time>2014-08-20T19:29:29Z</time>
</trkpt>
<trkpt lat="49.29563318" lon="19.94614405">
<ele>869</ele>
<time>2014-08-20T19:29:36Z</time>
</trkpt>
<trkpt lat="49.2956467" lon="19.946152">
<ele>868</ele>
<time>2014-08-20T19:29:43Z</time>
</trkpt>
<trkpt lat="49.29567191" lon="19.94612414">
<ele>870</ele>
<time>2014-08-20T19:29:49Z</time>
</trkpt>
<trkpt lat="49.29568911" lon="19.94610941">
<ele>870</ele>
<time>2014-08-20T19:29:55Z</time>
</trkpt>
<trkpt lat="49.29568939" lon="19.94610877">
<ele>870</ele>
<time>2014-08-20T19:30:01Z</time>
</trkpt>
<trkpt lat="49.29568569" lon="19.94611235">
<ele>868</ele>
<time>2014-08-20T19:30:07Z</time>
</trkpt>
<trkpt lat="49.29568421" lon="19.94611289">
<ele>868</ele>
<time>2014-08-20T19:30:13Z</time>
</trkpt>
<trkpt lat="49.29568433" lon="19.94611285">
<ele>868</ele>
<time>2014-08-20T19:30:19Z</time>
</trkpt>
<trkpt lat="49.29568448" lon="19.94611288">
<ele>868</ele>
<time>2014-08-20T19:30:25Z</time>
</trkpt>
<trkpt lat="49.29581627" lon="19.94633595">
<ele>866</ele>
<time>2014-08-20T19:30:31Z</time>
</trkpt>
<trkpt lat="49.2959193" lon="19.94656448">
<ele>864</ele>
<time>2014-08-20T19:30:39Z</time>
</trkpt>
<trkpt lat="49.29626844" lon="19.94748938">
<ele>865</ele>
<time>2014-08-20T19:30:45Z</time>
</trkpt>
<trkpt lat="49.29649315" lon="19.94793334">
<ele>862</ele>
<time>2014-08-20T19:30:51Z</time>
</trkpt>
<trkpt lat="49.29658169" lon="19.94808278">
<ele>862</ele>
<time>2014-08-20T19:30:57Z</time>
</trkpt>
<trkpt lat="49.29687629" lon="19.94844365">
<ele>861</ele>
<time>2014-08-20T19:31:03Z</time>
</trkpt>
<trkpt lat="49.29750827" lon="19.94866743">
<ele>861</ele>
<time>2014-08-20T19:31:09Z</time>
</trkpt>
<trkpt lat="49.2979629" lon="19.94875273">
<ele>860</ele>
<time>2014-08-20T19:31:15Z</time>
</trkpt>
<trkpt lat="49.29838576" lon="19.94880311">
<ele>860</ele>
<time>2014-08-20T19:31:21Z</time>
</trkpt>
<trkpt lat="49.29873579" lon="19.9489082">
<ele>861</ele>
<time>2014-08-20T19:31:27Z</time>
</trkpt>
<trkpt lat="49.29895412" lon="19.94910355">
<ele>861</ele>
<time>2014-08-20T19:31:35Z</time>
</trkpt>
<trkpt lat="49.29916067" lon="19.94965852">
<ele>861</ele>
<time>2014-08-20T19:31:43Z</time>
</trkpt>
<trkpt lat="49.29927575" lon="19.95012902">
<ele>866</ele>
<time>2014-08-20T19:31:49Z</time>
</trkpt>
<trkpt lat="49.29940459" lon="19.95068793">
<ele>867</ele>
<time>2014-08-20T19:31:55Z</time>
</trkpt>
<trkpt lat="49.29949651" lon="19.95125053">
<ele>867</ele>
<time>2014-08-20T19:32:01Z</time>
</trkpt>
<trkpt lat="49.29929407" lon="19.95167672">
<ele>866</ele>
<time>2014-08-20T19:32:07Z</time>
</trkpt>
<trkpt lat="49.29889563" lon="19.95182019">
<ele>868</ele>
<time>2014-08-20T19:32:13Z</time>
</trkpt>
<trkpt lat="49.298457" lon="19.95205437">
<ele>869</ele>
<time>2014-08-20T19:32:19Z</time>
</trkpt>
<trkpt lat="49.29799563" lon="19.9523098">
<ele>871</ele>
<time>2014-08-20T19:32:25Z</time>
</trkpt>
<trkpt lat="49.29746812" lon="19.95257973">
<ele>873</ele>
<time>2014-08-20T19:32:31Z</time>
</trkpt>
<trkpt lat="49.29721725" lon="19.95272383">
<ele>874</ele>
<time>2014-08-20T19:32:39Z</time>
</trkpt>
<trkpt lat="49.29629699" lon="19.95334995">
<ele>877</ele>
<time>2014-08-20T19:32:45Z</time>
</trkpt>
<trkpt lat="49.29600582" lon="19.9536137">
<ele>878</ele>
<time>2014-08-20T19:32:51Z</time>
</trkpt>
<trkpt lat="49.29579365" lon="19.95385315">
<ele>879</ele>
<time>2014-08-20T19:32:57Z</time>
</trkpt>
<trkpt lat="49.29592247" lon="19.95419128">
<ele>878</ele>
<time>2014-08-20T19:33:03Z</time>
</trkpt>
<trkpt lat="49.29613585" lon="19.95451569">
<ele>877</ele>
<time>2014-08-20T19:33:09Z</time>
</trkpt>
<trkpt lat="49.29630713" lon="19.95482775">
<ele>877</ele>
<time>2014-08-20T19:33:15Z</time>
</trkpt>
<trkpt lat="49.29635657" lon="19.95488756">
<ele>877</ele>
<time>2014-08-20T19:33:21Z</time>
</trkpt>
<trkpt lat="49.29635657" lon="19.95488756">
<ele>877</ele>
<time>2014-08-20T19:33:27Z</time>
</trkpt>
<trkpt lat="49.29636999" lon="19.95490726">
<ele>877</ele>
<time>2014-08-20T19:33:34Z</time>
</trkpt>
<trkpt lat="49.29651382" lon="19.95508274">
<ele>876</ele>
<time>2014-08-20T19:33:41Z</time>
</trkpt>
<trkpt lat="49.29676317" lon="19.95545476">
<ele>877</ele>
<time>2014-08-20T19:33:47Z</time>
</trkpt>
<trkpt lat="49.29702336" lon="19.95593259">
<ele>875</ele>
<time>2014-08-20T19:33:53Z</time>
</trkpt>
<trkpt lat="49.29712751" lon="19.95607109">
<ele>875</ele>
<time>2014-08-20T19:33:59Z</time>
</trkpt>
<trkpt lat="49.29780144" lon="19.95702995">
<ele>876</ele>
<time>2014-08-20T19:34:05Z</time>
</trkpt>
<trkpt lat="49.2982135" lon="19.95769918">
<ele>876</ele>
<time>2014-08-20T19:34:11Z</time>
</trkpt>
<trkpt lat="49.29854725" lon="19.95843228">
<ele>875</ele>
<time>2014-08-20T19:34:17Z</time>
</trkpt>
<trkpt lat="49.2988392" lon="19.95912091">
<ele>875</ele>
<time>2014-08-20T19:34:23Z</time>
</trkpt>
<trkpt lat="49.29908118" lon="19.95970078">
<ele>877</ele>
<time>2014-08-20T19:34:29Z</time>
</trkpt>
<trkpt lat="49.29921633" lon="19.96000162">
<ele>881</ele>
<time>2014-08-20T19:34:37Z</time>
</trkpt>
<trkpt lat="49.29927377" lon="19.96012826">
<ele>881</ele>
<time>2014-08-20T19:34:43Z</time>
</trkpt>
<trkpt lat="49.29927377" lon="19.96012826">
<ele>881</ele>
<time>2014-08-20T19:34:49Z</time>
</trkpt>
<trkpt lat="49.29927384" lon="19.96011176">
<ele>883</ele>
<time>2014-08-20T19:34:55Z</time>
</trkpt>
<trkpt lat="49.29927388" lon="19.96010676">
<ele>885</ele>
<time>2014-08-20T19:35:01Z</time>
</trkpt>
<trkpt lat="49.2992755" lon="19.96010411">
<ele>885</ele>
<time>2014-08-20T19:35:07Z</time>
</trkpt>
<trkpt lat="49.29927966" lon="19.96010787">
<ele>886</ele>
<time>2014-08-20T19:35:13Z</time>
</trkpt>
<trkpt lat="49.29924986" lon="19.96007821">
<ele>888</ele>
<time>2014-08-20T19:35:19Z</time>
</trkpt>
<trkpt lat="49.29926004" lon="19.96007818">
<ele>889</ele>
<time>2014-08-20T19:35:25Z</time>
</trkpt>
<trkpt lat="49.29926201" lon="19.96008258">
<ele>889</ele>
<time>2014-08-20T19:35:31Z</time>
</trkpt>
<trkpt lat="49.29925991" lon="19.9600837">
<ele>889</ele>
<time>2014-08-20T19:35:39Z</time>
</trkpt>
<trkpt lat="49.29926295" lon="19.96008551">
<ele>889</ele>
<time>2014-08-20T19:35:45Z</time>
</trkpt>
<trkpt lat="49.29927804" lon="19.96008966">
<ele>889</ele>
<time>2014-08-20T19:35:51Z</time>
</trkpt>
<trkpt lat="49.29927955" lon="19.96009397">
<ele>889</ele>
<time>2014-08-20T19:35:57Z</time>
</trkpt>
<trkpt lat="49.29928456" lon="19.96010509">
<ele>890</ele>
<time>2014-08-20T19:36:03Z</time>
</trkpt>
<trkpt lat="49.29928466" lon="19.96012991">
<ele>891</ele>
<time>2014-08-20T19:36:09Z</time>
</trkpt>
<trkpt lat="49.29929507" lon="19.96015993">
<ele>889</ele>
<time>2014-08-20T19:36:15Z</time>
</trkpt>
<trkpt lat="49.29931555" lon="19.96027113">
<ele>889</ele>
<time>2014-08-20T19:36:21Z</time>
</trkpt>
<trkpt lat="49.29933538" lon="19.9603329">
<ele>887</ele>
<time>2014-08-20T19:36:27Z</time>
</trkpt>
<trkpt lat="49.29937806" lon="19.96041671">
<ele>886</ele>
<time>2014-08-20T19:36:34Z</time>
</trkpt>
<trkpt lat="49.29944438" lon="19.9605525">
<ele>885</ele>
<time>2014-08-20T19:36:41Z</time>
</trkpt>
<trkpt lat="49.29946283" lon="19.96064975">
<ele>886</ele>
<time>2014-08-20T19:36:47Z</time>
</trkpt>
<trkpt lat="49.29948158" lon="19.96079897">
<ele>886</ele>
<time>2014-08-20T19:36:53Z</time>
</trkpt>
<trkpt lat="49.2994857" lon="19.96093336">
<ele>886</ele>
<time>2014-08-20T19:36:59Z</time>
</trkpt>
<trkpt lat="49.29950725" lon="19.96101037">
<ele>886</ele>
<time>2014-08-20T19:37:05Z</time>
</trkpt>
<trkpt lat="49.2995424" lon="19.96109712">
<ele>885</ele>
<time>2014-08-20T19:37:11Z</time>
</trkpt>
<trkpt lat="49.29955129" lon="19.96117654">
<ele>886</ele>
<time>2014-08-20T19:37:17Z</time>
</trkpt>
<trkpt lat="49.29955129" lon="19.96117654">
<ele>886</ele>
<time>2014-08-20T19:37:23Z</time>
</trkpt>
<trkpt lat="49.2996025" lon="19.96116183">
<ele>882</ele>
<time>2014-08-20T19:37:29Z</time>
</trkpt>
<trkpt lat="49.2996025" lon="19.96116183">
<ele>882</ele>
<time>2014-08-20T19:37:35Z</time>
</trkpt>
<trkpt lat="49.29969299" lon="19.96116096">
<ele>884</ele>
<time>2014-08-20T19:37:41Z</time>
</trkpt>
<trkpt lat="49.29976909" lon="19.96109642">
<ele>882</ele>
<time>2014-08-20T19:37:47Z</time>
</trkpt>
<trkpt lat="49.29987238" lon="19.9611373">
<ele>882</ele>
<time>2014-08-20T19:37:53Z</time>
</trkpt>
<trkpt lat="49.29995187" lon="19.96122549">
<ele>882</ele>
<time>2014-08-20T19:37:59Z</time>
</trkpt>
<trkpt lat="49.30002223" lon="19.96123716">
<ele>878</ele>
<time>2014-08-20T19:38:05Z</time>
</trkpt>
<trkpt lat="49.30010652" lon="19.96126536">
<ele>875</ele>
<time>2014-08-20T19:38:11Z</time>
</trkpt>
<trkpt lat="49.30016586" lon="19.96129882">
<ele>876</ele>
<time>2014-08-20T19:38:17Z</time>
</trkpt>
<trkpt lat="49.30024836" lon="19.96133627">
<ele>877</ele>
<time>2014-08-20T19:38:23Z</time>
</trkpt>
<trkpt lat="49.30030119" lon="19.96138738">
<ele>881</ele>
<time>2014-08-20T19:38:29Z</time>
</trkpt>
<trkpt lat="49.30030119" lon="19.96138738">
<ele>881</ele>
<time>2014-08-20T19:38:37Z</time>
</trkpt>
<trkpt lat="49.30048774" lon="19.96126576">
<ele>877</ele>
<time>2014-08-20T19:38:43Z</time>
</trkpt>
<trkpt lat="49.30059039" lon="19.96119123">
<ele>874</ele>
<time>2014-08-20T19:38:49Z</time>
</trkpt>
<trkpt lat="49.30067805" lon="19.96113894">
<ele>875</ele>
<time>2014-08-20T19:38:55Z</time>
</trkpt>
<trkpt lat="49.30073865" lon="19.96111611">
<ele>873</ele>
<time>2014-08-20T19:39:01Z</time>
</trkpt>
<trkpt lat="49.30078483" lon="19.96114385">
<ele>873</ele>
<time>2014-08-20T19:39:07Z</time>
</trkpt>
<trkpt lat="49.30078483" lon="19.96114385">
<ele>873</ele>
<time>2014-08-20T19:39:13Z</time>
</trkpt>
<trkpt lat="49.3008773" lon="19.9612104">
<ele>873</ele>
<time>2014-08-20T19:39:19Z</time>
</trkpt>
<trkpt lat="49.3008773" lon="19.9612104">
<ele>873</ele>
<time>2014-08-20T19:39:25Z</time>
</trkpt>
<trkpt lat="49.30102819" lon="19.96113008">
<ele>866</ele>
<time>2014-08-20T19:39:31Z</time>
</trkpt>
<trkpt lat="49.3011319" lon="19.96100413">
<ele>865</ele>
<time>2014-08-20T19:39:39Z</time>
</trkpt>
<trkpt lat="49.30117179" lon="19.96096292">
<ele>868</ele>
<time>2014-08-20T19:39:45Z</time>
</trkpt>
<trkpt lat="49.3012215" lon="19.96096495">
<ele>875</ele>
<time>2014-08-20T19:39:51Z</time>
</trkpt>
<trkpt lat="49.30127895" lon="19.96095204">
<ele>877</ele>
<time>2014-08-20T19:39:57Z</time>
</trkpt>
<trkpt lat="49.30137624" lon="19.96088058">
<ele>872</ele>
<time>2014-08-20T19:40:03Z</time>
</trkpt>
<trkpt lat="49.30148151" lon="19.96082128">
<ele>870</ele>
<time>2014-08-20T19:40:09Z</time>
</trkpt>
<trkpt lat="49.3015551" lon="19.96077179">
<ele>871</ele>
<time>2014-08-20T19:40:15Z</time>
</trkpt>
<trkpt lat="49.30165112" lon="19.96073268">
<ele>871</ele>
<time>2014-08-20T19:40:21Z</time>
</trkpt>
<trkpt lat="49.30173692" lon="19.96067737">
<ele>869</ele>
<time>2014-08-20T19:40:27Z</time>
</trkpt>
<trkpt lat="49.30186181" lon="19.96068901">
<ele>865</ele>
<time>2014-08-20T19:40:34Z</time>
</trkpt>
<trkpt lat="49.3019548" lon="19.96064371">
<ele>865</ele>
<time>2014-08-20T19:40:41Z</time>
</trkpt>
<trkpt lat="49.30204725" lon="19.96056205">
<ele>864</ele>
<time>2014-08-20T19:40:47Z</time>
</trkpt>
<trkpt lat="49.30211517" lon="19.96049855">
<ele>867</ele>
<time>2014-08-20T19:40:53Z</time>
</trkpt>
<trkpt lat="49.30220022" lon="19.96044092">
<ele>868</ele>
<time>2014-08-20T19:40:59Z</time>
</trkpt>
<trkpt lat="49.30227486" lon="19.9603928">
<ele>864</ele>
<time>2014-08-20T19:41:05Z</time>
</trkpt>
<trkpt lat="49.30234674" lon="19.96036322">
<ele>860</ele>
<time>2014-08-20T19:41:11Z</time>
</trkpt>
<trkpt lat="49.30242107" lon="19.96034754">
<ele>858</ele>
<time>2014-08-20T19:41:17Z</time>
</trkpt>
<trkpt lat="49.30246859" lon="19.96035106">
<ele>858</ele>
<time>2014-08-20T19:41:23Z</time>
</trkpt>
<trkpt lat="49.30253405" lon="19.96037143">
<ele>857</ele>
<time>2014-08-20T19:41:29Z</time>
</trkpt>
<trkpt lat="49.30253405" lon="19.96037143">
<ele>857</ele>
<time>2014-08-20T19:41:37Z</time>
</trkpt>
<trkpt lat="49.30270623" lon="19.96055066">
<ele>866</ele>
<time>2014-08-20T19:41:43Z</time>
</trkpt>
<trkpt lat="49.30279734" lon="19.9607047">
<ele>866</ele>
<time>2014-08-20T19:41:49Z</time>
</trkpt>
<trkpt lat="49.30285054" lon="19.9608058">
<ele>865</ele>
<time>2014-08-20T19:41:55Z</time>
</trkpt>
<trkpt lat="49.30288834" lon="19.96090166">
<ele>863</ele>
<time>2014-08-20T19:42:01Z</time>
</trkpt>
<trkpt lat="49.30291538" lon="19.96101176">
<ele>864</ele>
<time>2014-08-20T19:42:07Z</time>
</trkpt>
<trkpt lat="49.30291379" lon="19.96116043">
<ele>867</ele>
<time>2014-08-20T19:42:13Z</time>
</trkpt>
<trkpt lat="49.30293455" lon="19.96132497">
<ele>866</ele>
<time>2014-08-20T19:42:19Z</time>
</trkpt>
<trkpt lat="49.30296388" lon="19.96152559">
<ele>867</ele>
<time>2014-08-20T19:42:25Z</time>
</trkpt>
<trkpt lat="49.30302902" lon="19.96166762">
<ele>868</ele>
<time>2014-08-20T19:42:31Z</time>
</trkpt>
<trkpt lat="49.30312579" lon="19.96170121">
<ele>866</ele>
<time>2014-08-20T19:42:39Z</time>
</trkpt>
<trkpt lat="49.30318986" lon="19.96180524">
<ele>866</ele>
<time>2014-08-20T19:42:45Z</time>
</trkpt>
<trkpt lat="49.3032325" lon="19.96191606">
<ele>867</ele>
<time>2014-08-20T19:42:51Z</time>
</trkpt>
<trkpt lat="49.30329195" lon="19.96196813">
<ele>860</ele>
<time>2014-08-20T19:42:57Z</time>
</trkpt>
<trkpt lat="49.30334184" lon="19.96203508">
<ele>860</ele>
<time>2014-08-20T19:43:03Z</time>
</trkpt>
<trkpt lat="49.30338131" lon="19.96214207">
<ele>863</ele>
<time>2014-08-20T19:43:09Z</time>
</trkpt>
<trkpt lat="49.3034216" lon="19.96224359">
<ele>860</ele>
<time>2014-08-20T19:43:15Z</time>
</trkpt>
<trkpt lat="49.30344196" lon="19.96236242">
<ele>854</ele>
<time>2014-08-20T19:43:21Z</time>
</trkpt>
<trkpt lat="49.30348413" lon="19.96244264">
<ele>854</ele>
<time>2014-08-20T19:43:27Z</time>
</trkpt>
<trkpt lat="49.30348413" lon="19.96244264">
<ele>854</ele>
<time>2014-08-20T19:43:34Z</time>
</trkpt>
<trkpt lat="49.30356764" lon="19.96236585">
<ele>853</ele>
<time>2014-08-20T19:43:41Z</time>
</trkpt>
<trkpt lat="49.30363767" lon="19.96230276">
<ele>856</ele>
<time>2014-08-20T19:43:47Z</time>
</trkpt>
<trkpt lat="49.3037031" lon="19.96225368">
<ele>860</ele>
<time>2014-08-20T19:43:53Z</time>
</trkpt>
<trkpt lat="49.3037031" lon="19.96225368">
<ele>860</ele>
<time>2014-08-20T19:43:59Z</time>
</trkpt>
<trkpt lat="49.30375991" lon="19.96230217">
<ele>861</ele>
<time>2014-08-20T19:44:05Z</time>
</trkpt>
<trkpt lat="49.30375991" lon="19.96230217">
<ele>861</ele>
<time>2014-08-20T19:44:11Z</time>
</trkpt>
<trkpt lat="49.30375895" lon="19.96230385">
<ele>861</ele>
<time>2014-08-20T19:44:17Z</time>
</trkpt>
<trkpt lat="49.30375611" lon="19.96234068">
<ele>861</ele>
<time>2014-08-20T19:44:23Z</time>
</trkpt>
<trkpt lat="49.3037635" lon="19.96233983">
<ele>860</ele>
<time>2014-08-20T19:44:29Z</time>
</trkpt>
<trkpt lat="49.30376588" lon="19.96233365">
<ele>860</ele>
<time>2014-08-20T19:44:37Z</time>
</trkpt>
<trkpt lat="49.30376817" lon="19.96232996">
<ele>860</ele>
<time>2014-08-20T19:44:43Z</time>
</trkpt>
<trkpt lat="49.30376846" lon="19.96233066">
<ele>860</ele>
<time>2014-08-20T19:44:49Z</time>
</trkpt>
<trkpt lat="49.30376861" lon="19.96233132">
<ele>860</ele>
<time>2014-08-20T19:44:55Z</time>
</trkpt>
<trkpt lat="49.30376823" lon="19.96233088">
<ele>860</ele>
<time>2014-08-20T19:45:01Z</time>
</trkpt>
<trkpt lat="49.30376783" lon="19.96233028">
<ele>860</ele>
<time>2014-08-20T19:45:07Z</time>
</trkpt>
<trkpt lat="49.30376788" lon="19.96233023">
<ele>860</ele>
<time>2014-08-20T19:45:13Z</time>
</trkpt>
<trkpt lat="49.30376817" lon="19.96232988">
<ele>860</ele>
<time>2014-08-20T19:45:19Z</time>
</trkpt>
<trkpt lat="49.30376858" lon="19.96232967">
<ele>860</ele>
<time>2014-08-20T19:45:25Z</time>
</trkpt>
<trkpt lat="49.30376866" lon="19.96232994">
<ele>860</ele>
<time>2014-08-20T19:45:31Z</time>
</trkpt>
<trkpt lat="49.30376838" lon="19.96233085">
<ele>860</ele>
<time>2014-08-20T19:45:41Z</time>
</trkpt>
<trkpt lat="49.30376936" lon="19.96233144">
<ele>860</ele>
<time>2014-08-20T19:45:47Z</time>
</trkpt>
<trkpt lat="49.3037702" lon="19.96233077">
<ele>860</ele>
<time>2014-08-20T19:45:53Z</time>
</trkpt>
<trkpt lat="49.30377076" lon="19.9623306">
<ele>860</ele>
<time>2014-08-20T19:45:59Z</time>
</trkpt>
<trkpt lat="49.30377081" lon="19.96233075">
<ele>860</ele>
<time>2014-08-20T19:46:05Z</time>
</trkpt>
<trkpt lat="49.30377079" lon="19.96233042">
<ele>860</ele>
<time>2014-08-20T19:46:11Z</time>
</trkpt>
<trkpt lat="49.30377161" lon="19.96232819">
<ele>860</ele>
<time>2014-08-20T19:46:19Z</time>
</trkpt>
<trkpt lat="49.3037717" lon="19.96232817">
<ele>860</ele>
<time>2014-08-20T19:46:26Z</time>
</trkpt>
</trkseg>
</trk>
</gpx>